<?xml version="1.0" encoding="UTF-8" standalone="no" ?>
<gpx xmlns="http://www.topografix.com/GPX/1/1" xmlns:xsi="http://www.w3.org/2001/XMLSchema-instance" xsi:schemaLocation="http://www.topografix.com/GPX/1/1 http://www.topografix.com/GPX/1/1/gpx.xsd" version="1.1" creator="VisuGPX - https://www.visugpx.com">
  <metadata>
    <name>Les îles éoliennes 02</name>
    <desc><![CDATA[le retour des îles les volcans les dauphins
la balade à Palerme]]></desc>
  </metadata>
  <trk>
    <name><![CDATA[Tracé actuel: 19 AVR 2018 14:16]]></name>
    <trkseg>
      <trkpt lat="38.47772" lon="14.96366">
        <ele>40.51</ele>
        <time>2018-04-19T12:16:07Z</time>
      </trkpt>
      <trkpt lat="38.47772" lon="14.96366">
        <ele>37.15</ele>
        <time>2018-04-19T12:16:28Z</time>
      </trkpt>
      <trkpt lat="38.47783" lon="14.96353">
        <ele>8.31</ele>
        <time>2018-04-19T12:16:57Z</time>
      </trkpt>
      <trkpt lat="38.47775" lon="14.96361">
        <ele>8.31</ele>
        <time>2018-04-19T12:17:21Z</time>
      </trkpt>
      <trkpt lat="38.47769" lon="14.96365">
        <ele>8.31</ele>
        <time>2018-04-19T12:17:30Z</time>
      </trkpt>
      <trkpt lat="38.4775" lon="14.96361">
        <ele>7.35</ele>
        <time>2018-04-19T12:17:50Z</time>
      </trkpt>
      <trkpt lat="38.47735" lon="14.96318">
        <ele>5.91</ele>
        <time>2018-04-19T12:18:22Z</time>
      </trkpt>
      <trkpt lat="38.47731" lon="14.96308">
        <ele>6.39</ele>
        <time>2018-04-19T12:18:29Z</time>
      </trkpt>
      <trkpt lat="38.4772" lon="14.96286">
        <ele>6.39</ele>
        <time>2018-04-19T12:18:43Z</time>
      </trkpt>
      <trkpt lat="38.4771" lon="14.96263">
        <ele>6.39</ele>
        <time>2018-04-19T12:18:55Z</time>
      </trkpt>
      <trkpt lat="38.47688" lon="14.96237">
        <ele>5.91</ele>
        <time>2018-04-19T12:19:11Z</time>
      </trkpt>
      <trkpt lat="38.47657" lon="14.96223">
        <ele>5.42</ele>
        <time>2018-04-19T12:19:25Z</time>
      </trkpt>
      <trkpt lat="38.47629" lon="14.96216">
        <ele>5.91</ele>
        <time>2018-04-19T12:19:36Z</time>
      </trkpt>
      <trkpt lat="38.47607" lon="14.96208">
        <ele>3.98</ele>
        <time>2018-04-19T12:19:45Z</time>
      </trkpt>
      <trkpt lat="38.47596" lon="14.96204">
        <ele>3.5</ele>
        <time>2018-04-19T12:19:50Z</time>
      </trkpt>
      <trkpt lat="38.47563" lon="14.96197">
        <ele>3.5</ele>
        <time>2018-04-19T12:20:02Z</time>
      </trkpt>
      <trkpt lat="38.47527" lon="14.96186">
        <ele>3.02</ele>
        <time>2018-04-19T12:20:15Z</time>
      </trkpt>
      <trkpt lat="38.47477" lon="14.96178">
        <ele>1.58</ele>
        <time>2018-04-19T12:20:33Z</time>
      </trkpt>
      <trkpt lat="38.47453" lon="14.96174">
        <ele>1.58</ele>
        <time>2018-04-19T12:20:42Z</time>
      </trkpt>
      <trkpt lat="38.47425" lon="14.9617">
        <ele>3.02</ele>
        <time>2018-04-19T12:20:52Z</time>
      </trkpt>
      <trkpt lat="38.47386" lon="14.96162">
        <ele>3.98</ele>
        <time>2018-04-19T12:21:06Z</time>
      </trkpt>
      <trkpt lat="38.47333" lon="14.96149">
        <ele>4.46</ele>
        <time>2018-04-19T12:21:25Z</time>
      </trkpt>
      <trkpt lat="38.47283" lon="14.96134">
        <ele>3.98</ele>
        <time>2018-04-19T12:21:44Z</time>
      </trkpt>
      <trkpt lat="38.47256" lon="14.96124">
        <ele>3.5</ele>
        <time>2018-04-19T12:21:54Z</time>
      </trkpt>
      <trkpt lat="38.47213" lon="14.96109">
        <ele>3.5</ele>
        <time>2018-04-19T12:22:10Z</time>
      </trkpt>
      <trkpt lat="38.47179" lon="14.96101">
        <ele>1.1</ele>
        <time>2018-04-19T12:22:22Z</time>
      </trkpt>
      <trkpt lat="38.47128" lon="14.96092">
        <ele>3.5</ele>
        <time>2018-04-19T12:22:41Z</time>
      </trkpt>
      <trkpt lat="38.47104" lon="14.96086">
        <ele>3.02</ele>
        <time>2018-04-19T12:22:50Z</time>
      </trkpt>
      <trkpt lat="38.47067" lon="14.96079">
        <ele>3.5</ele>
        <time>2018-04-19T12:23:03Z</time>
      </trkpt>
      <trkpt lat="38.47016" lon="14.96067">
        <ele>3.98</ele>
        <time>2018-04-19T12:23:21Z</time>
      </trkpt>
      <trkpt lat="38.46982" lon="14.96061">
        <ele>4.46</ele>
        <time>2018-04-19T12:23:34Z</time>
      </trkpt>
      <trkpt lat="38.46899" lon="14.96054">
        <ele>5.91</ele>
        <time>2018-04-19T12:24:04Z</time>
      </trkpt>
      <trkpt lat="38.46819" lon="14.96054">
        <ele>5.91</ele>
        <time>2018-04-19T12:24:32Z</time>
      </trkpt>
      <trkpt lat="38.46744" lon="14.96057">
        <ele>5.91</ele>
        <time>2018-04-19T12:24:59Z</time>
      </trkpt>
      <trkpt lat="38.46665" lon="14.96061">
        <ele>4.46</ele>
        <time>2018-04-19T12:25:27Z</time>
      </trkpt>
      <trkpt lat="38.46589" lon="14.96074">
        <ele>5.42</ele>
        <time>2018-04-19T12:25:54Z</time>
      </trkpt>
      <trkpt lat="38.46524" lon="14.96089">
        <ele>5.91</ele>
        <time>2018-04-19T12:26:17Z</time>
      </trkpt>
      <trkpt lat="38.46463" lon="14.96094">
        <ele>4.46</ele>
        <time>2018-04-19T12:26:39Z</time>
      </trkpt>
      <trkpt lat="38.46416" lon="14.96106">
        <ele>6.39</ele>
        <time>2018-04-19T12:26:56Z</time>
      </trkpt>
      <trkpt lat="38.46373" lon="14.96121">
        <ele>8.31</ele>
        <time>2018-04-19T12:27:12Z</time>
      </trkpt>
      <trkpt lat="38.46335" lon="14.96137">
        <ele>8.31</ele>
        <time>2018-04-19T12:27:27Z</time>
      </trkpt>
      <trkpt lat="38.4631" lon="14.96148">
        <ele>7.35</ele>
        <time>2018-04-19T12:27:38Z</time>
      </trkpt>
      <trkpt lat="38.46283" lon="14.96159">
        <ele>6.39</ele>
        <time>2018-04-19T12:27:48Z</time>
      </trkpt>
      <trkpt lat="38.46254" lon="14.96177">
        <ele>5.91</ele>
        <time>2018-04-19T12:28:00Z</time>
      </trkpt>
      <trkpt lat="38.46212" lon="14.96192">
        <ele>6.87</ele>
        <time>2018-04-19T12:28:16Z</time>
      </trkpt>
      <trkpt lat="38.46168" lon="14.96208">
        <ele>6.87</ele>
        <time>2018-04-19T12:28:32Z</time>
      </trkpt>
      <trkpt lat="38.46129" lon="14.96224">
        <ele>8.31</ele>
        <time>2018-04-19T12:28:47Z</time>
      </trkpt>
      <trkpt lat="38.46076" lon="14.9624">
        <ele>8.31</ele>
        <time>2018-04-19T12:29:07Z</time>
      </trkpt>
      <trkpt lat="38.46046" lon="14.96253">
        <ele>6.87</ele>
        <time>2018-04-19T12:29:18Z</time>
      </trkpt>
      <trkpt lat="38.46013" lon="14.96268">
        <ele>5.91</ele>
        <time>2018-04-19T12:29:31Z</time>
      </trkpt>
      <trkpt lat="38.45981" lon="14.96277">
        <ele>3.98</ele>
        <time>2018-04-19T12:29:43Z</time>
      </trkpt>
      <trkpt lat="38.45945" lon="14.96283">
        <ele>4.46</ele>
        <time>2018-04-19T12:29:56Z</time>
      </trkpt>
      <trkpt lat="38.45896" lon="14.96289">
        <ele>6.87</ele>
        <time>2018-04-19T12:30:13Z</time>
      </trkpt>
      <trkpt lat="38.45866" lon="14.96293">
        <ele>6.39</ele>
        <time>2018-04-19T12:30:24Z</time>
      </trkpt>
      <trkpt lat="38.45834" lon="14.96299">
        <ele>6.87</ele>
        <time>2018-04-19T12:30:36Z</time>
      </trkpt>
      <trkpt lat="38.45771" lon="14.96315">
        <ele>7.35</ele>
        <time>2018-04-19T12:30:59Z</time>
      </trkpt>
      <trkpt lat="38.4573" lon="14.96327">
        <ele>6.87</ele>
        <time>2018-04-19T12:31:14Z</time>
      </trkpt>
      <trkpt lat="38.45681" lon="14.96343">
        <ele>7.83</ele>
        <time>2018-04-19T12:31:32Z</time>
      </trkpt>
      <trkpt lat="38.45654" lon="14.96357">
        <ele>8.31</ele>
        <time>2018-04-19T12:31:43Z</time>
      </trkpt>
      <trkpt lat="38.45627" lon="14.96373">
        <ele>7.83</ele>
        <time>2018-04-19T12:31:54Z</time>
      </trkpt>
      <trkpt lat="38.45592" lon="14.96398">
        <ele>7.35</ele>
        <time>2018-04-19T12:32:09Z</time>
      </trkpt>
      <trkpt lat="38.45548" lon="14.9642">
        <ele>7.35</ele>
        <time>2018-04-19T12:32:26Z</time>
      </trkpt>
      <trkpt lat="38.45495" lon="14.96438">
        <ele>6.87</ele>
        <time>2018-04-19T12:32:46Z</time>
      </trkpt>
      <trkpt lat="38.45445" lon="14.96454">
        <ele>7.35</ele>
        <time>2018-04-19T12:33:04Z</time>
      </trkpt>
      <trkpt lat="38.45381" lon="14.96472">
        <ele>6.39</ele>
        <time>2018-04-19T12:33:27Z</time>
      </trkpt>
      <trkpt lat="38.45337" lon="14.96474">
        <ele>6.39</ele>
        <time>2018-04-19T12:33:42Z</time>
      </trkpt>
      <trkpt lat="38.45277" lon="14.96474">
        <ele>5.91</ele>
        <time>2018-04-19T12:34:02Z</time>
      </trkpt>
      <trkpt lat="38.45224" lon="14.96471">
        <ele>6.87</ele>
        <time>2018-04-19T12:34:20Z</time>
      </trkpt>
      <trkpt lat="38.45171" lon="14.96474">
        <ele>7.35</ele>
        <time>2018-04-19T12:34:38Z</time>
      </trkpt>
      <trkpt lat="38.4511" lon="14.96471">
        <ele>7.35</ele>
        <time>2018-04-19T12:34:59Z</time>
      </trkpt>
      <trkpt lat="38.45061" lon="14.9646">
        <ele>7.83</ele>
        <time>2018-04-19T12:35:16Z</time>
      </trkpt>
      <trkpt lat="38.45003" lon="14.96445">
        <ele>7.35</ele>
        <time>2018-04-19T12:35:36Z</time>
      </trkpt>
      <trkpt lat="38.44952" lon="14.96433">
        <ele>6.39</ele>
        <time>2018-04-19T12:35:54Z</time>
      </trkpt>
      <trkpt lat="38.44897" lon="14.96419">
        <ele>5.91</ele>
        <time>2018-04-19T12:36:13Z</time>
      </trkpt>
      <trkpt lat="38.44853" lon="14.96408">
        <ele>5.91</ele>
        <time>2018-04-19T12:36:28Z</time>
      </trkpt>
      <trkpt lat="38.44788" lon="14.96396">
        <ele>5.42</ele>
        <time>2018-04-19T12:36:50Z</time>
      </trkpt>
      <trkpt lat="38.44757" lon="14.96392">
        <ele>5.42</ele>
        <time>2018-04-19T12:37:01Z</time>
      </trkpt>
      <trkpt lat="38.44689" lon="14.96374">
        <ele>4.94</ele>
        <time>2018-04-19T12:37:24Z</time>
      </trkpt>
      <trkpt lat="38.44644" lon="14.96357">
        <ele>4.46</ele>
        <time>2018-04-19T12:37:40Z</time>
      </trkpt>
      <trkpt lat="38.44594" lon="14.96332">
        <ele>5.42</ele>
        <time>2018-04-19T12:37:58Z</time>
      </trkpt>
      <trkpt lat="38.44538" lon="14.96306">
        <ele>6.39</ele>
        <time>2018-04-19T12:38:18Z</time>
      </trkpt>
      <trkpt lat="38.44483" lon="14.96281">
        <ele>5.91</ele>
        <time>2018-04-19T12:38:38Z</time>
      </trkpt>
      <trkpt lat="38.44431" lon="14.96254">
        <ele>5.91</ele>
        <time>2018-04-19T12:38:57Z</time>
      </trkpt>
      <trkpt lat="38.44379" lon="14.96218">
        <ele>6.39</ele>
        <time>2018-04-19T12:39:17Z</time>
      </trkpt>
      <trkpt lat="38.44337" lon="14.9619">
        <ele>5.42</ele>
        <time>2018-04-19T12:39:33Z</time>
      </trkpt>
      <trkpt lat="38.44284" lon="14.96147">
        <ele>4.94</ele>
        <time>2018-04-19T12:39:54Z</time>
      </trkpt>
      <trkpt lat="38.44235" lon="14.961">
        <ele>4.46</ele>
        <time>2018-04-19T12:40:15Z</time>
      </trkpt>
      <trkpt lat="38.44189" lon="14.96049">
        <ele>3.5</ele>
        <time>2018-04-19T12:40:36Z</time>
      </trkpt>
      <trkpt lat="38.44142" lon="14.95999">
        <ele>3.5</ele>
        <time>2018-04-19T12:40:57Z</time>
      </trkpt>
      <trkpt lat="38.44111" lon="14.95973">
        <ele>4.94</ele>
        <time>2018-04-19T12:41:10Z</time>
      </trkpt>
      <trkpt lat="38.44057" lon="14.95923">
        <ele>3.5</ele>
        <time>2018-04-19T12:41:33Z</time>
      </trkpt>
      <trkpt lat="38.44007" lon="14.95872">
        <ele>3.98</ele>
        <time>2018-04-19T12:41:55Z</time>
      </trkpt>
      <trkpt lat="38.4396" lon="14.95812">
        <ele>3.98</ele>
        <time>2018-04-19T12:42:18Z</time>
      </trkpt>
      <trkpt lat="38.43925" lon="14.95768">
        <ele>3.02</ele>
        <time>2018-04-19T12:42:35Z</time>
      </trkpt>
      <trkpt lat="38.4389" lon="14.95722">
        <ele>5.42</ele>
        <time>2018-04-19T12:42:53Z</time>
      </trkpt>
      <trkpt lat="38.43858" lon="14.95672">
        <ele>7.35</ele>
        <time>2018-04-19T12:43:11Z</time>
      </trkpt>
      <trkpt lat="38.43819" lon="14.9562">
        <ele>7.35</ele>
        <time>2018-04-19T12:43:32Z</time>
      </trkpt>
      <trkpt lat="38.43791" lon="14.95582">
        <ele>6.39</ele>
        <time>2018-04-19T12:43:47Z</time>
      </trkpt>
      <trkpt lat="38.43762" lon="14.95539">
        <ele>5.42</ele>
        <time>2018-04-19T12:44:04Z</time>
      </trkpt>
      <trkpt lat="38.43736" lon="14.95503">
        <ele>5.42</ele>
        <time>2018-04-19T12:44:19Z</time>
      </trkpt>
      <trkpt lat="38.43698" lon="14.95458">
        <ele>4.94</ele>
        <time>2018-04-19T12:44:39Z</time>
      </trkpt>
      <trkpt lat="38.43663" lon="14.95429">
        <ele>6.87</ele>
        <time>2018-04-19T12:44:55Z</time>
      </trkpt>
      <trkpt lat="38.43629" lon="14.95402">
        <ele>8.79</ele>
        <time>2018-04-19T12:45:10Z</time>
      </trkpt>
      <trkpt lat="38.43584" lon="14.95366">
        <ele>11.19</ele>
        <time>2018-04-19T12:45:30Z</time>
      </trkpt>
      <trkpt lat="38.4355" lon="14.95329">
        <ele>8.79</ele>
        <time>2018-04-19T12:45:47Z</time>
      </trkpt>
      <trkpt lat="38.43513" lon="14.95288">
        <ele>7.35</ele>
        <time>2018-04-19T12:46:05Z</time>
      </trkpt>
      <trkpt lat="38.43469" lon="14.95256">
        <ele>10.23</ele>
        <time>2018-04-19T12:46:24Z</time>
      </trkpt>
      <trkpt lat="38.43419" lon="14.95225">
        <ele>6.87</ele>
        <time>2018-04-19T12:46:45Z</time>
      </trkpt>
      <trkpt lat="38.43388" lon="14.952">
        <ele>4.94</ele>
        <time>2018-04-19T12:46:58Z</time>
      </trkpt>
      <trkpt lat="38.43359" lon="14.95177">
        <ele>3.5</ele>
        <time>2018-04-19T12:47:09Z</time>
      </trkpt>
      <trkpt lat="38.43324" lon="14.9515">
        <ele>3.02</ele>
        <time>2018-04-19T12:47:24Z</time>
      </trkpt>
      <trkpt lat="38.43295" lon="14.95128">
        <ele>2.54</ele>
        <time>2018-04-19T12:47:36Z</time>
      </trkpt>
      <trkpt lat="38.43262" lon="14.95103">
        <ele>3.02</ele>
        <time>2018-04-19T12:47:50Z</time>
      </trkpt>
      <trkpt lat="38.43235" lon="14.95085">
        <ele>2.06</ele>
        <time>2018-04-19T12:48:02Z</time>
      </trkpt>
      <trkpt lat="38.43213" lon="14.9507">
        <ele>3.02</ele>
        <time>2018-04-19T12:48:11Z</time>
      </trkpt>
      <trkpt lat="38.43189" lon="14.95054">
        <ele>3.02</ele>
        <time>2018-04-19T12:48:21Z</time>
      </trkpt>
      <trkpt lat="38.43159" lon="14.95032">
        <ele>-0.82</ele>
        <time>2018-04-19T12:48:32Z</time>
      </trkpt>
      <trkpt lat="38.43115" lon="14.95006">
        <ele>1.1</ele>
        <time>2018-04-19T12:48:49Z</time>
      </trkpt>
      <trkpt lat="38.4308" lon="14.94983">
        <ele>2.06</ele>
        <time>2018-04-19T12:49:03Z</time>
      </trkpt>
      <trkpt lat="38.43032" lon="14.9495">
        <ele>3.02</ele>
        <time>2018-04-19T12:49:23Z</time>
      </trkpt>
      <trkpt lat="38.42992" lon="14.94923">
        <ele>3.02</ele>
        <time>2018-04-19T12:49:39Z</time>
      </trkpt>
      <trkpt lat="38.4294" lon="14.9489">
        <ele>2.54</ele>
        <time>2018-04-19T12:49:59Z</time>
      </trkpt>
      <trkpt lat="38.42902" lon="14.94864">
        <ele>3.02</ele>
        <time>2018-04-19T12:50:14Z</time>
      </trkpt>
      <trkpt lat="38.42865" lon="14.94837">
        <ele>2.54</ele>
        <time>2018-04-19T12:50:30Z</time>
      </trkpt>
      <trkpt lat="38.42843" lon="14.94818">
        <ele>1.58</ele>
        <time>2018-04-19T12:50:40Z</time>
      </trkpt>
      <trkpt lat="38.42796" lon="14.9478">
        <ele>3.02</ele>
        <time>2018-04-19T12:50:59Z</time>
      </trkpt>
      <trkpt lat="38.42759" lon="14.94752">
        <ele>3.98</ele>
        <time>2018-04-19T12:51:14Z</time>
      </trkpt>
      <trkpt lat="38.42713" lon="14.94715">
        <ele>3.98</ele>
        <time>2018-04-19T12:51:33Z</time>
      </trkpt>
      <trkpt lat="38.42669" lon="14.9468">
        <ele>3.98</ele>
        <time>2018-04-19T12:51:51Z</time>
      </trkpt>
      <trkpt lat="38.42624" lon="14.94649">
        <ele>4.46</ele>
        <time>2018-04-19T12:52:09Z</time>
      </trkpt>
      <trkpt lat="38.42576" lon="14.94616">
        <ele>4.46</ele>
        <time>2018-04-19T12:52:28Z</time>
      </trkpt>
      <trkpt lat="38.4253" lon="14.9459">
        <ele>5.91</ele>
        <time>2018-04-19T12:52:46Z</time>
      </trkpt>
      <trkpt lat="38.42485" lon="14.94562">
        <ele>4.94</ele>
        <time>2018-04-19T12:53:04Z</time>
      </trkpt>
      <trkpt lat="38.42442" lon="14.94532">
        <ele>4.46</ele>
        <time>2018-04-19T12:53:21Z</time>
      </trkpt>
      <trkpt lat="38.42406" lon="14.94506">
        <ele>3.5</ele>
        <time>2018-04-19T12:53:36Z</time>
      </trkpt>
      <trkpt lat="38.42379" lon="14.94485">
        <ele>4.46</ele>
        <time>2018-04-19T12:53:47Z</time>
      </trkpt>
      <trkpt lat="38.42348" lon="14.9446">
        <ele>4.46</ele>
        <time>2018-04-19T12:54:00Z</time>
      </trkpt>
      <trkpt lat="38.42312" lon="14.94429">
        <ele>3.5</ele>
        <time>2018-04-19T12:54:15Z</time>
      </trkpt>
      <trkpt lat="38.42282" lon="14.94406">
        <ele>2.54</ele>
        <time>2018-04-19T12:54:27Z</time>
      </trkpt>
      <trkpt lat="38.42247" lon="14.9438">
        <ele>1.58</ele>
        <time>2018-04-19T12:54:41Z</time>
      </trkpt>
      <trkpt lat="38.42215" lon="14.94358">
        <ele>1.58</ele>
        <time>2018-04-19T12:54:53Z</time>
      </trkpt>
      <trkpt lat="38.42171" lon="14.9433">
        <ele>2.54</ele>
        <time>2018-04-19T12:55:10Z</time>
      </trkpt>
      <trkpt lat="38.4214" lon="14.94311">
        <ele>2.06</ele>
        <time>2018-04-19T12:55:22Z</time>
      </trkpt>
      <trkpt lat="38.42106" lon="14.94285">
        <ele>1.1</ele>
        <time>2018-04-19T12:55:35Z</time>
      </trkpt>
      <trkpt lat="38.42079" lon="14.94265">
        <ele>0.62</ele>
        <time>2018-04-19T12:55:46Z</time>
      </trkpt>
      <trkpt lat="38.42049" lon="14.94241">
        <ele>-0.34</ele>
        <time>2018-04-19T12:55:59Z</time>
      </trkpt>
      <trkpt lat="38.42021" lon="14.94221">
        <ele>0.14</ele>
        <time>2018-04-19T12:56:10Z</time>
      </trkpt>
      <trkpt lat="38.41975" lon="14.94177">
        <ele>2.06</ele>
        <time>2018-04-19T12:56:30Z</time>
      </trkpt>
      <trkpt lat="38.41933" lon="14.94132">
        <ele>2.54</ele>
        <time>2018-04-19T12:56:49Z</time>
      </trkpt>
      <trkpt lat="38.41897" lon="14.94104">
        <ele>2.54</ele>
        <time>2018-04-19T12:57:04Z</time>
      </trkpt>
      <trkpt lat="38.41851" lon="14.94073">
        <ele>2.06</ele>
        <time>2018-04-19T12:57:22Z</time>
      </trkpt>
      <trkpt lat="38.4181" lon="14.94045">
        <ele>2.06</ele>
        <time>2018-04-19T12:57:38Z</time>
      </trkpt>
      <trkpt lat="38.41776" lon="14.94022">
        <ele>2.54</ele>
        <time>2018-04-19T12:57:52Z</time>
      </trkpt>
      <trkpt lat="38.41755" lon="14.94007">
        <ele>3.02</ele>
        <time>2018-04-19T12:58:01Z</time>
      </trkpt>
      <trkpt lat="38.41721" lon="14.93988">
        <ele>1.58</ele>
        <time>2018-04-19T12:58:14Z</time>
      </trkpt>
      <trkpt lat="38.41678" lon="14.93963">
        <ele>-0.34</ele>
        <time>2018-04-19T12:58:31Z</time>
      </trkpt>
      <trkpt lat="38.41646" lon="14.93949">
        <ele>0.62</ele>
        <time>2018-04-19T12:58:43Z</time>
      </trkpt>
      <trkpt lat="38.41611" lon="14.93934">
        <ele>1.1</ele>
        <time>2018-04-19T12:58:57Z</time>
      </trkpt>
      <trkpt lat="38.41566" lon="14.93909">
        <ele>1.58</ele>
        <time>2018-04-19T12:59:15Z</time>
      </trkpt>
      <trkpt lat="38.41518" lon="14.9388">
        <ele>1.58</ele>
        <time>2018-04-19T12:59:35Z</time>
      </trkpt>
      <trkpt lat="38.41479" lon="14.93863">
        <ele>1.58</ele>
        <time>2018-04-19T12:59:50Z</time>
      </trkpt>
      <trkpt lat="38.41438" lon="14.93845">
        <ele>2.06</ele>
        <time>2018-04-19T13:00:06Z</time>
      </trkpt>
      <trkpt lat="38.41402" lon="14.93824">
        <ele>1.1</ele>
        <time>2018-04-19T13:00:20Z</time>
      </trkpt>
      <trkpt lat="38.41376" lon="14.93802">
        <ele>0.14</ele>
        <time>2018-04-19T13:00:31Z</time>
      </trkpt>
      <trkpt lat="38.4134" lon="14.93773">
        <ele>0.14</ele>
        <time>2018-04-19T13:00:47Z</time>
      </trkpt>
      <trkpt lat="38.41311" lon="14.93748">
        <ele>-0.34</ele>
        <time>2018-04-19T13:01:00Z</time>
      </trkpt>
      <trkpt lat="38.41288" lon="14.9373">
        <ele>-2.27</ele>
        <time>2018-04-19T13:01:10Z</time>
      </trkpt>
      <trkpt lat="38.4126" lon="14.93708">
        <ele>-0.82</ele>
        <time>2018-04-19T13:01:22Z</time>
      </trkpt>
      <trkpt lat="38.41236" lon="14.93685">
        <ele>-0.82</ele>
        <time>2018-04-19T13:01:33Z</time>
      </trkpt>
      <trkpt lat="38.41205" lon="14.93652">
        <ele>-3.71</ele>
        <time>2018-04-19T13:01:48Z</time>
      </trkpt>
      <trkpt lat="38.41177" lon="14.93631">
        <ele>-3.23</ele>
        <time>2018-04-19T13:02:01Z</time>
      </trkpt>
      <trkpt lat="38.41152" lon="14.93609">
        <ele>-0.34</ele>
        <time>2018-04-19T13:02:13Z</time>
      </trkpt>
      <trkpt lat="38.41129" lon="14.93594">
        <ele>-1.3</ele>
        <time>2018-04-19T13:02:23Z</time>
      </trkpt>
      <trkpt lat="38.41079" lon="14.93559">
        <ele>-0.34</ele>
        <time>2018-04-19T13:02:45Z</time>
      </trkpt>
      <trkpt lat="38.41039" lon="14.93517">
        <ele>0.62</ele>
        <time>2018-04-19T13:03:05Z</time>
      </trkpt>
      <trkpt lat="38.40989" lon="14.9348">
        <ele>2.54</ele>
        <time>2018-04-19T13:03:28Z</time>
      </trkpt>
      <trkpt lat="38.40947" lon="14.9345">
        <ele>3.02</ele>
        <time>2018-04-19T13:03:47Z</time>
      </trkpt>
      <trkpt lat="38.40897" lon="14.93416">
        <ele>3.98</ele>
        <time>2018-04-19T13:04:09Z</time>
      </trkpt>
      <trkpt lat="38.40852" lon="14.93391">
        <ele>2.54</ele>
        <time>2018-04-19T13:04:28Z</time>
      </trkpt>
      <trkpt lat="38.40806" lon="14.93361">
        <ele>3.02</ele>
        <time>2018-04-19T13:04:48Z</time>
      </trkpt>
      <trkpt lat="38.40755" lon="14.93333">
        <ele>2.54</ele>
        <time>2018-04-19T13:05:10Z</time>
      </trkpt>
      <trkpt lat="38.40695" lon="14.93303">
        <ele>3.02</ele>
        <time>2018-04-19T13:05:35Z</time>
      </trkpt>
      <trkpt lat="38.40649" lon="14.93282">
        <ele>2.06</ele>
        <time>2018-04-19T13:05:54Z</time>
      </trkpt>
      <trkpt lat="38.40598" lon="14.93264">
        <ele>2.54</ele>
        <time>2018-04-19T13:06:14Z</time>
      </trkpt>
      <trkpt lat="38.40538" lon="14.93246">
        <ele>1.58</ele>
        <time>2018-04-19T13:06:38Z</time>
      </trkpt>
      <trkpt lat="38.40482" lon="14.9323">
        <ele>1.58</ele>
        <time>2018-04-19T13:07:00Z</time>
      </trkpt>
      <trkpt lat="38.40424" lon="14.93211">
        <ele>1.58</ele>
        <time>2018-04-19T13:07:23Z</time>
      </trkpt>
      <trkpt lat="38.40369" lon="14.93194">
        <ele>1.58</ele>
        <time>2018-04-19T13:07:45Z</time>
      </trkpt>
      <trkpt lat="38.40306" lon="14.93173">
        <ele>1.1</ele>
        <time>2018-04-19T13:08:10Z</time>
      </trkpt>
      <trkpt lat="38.40256" lon="14.93157">
        <ele>0.62</ele>
        <time>2018-04-19T13:08:30Z</time>
      </trkpt>
      <trkpt lat="38.40203" lon="14.93139">
        <ele>0.62</ele>
        <time>2018-04-19T13:08:51Z</time>
      </trkpt>
      <trkpt lat="38.40148" lon="14.9312">
        <ele>0.14</ele>
        <time>2018-04-19T13:09:13Z</time>
      </trkpt>
      <trkpt lat="38.40095" lon="14.93101">
        <ele>0.62</ele>
        <time>2018-04-19T13:09:34Z</time>
      </trkpt>
      <trkpt lat="38.40041" lon="14.93082">
        <ele>1.1</ele>
        <time>2018-04-19T13:09:55Z</time>
      </trkpt>
      <trkpt lat="38.39988" lon="14.93064">
        <ele>0.62</ele>
        <time>2018-04-19T13:10:16Z</time>
      </trkpt>
      <trkpt lat="38.39944" lon="14.93048">
        <ele>0.62</ele>
        <time>2018-04-19T13:10:33Z</time>
      </trkpt>
      <trkpt lat="38.39891" lon="14.9302">
        <ele>1.1</ele>
        <time>2018-04-19T13:10:55Z</time>
      </trkpt>
      <trkpt lat="38.39829" lon="14.92983">
        <ele>-0.34</ele>
        <time>2018-04-19T13:11:20Z</time>
      </trkpt>
      <trkpt lat="38.39772" lon="14.9295">
        <ele>-0.34</ele>
        <time>2018-04-19T13:11:43Z</time>
      </trkpt>
      <trkpt lat="38.39702" lon="14.9291">
        <ele>-0.82</ele>
        <time>2018-04-19T13:12:11Z</time>
      </trkpt>
      <trkpt lat="38.39655" lon="14.92883">
        <ele>-1.79</ele>
        <time>2018-04-19T13:12:30Z</time>
      </trkpt>
      <trkpt lat="38.39601" lon="14.92851">
        <ele>0.14</ele>
        <time>2018-04-19T13:12:52Z</time>
      </trkpt>
      <trkpt lat="38.39537" lon="14.92815">
        <ele>-1.3</ele>
        <time>2018-04-19T13:13:18Z</time>
      </trkpt>
      <trkpt lat="38.39483" lon="14.92783">
        <ele>-1.79</ele>
        <time>2018-04-19T13:13:40Z</time>
      </trkpt>
      <trkpt lat="38.39432" lon="14.92753">
        <ele>-1.79</ele>
        <time>2018-04-19T13:14:01Z</time>
      </trkpt>
      <trkpt lat="38.39373" lon="14.92719">
        <ele>-2.27</ele>
        <time>2018-04-19T13:14:25Z</time>
      </trkpt>
      <trkpt lat="38.39317" lon="14.92686">
        <ele>-2.27</ele>
        <time>2018-04-19T13:14:48Z</time>
      </trkpt>
      <trkpt lat="38.3926" lon="14.92653">
        <ele>-2.75</ele>
        <time>2018-04-19T13:15:11Z</time>
      </trkpt>
      <trkpt lat="38.39207" lon="14.9262">
        <ele>-2.75</ele>
        <time>2018-04-19T13:15:33Z</time>
      </trkpt>
      <trkpt lat="38.39153" lon="14.92588">
        <ele>-2.75</ele>
        <time>2018-04-19T13:15:55Z</time>
      </trkpt>
      <trkpt lat="38.39099" lon="14.92556">
        <ele>-2.75</ele>
        <time>2018-04-19T13:16:17Z</time>
      </trkpt>
      <trkpt lat="38.39042" lon="14.92522">
        <ele>-2.27</ele>
        <time>2018-04-19T13:16:40Z</time>
      </trkpt>
      <trkpt lat="38.38985" lon="14.92489">
        <ele>-2.27</ele>
        <time>2018-04-19T13:17:03Z</time>
      </trkpt>
      <trkpt lat="38.38934" lon="14.92458">
        <ele>-2.27</ele>
        <time>2018-04-19T13:17:24Z</time>
      </trkpt>
      <trkpt lat="38.38864" lon="14.92415">
        <ele>-2.75</ele>
        <time>2018-04-19T13:17:53Z</time>
      </trkpt>
      <trkpt lat="38.38801" lon="14.92376">
        <ele>-2.27</ele>
        <time>2018-04-19T13:18:19Z</time>
      </trkpt>
      <trkpt lat="38.38744" lon="14.92342">
        <ele>-2.75</ele>
        <time>2018-04-19T13:18:42Z</time>
      </trkpt>
      <trkpt lat="38.38683" lon="14.92305">
        <ele>-2.75</ele>
        <time>2018-04-19T13:19:07Z</time>
      </trkpt>
      <trkpt lat="38.38625" lon="14.9227">
        <ele>-2.27</ele>
        <time>2018-04-19T13:19:31Z</time>
      </trkpt>
      <trkpt lat="38.38572" lon="14.92238">
        <ele>-2.27</ele>
        <time>2018-04-19T13:19:53Z</time>
      </trkpt>
      <trkpt lat="38.38511" lon="14.92203">
        <ele>-2.27</ele>
        <time>2018-04-19T13:20:18Z</time>
      </trkpt>
      <trkpt lat="38.38445" lon="14.92165">
        <ele>-4.19</ele>
        <time>2018-04-19T13:20:46Z</time>
      </trkpt>
      <trkpt lat="38.38385" lon="14.9213">
        <ele>-4.19</ele>
        <time>2018-04-19T13:21:11Z</time>
      </trkpt>
      <trkpt lat="38.38336" lon="14.921">
        <ele>-3.71</ele>
        <time>2018-04-19T13:21:32Z</time>
      </trkpt>
      <trkpt lat="38.38269" lon="14.92062">
        <ele>-3.23</ele>
        <time>2018-04-19T13:22:00Z</time>
      </trkpt>
      <trkpt lat="38.38216" lon="14.92031">
        <ele>-2.75</ele>
        <time>2018-04-19T13:22:22Z</time>
      </trkpt>
      <trkpt lat="38.38164" lon="14.91999">
        <ele>-1.79</ele>
        <time>2018-04-19T13:22:44Z</time>
      </trkpt>
      <trkpt lat="38.3812" lon="14.91974">
        <ele>-1.79</ele>
        <time>2018-04-19T13:23:02Z</time>
      </trkpt>
      <trkpt lat="38.38072" lon="14.91945">
        <ele>-0.82</ele>
        <time>2018-04-19T13:23:22Z</time>
      </trkpt>
      <trkpt lat="38.38012" lon="14.91911">
        <ele>0.14</ele>
        <time>2018-04-19T13:23:47Z</time>
      </trkpt>
      <trkpt lat="38.37962" lon="14.91883">
        <ele>0.62</ele>
        <time>2018-04-19T13:24:07Z</time>
      </trkpt>
      <trkpt lat="38.37896" lon="14.91845">
        <ele>1.1</ele>
        <time>2018-04-19T13:24:34Z</time>
      </trkpt>
      <trkpt lat="38.37835" lon="14.91811">
        <ele>0.62</ele>
        <time>2018-04-19T13:24:58Z</time>
      </trkpt>
      <trkpt lat="38.37778" lon="14.91779">
        <ele>-0.34</ele>
        <time>2018-04-19T13:25:21Z</time>
      </trkpt>
      <trkpt lat="38.37722" lon="14.91746">
        <ele>0.62</ele>
        <time>2018-04-19T13:25:44Z</time>
      </trkpt>
      <trkpt lat="38.37664" lon="14.91715">
        <ele>0.62</ele>
        <time>2018-04-19T13:26:07Z</time>
      </trkpt>
      <trkpt lat="38.37614" lon="14.91688">
        <ele>-0.82</ele>
        <time>2018-04-19T13:26:27Z</time>
      </trkpt>
      <trkpt lat="38.37556" lon="14.91657">
        <ele>-0.82</ele>
        <time>2018-04-19T13:26:51Z</time>
      </trkpt>
      <trkpt lat="38.37499" lon="14.91625">
        <ele>-1.3</ele>
        <time>2018-04-19T13:27:14Z</time>
      </trkpt>
      <trkpt lat="38.37437" lon="14.91593">
        <ele>-1.3</ele>
        <time>2018-04-19T13:27:39Z</time>
      </trkpt>
      <trkpt lat="38.37375" lon="14.91562">
        <ele>-2.27</ele>
        <time>2018-04-19T13:28:04Z</time>
      </trkpt>
      <trkpt lat="38.37312" lon="14.9153">
        <ele>-2.27</ele>
        <time>2018-04-19T13:28:29Z</time>
      </trkpt>
      <trkpt lat="38.37252" lon="14.915">
        <ele>-2.75</ele>
        <time>2018-04-19T13:28:53Z</time>
      </trkpt>
      <trkpt lat="38.37189" lon="14.91468">
        <ele>-3.71</ele>
        <time>2018-04-19T13:29:18Z</time>
      </trkpt>
      <trkpt lat="38.37138" lon="14.91444">
        <ele>-5.15</ele>
        <time>2018-04-19T13:29:38Z</time>
      </trkpt>
      <trkpt lat="38.37068" lon="14.91411">
        <ele>-5.63</ele>
        <time>2018-04-19T13:30:06Z</time>
      </trkpt>
      <trkpt lat="38.37001" lon="14.91381">
        <ele>-5.63</ele>
        <time>2018-04-19T13:30:32Z</time>
      </trkpt>
      <trkpt lat="38.36939" lon="14.91354">
        <ele>-5.15</ele>
        <time>2018-04-19T13:30:56Z</time>
      </trkpt>
      <trkpt lat="38.36872" lon="14.91324">
        <ele>-4.19</ele>
        <time>2018-04-19T13:31:22Z</time>
      </trkpt>
      <trkpt lat="38.36809" lon="14.91296">
        <ele>-3.71</ele>
        <time>2018-04-19T13:31:46Z</time>
      </trkpt>
      <trkpt lat="38.36741" lon="14.91269">
        <ele>-3.71</ele>
        <time>2018-04-19T13:32:12Z</time>
      </trkpt>
      <trkpt lat="38.36678" lon="14.91242">
        <ele>-3.23</ele>
        <time>2018-04-19T13:32:36Z</time>
      </trkpt>
      <trkpt lat="38.36606" lon="14.91214">
        <ele>-2.75</ele>
        <time>2018-04-19T13:33:03Z</time>
      </trkpt>
      <trkpt lat="38.36536" lon="14.91185">
        <ele>-1.3</ele>
        <time>2018-04-19T13:33:30Z</time>
      </trkpt>
      <trkpt lat="38.36465" lon="14.91157">
        <ele>-0.34</ele>
        <time>2018-04-19T13:33:57Z</time>
      </trkpt>
      <trkpt lat="38.36409" lon="14.91135">
        <ele>0.14</ele>
        <time>2018-04-19T13:34:18Z</time>
      </trkpt>
      <trkpt lat="38.36354" lon="14.91113">
        <ele>-0.82</ele>
        <time>2018-04-19T13:34:39Z</time>
      </trkpt>
      <trkpt lat="38.36294" lon="14.91088">
        <ele>-1.79</ele>
        <time>2018-04-19T13:35:02Z</time>
      </trkpt>
      <trkpt lat="38.36234" lon="14.91063">
        <ele>-2.75</ele>
        <time>2018-04-19T13:35:25Z</time>
      </trkpt>
      <trkpt lat="38.36176" lon="14.91038">
        <ele>-2.27</ele>
        <time>2018-04-19T13:35:48Z</time>
      </trkpt>
      <trkpt lat="38.36113" lon="14.91013">
        <ele>-2.27</ele>
        <time>2018-04-19T13:36:12Z</time>
      </trkpt>
      <trkpt lat="38.36043" lon="14.90985">
        <ele>-2.75</ele>
        <time>2018-04-19T13:36:39Z</time>
      </trkpt>
      <trkpt lat="38.35978" lon="14.9096">
        <ele>-3.23</ele>
        <time>2018-04-19T13:37:04Z</time>
      </trkpt>
      <trkpt lat="38.35898" lon="14.90929">
        <ele>-2.75</ele>
        <time>2018-04-19T13:37:35Z</time>
      </trkpt>
      <trkpt lat="38.35836" lon="14.90903">
        <ele>-2.75</ele>
        <time>2018-04-19T13:37:59Z</time>
      </trkpt>
      <trkpt lat="38.35774" lon="14.90878">
        <ele>-3.71</ele>
        <time>2018-04-19T13:38:23Z</time>
      </trkpt>
      <trkpt lat="38.35712" lon="14.90854">
        <ele>-3.71</ele>
        <time>2018-04-19T13:38:47Z</time>
      </trkpt>
      <trkpt lat="38.35655" lon="14.90833">
        <ele>-2.75</ele>
        <time>2018-04-19T13:39:09Z</time>
      </trkpt>
      <trkpt lat="38.35579" lon="14.90805">
        <ele>-3.23</ele>
        <time>2018-04-19T13:39:38Z</time>
      </trkpt>
      <trkpt lat="38.3551" lon="14.90775">
        <ele>-2.75</ele>
        <time>2018-04-19T13:40:05Z</time>
      </trkpt>
      <trkpt lat="38.35448" lon="14.90743">
        <ele>-1.79</ele>
        <time>2018-04-19T13:40:30Z</time>
      </trkpt>
      <trkpt lat="38.35387" lon="14.90713">
        <ele>-1.3</ele>
        <time>2018-04-19T13:40:54Z</time>
      </trkpt>
      <trkpt lat="38.35334" lon="14.90687">
        <ele>-1.79</ele>
        <time>2018-04-19T13:41:15Z</time>
      </trkpt>
      <trkpt lat="38.35274" lon="14.90657">
        <ele>-1.3</ele>
        <time>2018-04-19T13:41:39Z</time>
      </trkpt>
      <trkpt lat="38.35206" lon="14.90623">
        <ele>-0.82</ele>
        <time>2018-04-19T13:42:06Z</time>
      </trkpt>
      <trkpt lat="38.35142" lon="14.90589">
        <ele>-1.3</ele>
        <time>2018-04-19T13:42:32Z</time>
      </trkpt>
      <trkpt lat="38.35077" lon="14.90557">
        <ele>-0.34</ele>
        <time>2018-04-19T13:42:58Z</time>
      </trkpt>
      <trkpt lat="38.35009" lon="14.90523">
        <ele>-0.34</ele>
        <time>2018-04-19T13:43:25Z</time>
      </trkpt>
      <trkpt lat="38.3494" lon="14.90487">
        <ele>-1.3</ele>
        <time>2018-04-19T13:43:53Z</time>
      </trkpt>
      <trkpt lat="38.34888" lon="14.90461">
        <ele>-1.3</ele>
        <time>2018-04-19T13:44:14Z</time>
      </trkpt>
      <trkpt lat="38.3483" lon="14.90432">
        <ele>-1.79</ele>
        <time>2018-04-19T13:44:37Z</time>
      </trkpt>
      <trkpt lat="38.34762" lon="14.90399">
        <ele>-0.82</ele>
        <time>2018-04-19T13:45:04Z</time>
      </trkpt>
      <trkpt lat="38.34692" lon="14.90364">
        <ele>-0.82</ele>
        <time>2018-04-19T13:45:32Z</time>
      </trkpt>
      <trkpt lat="38.34635" lon="14.90335">
        <ele>-0.82</ele>
        <time>2018-04-19T13:45:55Z</time>
      </trkpt>
      <trkpt lat="38.34566" lon="14.90299">
        <ele>-0.82</ele>
        <time>2018-04-19T13:46:23Z</time>
      </trkpt>
      <trkpt lat="38.34502" lon="14.90267">
        <ele>-0.34</ele>
        <time>2018-04-19T13:46:49Z</time>
      </trkpt>
      <trkpt lat="38.34435" lon="14.90233">
        <ele>0.62</ele>
        <time>2018-04-19T13:47:16Z</time>
      </trkpt>
      <trkpt lat="38.34372" lon="14.90202">
        <ele>0.14</ele>
        <time>2018-04-19T13:47:41Z</time>
      </trkpt>
      <trkpt lat="38.34307" lon="14.90171">
        <ele>-0.82</ele>
        <time>2018-04-19T13:48:07Z</time>
      </trkpt>
      <trkpt lat="38.34247" lon="14.90141">
        <ele>-0.82</ele>
        <time>2018-04-19T13:48:31Z</time>
      </trkpt>
      <trkpt lat="38.34185" lon="14.9011">
        <ele>-1.3</ele>
        <time>2018-04-19T13:48:56Z</time>
      </trkpt>
      <trkpt lat="38.34115" lon="14.90075">
        <ele>-1.3</ele>
        <time>2018-04-19T13:49:24Z</time>
      </trkpt>
      <trkpt lat="38.34041" lon="14.90036">
        <ele>-1.3</ele>
        <time>2018-04-19T13:49:54Z</time>
      </trkpt>
      <trkpt lat="38.33986" lon="14.90009">
        <ele>-1.79</ele>
        <time>2018-04-19T13:50:16Z</time>
      </trkpt>
      <trkpt lat="38.33929" lon="14.89981">
        <ele>-1.79</ele>
        <time>2018-04-19T13:50:39Z</time>
      </trkpt>
      <trkpt lat="38.3386" lon="14.89946">
        <ele>-1.3</ele>
        <time>2018-04-19T13:51:07Z</time>
      </trkpt>
      <trkpt lat="38.33795" lon="14.89914">
        <ele>-0.82</ele>
        <time>2018-04-19T13:51:33Z</time>
      </trkpt>
      <trkpt lat="38.33716" lon="14.89874">
        <ele>-0.82</ele>
        <time>2018-04-19T13:52:05Z</time>
      </trkpt>
      <trkpt lat="38.33652" lon="14.89843">
        <ele>-0.82</ele>
        <time>2018-04-19T13:52:31Z</time>
      </trkpt>
      <trkpt lat="38.33578" lon="14.89805">
        <ele>-2.27</ele>
        <time>2018-04-19T13:53:01Z</time>
      </trkpt>
      <trkpt lat="38.33505" lon="14.89769">
        <ele>-2.75</ele>
        <time>2018-04-19T13:53:30Z</time>
      </trkpt>
      <trkpt lat="38.33455" lon="14.89744">
        <ele>-1.3</ele>
        <time>2018-04-19T13:53:50Z</time>
      </trkpt>
      <trkpt lat="38.33387" lon="14.8971">
        <ele>-1.3</ele>
        <time>2018-04-19T13:54:17Z</time>
      </trkpt>
      <trkpt lat="38.33322" lon="14.89678">
        <ele>-1.3</ele>
        <time>2018-04-19T13:54:43Z</time>
      </trkpt>
      <trkpt lat="38.33264" lon="14.89649">
        <ele>-0.82</ele>
        <time>2018-04-19T13:55:06Z</time>
      </trkpt>
      <trkpt lat="38.33197" lon="14.89616">
        <ele>-0.82</ele>
        <time>2018-04-19T13:55:33Z</time>
      </trkpt>
      <trkpt lat="38.33136" lon="14.89586">
        <ele>-0.34</ele>
        <time>2018-04-19T13:55:57Z</time>
      </trkpt>
      <trkpt lat="38.33074" lon="14.89555">
        <ele>0.14</ele>
        <time>2018-04-19T13:56:22Z</time>
      </trkpt>
      <trkpt lat="38.33009" lon="14.89523">
        <ele>0.14</ele>
        <time>2018-04-19T13:56:48Z</time>
      </trkpt>
      <trkpt lat="38.32941" lon="14.89489">
        <ele>-0.82</ele>
        <time>2018-04-19T13:57:15Z</time>
      </trkpt>
      <trkpt lat="38.32886" lon="14.89461">
        <ele>0.14</ele>
        <time>2018-04-19T13:57:37Z</time>
      </trkpt>
      <trkpt lat="38.32831" lon="14.89434">
        <ele>0.14</ele>
        <time>2018-04-19T13:57:59Z</time>
      </trkpt>
      <trkpt lat="38.3276" lon="14.89397">
        <ele>0.62</ele>
        <time>2018-04-19T13:58:27Z</time>
      </trkpt>
      <trkpt lat="38.32708" lon="14.8937">
        <ele>0.62</ele>
        <time>2018-04-19T13:58:48Z</time>
      </trkpt>
      <trkpt lat="38.32646" lon="14.89337">
        <ele>0.62</ele>
        <time>2018-04-19T13:59:13Z</time>
      </trkpt>
      <trkpt lat="38.32584" lon="14.89304">
        <ele>0.62</ele>
        <time>2018-04-19T13:59:38Z</time>
      </trkpt>
      <trkpt lat="38.32534" lon="14.89278">
        <ele>0.62</ele>
        <time>2018-04-19T13:59:58Z</time>
      </trkpt>
      <trkpt lat="38.32472" lon="14.89247">
        <ele>0.62</ele>
        <time>2018-04-19T14:00:23Z</time>
      </trkpt>
      <trkpt lat="38.32407" lon="14.89213">
        <ele>1.1</ele>
        <time>2018-04-19T14:00:49Z</time>
      </trkpt>
      <trkpt lat="38.32337" lon="14.89176">
        <ele>-0.34</ele>
        <time>2018-04-19T14:01:17Z</time>
      </trkpt>
      <trkpt lat="38.32279" lon="14.89146">
        <ele>-0.34</ele>
        <time>2018-04-19T14:01:40Z</time>
      </trkpt>
      <trkpt lat="38.32213" lon="14.89113">
        <ele>0.14</ele>
        <time>2018-04-19T14:02:06Z</time>
      </trkpt>
      <trkpt lat="38.32161" lon="14.89085">
        <ele>-0.34</ele>
        <time>2018-04-19T14:02:27Z</time>
      </trkpt>
      <trkpt lat="38.321" lon="14.89054">
        <ele>0.14</ele>
        <time>2018-04-19T14:02:51Z</time>
      </trkpt>
      <trkpt lat="38.32033" lon="14.89018">
        <ele>-0.34</ele>
        <time>2018-04-19T14:03:18Z</time>
      </trkpt>
      <trkpt lat="38.31981" lon="14.8899">
        <ele>-0.34</ele>
        <time>2018-04-19T14:03:39Z</time>
      </trkpt>
      <trkpt lat="38.31911" lon="14.88953">
        <ele>-0.34</ele>
        <time>2018-04-19T14:04:07Z</time>
      </trkpt>
      <trkpt lat="38.31841" lon="14.88917">
        <ele>-0.82</ele>
        <time>2018-04-19T14:04:35Z</time>
      </trkpt>
      <trkpt lat="38.31783" lon="14.88886">
        <ele>-0.82</ele>
        <time>2018-04-19T14:04:58Z</time>
      </trkpt>
      <trkpt lat="38.31726" lon="14.88855">
        <ele>-1.3</ele>
        <time>2018-04-19T14:05:21Z</time>
      </trkpt>
      <trkpt lat="38.31665" lon="14.88823">
        <ele>-1.79</ele>
        <time>2018-04-19T14:05:45Z</time>
      </trkpt>
      <trkpt lat="38.31603" lon="14.88789">
        <ele>-1.79</ele>
        <time>2018-04-19T14:06:10Z</time>
      </trkpt>
      <trkpt lat="38.3154" lon="14.88756">
        <ele>-1.79</ele>
        <time>2018-04-19T14:06:35Z</time>
      </trkpt>
      <trkpt lat="38.31483" lon="14.88724">
        <ele>-2.27</ele>
        <time>2018-04-19T14:06:58Z</time>
      </trkpt>
      <trkpt lat="38.31425" lon="14.88694">
        <ele>-2.27</ele>
        <time>2018-04-19T14:07:21Z</time>
      </trkpt>
      <trkpt lat="38.31355" lon="14.88655">
        <ele>-1.3</ele>
        <time>2018-04-19T14:07:49Z</time>
      </trkpt>
      <trkpt lat="38.31299" lon="14.88626">
        <ele>-0.82</ele>
        <time>2018-04-19T14:08:11Z</time>
      </trkpt>
      <trkpt lat="38.3124" lon="14.88595">
        <ele>0.14</ele>
        <time>2018-04-19T14:08:34Z</time>
      </trkpt>
      <trkpt lat="38.3117" lon="14.88557">
        <ele>1.1</ele>
        <time>2018-04-19T14:09:02Z</time>
      </trkpt>
      <trkpt lat="38.31106" lon="14.88524">
        <ele>1.1</ele>
        <time>2018-04-19T14:09:27Z</time>
      </trkpt>
      <trkpt lat="38.31035" lon="14.88487">
        <ele>0.62</ele>
        <time>2018-04-19T14:09:55Z</time>
      </trkpt>
      <trkpt lat="38.30968" lon="14.88452">
        <ele>1.1</ele>
        <time>2018-04-19T14:10:22Z</time>
      </trkpt>
      <trkpt lat="38.30902" lon="14.88416">
        <ele>1.1</ele>
        <time>2018-04-19T14:10:48Z</time>
      </trkpt>
      <trkpt lat="38.30829" lon="14.88377">
        <ele>1.58</ele>
        <time>2018-04-19T14:11:17Z</time>
      </trkpt>
      <trkpt lat="38.30762" lon="14.88341">
        <ele>1.58</ele>
        <time>2018-04-19T14:11:44Z</time>
      </trkpt>
      <trkpt lat="38.3071" lon="14.88314">
        <ele>1.58</ele>
        <time>2018-04-19T14:12:05Z</time>
      </trkpt>
      <trkpt lat="38.30648" lon="14.8828">
        <ele>1.58</ele>
        <time>2018-04-19T14:12:30Z</time>
      </trkpt>
      <trkpt lat="38.306" lon="14.88255">
        <ele>2.06</ele>
        <time>2018-04-19T14:12:49Z</time>
      </trkpt>
      <trkpt lat="38.30533" lon="14.88219">
        <ele>3.5</ele>
        <time>2018-04-19T14:13:16Z</time>
      </trkpt>
      <trkpt lat="38.30475" lon="14.88185">
        <ele>4.46</ele>
        <time>2018-04-19T14:13:40Z</time>
      </trkpt>
      <trkpt lat="38.3042" lon="14.88155">
        <ele>3.02</ele>
        <time>2018-04-19T14:14:03Z</time>
      </trkpt>
      <trkpt lat="38.30362" lon="14.88121">
        <ele>3.98</ele>
        <time>2018-04-19T14:14:27Z</time>
      </trkpt>
      <trkpt lat="38.3031" lon="14.88092">
        <ele>4.46</ele>
        <time>2018-04-19T14:14:48Z</time>
      </trkpt>
      <trkpt lat="38.30256" lon="14.88063">
        <ele>4.46</ele>
        <time>2018-04-19T14:15:10Z</time>
      </trkpt>
      <trkpt lat="38.30197" lon="14.8803">
        <ele>3.98</ele>
        <time>2018-04-19T14:15:34Z</time>
      </trkpt>
      <trkpt lat="38.30142" lon="14.88">
        <ele>3.5</ele>
        <time>2018-04-19T14:15:56Z</time>
      </trkpt>
      <trkpt lat="38.30083" lon="14.87967">
        <ele>3.02</ele>
        <time>2018-04-19T14:16:20Z</time>
      </trkpt>
      <trkpt lat="38.30031" lon="14.87937">
        <ele>2.54</ele>
        <time>2018-04-19T14:16:41Z</time>
      </trkpt>
      <trkpt lat="38.29975" lon="14.87908">
        <ele>3.02</ele>
        <time>2018-04-19T14:17:03Z</time>
      </trkpt>
      <trkpt lat="38.2992" lon="14.87877">
        <ele>3.02</ele>
        <time>2018-04-19T14:17:25Z</time>
      </trkpt>
      <trkpt lat="38.29871" lon="14.87849">
        <ele>3.98</ele>
        <time>2018-04-19T14:17:45Z</time>
      </trkpt>
      <trkpt lat="38.29807" lon="14.87813">
        <ele>5.42</ele>
        <time>2018-04-19T14:18:11Z</time>
      </trkpt>
      <trkpt lat="38.29736" lon="14.87772">
        <ele>6.87</ele>
        <time>2018-04-19T14:18:40Z</time>
      </trkpt>
      <trkpt lat="38.29673" lon="14.87737">
        <ele>6.39</ele>
        <time>2018-04-19T14:19:05Z</time>
      </trkpt>
      <trkpt lat="38.2961" lon="14.87701">
        <ele>5.91</ele>
        <time>2018-04-19T14:19:31Z</time>
      </trkpt>
      <trkpt lat="38.29541" lon="14.87662">
        <ele>5.42</ele>
        <time>2018-04-19T14:19:59Z</time>
      </trkpt>
      <trkpt lat="38.29479" lon="14.87627">
        <ele>4.94</ele>
        <time>2018-04-19T14:20:24Z</time>
      </trkpt>
      <trkpt lat="38.29416" lon="14.8759">
        <ele>3.98</ele>
        <time>2018-04-19T14:20:50Z</time>
      </trkpt>
      <trkpt lat="38.29354" lon="14.87555">
        <ele>3.5</ele>
        <time>2018-04-19T14:21:15Z</time>
      </trkpt>
      <trkpt lat="38.29302" lon="14.87525">
        <ele>3.02</ele>
        <time>2018-04-19T14:21:36Z</time>
      </trkpt>
      <trkpt lat="38.2925" lon="14.87496">
        <ele>3.5</ele>
        <time>2018-04-19T14:21:57Z</time>
      </trkpt>
      <trkpt lat="38.29195" lon="14.87465">
        <ele>2.54</ele>
        <time>2018-04-19T14:22:19Z</time>
      </trkpt>
      <trkpt lat="38.29135" lon="14.87432">
        <ele>3.5</ele>
        <time>2018-04-19T14:22:43Z</time>
      </trkpt>
      <trkpt lat="38.29096" lon="14.87409">
        <ele>3.02</ele>
        <time>2018-04-19T14:22:59Z</time>
      </trkpt>
      <trkpt lat="38.29032" lon="14.87372">
        <ele>3.5</ele>
        <time>2018-04-19T14:23:26Z</time>
      </trkpt>
      <trkpt lat="38.28975" lon="14.8734">
        <ele>4.46</ele>
        <time>2018-04-19T14:23:52Z</time>
      </trkpt>
      <trkpt lat="38.28914" lon="14.87306">
        <ele>4.46</ele>
        <time>2018-04-19T14:24:19Z</time>
      </trkpt>
      <trkpt lat="38.28851" lon="14.87269">
        <ele>3.02</ele>
        <time>2018-04-19T14:24:47Z</time>
      </trkpt>
      <trkpt lat="38.28792" lon="14.87235">
        <ele>2.54</ele>
        <time>2018-04-19T14:25:13Z</time>
      </trkpt>
      <trkpt lat="38.28735" lon="14.87203">
        <ele>3.02</ele>
        <time>2018-04-19T14:25:38Z</time>
      </trkpt>
      <trkpt lat="38.28694" lon="14.87181">
        <ele>1.58</ele>
        <time>2018-04-19T14:25:56Z</time>
      </trkpt>
      <trkpt lat="38.28645" lon="14.87154">
        <ele>0.14</ele>
        <time>2018-04-19T14:26:18Z</time>
      </trkpt>
      <trkpt lat="38.28602" lon="14.8713">
        <ele>-0.34</ele>
        <time>2018-04-19T14:26:37Z</time>
      </trkpt>
      <trkpt lat="38.28564" lon="14.87109">
        <ele>-0.82</ele>
        <time>2018-04-19T14:26:54Z</time>
      </trkpt>
      <trkpt lat="38.28514" lon="14.87081">
        <ele>-0.34</ele>
        <time>2018-04-19T14:27:16Z</time>
      </trkpt>
      <trkpt lat="38.28468" lon="14.87056">
        <ele>0.62</ele>
        <time>2018-04-19T14:27:36Z</time>
      </trkpt>
      <trkpt lat="38.28423" lon="14.87032">
        <ele>0.14</ele>
        <time>2018-04-19T14:27:56Z</time>
      </trkpt>
      <trkpt lat="38.28366" lon="14.87">
        <ele>1.58</ele>
        <time>2018-04-19T14:28:21Z</time>
      </trkpt>
      <trkpt lat="38.28324" lon="14.86976">
        <ele>2.06</ele>
        <time>2018-04-19T14:28:40Z</time>
      </trkpt>
      <trkpt lat="38.28275" lon="14.86948">
        <ele>1.58</ele>
        <time>2018-04-19T14:29:02Z</time>
      </trkpt>
      <trkpt lat="38.28225" lon="14.8692">
        <ele>2.06</ele>
        <time>2018-04-19T14:29:24Z</time>
      </trkpt>
      <trkpt lat="38.28169" lon="14.86889">
        <ele>1.58</ele>
        <time>2018-04-19T14:29:49Z</time>
      </trkpt>
      <trkpt lat="38.28121" lon="14.86861">
        <ele>1.1</ele>
        <time>2018-04-19T14:30:11Z</time>
      </trkpt>
      <trkpt lat="38.28072" lon="14.86835">
        <ele>2.54</ele>
        <time>2018-04-19T14:30:32Z</time>
      </trkpt>
      <trkpt lat="38.28018" lon="14.86806">
        <ele>3.02</ele>
        <time>2018-04-19T14:30:54Z</time>
      </trkpt>
      <trkpt lat="38.27962" lon="14.86776">
        <ele>2.54</ele>
        <time>2018-04-19T14:31:15Z</time>
      </trkpt>
      <trkpt lat="38.27885" lon="14.86731">
        <ele>3.02</ele>
        <time>2018-04-19T14:31:43Z</time>
      </trkpt>
      <trkpt lat="38.27823" lon="14.86689">
        <ele>3.02</ele>
        <time>2018-04-19T14:32:07Z</time>
      </trkpt>
      <trkpt lat="38.27764" lon="14.86648">
        <ele>1.58</ele>
        <time>2018-04-19T14:32:30Z</time>
      </trkpt>
      <trkpt lat="38.27708" lon="14.86612">
        <ele>2.06</ele>
        <time>2018-04-19T14:32:51Z</time>
      </trkpt>
      <trkpt lat="38.27653" lon="14.86576">
        <ele>2.06</ele>
        <time>2018-04-19T14:33:12Z</time>
      </trkpt>
      <trkpt lat="38.27593" lon="14.86535">
        <ele>1.58</ele>
        <time>2018-04-19T14:33:35Z</time>
      </trkpt>
      <trkpt lat="38.27527" lon="14.8649">
        <ele>1.1</ele>
        <time>2018-04-19T14:34:00Z</time>
      </trkpt>
      <trkpt lat="38.27467" lon="14.86435">
        <ele>3.5</ele>
        <time>2018-04-19T14:34:25Z</time>
      </trkpt>
      <trkpt lat="38.27419" lon="14.86386">
        <ele>3.5</ele>
        <time>2018-04-19T14:34:46Z</time>
      </trkpt>
      <trkpt lat="38.27363" lon="14.86343">
        <ele>2.54</ele>
        <time>2018-04-19T14:35:08Z</time>
      </trkpt>
      <trkpt lat="38.27298" lon="14.86297">
        <ele>2.54</ele>
        <time>2018-04-19T14:35:33Z</time>
      </trkpt>
      <trkpt lat="38.27228" lon="14.86249">
        <ele>2.06</ele>
        <time>2018-04-19T14:36:00Z</time>
      </trkpt>
      <trkpt lat="38.27143" lon="14.86192">
        <ele>2.06</ele>
        <time>2018-04-19T14:36:32Z</time>
      </trkpt>
      <trkpt lat="38.2708" lon="14.86149">
        <ele>2.06</ele>
        <time>2018-04-19T14:36:56Z</time>
      </trkpt>
      <trkpt lat="38.27011" lon="14.86102">
        <ele>2.06</ele>
        <time>2018-04-19T14:37:22Z</time>
      </trkpt>
      <trkpt lat="38.26953" lon="14.86062">
        <ele>2.54</ele>
        <time>2018-04-19T14:37:44Z</time>
      </trkpt>
      <trkpt lat="38.26888" lon="14.86019">
        <ele>3.02</ele>
        <time>2018-04-19T14:38:09Z</time>
      </trkpt>
      <trkpt lat="38.26814" lon="14.85971">
        <ele>2.54</ele>
        <time>2018-04-19T14:38:37Z</time>
      </trkpt>
      <trkpt lat="38.26747" lon="14.85926">
        <ele>2.54</ele>
        <time>2018-04-19T14:39:03Z</time>
      </trkpt>
      <trkpt lat="38.26687" lon="14.85886">
        <ele>2.06</ele>
        <time>2018-04-19T14:39:26Z</time>
      </trkpt>
      <trkpt lat="38.2662" lon="14.8584">
        <ele>3.02</ele>
        <time>2018-04-19T14:39:52Z</time>
      </trkpt>
      <trkpt lat="38.2656" lon="14.85799">
        <ele>3.5</ele>
        <time>2018-04-19T14:40:15Z</time>
      </trkpt>
      <trkpt lat="38.26481" lon="14.85746">
        <ele>3.02</ele>
        <time>2018-04-19T14:40:46Z</time>
      </trkpt>
      <trkpt lat="38.26412" lon="14.85701">
        <ele>3.02</ele>
        <time>2018-04-19T14:41:13Z</time>
      </trkpt>
      <trkpt lat="38.26352" lon="14.85661">
        <ele>3.5</ele>
        <time>2018-04-19T14:41:36Z</time>
      </trkpt>
      <trkpt lat="38.26281" lon="14.85614">
        <ele>3.5</ele>
        <time>2018-04-19T14:42:04Z</time>
      </trkpt>
      <trkpt lat="38.26208" lon="14.85568">
        <ele>3.98</ele>
        <time>2018-04-19T14:42:32Z</time>
      </trkpt>
      <trkpt lat="38.26142" lon="14.85525">
        <ele>4.46</ele>
        <time>2018-04-19T14:42:58Z</time>
      </trkpt>
      <trkpt lat="38.26073" lon="14.85479">
        <ele>4.94</ele>
        <time>2018-04-19T14:43:25Z</time>
      </trkpt>
      <trkpt lat="38.26006" lon="14.85437">
        <ele>4.94</ele>
        <time>2018-04-19T14:43:51Z</time>
      </trkpt>
      <trkpt lat="38.25937" lon="14.85393">
        <ele>4.94</ele>
        <time>2018-04-19T14:44:18Z</time>
      </trkpt>
      <trkpt lat="38.25868" lon="14.8535">
        <ele>4.94</ele>
        <time>2018-04-19T14:44:45Z</time>
      </trkpt>
      <trkpt lat="38.2581" lon="14.85314">
        <ele>4.94</ele>
        <time>2018-04-19T14:45:08Z</time>
      </trkpt>
      <trkpt lat="38.25736" lon="14.85268">
        <ele>3.98</ele>
        <time>2018-04-19T14:45:37Z</time>
      </trkpt>
      <trkpt lat="38.25681" lon="14.85234">
        <ele>3.98</ele>
        <time>2018-04-19T14:45:58Z</time>
      </trkpt>
      <trkpt lat="38.25625" lon="14.85197">
        <ele>3.5</ele>
        <time>2018-04-19T14:46:20Z</time>
      </trkpt>
      <trkpt lat="38.25564" lon="14.8516">
        <ele>3.98</ele>
        <time>2018-04-19T14:46:44Z</time>
      </trkpt>
      <trkpt lat="38.25504" lon="14.8512">
        <ele>3.98</ele>
        <time>2018-04-19T14:47:08Z</time>
      </trkpt>
      <trkpt lat="38.25429" lon="14.8507">
        <ele>3.5</ele>
        <time>2018-04-19T14:47:38Z</time>
      </trkpt>
      <trkpt lat="38.25373" lon="14.85033">
        <ele>3.5</ele>
        <time>2018-04-19T14:48:01Z</time>
      </trkpt>
      <trkpt lat="38.25312" lon="14.84994">
        <ele>4.46</ele>
        <time>2018-04-19T14:48:25Z</time>
      </trkpt>
      <trkpt lat="38.25258" lon="14.84958">
        <ele>3.98</ele>
        <time>2018-04-19T14:48:47Z</time>
      </trkpt>
      <trkpt lat="38.25205" lon="14.84925">
        <ele>3.5</ele>
        <time>2018-04-19T14:49:08Z</time>
      </trkpt>
      <trkpt lat="38.25153" lon="14.84892">
        <ele>3.5</ele>
        <time>2018-04-19T14:49:29Z</time>
      </trkpt>
      <trkpt lat="38.25088" lon="14.8485">
        <ele>3.98</ele>
        <time>2018-04-19T14:49:55Z</time>
      </trkpt>
      <trkpt lat="38.25029" lon="14.84812">
        <ele>3.98</ele>
        <time>2018-04-19T14:50:19Z</time>
      </trkpt>
      <trkpt lat="38.24972" lon="14.84774">
        <ele>3.98</ele>
        <time>2018-04-19T14:50:42Z</time>
      </trkpt>
      <trkpt lat="38.24916" lon="14.84737">
        <ele>3.98</ele>
        <time>2018-04-19T14:51:05Z</time>
      </trkpt>
      <trkpt lat="38.24862" lon="14.84701">
        <ele>3.98</ele>
        <time>2018-04-19T14:51:27Z</time>
      </trkpt>
      <trkpt lat="38.24806" lon="14.84666">
        <ele>3.5</ele>
        <time>2018-04-19T14:51:49Z</time>
      </trkpt>
      <trkpt lat="38.24746" lon="14.84628">
        <ele>3.98</ele>
        <time>2018-04-19T14:52:13Z</time>
      </trkpt>
      <trkpt lat="38.24691" lon="14.84592">
        <ele>4.46</ele>
        <time>2018-04-19T14:52:35Z</time>
      </trkpt>
      <trkpt lat="38.2463" lon="14.84555">
        <ele>3.98</ele>
        <time>2018-04-19T14:52:59Z</time>
      </trkpt>
      <trkpt lat="38.24572" lon="14.84518">
        <ele>4.46</ele>
        <time>2018-04-19T14:53:22Z</time>
      </trkpt>
      <trkpt lat="38.24507" lon="14.84476">
        <ele>4.46</ele>
        <time>2018-04-19T14:53:48Z</time>
      </trkpt>
      <trkpt lat="38.24451" lon="14.84441">
        <ele>4.46</ele>
        <time>2018-04-19T14:54:10Z</time>
      </trkpt>
      <trkpt lat="38.24382" lon="14.84397">
        <ele>4.46</ele>
        <time>2018-04-19T14:54:37Z</time>
      </trkpt>
      <trkpt lat="38.24316" lon="14.84357">
        <ele>3.5</ele>
        <time>2018-04-19T14:55:03Z</time>
      </trkpt>
      <trkpt lat="38.24266" lon="14.84324">
        <ele>3.98</ele>
        <time>2018-04-19T14:55:24Z</time>
      </trkpt>
      <trkpt lat="38.24234" lon="14.84309">
        <ele>3.98</ele>
        <time>2018-04-19T14:55:45Z</time>
      </trkpt>
      <trkpt lat="38.24195" lon="14.84286">
        <ele>3.5</ele>
        <time>2018-04-19T14:56:07Z</time>
      </trkpt>
      <trkpt lat="38.24123" lon="14.84242">
        <ele>3.5</ele>
        <time>2018-04-19T14:56:36Z</time>
      </trkpt>
      <trkpt lat="38.24079" lon="14.84217">
        <ele>3.02</ele>
        <time>2018-04-19T14:56:59Z</time>
      </trkpt>
      <trkpt lat="38.24052" lon="14.84187">
        <ele>2.54</ele>
        <time>2018-04-19T14:57:24Z</time>
      </trkpt>
      <trkpt lat="38.24021" lon="14.84164">
        <ele>1.1</ele>
        <time>2018-04-19T14:57:51Z</time>
      </trkpt>
      <trkpt lat="38.23989" lon="14.84142">
        <ele>1.58</ele>
        <time>2018-04-19T14:58:17Z</time>
      </trkpt>
      <trkpt lat="38.23953" lon="14.84126">
        <ele>2.06</ele>
        <time>2018-04-19T14:58:44Z</time>
      </trkpt>
      <trkpt lat="38.23928" lon="14.84112">
        <ele>2.06</ele>
        <time>2018-04-19T14:59:05Z</time>
      </trkpt>
      <trkpt lat="38.23902" lon="14.84098">
        <ele>2.06</ele>
        <time>2018-04-19T14:59:24Z</time>
      </trkpt>
      <trkpt lat="38.2387" lon="14.84076">
        <ele>3.02</ele>
        <time>2018-04-19T14:59:44Z</time>
      </trkpt>
      <trkpt lat="38.23827" lon="14.84048">
        <ele>2.54</ele>
        <time>2018-04-19T15:00:09Z</time>
      </trkpt>
      <trkpt lat="38.23772" lon="14.84007">
        <ele>3.02</ele>
        <time>2018-04-19T15:00:35Z</time>
      </trkpt>
      <trkpt lat="38.23713" lon="14.83964">
        <ele>3.5</ele>
        <time>2018-04-19T15:00:59Z</time>
      </trkpt>
      <trkpt lat="38.23652" lon="14.83922">
        <ele>3.02</ele>
        <time>2018-04-19T15:01:23Z</time>
      </trkpt>
      <trkpt lat="38.23585" lon="14.83875">
        <ele>3.02</ele>
        <time>2018-04-19T15:01:50Z</time>
      </trkpt>
      <trkpt lat="38.23533" lon="14.83838">
        <ele>3.02</ele>
        <time>2018-04-19T15:02:11Z</time>
      </trkpt>
      <trkpt lat="38.23477" lon="14.838">
        <ele>3.02</ele>
        <time>2018-04-19T15:02:33Z</time>
      </trkpt>
      <trkpt lat="38.23413" lon="14.83753">
        <ele>2.54</ele>
        <time>2018-04-19T15:02:59Z</time>
      </trkpt>
      <trkpt lat="38.2336" lon="14.83715">
        <ele>2.54</ele>
        <time>2018-04-19T15:03:20Z</time>
      </trkpt>
      <trkpt lat="38.23299" lon="14.83673">
        <ele>3.02</ele>
        <time>2018-04-19T15:03:44Z</time>
      </trkpt>
      <trkpt lat="38.23232" lon="14.83625">
        <ele>3.5</ele>
        <time>2018-04-19T15:04:11Z</time>
      </trkpt>
      <trkpt lat="38.23174" lon="14.83583">
        <ele>3.98</ele>
        <time>2018-04-19T15:04:34Z</time>
      </trkpt>
      <trkpt lat="38.23104" lon="14.83531">
        <ele>4.46</ele>
        <time>2018-04-19T15:05:02Z</time>
      </trkpt>
      <trkpt lat="38.23039" lon="14.83484">
        <ele>4.94</ele>
        <time>2018-04-19T15:05:28Z</time>
      </trkpt>
      <trkpt lat="38.22976" lon="14.83437">
        <ele>3.5</ele>
        <time>2018-04-19T15:05:53Z</time>
      </trkpt>
      <trkpt lat="38.22921" lon="14.83398">
        <ele>3.02</ele>
        <time>2018-04-19T15:06:15Z</time>
      </trkpt>
      <trkpt lat="38.22866" lon="14.83357">
        <ele>3.5</ele>
        <time>2018-04-19T15:06:37Z</time>
      </trkpt>
      <trkpt lat="38.22808" lon="14.83314">
        <ele>2.06</ele>
        <time>2018-04-19T15:07:00Z</time>
      </trkpt>
      <trkpt lat="38.2275" lon="14.83271">
        <ele>1.1</ele>
        <time>2018-04-19T15:07:23Z</time>
      </trkpt>
      <trkpt lat="38.22699" lon="14.83236">
        <ele>1.58</ele>
        <time>2018-04-19T15:07:43Z</time>
      </trkpt>
      <trkpt lat="38.22636" lon="14.83191">
        <ele>2.06</ele>
        <time>2018-04-19T15:08:08Z</time>
      </trkpt>
      <trkpt lat="38.2258" lon="14.83149">
        <ele>3.02</ele>
        <time>2018-04-19T15:08:31Z</time>
      </trkpt>
      <trkpt lat="38.22513" lon="14.83099">
        <ele>3.98</ele>
        <time>2018-04-19T15:08:58Z</time>
      </trkpt>
      <trkpt lat="38.22449" lon="14.8305">
        <ele>3.5</ele>
        <time>2018-04-19T15:09:24Z</time>
      </trkpt>
      <trkpt lat="38.22399" lon="14.83013">
        <ele>3.98</ele>
        <time>2018-04-19T15:09:44Z</time>
      </trkpt>
      <trkpt lat="38.22358" lon="14.82983">
        <ele>3.02</ele>
        <time>2018-04-19T15:10:01Z</time>
      </trkpt>
      <trkpt lat="38.22293" lon="14.82935">
        <ele>2.54</ele>
        <time>2018-04-19T15:10:27Z</time>
      </trkpt>
      <trkpt lat="38.2223" lon="14.82889">
        <ele>1.58</ele>
        <time>2018-04-19T15:10:52Z</time>
      </trkpt>
      <trkpt lat="38.22164" lon="14.82843">
        <ele>1.1</ele>
        <time>2018-04-19T15:11:18Z</time>
      </trkpt>
      <trkpt lat="38.22101" lon="14.82798">
        <ele>2.06</ele>
        <time>2018-04-19T15:11:43Z</time>
      </trkpt>
      <trkpt lat="38.22031" lon="14.82749">
        <ele>1.58</ele>
        <time>2018-04-19T15:12:11Z</time>
      </trkpt>
      <trkpt lat="38.21963" lon="14.82702">
        <ele>3.02</ele>
        <time>2018-04-19T15:12:38Z</time>
      </trkpt>
      <trkpt lat="38.21898" lon="14.82658">
        <ele>3.5</ele>
        <time>2018-04-19T15:13:04Z</time>
      </trkpt>
      <trkpt lat="38.21838" lon="14.82617">
        <ele>3.5</ele>
        <time>2018-04-19T15:13:28Z</time>
      </trkpt>
      <trkpt lat="38.21771" lon="14.82572">
        <ele>3.02</ele>
        <time>2018-04-19T15:13:55Z</time>
      </trkpt>
      <trkpt lat="38.21724" lon="14.8254">
        <ele>3.5</ele>
        <time>2018-04-19T15:14:14Z</time>
      </trkpt>
      <trkpt lat="38.21679" lon="14.82506">
        <ele>3.02</ele>
        <time>2018-04-19T15:14:33Z</time>
      </trkpt>
      <trkpt lat="38.21624" lon="14.82468">
        <ele>3.02</ele>
        <time>2018-04-19T15:14:55Z</time>
      </trkpt>
      <trkpt lat="38.21563" lon="14.82427">
        <ele>2.54</ele>
        <time>2018-04-19T15:15:20Z</time>
      </trkpt>
      <trkpt lat="38.215" lon="14.82382">
        <ele>3.02</ele>
        <time>2018-04-19T15:15:46Z</time>
      </trkpt>
      <trkpt lat="38.21435" lon="14.82339">
        <ele>3.02</ele>
        <time>2018-04-19T15:16:12Z</time>
      </trkpt>
      <trkpt lat="38.2137" lon="14.82293">
        <ele>2.54</ele>
        <time>2018-04-19T15:16:39Z</time>
      </trkpt>
      <trkpt lat="38.21301" lon="14.82246">
        <ele>2.54</ele>
        <time>2018-04-19T15:17:07Z</time>
      </trkpt>
      <trkpt lat="38.21228" lon="14.82196">
        <ele>2.54</ele>
        <time>2018-04-19T15:17:37Z</time>
      </trkpt>
      <trkpt lat="38.21172" lon="14.82158">
        <ele>2.54</ele>
        <time>2018-04-19T15:18:00Z</time>
      </trkpt>
      <trkpt lat="38.21118" lon="14.82122">
        <ele>3.02</ele>
        <time>2018-04-19T15:18:22Z</time>
      </trkpt>
      <trkpt lat="38.21057" lon="14.82081">
        <ele>3.5</ele>
        <time>2018-04-19T15:18:47Z</time>
      </trkpt>
      <trkpt lat="38.20994" lon="14.82039">
        <ele>3.5</ele>
        <time>2018-04-19T15:19:13Z</time>
      </trkpt>
      <trkpt lat="38.20942" lon="14.82004">
        <ele>3.98</ele>
        <time>2018-04-19T15:19:34Z</time>
      </trkpt>
      <trkpt lat="38.2088" lon="14.81964">
        <ele>4.46</ele>
        <time>2018-04-19T15:19:59Z</time>
      </trkpt>
      <trkpt lat="38.20826" lon="14.81929">
        <ele>3.98</ele>
        <time>2018-04-19T15:20:21Z</time>
      </trkpt>
      <trkpt lat="38.20765" lon="14.81888">
        <ele>3.98</ele>
        <time>2018-04-19T15:20:46Z</time>
      </trkpt>
      <trkpt lat="38.2071" lon="14.81852">
        <ele>3.98</ele>
        <time>2018-04-19T15:21:08Z</time>
      </trkpt>
      <trkpt lat="38.20656" lon="14.81817">
        <ele>4.46</ele>
        <time>2018-04-19T15:21:30Z</time>
      </trkpt>
      <trkpt lat="38.20597" lon="14.81777">
        <ele>5.42</ele>
        <time>2018-04-19T15:21:54Z</time>
      </trkpt>
      <trkpt lat="38.20537" lon="14.81739">
        <ele>4.94</ele>
        <time>2018-04-19T15:22:18Z</time>
      </trkpt>
      <trkpt lat="38.20476" lon="14.81699">
        <ele>5.42</ele>
        <time>2018-04-19T15:22:43Z</time>
      </trkpt>
      <trkpt lat="38.20414" lon="14.81659">
        <ele>6.39</ele>
        <time>2018-04-19T15:23:08Z</time>
      </trkpt>
      <trkpt lat="38.20358" lon="14.81625">
        <ele>5.91</ele>
        <time>2018-04-19T15:23:30Z</time>
      </trkpt>
      <trkpt lat="38.20298" lon="14.81587">
        <ele>4.46</ele>
        <time>2018-04-19T15:23:54Z</time>
      </trkpt>
      <trkpt lat="38.20228" lon="14.81543">
        <ele>4.46</ele>
        <time>2018-04-19T15:24:22Z</time>
      </trkpt>
      <trkpt lat="38.20161" lon="14.815">
        <ele>3.98</ele>
        <time>2018-04-19T15:24:49Z</time>
      </trkpt>
      <trkpt lat="38.20084" lon="14.81453">
        <ele>4.46</ele>
        <time>2018-04-19T15:25:19Z</time>
      </trkpt>
      <trkpt lat="38.20019" lon="14.81414">
        <ele>4.46</ele>
        <time>2018-04-19T15:25:44Z</time>
      </trkpt>
      <trkpt lat="38.19949" lon="14.8137">
        <ele>4.94</ele>
        <time>2018-04-19T15:26:11Z</time>
      </trkpt>
      <trkpt lat="38.1988" lon="14.81328">
        <ele>3.98</ele>
        <time>2018-04-19T15:26:38Z</time>
      </trkpt>
      <trkpt lat="38.19807" lon="14.81282">
        <ele>4.46</ele>
        <time>2018-04-19T15:27:07Z</time>
      </trkpt>
      <trkpt lat="38.19752" lon="14.81247">
        <ele>3.98</ele>
        <time>2018-04-19T15:27:29Z</time>
      </trkpt>
      <trkpt lat="38.1969" lon="14.81206">
        <ele>4.46</ele>
        <time>2018-04-19T15:27:54Z</time>
      </trkpt>
      <trkpt lat="38.19622" lon="14.81161">
        <ele>4.94</ele>
        <time>2018-04-19T15:28:21Z</time>
      </trkpt>
      <trkpt lat="38.19569" lon="14.81126">
        <ele>4.46</ele>
        <time>2018-04-19T15:28:42Z</time>
      </trkpt>
      <trkpt lat="38.19511" lon="14.81084">
        <ele>3.98</ele>
        <time>2018-04-19T15:29:05Z</time>
      </trkpt>
      <trkpt lat="38.19462" lon="14.81047">
        <ele>3.98</ele>
        <time>2018-04-19T15:29:25Z</time>
      </trkpt>
      <trkpt lat="38.194" lon="14.80998">
        <ele>4.46</ele>
        <time>2018-04-19T15:29:51Z</time>
      </trkpt>
      <trkpt lat="38.19354" lon="14.80963">
        <ele>3.5</ele>
        <time>2018-04-19T15:30:10Z</time>
      </trkpt>
      <trkpt lat="38.19302" lon="14.80922">
        <ele>3.98</ele>
        <time>2018-04-19T15:30:31Z</time>
      </trkpt>
      <trkpt lat="38.19246" lon="14.80877">
        <ele>4.46</ele>
        <time>2018-04-19T15:30:54Z</time>
      </trkpt>
      <trkpt lat="38.19184" lon="14.80829">
        <ele>4.46</ele>
        <time>2018-04-19T15:31:19Z</time>
      </trkpt>
      <trkpt lat="38.19118" lon="14.80775">
        <ele>3.98</ele>
        <time>2018-04-19T15:31:46Z</time>
      </trkpt>
      <trkpt lat="38.19062" lon="14.8073">
        <ele>4.94</ele>
        <time>2018-04-19T15:32:09Z</time>
      </trkpt>
      <trkpt lat="38.1899" lon="14.8067">
        <ele>5.42</ele>
        <time>2018-04-19T15:32:38Z</time>
      </trkpt>
      <trkpt lat="38.18933" lon="14.8062">
        <ele>4.94</ele>
        <time>2018-04-19T15:33:01Z</time>
      </trkpt>
      <trkpt lat="38.18868" lon="14.80565">
        <ele>4.94</ele>
        <time>2018-04-19T15:33:27Z</time>
      </trkpt>
      <trkpt lat="38.18809" lon="14.80512">
        <ele>5.42</ele>
        <time>2018-04-19T15:33:51Z</time>
      </trkpt>
      <trkpt lat="38.18753" lon="14.80465">
        <ele>4.94</ele>
        <time>2018-04-19T15:34:13Z</time>
      </trkpt>
      <trkpt lat="38.1869" lon="14.8041">
        <ele>5.42</ele>
        <time>2018-04-19T15:34:38Z</time>
      </trkpt>
      <trkpt lat="38.18622" lon="14.80351">
        <ele>3.98</ele>
        <time>2018-04-19T15:35:05Z</time>
      </trkpt>
      <trkpt lat="38.18561" lon="14.80295">
        <ele>3.02</ele>
        <time>2018-04-19T15:35:29Z</time>
      </trkpt>
      <trkpt lat="38.18492" lon="14.80235">
        <ele>3.02</ele>
        <time>2018-04-19T15:35:56Z</time>
      </trkpt>
      <trkpt lat="38.18426" lon="14.80176">
        <ele>3.5</ele>
        <time>2018-04-19T15:36:22Z</time>
      </trkpt>
      <trkpt lat="38.18362" lon="14.8012">
        <ele>3.98</ele>
        <time>2018-04-19T15:36:47Z</time>
      </trkpt>
      <trkpt lat="38.18306" lon="14.80072">
        <ele>3.5</ele>
        <time>2018-04-19T15:37:09Z</time>
      </trkpt>
      <trkpt lat="38.18244" lon="14.80015">
        <ele>4.46</ele>
        <time>2018-04-19T15:37:34Z</time>
      </trkpt>
      <trkpt lat="38.18182" lon="14.79956">
        <ele>3.02</ele>
        <time>2018-04-19T15:37:59Z</time>
      </trkpt>
      <trkpt lat="38.18128" lon="14.79904">
        <ele>3.5</ele>
        <time>2018-04-19T15:38:21Z</time>
      </trkpt>
      <trkpt lat="38.18065" lon="14.79848">
        <ele>3.98</ele>
        <time>2018-04-19T15:38:46Z</time>
      </trkpt>
      <trkpt lat="38.18002" lon="14.79792">
        <ele>4.94</ele>
        <time>2018-04-19T15:39:11Z</time>
      </trkpt>
      <trkpt lat="38.17935" lon="14.79731">
        <ele>4.46</ele>
        <time>2018-04-19T15:39:38Z</time>
      </trkpt>
      <trkpt lat="38.17868" lon="14.79669">
        <ele>5.42</ele>
        <time>2018-04-19T15:40:05Z</time>
      </trkpt>
      <trkpt lat="38.17811" lon="14.79617">
        <ele>4.46</ele>
        <time>2018-04-19T15:40:28Z</time>
      </trkpt>
      <trkpt lat="38.17753" lon="14.79562">
        <ele>4.94</ele>
        <time>2018-04-19T15:40:52Z</time>
      </trkpt>
      <trkpt lat="38.177" lon="14.79511">
        <ele>4.94</ele>
        <time>2018-04-19T15:41:14Z</time>
      </trkpt>
      <trkpt lat="38.17636" lon="14.79451">
        <ele>3.98</ele>
        <time>2018-04-19T15:41:40Z</time>
      </trkpt>
      <trkpt lat="38.17571" lon="14.79392">
        <ele>3.98</ele>
        <time>2018-04-19T15:42:06Z</time>
      </trkpt>
      <trkpt lat="38.17509" lon="14.79334">
        <ele>4.46</ele>
        <time>2018-04-19T15:42:31Z</time>
      </trkpt>
      <trkpt lat="38.17447" lon="14.79279">
        <ele>3.98</ele>
        <time>2018-04-19T15:42:56Z</time>
      </trkpt>
      <trkpt lat="38.17398" lon="14.79237">
        <ele>4.46</ele>
        <time>2018-04-19T15:43:18Z</time>
      </trkpt>
      <trkpt lat="38.1735" lon="14.79193">
        <ele>3.98</ele>
        <time>2018-04-19T15:43:41Z</time>
      </trkpt>
      <trkpt lat="38.17297" lon="14.79147">
        <ele>3.02</ele>
        <time>2018-04-19T15:44:06Z</time>
      </trkpt>
      <trkpt lat="38.17247" lon="14.79102">
        <ele>4.46</ele>
        <time>2018-04-19T15:44:30Z</time>
      </trkpt>
      <trkpt lat="38.17187" lon="14.7905">
        <ele>4.94</ele>
        <time>2018-04-19T15:44:56Z</time>
      </trkpt>
      <trkpt lat="38.17148" lon="14.79016">
        <ele>5.91</ele>
        <time>2018-04-19T15:45:17Z</time>
      </trkpt>
      <trkpt lat="38.17111" lon="14.79013">
        <ele>5.91</ele>
        <time>2018-04-19T15:45:34Z</time>
      </trkpt>
      <trkpt lat="38.17068" lon="14.79008">
        <ele>6.87</ele>
        <time>2018-04-19T15:45:55Z</time>
      </trkpt>
      <trkpt lat="38.17021" lon="14.78998">
        <ele>7.35</ele>
        <time>2018-04-19T15:46:18Z</time>
      </trkpt>
      <trkpt lat="38.16981" lon="14.78984">
        <ele>7.83</ele>
        <time>2018-04-19T15:46:38Z</time>
      </trkpt>
      <trkpt lat="38.16932" lon="14.78964">
        <ele>7.35</ele>
        <time>2018-04-19T15:47:03Z</time>
      </trkpt>
      <trkpt lat="38.16884" lon="14.78941">
        <ele>5.91</ele>
        <time>2018-04-19T15:47:27Z</time>
      </trkpt>
      <trkpt lat="38.1684" lon="14.78915">
        <ele>4.46</ele>
        <time>2018-04-19T15:47:51Z</time>
      </trkpt>
      <trkpt lat="38.16793" lon="14.78887">
        <ele>4.94</ele>
        <time>2018-04-19T15:48:16Z</time>
      </trkpt>
      <trkpt lat="38.16745" lon="14.78853">
        <ele>5.42</ele>
        <time>2018-04-19T15:48:42Z</time>
      </trkpt>
      <trkpt lat="38.167" lon="14.78823">
        <ele>4.94</ele>
        <time>2018-04-19T15:49:06Z</time>
      </trkpt>
      <trkpt lat="38.16655" lon="14.78794">
        <ele>4.46</ele>
        <time>2018-04-19T15:49:30Z</time>
      </trkpt>
      <trkpt lat="38.16609" lon="14.78756">
        <ele>4.46</ele>
        <time>2018-04-19T15:49:56Z</time>
      </trkpt>
      <trkpt lat="38.1656" lon="14.78713">
        <ele>2.54</ele>
        <time>2018-04-19T15:50:24Z</time>
      </trkpt>
      <trkpt lat="38.16517" lon="14.78672">
        <ele>3.02</ele>
        <time>2018-04-19T15:50:49Z</time>
      </trkpt>
      <trkpt lat="38.16476" lon="14.7863">
        <ele>3.02</ele>
        <time>2018-04-19T15:51:14Z</time>
      </trkpt>
      <trkpt lat="38.16439" lon="14.78596">
        <ele>3.98</ele>
        <time>2018-04-19T15:51:35Z</time>
      </trkpt>
      <trkpt lat="38.16397" lon="14.78553">
        <ele>3.02</ele>
        <time>2018-04-19T15:52:00Z</time>
      </trkpt>
      <trkpt lat="38.16359" lon="14.78515">
        <ele>3.5</ele>
        <time>2018-04-19T15:52:23Z</time>
      </trkpt>
      <trkpt lat="38.16325" lon="14.78477">
        <ele>3.5</ele>
        <time>2018-04-19T15:52:43Z</time>
      </trkpt>
      <trkpt lat="38.16284" lon="14.78437">
        <ele>4.46</ele>
        <time>2018-04-19T15:53:07Z</time>
      </trkpt>
      <trkpt lat="38.16235" lon="14.78396">
        <ele>5.42</ele>
        <time>2018-04-19T15:53:33Z</time>
      </trkpt>
      <trkpt lat="38.16199" lon="14.78362">
        <ele>5.42</ele>
        <time>2018-04-19T15:53:53Z</time>
      </trkpt>
      <trkpt lat="38.16154" lon="14.78319">
        <ele>3.98</ele>
        <time>2018-04-19T15:54:18Z</time>
      </trkpt>
      <trkpt lat="38.16115" lon="14.78286">
        <ele>4.94</ele>
        <time>2018-04-19T15:54:39Z</time>
      </trkpt>
      <trkpt lat="38.16058" lon="14.78241">
        <ele>4.46</ele>
        <time>2018-04-19T15:55:08Z</time>
      </trkpt>
      <trkpt lat="38.16014" lon="14.78206">
        <ele>4.46</ele>
        <time>2018-04-19T15:55:31Z</time>
      </trkpt>
      <trkpt lat="38.15966" lon="14.78164">
        <ele>4.46</ele>
        <time>2018-04-19T15:55:57Z</time>
      </trkpt>
      <trkpt lat="38.15922" lon="14.78128">
        <ele>3.5</ele>
        <time>2018-04-19T15:56:20Z</time>
      </trkpt>
      <trkpt lat="38.15875" lon="14.78086">
        <ele>5.42</ele>
        <time>2018-04-19T15:56:46Z</time>
      </trkpt>
      <trkpt lat="38.15829" lon="14.78041">
        <ele>4.46</ele>
        <time>2018-04-19T15:57:12Z</time>
      </trkpt>
      <trkpt lat="38.15787" lon="14.77999">
        <ele>6.39</ele>
        <time>2018-04-19T15:57:36Z</time>
      </trkpt>
      <trkpt lat="38.15748" lon="14.77959">
        <ele>6.87</ele>
        <time>2018-04-19T15:57:58Z</time>
      </trkpt>
      <trkpt lat="38.15713" lon="14.77913">
        <ele>6.39</ele>
        <time>2018-04-19T15:58:21Z</time>
      </trkpt>
      <trkpt lat="38.15687" lon="14.77871">
        <ele>5.42</ele>
        <time>2018-04-19T15:58:40Z</time>
      </trkpt>
      <trkpt lat="38.15667" lon="14.77812">
        <ele>4.46</ele>
        <time>2018-04-19T15:59:03Z</time>
      </trkpt>
      <trkpt lat="38.15651" lon="14.77739">
        <ele>4.46</ele>
        <time>2018-04-19T15:59:30Z</time>
      </trkpt>
      <trkpt lat="38.15649" lon="14.77687">
        <ele>4.94</ele>
        <time>2018-04-19T15:59:49Z</time>
      </trkpt>
      <trkpt lat="38.15662" lon="14.77621">
        <ele>6.87</ele>
        <time>2018-04-19T16:00:14Z</time>
      </trkpt>
      <trkpt lat="38.15671" lon="14.77538">
        <ele>6.39</ele>
        <time>2018-04-19T16:00:46Z</time>
      </trkpt>
      <trkpt lat="38.15669" lon="14.77479">
        <ele>4.46</ele>
        <time>2018-04-19T16:01:19Z</time>
      </trkpt>
      <trkpt lat="38.15663" lon="14.77439">
        <ele>4.46</ele>
        <time>2018-04-19T16:01:49Z</time>
      </trkpt>
      <trkpt lat="38.15656" lon="14.7739">
        <ele>3.5</ele>
        <time>2018-04-19T16:02:19Z</time>
      </trkpt>
      <trkpt lat="38.1565" lon="14.77348">
        <ele>4.46</ele>
        <time>2018-04-19T16:02:43Z</time>
      </trkpt>
      <trkpt lat="38.15644" lon="14.77313">
        <ele>3.02</ele>
        <time>2018-04-19T16:03:06Z</time>
      </trkpt>
      <trkpt lat="38.15636" lon="14.77274">
        <ele>5.91</ele>
        <time>2018-04-19T16:03:35Z</time>
      </trkpt>
      <trkpt lat="38.1563" lon="14.77249">
        <ele>5.42</ele>
        <time>2018-04-19T16:03:56Z</time>
      </trkpt>
      <trkpt lat="38.1562" lon="14.77218">
        <ele>4.46</ele>
        <time>2018-04-19T16:04:23Z</time>
      </trkpt>
      <trkpt lat="38.15617" lon="14.77202">
        <ele>4.46</ele>
        <time>2018-04-19T16:04:36Z</time>
      </trkpt>
      <trkpt lat="38.15617" lon="14.7719">
        <ele>4.94</ele>
        <time>2018-04-19T16:04:46Z</time>
      </trkpt>
      <trkpt lat="38.15611" lon="14.77171">
        <ele>3.98</ele>
        <time>2018-04-19T16:05:03Z</time>
      </trkpt>
      <trkpt lat="38.15615" lon="14.77141">
        <ele>4.94</ele>
        <time>2018-04-19T16:05:30Z</time>
      </trkpt>
      <trkpt lat="38.15616" lon="14.77111">
        <ele>4.94</ele>
        <time>2018-04-19T16:05:57Z</time>
      </trkpt>
      <trkpt lat="38.15611" lon="14.77087">
        <ele>5.42</ele>
        <time>2018-04-19T16:06:20Z</time>
      </trkpt>
      <trkpt lat="38.156" lon="14.7705">
        <ele>4.94</ele>
        <time>2018-04-19T16:06:54Z</time>
      </trkpt>
      <trkpt lat="38.15598" lon="14.77045">
        <ele>4.94</ele>
        <time>2018-04-19T16:06:58Z</time>
      </trkpt>
      <trkpt lat="38.1558" lon="14.77017">
        <ele>5.42</ele>
        <time>2018-04-19T16:07:26Z</time>
      </trkpt>
      <trkpt lat="38.15555" lon="14.77022">
        <ele>5.91</ele>
        <time>2018-04-19T16:07:54Z</time>
      </trkpt>
      <trkpt lat="38.15545" lon="14.77048">
        <ele>5.42</ele>
        <time>2018-04-19T16:08:18Z</time>
      </trkpt>
      <trkpt lat="38.15548" lon="14.77076">
        <ele>4.94</ele>
        <time>2018-04-19T16:08:49Z</time>
      </trkpt>
      <trkpt lat="38.15549" lon="14.77093">
        <ele>5.42</ele>
        <time>2018-04-19T16:09:17Z</time>
      </trkpt>
      <trkpt lat="38.15548" lon="14.77098">
        <ele>5.91</ele>
        <time>2018-04-19T16:09:45Z</time>
      </trkpt>
      <trkpt lat="38.15557" lon="14.77098">
        <ele>5.42</ele>
        <time>2018-04-19T16:10:13Z</time>
      </trkpt>
      <trkpt lat="38.15564" lon="14.77096">
        <ele>6.39</ele>
        <time>2018-04-19T16:10:44Z</time>
      </trkpt>
      <trkpt lat="38.15568" lon="14.77096">
        <ele>7.35</ele>
        <time>2018-04-19T16:11:12Z</time>
      </trkpt>
      <trkpt lat="38.15572" lon="14.77094">
        <ele>7.35</ele>
        <time>2018-04-19T16:11:36Z</time>
      </trkpt>
      <trkpt lat="38.15574" lon="14.77093">
        <ele>6.87</ele>
        <time>2018-04-19T16:11:54Z</time>
      </trkpt>
    </trkseg>
  </trk>
  <trk>
    <name><![CDATA[Tracé actuel: 20 AVR 2018 11:46]]></name>
    <trkseg>
      <trkpt lat="38.15549" lon="14.77085">
        <ele>-4.19</ele>
        <time>2018-04-20T09:46:24Z</time>
      </trkpt>
      <trkpt lat="38.15562" lon="14.77102">
        <ele>-10.92</ele>
        <time>2018-04-20T09:46:46Z</time>
      </trkpt>
      <trkpt lat="38.15576" lon="14.77096">
        <ele>1.1</ele>
        <time>2018-04-20T09:47:06Z</time>
      </trkpt>
      <trkpt lat="38.15579" lon="14.77097">
        <ele>8.31</ele>
        <time>2018-04-20T09:47:23Z</time>
      </trkpt>
      <trkpt lat="38.15579" lon="14.77097">
        <ele>9.75</ele>
        <time>2018-04-20T09:47:46Z</time>
      </trkpt>
      <trkpt lat="38.15573" lon="14.77097">
        <ele>9.27</ele>
        <time>2018-04-20T09:48:08Z</time>
      </trkpt>
      <trkpt lat="38.15559" lon="14.77097">
        <ele>8.31</ele>
        <time>2018-04-20T09:48:29Z</time>
      </trkpt>
      <trkpt lat="38.15549" lon="14.77079">
        <ele>8.79</ele>
        <time>2018-04-20T09:48:51Z</time>
      </trkpt>
      <trkpt lat="38.15547" lon="14.77071">
        <ele>8.79</ele>
        <time>2018-04-20T09:48:58Z</time>
      </trkpt>
      <trkpt lat="38.15547" lon="14.7704">
        <ele>9.75</ele>
        <time>2018-04-20T09:49:22Z</time>
      </trkpt>
      <trkpt lat="38.15561" lon="14.77018">
        <ele>9.27</ele>
        <time>2018-04-20T09:49:44Z</time>
      </trkpt>
      <trkpt lat="38.15584" lon="14.77022">
        <ele>10.23</ele>
        <time>2018-04-20T09:50:09Z</time>
      </trkpt>
      <trkpt lat="38.15598" lon="14.77047">
        <ele>11.19</ele>
        <time>2018-04-20T09:50:31Z</time>
      </trkpt>
      <trkpt lat="38.15608" lon="14.77077">
        <ele>10.71</ele>
        <time>2018-04-20T09:50:54Z</time>
      </trkpt>
      <trkpt lat="38.15618" lon="14.77116">
        <ele>12.15</ele>
        <time>2018-04-20T09:51:23Z</time>
      </trkpt>
      <trkpt lat="38.15624" lon="14.77164">
        <ele>9.75</ele>
        <time>2018-04-20T09:51:56Z</time>
      </trkpt>
      <trkpt lat="38.15629" lon="14.77221">
        <ele>10.23</ele>
        <time>2018-04-20T09:52:30Z</time>
      </trkpt>
      <trkpt lat="38.15636" lon="14.77262">
        <ele>10.71</ele>
        <time>2018-04-20T09:52:55Z</time>
      </trkpt>
      <trkpt lat="38.15646" lon="14.77303">
        <ele>11.67</ele>
        <time>2018-04-20T09:53:20Z</time>
      </trkpt>
      <trkpt lat="38.15655" lon="14.77351">
        <ele>11.19</ele>
        <time>2018-04-20T09:53:49Z</time>
      </trkpt>
      <trkpt lat="38.15663" lon="14.77404">
        <ele>10.71</ele>
        <time>2018-04-20T09:54:20Z</time>
      </trkpt>
      <trkpt lat="38.15665" lon="14.77478">
        <ele>9.27</ele>
        <time>2018-04-20T09:55:04Z</time>
      </trkpt>
      <trkpt lat="38.1566" lon="14.77525">
        <ele>9.27</ele>
        <time>2018-04-20T09:55:32Z</time>
      </trkpt>
      <trkpt lat="38.15648" lon="14.7758">
        <ele>7.83</ele>
        <time>2018-04-20T09:56:02Z</time>
      </trkpt>
      <trkpt lat="38.15643" lon="14.77642">
        <ele>8.79</ele>
        <time>2018-04-20T09:56:27Z</time>
      </trkpt>
      <trkpt lat="38.15646" lon="14.77712">
        <ele>9.75</ele>
        <time>2018-04-20T09:56:54Z</time>
      </trkpt>
      <trkpt lat="38.15662" lon="14.77779">
        <ele>10.23</ele>
        <time>2018-04-20T09:57:21Z</time>
      </trkpt>
      <trkpt lat="38.15698" lon="14.77822">
        <ele>10.23</ele>
        <time>2018-04-20T09:57:46Z</time>
      </trkpt>
      <trkpt lat="38.15743" lon="14.77861">
        <ele>10.23</ele>
        <time>2018-04-20T09:58:14Z</time>
      </trkpt>
      <trkpt lat="38.15781" lon="14.77896">
        <ele>9.75</ele>
        <time>2018-04-20T09:58:37Z</time>
      </trkpt>
      <trkpt lat="38.15807" lon="14.77964">
        <ele>10.23</ele>
        <time>2018-04-20T09:59:03Z</time>
      </trkpt>
      <trkpt lat="38.15839" lon="14.78048">
        <ele>9.75</ele>
        <time>2018-04-20T09:59:30Z</time>
      </trkpt>
      <trkpt lat="38.15876" lon="14.78113">
        <ele>9.27</ele>
        <time>2018-04-20T09:59:52Z</time>
      </trkpt>
      <trkpt lat="38.15921" lon="14.78182">
        <ele>10.71</ele>
        <time>2018-04-20T10:00:17Z</time>
      </trkpt>
      <trkpt lat="38.15956" lon="14.78265">
        <ele>12.15</ele>
        <time>2018-04-20T10:00:43Z</time>
      </trkpt>
      <trkpt lat="38.15994" lon="14.78353">
        <ele>10.23</ele>
        <time>2018-04-20T10:01:11Z</time>
      </trkpt>
      <trkpt lat="38.16021" lon="14.78436">
        <ele>9.75</ele>
        <time>2018-04-20T10:01:36Z</time>
      </trkpt>
      <trkpt lat="38.16043" lon="14.78509">
        <ele>9.75</ele>
        <time>2018-04-20T10:01:58Z</time>
      </trkpt>
      <trkpt lat="38.16074" lon="14.78598">
        <ele>9.27</ele>
        <time>2018-04-20T10:02:25Z</time>
      </trkpt>
      <trkpt lat="38.16105" lon="14.78687">
        <ele>10.23</ele>
        <time>2018-04-20T10:02:52Z</time>
      </trkpt>
      <trkpt lat="38.16138" lon="14.7877">
        <ele>9.27</ele>
        <time>2018-04-20T10:03:18Z</time>
      </trkpt>
      <trkpt lat="38.16163" lon="14.78853">
        <ele>8.31</ele>
        <time>2018-04-20T10:03:43Z</time>
      </trkpt>
      <trkpt lat="38.16194" lon="14.78954">
        <ele>9.27</ele>
        <time>2018-04-20T10:04:13Z</time>
      </trkpt>
      <trkpt lat="38.16224" lon="14.79048">
        <ele>12.15</ele>
        <time>2018-04-20T10:04:41Z</time>
      </trkpt>
      <trkpt lat="38.16253" lon="14.79134">
        <ele>11.67</ele>
        <time>2018-04-20T10:05:07Z</time>
      </trkpt>
      <trkpt lat="38.16284" lon="14.79231">
        <ele>10.71</ele>
        <time>2018-04-20T10:05:36Z</time>
      </trkpt>
      <trkpt lat="38.16312" lon="14.79312">
        <ele>11.19</ele>
        <time>2018-04-20T10:06:01Z</time>
      </trkpt>
      <trkpt lat="38.16341" lon="14.79403">
        <ele>10.71</ele>
        <time>2018-04-20T10:06:28Z</time>
      </trkpt>
      <trkpt lat="38.16373" lon="14.795">
        <ele>10.71</ele>
        <time>2018-04-20T10:06:57Z</time>
      </trkpt>
      <trkpt lat="38.16403" lon="14.79593">
        <ele>10.23</ele>
        <time>2018-04-20T10:07:25Z</time>
      </trkpt>
      <trkpt lat="38.16433" lon="14.79686">
        <ele>9.27</ele>
        <time>2018-04-20T10:07:53Z</time>
      </trkpt>
      <trkpt lat="38.1646" lon="14.79769">
        <ele>8.79</ele>
        <time>2018-04-20T10:08:18Z</time>
      </trkpt>
      <trkpt lat="38.16491" lon="14.79869">
        <ele>6.87</ele>
        <time>2018-04-20T10:08:48Z</time>
      </trkpt>
      <trkpt lat="38.16519" lon="14.79953">
        <ele>7.35</ele>
        <time>2018-04-20T10:09:13Z</time>
      </trkpt>
      <trkpt lat="38.16548" lon="14.80044">
        <ele>7.83</ele>
        <time>2018-04-20T10:09:40Z</time>
      </trkpt>
      <trkpt lat="38.16577" lon="14.80134">
        <ele>6.39</ele>
        <time>2018-04-20T10:10:07Z</time>
      </trkpt>
      <trkpt lat="38.16608" lon="14.80232">
        <ele>6.87</ele>
        <time>2018-04-20T10:10:36Z</time>
      </trkpt>
      <trkpt lat="38.16634" lon="14.8031">
        <ele>5.91</ele>
        <time>2018-04-20T10:10:59Z</time>
      </trkpt>
      <trkpt lat="38.16663" lon="14.80401">
        <ele>7.83</ele>
        <time>2018-04-20T10:11:26Z</time>
      </trkpt>
      <trkpt lat="38.16698" lon="14.80509">
        <ele>8.31</ele>
        <time>2018-04-20T10:11:58Z</time>
      </trkpt>
      <trkpt lat="38.1673" lon="14.80611">
        <ele>7.35</ele>
        <time>2018-04-20T10:12:28Z</time>
      </trkpt>
      <trkpt lat="38.16763" lon="14.80719">
        <ele>8.79</ele>
        <time>2018-04-20T10:13:00Z</time>
      </trkpt>
      <trkpt lat="38.16792" lon="14.80806">
        <ele>8.31</ele>
        <time>2018-04-20T10:13:26Z</time>
      </trkpt>
      <trkpt lat="38.16821" lon="14.809">
        <ele>7.83</ele>
        <time>2018-04-20T10:13:54Z</time>
      </trkpt>
      <trkpt lat="38.16849" lon="14.80984">
        <ele>6.87</ele>
        <time>2018-04-20T10:14:19Z</time>
      </trkpt>
      <trkpt lat="38.16879" lon="14.81076">
        <ele>6.39</ele>
        <time>2018-04-20T10:14:46Z</time>
      </trkpt>
      <trkpt lat="38.16905" lon="14.81157">
        <ele>7.35</ele>
        <time>2018-04-20T10:15:10Z</time>
      </trkpt>
      <trkpt lat="38.16932" lon="14.81247">
        <ele>8.79</ele>
        <time>2018-04-20T10:15:39Z</time>
      </trkpt>
      <trkpt lat="38.16959" lon="14.81337">
        <ele>7.35</ele>
        <time>2018-04-20T10:16:10Z</time>
      </trkpt>
      <trkpt lat="38.16984" lon="14.81417">
        <ele>7.35</ele>
        <time>2018-04-20T10:16:37Z</time>
      </trkpt>
      <trkpt lat="38.17007" lon="14.81492">
        <ele>7.35</ele>
        <time>2018-04-20T10:17:03Z</time>
      </trkpt>
      <trkpt lat="38.17028" lon="14.81559">
        <ele>7.83</ele>
        <time>2018-04-20T10:17:26Z</time>
      </trkpt>
      <trkpt lat="38.17052" lon="14.81638">
        <ele>7.83</ele>
        <time>2018-04-20T10:17:53Z</time>
      </trkpt>
      <trkpt lat="38.17076" lon="14.81713">
        <ele>8.31</ele>
        <time>2018-04-20T10:18:19Z</time>
      </trkpt>
      <trkpt lat="38.17099" lon="14.81789">
        <ele>8.31</ele>
        <time>2018-04-20T10:18:45Z</time>
      </trkpt>
      <trkpt lat="38.17104" lon="14.81875">
        <ele>8.31</ele>
        <time>2018-04-20T10:19:12Z</time>
      </trkpt>
      <trkpt lat="38.17107" lon="14.81978">
        <ele>8.79</ele>
        <time>2018-04-20T10:19:45Z</time>
      </trkpt>
      <trkpt lat="38.17109" lon="14.82049">
        <ele>9.75</ele>
        <time>2018-04-20T10:20:07Z</time>
      </trkpt>
      <trkpt lat="38.17114" lon="14.82136">
        <ele>9.27</ele>
        <time>2018-04-20T10:20:34Z</time>
      </trkpt>
      <trkpt lat="38.17117" lon="14.82206">
        <ele>10.23</ele>
        <time>2018-04-20T10:20:56Z</time>
      </trkpt>
      <trkpt lat="38.1712" lon="14.82297">
        <ele>9.27</ele>
        <time>2018-04-20T10:21:25Z</time>
      </trkpt>
      <trkpt lat="38.17125" lon="14.82377">
        <ele>8.79</ele>
        <time>2018-04-20T10:21:50Z</time>
      </trkpt>
      <trkpt lat="38.1713" lon="14.82461">
        <ele>9.75</ele>
        <time>2018-04-20T10:22:16Z</time>
      </trkpt>
      <trkpt lat="38.17134" lon="14.8254">
        <ele>8.31</ele>
        <time>2018-04-20T10:22:41Z</time>
      </trkpt>
      <trkpt lat="38.17137" lon="14.82626">
        <ele>8.79</ele>
        <time>2018-04-20T10:23:08Z</time>
      </trkpt>
      <trkpt lat="38.17141" lon="14.82704">
        <ele>8.79</ele>
        <time>2018-04-20T10:23:32Z</time>
      </trkpt>
      <trkpt lat="38.17145" lon="14.82804">
        <ele>9.27</ele>
        <time>2018-04-20T10:24:03Z</time>
      </trkpt>
      <trkpt lat="38.1715" lon="14.82894">
        <ele>8.31</ele>
        <time>2018-04-20T10:24:31Z</time>
      </trkpt>
      <trkpt lat="38.17155" lon="14.82972">
        <ele>8.31</ele>
        <time>2018-04-20T10:24:55Z</time>
      </trkpt>
      <trkpt lat="38.17161" lon="14.83064">
        <ele>8.31</ele>
        <time>2018-04-20T10:25:23Z</time>
      </trkpt>
      <trkpt lat="38.17168" lon="14.83154">
        <ele>7.35</ele>
        <time>2018-04-20T10:25:51Z</time>
      </trkpt>
      <trkpt lat="38.17176" lon="14.83239">
        <ele>7.35</ele>
        <time>2018-04-20T10:26:18Z</time>
      </trkpt>
      <trkpt lat="38.17185" lon="14.83317">
        <ele>8.31</ele>
        <time>2018-04-20T10:26:43Z</time>
      </trkpt>
      <trkpt lat="38.17197" lon="14.83401">
        <ele>9.27</ele>
        <time>2018-04-20T10:27:10Z</time>
      </trkpt>
      <trkpt lat="38.17207" lon="14.8347">
        <ele>9.27</ele>
        <time>2018-04-20T10:27:32Z</time>
      </trkpt>
      <trkpt lat="38.17219" lon="14.83538">
        <ele>9.75</ele>
        <time>2018-04-20T10:27:54Z</time>
      </trkpt>
      <trkpt lat="38.1723" lon="14.83608">
        <ele>9.27</ele>
        <time>2018-04-20T10:28:17Z</time>
      </trkpt>
      <trkpt lat="38.17245" lon="14.83691">
        <ele>10.23</ele>
        <time>2018-04-20T10:28:44Z</time>
      </trkpt>
      <trkpt lat="38.17257" lon="14.83765">
        <ele>10.23</ele>
        <time>2018-04-20T10:29:08Z</time>
      </trkpt>
      <trkpt lat="38.1727" lon="14.83862">
        <ele>8.31</ele>
        <time>2018-04-20T10:29:39Z</time>
      </trkpt>
      <trkpt lat="38.17278" lon="14.83945">
        <ele>8.79</ele>
        <time>2018-04-20T10:30:05Z</time>
      </trkpt>
      <trkpt lat="38.17284" lon="14.84017">
        <ele>7.35</ele>
        <time>2018-04-20T10:30:28Z</time>
      </trkpt>
      <trkpt lat="38.17291" lon="14.84078">
        <ele>7.83</ele>
        <time>2018-04-20T10:30:47Z</time>
      </trkpt>
      <trkpt lat="38.17298" lon="14.84159">
        <ele>7.83</ele>
        <time>2018-04-20T10:31:13Z</time>
      </trkpt>
      <trkpt lat="38.17306" lon="14.84235">
        <ele>8.31</ele>
        <time>2018-04-20T10:31:37Z</time>
      </trkpt>
      <trkpt lat="38.17314" lon="14.84322">
        <ele>6.39</ele>
        <time>2018-04-20T10:32:05Z</time>
      </trkpt>
      <trkpt lat="38.17321" lon="14.84397">
        <ele>6.39</ele>
        <time>2018-04-20T10:32:29Z</time>
      </trkpt>
      <trkpt lat="38.1733" lon="14.84475">
        <ele>5.91</ele>
        <time>2018-04-20T10:32:54Z</time>
      </trkpt>
      <trkpt lat="38.1734" lon="14.84585">
        <ele>6.39</ele>
        <time>2018-04-20T10:33:30Z</time>
      </trkpt>
      <trkpt lat="38.17347" lon="14.84674">
        <ele>8.31</ele>
        <time>2018-04-20T10:33:59Z</time>
      </trkpt>
      <trkpt lat="38.17354" lon="14.84758">
        <ele>8.31</ele>
        <time>2018-04-20T10:34:26Z</time>
      </trkpt>
      <trkpt lat="38.17362" lon="14.8483">
        <ele>9.27</ele>
        <time>2018-04-20T10:34:49Z</time>
      </trkpt>
      <trkpt lat="38.17367" lon="14.84899">
        <ele>8.31</ele>
        <time>2018-04-20T10:35:11Z</time>
      </trkpt>
      <trkpt lat="38.17374" lon="14.84984">
        <ele>7.83</ele>
        <time>2018-04-20T10:35:38Z</time>
      </trkpt>
      <trkpt lat="38.1738" lon="14.85059">
        <ele>6.87</ele>
        <time>2018-04-20T10:36:02Z</time>
      </trkpt>
      <trkpt lat="38.17385" lon="14.85125">
        <ele>6.39</ele>
        <time>2018-04-20T10:36:23Z</time>
      </trkpt>
      <trkpt lat="38.17393" lon="14.85192">
        <ele>4.94</ele>
        <time>2018-04-20T10:36:44Z</time>
      </trkpt>
      <trkpt lat="38.17398" lon="14.85269">
        <ele>6.87</ele>
        <time>2018-04-20T10:37:09Z</time>
      </trkpt>
      <trkpt lat="38.17406" lon="14.85353">
        <ele>7.83</ele>
        <time>2018-04-20T10:37:36Z</time>
      </trkpt>
      <trkpt lat="38.17411" lon="14.85424">
        <ele>7.35</ele>
        <time>2018-04-20T10:37:59Z</time>
      </trkpt>
      <trkpt lat="38.17416" lon="14.85505">
        <ele>7.83</ele>
        <time>2018-04-20T10:38:25Z</time>
      </trkpt>
      <trkpt lat="38.17424" lon="14.85583">
        <ele>7.35</ele>
        <time>2018-04-20T10:38:50Z</time>
      </trkpt>
      <trkpt lat="38.17434" lon="14.85657">
        <ele>6.87</ele>
        <time>2018-04-20T10:39:14Z</time>
      </trkpt>
      <trkpt lat="38.17443" lon="14.85724">
        <ele>6.39</ele>
        <time>2018-04-20T10:39:36Z</time>
      </trkpt>
      <trkpt lat="38.17452" lon="14.85804">
        <ele>5.91</ele>
        <time>2018-04-20T10:40:03Z</time>
      </trkpt>
      <trkpt lat="38.17463" lon="14.85878">
        <ele>6.87</ele>
        <time>2018-04-20T10:40:28Z</time>
      </trkpt>
      <trkpt lat="38.17473" lon="14.85952">
        <ele>6.87</ele>
        <time>2018-04-20T10:40:53Z</time>
      </trkpt>
      <trkpt lat="38.17483" lon="14.86023">
        <ele>8.79</ele>
        <time>2018-04-20T10:41:17Z</time>
      </trkpt>
      <trkpt lat="38.17493" lon="14.86097">
        <ele>7.35</ele>
        <time>2018-04-20T10:41:42Z</time>
      </trkpt>
      <trkpt lat="38.17504" lon="14.86177">
        <ele>5.91</ele>
        <time>2018-04-20T10:42:09Z</time>
      </trkpt>
      <trkpt lat="38.17505" lon="14.86245">
        <ele>5.42</ele>
        <time>2018-04-20T10:42:31Z</time>
      </trkpt>
      <trkpt lat="38.17505" lon="14.86324">
        <ele>4.46</ele>
        <time>2018-04-20T10:42:57Z</time>
      </trkpt>
      <trkpt lat="38.17504" lon="14.86388">
        <ele>5.42</ele>
        <time>2018-04-20T10:43:18Z</time>
      </trkpt>
      <trkpt lat="38.17505" lon="14.86478">
        <ele>4.94</ele>
        <time>2018-04-20T10:43:47Z</time>
      </trkpt>
      <trkpt lat="38.17505" lon="14.86551">
        <ele>5.42</ele>
        <time>2018-04-20T10:44:11Z</time>
      </trkpt>
      <trkpt lat="38.17505" lon="14.8664">
        <ele>5.42</ele>
        <time>2018-04-20T10:44:40Z</time>
      </trkpt>
      <trkpt lat="38.17506" lon="14.86713">
        <ele>4.94</ele>
        <time>2018-04-20T10:45:04Z</time>
      </trkpt>
      <trkpt lat="38.17506" lon="14.86802">
        <ele>6.39</ele>
        <time>2018-04-20T10:45:33Z</time>
      </trkpt>
      <trkpt lat="38.17506" lon="14.86878">
        <ele>5.91</ele>
        <time>2018-04-20T10:45:58Z</time>
      </trkpt>
      <trkpt lat="38.17505" lon="14.8697">
        <ele>5.91</ele>
        <time>2018-04-20T10:46:28Z</time>
      </trkpt>
      <trkpt lat="38.17506" lon="14.87054">
        <ele>6.87</ele>
        <time>2018-04-20T10:46:56Z</time>
      </trkpt>
      <trkpt lat="38.17506" lon="14.87117">
        <ele>6.39</ele>
        <time>2018-04-20T10:47:17Z</time>
      </trkpt>
      <trkpt lat="38.17506" lon="14.87213">
        <ele>6.39</ele>
        <time>2018-04-20T10:47:49Z</time>
      </trkpt>
      <trkpt lat="38.17506" lon="14.87292">
        <ele>5.91</ele>
        <time>2018-04-20T10:48:16Z</time>
      </trkpt>
      <trkpt lat="38.17505" lon="14.87368">
        <ele>5.42</ele>
        <time>2018-04-20T10:48:42Z</time>
      </trkpt>
      <trkpt lat="38.17503" lon="14.87448">
        <ele>5.42</ele>
        <time>2018-04-20T10:49:08Z</time>
      </trkpt>
      <trkpt lat="38.17502" lon="14.87537">
        <ele>4.94</ele>
        <time>2018-04-20T10:49:36Z</time>
      </trkpt>
      <trkpt lat="38.175" lon="14.87619">
        <ele>4.94</ele>
        <time>2018-04-20T10:50:02Z</time>
      </trkpt>
      <trkpt lat="38.17498" lon="14.8769">
        <ele>4.94</ele>
        <time>2018-04-20T10:50:25Z</time>
      </trkpt>
      <trkpt lat="38.17496" lon="14.87762">
        <ele>3.98</ele>
        <time>2018-04-20T10:50:48Z</time>
      </trkpt>
      <trkpt lat="38.17495" lon="14.87843">
        <ele>3.5</ele>
        <time>2018-04-20T10:51:14Z</time>
      </trkpt>
      <trkpt lat="38.17493" lon="14.8793">
        <ele>3.5</ele>
        <time>2018-04-20T10:51:42Z</time>
      </trkpt>
      <trkpt lat="38.17492" lon="14.88018">
        <ele>4.46</ele>
        <time>2018-04-20T10:52:11Z</time>
      </trkpt>
      <trkpt lat="38.1749" lon="14.88114">
        <ele>4.46</ele>
        <time>2018-04-20T10:52:42Z</time>
      </trkpt>
      <trkpt lat="38.17489" lon="14.88193">
        <ele>4.94</ele>
        <time>2018-04-20T10:53:08Z</time>
      </trkpt>
      <trkpt lat="38.17489" lon="14.88277">
        <ele>3.5</ele>
        <time>2018-04-20T10:53:35Z</time>
      </trkpt>
      <trkpt lat="38.17488" lon="14.88358">
        <ele>3.5</ele>
        <time>2018-04-20T10:54:01Z</time>
      </trkpt>
      <trkpt lat="38.17487" lon="14.88439">
        <ele>3.02</ele>
        <time>2018-04-20T10:54:27Z</time>
      </trkpt>
      <trkpt lat="38.17486" lon="14.88533">
        <ele>2.54</ele>
        <time>2018-04-20T10:54:57Z</time>
      </trkpt>
      <trkpt lat="38.17485" lon="14.88605">
        <ele>2.54</ele>
        <time>2018-04-20T10:55:20Z</time>
      </trkpt>
      <trkpt lat="38.17486" lon="14.88694">
        <ele>2.06</ele>
        <time>2018-04-20T10:55:48Z</time>
      </trkpt>
      <trkpt lat="38.17488" lon="14.88795">
        <ele>2.06</ele>
        <time>2018-04-20T10:56:20Z</time>
      </trkpt>
      <trkpt lat="38.17493" lon="14.88871">
        <ele>2.06</ele>
        <time>2018-04-20T10:56:44Z</time>
      </trkpt>
      <trkpt lat="38.17514" lon="14.88941">
        <ele>1.1</ele>
        <time>2018-04-20T10:57:08Z</time>
      </trkpt>
      <trkpt lat="38.17551" lon="14.88994">
        <ele>1.58</ele>
        <time>2018-04-20T10:57:30Z</time>
      </trkpt>
      <trkpt lat="38.17595" lon="14.89051">
        <ele>3.02</ele>
        <time>2018-04-20T10:57:55Z</time>
      </trkpt>
      <trkpt lat="38.17642" lon="14.89109">
        <ele>3.98</ele>
        <time>2018-04-20T10:58:21Z</time>
      </trkpt>
      <trkpt lat="38.17684" lon="14.89165">
        <ele>4.94</ele>
        <time>2018-04-20T10:58:45Z</time>
      </trkpt>
      <trkpt lat="38.17738" lon="14.89215">
        <ele>4.46</ele>
        <time>2018-04-20T10:59:11Z</time>
      </trkpt>
      <trkpt lat="38.17799" lon="14.89266">
        <ele>4.46</ele>
        <time>2018-04-20T10:59:40Z</time>
      </trkpt>
      <trkpt lat="38.17857" lon="14.89305">
        <ele>3.5</ele>
        <time>2018-04-20T11:00:06Z</time>
      </trkpt>
      <trkpt lat="38.17912" lon="14.89341">
        <ele>3.98</ele>
        <time>2018-04-20T11:00:30Z</time>
      </trkpt>
      <trkpt lat="38.17966" lon="14.8938">
        <ele>3.5</ele>
        <time>2018-04-20T11:00:54Z</time>
      </trkpt>
      <trkpt lat="38.18018" lon="14.89423">
        <ele>3.5</ele>
        <time>2018-04-20T11:01:18Z</time>
      </trkpt>
      <trkpt lat="38.18069" lon="14.89461">
        <ele>3.98</ele>
        <time>2018-04-20T11:01:41Z</time>
      </trkpt>
      <trkpt lat="38.1811" lon="14.89495">
        <ele>4.46</ele>
        <time>2018-04-20T11:02:00Z</time>
      </trkpt>
      <trkpt lat="38.18156" lon="14.89513">
        <ele>4.46</ele>
        <time>2018-04-20T11:02:19Z</time>
      </trkpt>
      <trkpt lat="38.18203" lon="14.89531">
        <ele>2.06</ele>
        <time>2018-04-20T11:02:38Z</time>
      </trkpt>
      <trkpt lat="38.18266" lon="14.8956">
        <ele>0.14</ele>
        <time>2018-04-20T11:03:04Z</time>
      </trkpt>
      <trkpt lat="38.18327" lon="14.89598">
        <ele>0.62</ele>
        <time>2018-04-20T11:03:30Z</time>
      </trkpt>
      <trkpt lat="38.18371" lon="14.89637">
        <ele>3.02</ele>
        <time>2018-04-20T11:03:51Z</time>
      </trkpt>
      <trkpt lat="38.18416" lon="14.89705">
        <ele>4.46</ele>
        <time>2018-04-20T11:04:18Z</time>
      </trkpt>
      <trkpt lat="38.18448" lon="14.89763">
        <ele>4.46</ele>
        <time>2018-04-20T11:04:40Z</time>
      </trkpt>
      <trkpt lat="38.18486" lon="14.89827">
        <ele>4.94</ele>
        <time>2018-04-20T11:05:04Z</time>
      </trkpt>
      <trkpt lat="38.18521" lon="14.89901">
        <ele>4.46</ele>
        <time>2018-04-20T11:05:30Z</time>
      </trkpt>
      <trkpt lat="38.18556" lon="14.89963">
        <ele>4.46</ele>
        <time>2018-04-20T11:05:53Z</time>
      </trkpt>
      <trkpt lat="38.18594" lon="14.90033">
        <ele>4.46</ele>
        <time>2018-04-20T11:06:19Z</time>
      </trkpt>
      <trkpt lat="38.18631" lon="14.90115">
        <ele>3.5</ele>
        <time>2018-04-20T11:06:47Z</time>
      </trkpt>
      <trkpt lat="38.1866" lon="14.90185">
        <ele>3.02</ele>
        <time>2018-04-20T11:07:11Z</time>
      </trkpt>
      <trkpt lat="38.18695" lon="14.90261">
        <ele>4.46</ele>
        <time>2018-04-20T11:07:38Z</time>
      </trkpt>
      <trkpt lat="38.18738" lon="14.90319">
        <ele>4.46</ele>
        <time>2018-04-20T11:08:03Z</time>
      </trkpt>
      <trkpt lat="38.18782" lon="14.90373">
        <ele>4.46</ele>
        <time>2018-04-20T11:08:27Z</time>
      </trkpt>
      <trkpt lat="38.18834" lon="14.90426">
        <ele>3.98</ele>
        <time>2018-04-20T11:08:53Z</time>
      </trkpt>
      <trkpt lat="38.18877" lon="14.90479">
        <ele>3.98</ele>
        <time>2018-04-20T11:09:17Z</time>
      </trkpt>
      <trkpt lat="38.18916" lon="14.90531">
        <ele>4.94</ele>
        <time>2018-04-20T11:09:39Z</time>
      </trkpt>
      <trkpt lat="38.18963" lon="14.90591">
        <ele>4.46</ele>
        <time>2018-04-20T11:10:05Z</time>
      </trkpt>
      <trkpt lat="38.19006" lon="14.90643">
        <ele>4.46</ele>
        <time>2018-04-20T11:10:28Z</time>
      </trkpt>
      <trkpt lat="38.19049" lon="14.90696">
        <ele>5.42</ele>
        <time>2018-04-20T11:10:52Z</time>
      </trkpt>
      <trkpt lat="38.19095" lon="14.90749">
        <ele>5.91</ele>
        <time>2018-04-20T11:11:16Z</time>
      </trkpt>
      <trkpt lat="38.19141" lon="14.90811">
        <ele>4.94</ele>
        <time>2018-04-20T11:11:42Z</time>
      </trkpt>
      <trkpt lat="38.1918" lon="14.90871">
        <ele>4.94</ele>
        <time>2018-04-20T11:12:06Z</time>
      </trkpt>
      <trkpt lat="38.19222" lon="14.90943">
        <ele>4.46</ele>
        <time>2018-04-20T11:12:33Z</time>
      </trkpt>
      <trkpt lat="38.19253" lon="14.91">
        <ele>5.42</ele>
        <time>2018-04-20T11:12:54Z</time>
      </trkpt>
      <trkpt lat="38.19296" lon="14.9108">
        <ele>4.46</ele>
        <time>2018-04-20T11:13:24Z</time>
      </trkpt>
      <trkpt lat="38.19333" lon="14.91153">
        <ele>3.98</ele>
        <time>2018-04-20T11:13:50Z</time>
      </trkpt>
      <trkpt lat="38.1936" lon="14.91227">
        <ele>4.46</ele>
        <time>2018-04-20T11:14:15Z</time>
      </trkpt>
      <trkpt lat="38.19359" lon="14.913">
        <ele>4.46</ele>
        <time>2018-04-20T11:14:38Z</time>
      </trkpt>
      <trkpt lat="38.19351" lon="14.9135">
        <ele>3.98</ele>
        <time>2018-04-20T11:15:01Z</time>
      </trkpt>
      <trkpt lat="38.19346" lon="14.91395">
        <ele>3.98</ele>
        <time>2018-04-20T11:15:28Z</time>
      </trkpt>
      <trkpt lat="38.19346" lon="14.91444">
        <ele>5.42</ele>
        <time>2018-04-20T11:15:57Z</time>
      </trkpt>
      <trkpt lat="38.19341" lon="14.91495">
        <ele>4.46</ele>
        <time>2018-04-20T11:16:23Z</time>
      </trkpt>
      <trkpt lat="38.19332" lon="14.9155">
        <ele>3.98</ele>
        <time>2018-04-20T11:16:49Z</time>
      </trkpt>
      <trkpt lat="38.19318" lon="14.91609">
        <ele>3.5</ele>
        <time>2018-04-20T11:17:17Z</time>
      </trkpt>
      <trkpt lat="38.19303" lon="14.91652">
        <ele>4.46</ele>
        <time>2018-04-20T11:17:39Z</time>
      </trkpt>
      <trkpt lat="38.19283" lon="14.91698">
        <ele>4.46</ele>
        <time>2018-04-20T11:18:03Z</time>
      </trkpt>
      <trkpt lat="38.19264" lon="14.91756">
        <ele>3.98</ele>
        <time>2018-04-20T11:18:33Z</time>
      </trkpt>
      <trkpt lat="38.19242" lon="14.91813">
        <ele>3.5</ele>
        <time>2018-04-20T11:19:03Z</time>
      </trkpt>
      <trkpt lat="38.19226" lon="14.91853">
        <ele>3.02</ele>
        <time>2018-04-20T11:19:24Z</time>
      </trkpt>
      <trkpt lat="38.19216" lon="14.91909">
        <ele>3.5</ele>
        <time>2018-04-20T11:19:51Z</time>
      </trkpt>
      <trkpt lat="38.19201" lon="14.91971">
        <ele>3.98</ele>
        <time>2018-04-20T11:20:21Z</time>
      </trkpt>
      <trkpt lat="38.19189" lon="14.9202">
        <ele>4.94</ele>
        <time>2018-04-20T11:20:45Z</time>
      </trkpt>
      <trkpt lat="38.19178" lon="14.92076">
        <ele>6.39</ele>
        <time>2018-04-20T11:21:12Z</time>
      </trkpt>
      <trkpt lat="38.19168" lon="14.92129">
        <ele>6.39</ele>
        <time>2018-04-20T11:21:37Z</time>
      </trkpt>
      <trkpt lat="38.19158" lon="14.92178">
        <ele>3.98</ele>
        <time>2018-04-20T11:22:00Z</time>
      </trkpt>
      <trkpt lat="38.1914" lon="14.92241">
        <ele>2.54</ele>
        <time>2018-04-20T11:22:30Z</time>
      </trkpt>
      <trkpt lat="38.19118" lon="14.92301">
        <ele>1.58</ele>
        <time>2018-04-20T11:23:00Z</time>
      </trkpt>
      <trkpt lat="38.19094" lon="14.92347">
        <ele>1.1</ele>
        <time>2018-04-20T11:23:26Z</time>
      </trkpt>
      <trkpt lat="38.1907" lon="14.92401">
        <ele>2.06</ele>
        <time>2018-04-20T11:23:54Z</time>
      </trkpt>
      <trkpt lat="38.19052" lon="14.9245">
        <ele>1.1</ele>
        <time>2018-04-20T11:24:19Z</time>
      </trkpt>
      <trkpt lat="38.1903" lon="14.92501">
        <ele>2.06</ele>
        <time>2018-04-20T11:24:46Z</time>
      </trkpt>
      <trkpt lat="38.18999" lon="14.92568">
        <ele>2.06</ele>
        <time>2018-04-20T11:25:21Z</time>
      </trkpt>
      <trkpt lat="38.18975" lon="14.92622">
        <ele>0.62</ele>
        <time>2018-04-20T11:25:49Z</time>
      </trkpt>
      <trkpt lat="38.18951" lon="14.92676">
        <ele>2.06</ele>
        <time>2018-04-20T11:26:17Z</time>
      </trkpt>
      <trkpt lat="38.18926" lon="14.92729">
        <ele>3.02</ele>
        <time>2018-04-20T11:26:44Z</time>
      </trkpt>
      <trkpt lat="38.18902" lon="14.92783">
        <ele>3.02</ele>
        <time>2018-04-20T11:27:12Z</time>
      </trkpt>
      <trkpt lat="38.18874" lon="14.92839">
        <ele>2.06</ele>
        <time>2018-04-20T11:27:44Z</time>
      </trkpt>
      <trkpt lat="38.1884" lon="14.92903">
        <ele>1.58</ele>
        <time>2018-04-20T11:28:13Z</time>
      </trkpt>
      <trkpt lat="38.188" lon="14.92979">
        <ele>2.06</ele>
        <time>2018-04-20T11:28:44Z</time>
      </trkpt>
      <trkpt lat="38.18768" lon="14.93046">
        <ele>3.02</ele>
        <time>2018-04-20T11:29:10Z</time>
      </trkpt>
      <trkpt lat="38.18734" lon="14.93126">
        <ele>4.46</ele>
        <time>2018-04-20T11:29:40Z</time>
      </trkpt>
      <trkpt lat="38.18704" lon="14.93204">
        <ele>4.94</ele>
        <time>2018-04-20T11:30:09Z</time>
      </trkpt>
      <trkpt lat="38.18677" lon="14.93286">
        <ele>4.94</ele>
        <time>2018-04-20T11:30:39Z</time>
      </trkpt>
      <trkpt lat="38.18642" lon="14.93352">
        <ele>4.46</ele>
        <time>2018-04-20T11:31:06Z</time>
      </trkpt>
      <trkpt lat="38.18604" lon="14.93432">
        <ele>5.91</ele>
        <time>2018-04-20T11:31:38Z</time>
      </trkpt>
      <trkpt lat="38.18568" lon="14.93515">
        <ele>5.42</ele>
        <time>2018-04-20T11:32:11Z</time>
      </trkpt>
      <trkpt lat="38.18531" lon="14.9359">
        <ele>4.46</ele>
        <time>2018-04-20T11:32:41Z</time>
      </trkpt>
      <trkpt lat="38.18492" lon="14.93666">
        <ele>4.46</ele>
        <time>2018-04-20T11:33:12Z</time>
      </trkpt>
      <trkpt lat="38.18457" lon="14.93733">
        <ele>3.5</ele>
        <time>2018-04-20T11:33:39Z</time>
      </trkpt>
      <trkpt lat="38.18422" lon="14.938">
        <ele>3.98</ele>
        <time>2018-04-20T11:34:07Z</time>
      </trkpt>
      <trkpt lat="38.18385" lon="14.93871">
        <ele>2.06</ele>
        <time>2018-04-20T11:34:36Z</time>
      </trkpt>
      <trkpt lat="38.18351" lon="14.93937">
        <ele>2.06</ele>
        <time>2018-04-20T11:35:03Z</time>
      </trkpt>
      <trkpt lat="38.18321" lon="14.93996">
        <ele>0.62</ele>
        <time>2018-04-20T11:35:27Z</time>
      </trkpt>
      <trkpt lat="38.18283" lon="14.94073">
        <ele>1.1</ele>
        <time>2018-04-20T11:35:57Z</time>
      </trkpt>
      <trkpt lat="38.18257" lon="14.94137">
        <ele>0.62</ele>
        <time>2018-04-20T11:36:21Z</time>
      </trkpt>
      <trkpt lat="38.18222" lon="14.94206">
        <ele>-0.34</ele>
        <time>2018-04-20T11:36:48Z</time>
      </trkpt>
      <trkpt lat="38.18188" lon="14.94286">
        <ele>2.06</ele>
        <time>2018-04-20T11:37:18Z</time>
      </trkpt>
      <trkpt lat="38.18172" lon="14.9435">
        <ele>4.46</ele>
        <time>2018-04-20T11:37:47Z</time>
      </trkpt>
      <trkpt lat="38.18161" lon="14.94397">
        <ele>4.46</ele>
        <time>2018-04-20T11:38:13Z</time>
      </trkpt>
      <trkpt lat="38.18142" lon="14.94455">
        <ele>4.46</ele>
        <time>2018-04-20T11:38:46Z</time>
      </trkpt>
      <trkpt lat="38.1813" lon="14.94509">
        <ele>3.5</ele>
        <time>2018-04-20T11:39:17Z</time>
      </trkpt>
      <trkpt lat="38.18123" lon="14.94554">
        <ele>3.98</ele>
        <time>2018-04-20T11:39:47Z</time>
      </trkpt>
      <trkpt lat="38.18117" lon="14.9459">
        <ele>3.5</ele>
        <time>2018-04-20T11:40:17Z</time>
      </trkpt>
      <trkpt lat="38.18106" lon="14.94625">
        <ele>2.54</ele>
        <time>2018-04-20T11:40:48Z</time>
      </trkpt>
      <trkpt lat="38.18098" lon="14.94661">
        <ele>4.94</ele>
        <time>2018-04-20T11:41:16Z</time>
      </trkpt>
      <trkpt lat="38.1809" lon="14.94702">
        <ele>4.94</ele>
        <time>2018-04-20T11:41:45Z</time>
      </trkpt>
      <trkpt lat="38.18082" lon="14.94738">
        <ele>5.91</ele>
        <time>2018-04-20T11:42:14Z</time>
      </trkpt>
      <trkpt lat="38.18074" lon="14.9477">
        <ele>5.91</ele>
        <time>2018-04-20T11:42:43Z</time>
      </trkpt>
      <trkpt lat="38.18068" lon="14.94799">
        <ele>6.39</ele>
        <time>2018-04-20T11:43:11Z</time>
      </trkpt>
      <trkpt lat="38.18059" lon="14.94834">
        <ele>6.39</ele>
        <time>2018-04-20T11:43:40Z</time>
      </trkpt>
      <trkpt lat="38.18049" lon="14.94873">
        <ele>4.94</ele>
        <time>2018-04-20T11:44:10Z</time>
      </trkpt>
      <trkpt lat="38.18041" lon="14.9491">
        <ele>4.94</ele>
        <time>2018-04-20T11:44:38Z</time>
      </trkpt>
      <trkpt lat="38.18031" lon="14.94957">
        <ele>6.39</ele>
        <time>2018-04-20T11:45:11Z</time>
      </trkpt>
      <trkpt lat="38.18019" lon="14.9501">
        <ele>4.94</ele>
        <time>2018-04-20T11:45:42Z</time>
      </trkpt>
      <trkpt lat="38.18006" lon="14.95071">
        <ele>5.42</ele>
        <time>2018-04-20T11:46:18Z</time>
      </trkpt>
      <trkpt lat="38.17994" lon="14.95127">
        <ele>4.94</ele>
        <time>2018-04-20T11:46:51Z</time>
      </trkpt>
      <trkpt lat="38.1798" lon="14.95185">
        <ele>5.42</ele>
        <time>2018-04-20T11:47:27Z</time>
      </trkpt>
      <trkpt lat="38.17969" lon="14.95229">
        <ele>4.46</ele>
        <time>2018-04-20T11:47:56Z</time>
      </trkpt>
      <trkpt lat="38.17959" lon="14.95268">
        <ele>3.98</ele>
        <time>2018-04-20T11:48:24Z</time>
      </trkpt>
      <trkpt lat="38.17951" lon="14.95299">
        <ele>2.54</ele>
        <time>2018-04-20T11:48:49Z</time>
      </trkpt>
      <trkpt lat="38.17941" lon="14.95335">
        <ele>3.5</ele>
        <time>2018-04-20T11:49:19Z</time>
      </trkpt>
      <trkpt lat="38.1793" lon="14.95376">
        <ele>3.5</ele>
        <time>2018-04-20T11:49:55Z</time>
      </trkpt>
      <trkpt lat="38.17923" lon="14.95402">
        <ele>3.02</ele>
        <time>2018-04-20T11:50:21Z</time>
      </trkpt>
      <trkpt lat="38.17911" lon="14.95443">
        <ele>3.02</ele>
        <time>2018-04-20T11:50:53Z</time>
      </trkpt>
      <trkpt lat="38.179" lon="14.95492">
        <ele>4.46</ele>
        <time>2018-04-20T11:51:24Z</time>
      </trkpt>
      <trkpt lat="38.1789" lon="14.95541">
        <ele>6.39</ele>
        <time>2018-04-20T11:51:52Z</time>
      </trkpt>
      <trkpt lat="38.1788" lon="14.95593">
        <ele>5.42</ele>
        <time>2018-04-20T11:52:21Z</time>
      </trkpt>
      <trkpt lat="38.17869" lon="14.95643">
        <ele>6.87</ele>
        <time>2018-04-20T11:52:48Z</time>
      </trkpt>
      <trkpt lat="38.17858" lon="14.95693">
        <ele>6.87</ele>
        <time>2018-04-20T11:53:15Z</time>
      </trkpt>
      <trkpt lat="38.17847" lon="14.95749">
        <ele>6.87</ele>
        <time>2018-04-20T11:53:44Z</time>
      </trkpt>
      <trkpt lat="38.17837" lon="14.95799">
        <ele>6.87</ele>
        <time>2018-04-20T11:54:10Z</time>
      </trkpt>
      <trkpt lat="38.17824" lon="14.95857">
        <ele>7.35</ele>
        <time>2018-04-20T11:54:43Z</time>
      </trkpt>
      <trkpt lat="38.17814" lon="14.95912">
        <ele>9.27</ele>
        <time>2018-04-20T11:55:18Z</time>
      </trkpt>
      <trkpt lat="38.17804" lon="14.95957">
        <ele>8.31</ele>
        <time>2018-04-20T11:55:47Z</time>
      </trkpt>
      <trkpt lat="38.17794" lon="14.96003">
        <ele>7.83</ele>
        <time>2018-04-20T11:56:19Z</time>
      </trkpt>
      <trkpt lat="38.17786" lon="14.96043">
        <ele>9.27</ele>
        <time>2018-04-20T11:56:45Z</time>
      </trkpt>
      <trkpt lat="38.17778" lon="14.96083">
        <ele>8.79</ele>
        <time>2018-04-20T11:57:10Z</time>
      </trkpt>
      <trkpt lat="38.17769" lon="14.96128">
        <ele>10.23</ele>
        <time>2018-04-20T11:57:37Z</time>
      </trkpt>
      <trkpt lat="38.17757" lon="14.96183">
        <ele>11.19</ele>
        <time>2018-04-20T11:58:09Z</time>
      </trkpt>
      <trkpt lat="38.17745" lon="14.96239">
        <ele>11.67</ele>
        <time>2018-04-20T11:58:39Z</time>
      </trkpt>
      <trkpt lat="38.17733" lon="14.96301">
        <ele>10.23</ele>
        <time>2018-04-20T11:59:10Z</time>
      </trkpt>
      <trkpt lat="38.17721" lon="14.96359">
        <ele>8.79</ele>
        <time>2018-04-20T11:59:40Z</time>
      </trkpt>
      <trkpt lat="38.17708" lon="14.96417">
        <ele>7.83</ele>
        <time>2018-04-20T12:00:13Z</time>
      </trkpt>
      <trkpt lat="38.177" lon="14.96459">
        <ele>7.83</ele>
        <time>2018-04-20T12:00:37Z</time>
      </trkpt>
      <trkpt lat="38.1769" lon="14.9651">
        <ele>6.87</ele>
        <time>2018-04-20T12:01:07Z</time>
      </trkpt>
      <trkpt lat="38.17679" lon="14.96552">
        <ele>6.87</ele>
        <time>2018-04-20T12:01:32Z</time>
      </trkpt>
      <trkpt lat="38.17668" lon="14.96606">
        <ele>5.91</ele>
        <time>2018-04-20T12:02:02Z</time>
      </trkpt>
      <trkpt lat="38.17658" lon="14.96655">
        <ele>5.42</ele>
        <time>2018-04-20T12:02:27Z</time>
      </trkpt>
      <trkpt lat="38.17649" lon="14.96706">
        <ele>5.42</ele>
        <time>2018-04-20T12:02:53Z</time>
      </trkpt>
      <trkpt lat="38.17638" lon="14.96761">
        <ele>5.91</ele>
        <time>2018-04-20T12:03:20Z</time>
      </trkpt>
      <trkpt lat="38.17624" lon="14.96825">
        <ele>5.91</ele>
        <time>2018-04-20T12:03:51Z</time>
      </trkpt>
      <trkpt lat="38.17614" lon="14.96875">
        <ele>5.42</ele>
        <time>2018-04-20T12:04:16Z</time>
      </trkpt>
      <trkpt lat="38.17603" lon="14.96929">
        <ele>5.91</ele>
        <time>2018-04-20T12:04:43Z</time>
      </trkpt>
      <trkpt lat="38.17594" lon="14.96987">
        <ele>5.91</ele>
        <time>2018-04-20T12:05:12Z</time>
      </trkpt>
      <trkpt lat="38.17582" lon="14.97052">
        <ele>5.42</ele>
        <time>2018-04-20T12:05:44Z</time>
      </trkpt>
      <trkpt lat="38.17573" lon="14.97103">
        <ele>6.39</ele>
        <time>2018-04-20T12:06:10Z</time>
      </trkpt>
      <trkpt lat="38.17564" lon="14.97158">
        <ele>7.83</ele>
        <time>2018-04-20T12:06:38Z</time>
      </trkpt>
      <trkpt lat="38.17554" lon="14.97211">
        <ele>8.31</ele>
        <time>2018-04-20T12:07:06Z</time>
      </trkpt>
      <trkpt lat="38.17544" lon="14.97263">
        <ele>8.31</ele>
        <time>2018-04-20T12:07:33Z</time>
      </trkpt>
      <trkpt lat="38.17536" lon="14.97313">
        <ele>8.79</ele>
        <time>2018-04-20T12:07:59Z</time>
      </trkpt>
      <trkpt lat="38.17527" lon="14.97366">
        <ele>8.79</ele>
        <time>2018-04-20T12:08:26Z</time>
      </trkpt>
      <trkpt lat="38.17516" lon="14.97415">
        <ele>7.83</ele>
        <time>2018-04-20T12:08:52Z</time>
      </trkpt>
      <trkpt lat="38.17506" lon="14.97462">
        <ele>5.91</ele>
        <time>2018-04-20T12:09:17Z</time>
      </trkpt>
      <trkpt lat="38.17497" lon="14.97508">
        <ele>5.42</ele>
        <time>2018-04-20T12:09:42Z</time>
      </trkpt>
      <trkpt lat="38.17488" lon="14.97551">
        <ele>5.42</ele>
        <time>2018-04-20T12:10:05Z</time>
      </trkpt>
      <trkpt lat="38.17479" lon="14.976">
        <ele>5.91</ele>
        <time>2018-04-20T12:10:31Z</time>
      </trkpt>
      <trkpt lat="38.17472" lon="14.97652">
        <ele>4.46</ele>
        <time>2018-04-20T12:11:00Z</time>
      </trkpt>
      <trkpt lat="38.17465" lon="14.9769">
        <ele>5.42</ele>
        <time>2018-04-20T12:11:22Z</time>
      </trkpt>
      <trkpt lat="38.17455" lon="14.9775">
        <ele>5.91</ele>
        <time>2018-04-20T12:11:55Z</time>
      </trkpt>
      <trkpt lat="38.17446" lon="14.97804">
        <ele>5.42</ele>
        <time>2018-04-20T12:12:26Z</time>
      </trkpt>
      <trkpt lat="38.17439" lon="14.97849">
        <ele>5.91</ele>
        <time>2018-04-20T12:12:53Z</time>
      </trkpt>
      <trkpt lat="38.17429" lon="14.97905">
        <ele>6.39</ele>
        <time>2018-04-20T12:13:25Z</time>
      </trkpt>
      <trkpt lat="38.17423" lon="14.97945">
        <ele>4.46</ele>
        <time>2018-04-20T12:13:50Z</time>
      </trkpt>
      <trkpt lat="38.17414" lon="14.97993">
        <ele>2.54</ele>
        <time>2018-04-20T12:14:19Z</time>
      </trkpt>
      <trkpt lat="38.17406" lon="14.98038">
        <ele>3.02</ele>
        <time>2018-04-20T12:14:45Z</time>
      </trkpt>
      <trkpt lat="38.17397" lon="14.98086">
        <ele>2.54</ele>
        <time>2018-04-20T12:15:14Z</time>
      </trkpt>
      <trkpt lat="38.1739" lon="14.98126">
        <ele>3.02</ele>
        <time>2018-04-20T12:15:40Z</time>
      </trkpt>
      <trkpt lat="38.17383" lon="14.98164">
        <ele>2.54</ele>
        <time>2018-04-20T12:16:05Z</time>
      </trkpt>
      <trkpt lat="38.17374" lon="14.9821">
        <ele>1.58</ele>
        <time>2018-04-20T12:16:35Z</time>
      </trkpt>
      <trkpt lat="38.17364" lon="14.98262">
        <ele>2.06</ele>
        <time>2018-04-20T12:17:08Z</time>
      </trkpt>
      <trkpt lat="38.17354" lon="14.98307">
        <ele>3.02</ele>
        <time>2018-04-20T12:17:35Z</time>
      </trkpt>
      <trkpt lat="38.17344" lon="14.98358">
        <ele>3.5</ele>
        <time>2018-04-20T12:18:07Z</time>
      </trkpt>
      <trkpt lat="38.17333" lon="14.98405">
        <ele>3.5</ele>
        <time>2018-04-20T12:18:33Z</time>
      </trkpt>
      <trkpt lat="38.17322" lon="14.98465">
        <ele>3.5</ele>
        <time>2018-04-20T12:19:06Z</time>
      </trkpt>
      <trkpt lat="38.17312" lon="14.98506">
        <ele>3.5</ele>
        <time>2018-04-20T12:19:28Z</time>
      </trkpt>
      <trkpt lat="38.17303" lon="14.98555">
        <ele>5.42</ele>
        <time>2018-04-20T12:19:54Z</time>
      </trkpt>
      <trkpt lat="38.17293" lon="14.98611">
        <ele>6.87</ele>
        <time>2018-04-20T12:20:24Z</time>
      </trkpt>
      <trkpt lat="38.17282" lon="14.98659">
        <ele>5.91</ele>
        <time>2018-04-20T12:20:50Z</time>
      </trkpt>
      <trkpt lat="38.17272" lon="14.98706">
        <ele>6.87</ele>
        <time>2018-04-20T12:21:16Z</time>
      </trkpt>
      <trkpt lat="38.1726" lon="14.98766">
        <ele>6.87</ele>
        <time>2018-04-20T12:21:48Z</time>
      </trkpt>
      <trkpt lat="38.1725" lon="14.98818">
        <ele>7.35</ele>
        <time>2018-04-20T12:22:16Z</time>
      </trkpt>
      <trkpt lat="38.17238" lon="14.9887">
        <ele>6.39</ele>
        <time>2018-04-20T12:22:45Z</time>
      </trkpt>
      <trkpt lat="38.1723" lon="14.98918">
        <ele>7.83</ele>
        <time>2018-04-20T12:23:12Z</time>
      </trkpt>
      <trkpt lat="38.1722" lon="14.98964">
        <ele>7.35</ele>
        <time>2018-04-20T12:23:39Z</time>
      </trkpt>
      <trkpt lat="38.17211" lon="14.99019">
        <ele>9.27</ele>
        <time>2018-04-20T12:24:12Z</time>
      </trkpt>
      <trkpt lat="38.17202" lon="14.99062">
        <ele>9.27</ele>
        <time>2018-04-20T12:24:38Z</time>
      </trkpt>
      <trkpt lat="38.1719" lon="14.99117">
        <ele>8.79</ele>
        <time>2018-04-20T12:25:10Z</time>
      </trkpt>
      <trkpt lat="38.17183" lon="14.99155">
        <ele>6.87</ele>
        <time>2018-04-20T12:25:33Z</time>
      </trkpt>
      <trkpt lat="38.17175" lon="14.99206">
        <ele>8.31</ele>
        <time>2018-04-20T12:26:03Z</time>
      </trkpt>
      <trkpt lat="38.17164" lon="14.9926">
        <ele>7.83</ele>
        <time>2018-04-20T12:26:36Z</time>
      </trkpt>
      <trkpt lat="38.17155" lon="14.99307">
        <ele>7.83</ele>
        <time>2018-04-20T12:27:06Z</time>
      </trkpt>
      <trkpt lat="38.17145" lon="14.99359">
        <ele>8.79</ele>
        <time>2018-04-20T12:27:38Z</time>
      </trkpt>
      <trkpt lat="38.17135" lon="14.9941">
        <ele>8.31</ele>
        <time>2018-04-20T12:28:08Z</time>
      </trkpt>
      <trkpt lat="38.17126" lon="14.99454">
        <ele>8.31</ele>
        <time>2018-04-20T12:28:34Z</time>
      </trkpt>
      <trkpt lat="38.17117" lon="14.99501">
        <ele>8.31</ele>
        <time>2018-04-20T12:29:02Z</time>
      </trkpt>
      <trkpt lat="38.17107" lon="14.9955">
        <ele>8.79</ele>
        <time>2018-04-20T12:29:31Z</time>
      </trkpt>
      <trkpt lat="38.17099" lon="14.99592">
        <ele>8.31</ele>
        <time>2018-04-20T12:29:58Z</time>
      </trkpt>
      <trkpt lat="38.17089" lon="14.99637">
        <ele>9.27</ele>
        <time>2018-04-20T12:30:28Z</time>
      </trkpt>
      <trkpt lat="38.17079" lon="14.99685">
        <ele>9.27</ele>
        <time>2018-04-20T12:31:00Z</time>
      </trkpt>
      <trkpt lat="38.1707" lon="14.99729">
        <ele>9.27</ele>
        <time>2018-04-20T12:31:29Z</time>
      </trkpt>
      <trkpt lat="38.17061" lon="14.99772">
        <ele>7.83</ele>
        <time>2018-04-20T12:31:57Z</time>
      </trkpt>
      <trkpt lat="38.17051" lon="14.99816">
        <ele>7.83</ele>
        <time>2018-04-20T12:32:25Z</time>
      </trkpt>
      <trkpt lat="38.17041" lon="14.99862">
        <ele>7.83</ele>
        <time>2018-04-20T12:32:54Z</time>
      </trkpt>
      <trkpt lat="38.17032" lon="14.99908">
        <ele>7.83</ele>
        <time>2018-04-20T12:33:22Z</time>
      </trkpt>
      <trkpt lat="38.1702" lon="14.99959">
        <ele>7.35</ele>
        <time>2018-04-20T12:33:54Z</time>
      </trkpt>
      <trkpt lat="38.17009" lon="15.00006">
        <ele>4.94</ele>
        <time>2018-04-20T12:34:24Z</time>
      </trkpt>
      <trkpt lat="38.16996" lon="15.00054">
        <ele>5.42</ele>
        <time>2018-04-20T12:34:53Z</time>
      </trkpt>
      <trkpt lat="38.16986" lon="15.00102">
        <ele>6.87</ele>
        <time>2018-04-20T12:35:22Z</time>
      </trkpt>
      <trkpt lat="38.16976" lon="15.00145">
        <ele>6.87</ele>
        <time>2018-04-20T12:35:48Z</time>
      </trkpt>
      <trkpt lat="38.16965" lon="15.00193">
        <ele>7.35</ele>
        <time>2018-04-20T12:36:17Z</time>
      </trkpt>
      <trkpt lat="38.16957" lon="15.00233">
        <ele>6.87</ele>
        <time>2018-04-20T12:36:42Z</time>
      </trkpt>
      <trkpt lat="38.16947" lon="15.00279">
        <ele>6.87</ele>
        <time>2018-04-20T12:37:12Z</time>
      </trkpt>
      <trkpt lat="38.16935" lon="15.00325">
        <ele>6.39</ele>
        <time>2018-04-20T12:37:44Z</time>
      </trkpt>
      <trkpt lat="38.16927" lon="15.0036">
        <ele>4.46</ele>
        <time>2018-04-20T12:38:10Z</time>
      </trkpt>
      <trkpt lat="38.16917" lon="15.00397">
        <ele>4.46</ele>
        <time>2018-04-20T12:38:37Z</time>
      </trkpt>
      <trkpt lat="38.16908" lon="15.00433">
        <ele>5.91</ele>
        <time>2018-04-20T12:39:04Z</time>
      </trkpt>
      <trkpt lat="38.16897" lon="15.00471">
        <ele>6.87</ele>
        <time>2018-04-20T12:39:33Z</time>
      </trkpt>
      <trkpt lat="38.16886" lon="15.0051">
        <ele>7.83</ele>
        <time>2018-04-20T12:40:04Z</time>
      </trkpt>
      <trkpt lat="38.16879" lon="15.00539">
        <ele>7.83</ele>
        <time>2018-04-20T12:40:28Z</time>
      </trkpt>
      <trkpt lat="38.1687" lon="15.00574">
        <ele>8.79</ele>
        <time>2018-04-20T12:40:56Z</time>
      </trkpt>
      <trkpt lat="38.1686" lon="15.00614">
        <ele>9.27</ele>
        <time>2018-04-20T12:41:29Z</time>
      </trkpt>
      <trkpt lat="38.16852" lon="15.00644">
        <ele>10.23</ele>
        <time>2018-04-20T12:41:54Z</time>
      </trkpt>
      <trkpt lat="38.16843" lon="15.00676">
        <ele>10.23</ele>
        <time>2018-04-20T12:42:21Z</time>
      </trkpt>
      <trkpt lat="38.16833" lon="15.00712">
        <ele>11.67</ele>
        <time>2018-04-20T12:42:50Z</time>
      </trkpt>
      <trkpt lat="38.16825" lon="15.00744">
        <ele>10.23</ele>
        <time>2018-04-20T12:43:18Z</time>
      </trkpt>
      <trkpt lat="38.16818" lon="15.00771">
        <ele>7.83</ele>
        <time>2018-04-20T12:43:44Z</time>
      </trkpt>
      <trkpt lat="38.16807" lon="15.00803">
        <ele>7.83</ele>
        <time>2018-04-20T12:44:15Z</time>
      </trkpt>
      <trkpt lat="38.16799" lon="15.00827">
        <ele>6.87</ele>
        <time>2018-04-20T12:44:42Z</time>
      </trkpt>
      <trkpt lat="38.16792" lon="15.00851">
        <ele>6.39</ele>
        <time>2018-04-20T12:45:12Z</time>
      </trkpt>
      <trkpt lat="38.16785" lon="15.00871">
        <ele>6.87</ele>
        <time>2018-04-20T12:45:39Z</time>
      </trkpt>
      <trkpt lat="38.16777" lon="15.00893">
        <ele>6.87</ele>
        <time>2018-04-20T12:46:10Z</time>
      </trkpt>
      <trkpt lat="38.1677" lon="15.0091">
        <ele>5.42</ele>
        <time>2018-04-20T12:46:38Z</time>
      </trkpt>
      <trkpt lat="38.16765" lon="15.00926">
        <ele>5.42</ele>
        <time>2018-04-20T12:47:03Z</time>
      </trkpt>
      <trkpt lat="38.16758" lon="15.00943">
        <ele>6.39</ele>
        <time>2018-04-20T12:47:31Z</time>
      </trkpt>
      <trkpt lat="38.16751" lon="15.00961">
        <ele>5.91</ele>
        <time>2018-04-20T12:47:59Z</time>
      </trkpt>
      <trkpt lat="38.16745" lon="15.00978">
        <ele>6.39</ele>
        <time>2018-04-20T12:48:22Z</time>
      </trkpt>
      <trkpt lat="38.16737" lon="15.00997">
        <ele>5.91</ele>
        <time>2018-04-20T12:48:52Z</time>
      </trkpt>
      <trkpt lat="38.16728" lon="15.01013">
        <ele>6.87</ele>
        <time>2018-04-20T12:49:22Z</time>
      </trkpt>
      <trkpt lat="38.16726" lon="15.01018">
        <ele>6.87</ele>
        <time>2018-04-20T12:49:29Z</time>
      </trkpt>
      <trkpt lat="38.16315" lon="15.0259">
        <ele>6.87</ele>
        <time>2018-04-20T13:01:50Z</time>
      </trkpt>
      <trkpt lat="38.1631" lon="15.02606">
        <ele>2.06</ele>
        <time>2018-04-20T13:01:56Z</time>
      </trkpt>
      <trkpt lat="38.16307" lon="15.02621">
        <ele>2.54</ele>
        <time>2018-04-20T13:02:02Z</time>
      </trkpt>
      <trkpt lat="38.16305" lon="15.0263">
        <ele>2.06</ele>
        <time>2018-04-20T13:02:05Z</time>
      </trkpt>
      <trkpt lat="38.16302" lon="15.02641">
        <ele>3.02</ele>
        <time>2018-04-20T13:02:10Z</time>
      </trkpt>
      <trkpt lat="38.16295" lon="15.02671">
        <ele>3.02</ele>
        <time>2018-04-20T13:02:22Z</time>
      </trkpt>
      <trkpt lat="38.16283" lon="15.02725">
        <ele>2.54</ele>
        <time>2018-04-20T13:02:42Z</time>
      </trkpt>
      <trkpt lat="38.16266" lon="15.02808">
        <ele>3.02</ele>
        <time>2018-04-20T13:03:12Z</time>
      </trkpt>
      <trkpt lat="38.16245" lon="15.02897">
        <ele>3.98</ele>
        <time>2018-04-20T13:03:44Z</time>
      </trkpt>
      <trkpt lat="38.16228" lon="15.02981">
        <ele>3.98</ele>
        <time>2018-04-20T13:04:14Z</time>
      </trkpt>
      <trkpt lat="38.16211" lon="15.03065">
        <ele>2.54</ele>
        <time>2018-04-20T13:04:44Z</time>
      </trkpt>
      <trkpt lat="38.16195" lon="15.0315">
        <ele>2.54</ele>
        <time>2018-04-20T13:05:15Z</time>
      </trkpt>
      <trkpt lat="38.16184" lon="15.03215">
        <ele>2.54</ele>
        <time>2018-04-20T13:05:38Z</time>
      </trkpt>
      <trkpt lat="38.16173" lon="15.03285">
        <ele>2.06</ele>
        <time>2018-04-20T13:06:03Z</time>
      </trkpt>
      <trkpt lat="38.16162" lon="15.03364">
        <ele>1.58</ele>
        <time>2018-04-20T13:06:31Z</time>
      </trkpt>
      <trkpt lat="38.16149" lon="15.03442">
        <ele>1.58</ele>
        <time>2018-04-20T13:06:59Z</time>
      </trkpt>
      <trkpt lat="38.16137" lon="15.03524">
        <ele>2.06</ele>
        <time>2018-04-20T13:07:28Z</time>
      </trkpt>
      <trkpt lat="38.16127" lon="15.03599">
        <ele>1.1</ele>
        <time>2018-04-20T13:07:55Z</time>
      </trkpt>
      <trkpt lat="38.16116" lon="15.0367">
        <ele>0.62</ele>
        <time>2018-04-20T13:08:20Z</time>
      </trkpt>
      <trkpt lat="38.16104" lon="15.03752">
        <ele>0.62</ele>
        <time>2018-04-20T13:08:49Z</time>
      </trkpt>
      <trkpt lat="38.16091" lon="15.03833">
        <ele>1.58</ele>
        <time>2018-04-20T13:09:18Z</time>
      </trkpt>
      <trkpt lat="38.16079" lon="15.03912">
        <ele>1.1</ele>
        <time>2018-04-20T13:09:46Z</time>
      </trkpt>
      <trkpt lat="38.16068" lon="15.03995">
        <ele>1.58</ele>
        <time>2018-04-20T13:10:15Z</time>
      </trkpt>
      <trkpt lat="38.16057" lon="15.04071">
        <ele>1.58</ele>
        <time>2018-04-20T13:10:42Z</time>
      </trkpt>
      <trkpt lat="38.16043" lon="15.04156">
        <ele>0.62</ele>
        <time>2018-04-20T13:11:12Z</time>
      </trkpt>
      <trkpt lat="38.16027" lon="15.04235">
        <ele>0.62</ele>
        <time>2018-04-20T13:11:40Z</time>
      </trkpt>
      <trkpt lat="38.16009" lon="15.0432">
        <ele>-0.34</ele>
        <time>2018-04-20T13:12:11Z</time>
      </trkpt>
      <trkpt lat="38.15988" lon="15.04399">
        <ele>0.14</ele>
        <time>2018-04-20T13:12:39Z</time>
      </trkpt>
      <trkpt lat="38.15966" lon="15.04477">
        <ele>-0.34</ele>
        <time>2018-04-20T13:13:08Z</time>
      </trkpt>
      <trkpt lat="38.15946" lon="15.04544">
        <ele>1.58</ele>
        <time>2018-04-20T13:13:33Z</time>
      </trkpt>
      <trkpt lat="38.15925" lon="15.04612">
        <ele>2.06</ele>
        <time>2018-04-20T13:13:58Z</time>
      </trkpt>
      <trkpt lat="38.15901" lon="15.04691">
        <ele>2.06</ele>
        <time>2018-04-20T13:14:27Z</time>
      </trkpt>
      <trkpt lat="38.15877" lon="15.04767">
        <ele>2.54</ele>
        <time>2018-04-20T13:14:55Z</time>
      </trkpt>
      <trkpt lat="38.15854" lon="15.04846">
        <ele>2.06</ele>
        <time>2018-04-20T13:15:24Z</time>
      </trkpt>
      <trkpt lat="38.15824" lon="15.04943">
        <ele>1.58</ele>
        <time>2018-04-20T13:16:00Z</time>
      </trkpt>
      <trkpt lat="38.15803" lon="15.0501">
        <ele>1.58</ele>
        <time>2018-04-20T13:16:25Z</time>
      </trkpt>
      <trkpt lat="38.1578" lon="15.05086">
        <ele>2.06</ele>
        <time>2018-04-20T13:16:53Z</time>
      </trkpt>
      <trkpt lat="38.15759" lon="15.05153">
        <ele>2.54</ele>
        <time>2018-04-20T13:17:18Z</time>
      </trkpt>
      <trkpt lat="38.15734" lon="15.05234">
        <ele>2.06</ele>
        <time>2018-04-20T13:17:48Z</time>
      </trkpt>
      <trkpt lat="38.15714" lon="15.05305">
        <ele>2.06</ele>
        <time>2018-04-20T13:18:14Z</time>
      </trkpt>
      <trkpt lat="38.15693" lon="15.05375">
        <ele>0.62</ele>
        <time>2018-04-20T13:18:40Z</time>
      </trkpt>
      <trkpt lat="38.1567" lon="15.0545">
        <ele>2.06</ele>
        <time>2018-04-20T13:19:08Z</time>
      </trkpt>
      <trkpt lat="38.15644" lon="15.05534">
        <ele>1.58</ele>
        <time>2018-04-20T13:19:39Z</time>
      </trkpt>
      <trkpt lat="38.15617" lon="15.05618">
        <ele>1.58</ele>
        <time>2018-04-20T13:20:10Z</time>
      </trkpt>
      <trkpt lat="38.15585" lon="15.05708">
        <ele>2.54</ele>
        <time>2018-04-20T13:20:44Z</time>
      </trkpt>
      <trkpt lat="38.15562" lon="15.05775">
        <ele>2.06</ele>
        <time>2018-04-20T13:21:09Z</time>
      </trkpt>
      <trkpt lat="38.15537" lon="15.05842">
        <ele>1.1</ele>
        <time>2018-04-20T13:21:35Z</time>
      </trkpt>
      <trkpt lat="38.15504" lon="15.05929">
        <ele>0.62</ele>
        <time>2018-04-20T13:22:08Z</time>
      </trkpt>
      <trkpt lat="38.15478" lon="15.05994">
        <ele>0.62</ele>
        <time>2018-04-20T13:22:33Z</time>
      </trkpt>
      <trkpt lat="38.15448" lon="15.0607">
        <ele>-0.34</ele>
        <time>2018-04-20T13:23:02Z</time>
      </trkpt>
      <trkpt lat="38.15413" lon="15.06156">
        <ele>-1.3</ele>
        <time>2018-04-20T13:23:35Z</time>
      </trkpt>
      <trkpt lat="38.1538" lon="15.06238">
        <ele>-0.82</ele>
        <time>2018-04-20T13:24:07Z</time>
      </trkpt>
      <trkpt lat="38.15349" lon="15.06319">
        <ele>-0.82</ele>
        <time>2018-04-20T13:24:38Z</time>
      </trkpt>
      <trkpt lat="38.15317" lon="15.06397">
        <ele>-0.34</ele>
        <time>2018-04-20T13:25:08Z</time>
      </trkpt>
      <trkpt lat="38.15286" lon="15.06473">
        <ele>1.1</ele>
        <time>2018-04-20T13:25:37Z</time>
      </trkpt>
      <trkpt lat="38.15253" lon="15.06547">
        <ele>1.1</ele>
        <time>2018-04-20T13:26:06Z</time>
      </trkpt>
      <trkpt lat="38.15215" lon="15.06633">
        <ele>1.58</ele>
        <time>2018-04-20T13:26:39Z</time>
      </trkpt>
      <trkpt lat="38.15174" lon="15.06729">
        <ele>1.1</ele>
        <time>2018-04-20T13:27:11Z</time>
      </trkpt>
      <trkpt lat="38.15132" lon="15.06825">
        <ele>1.58</ele>
        <time>2018-04-20T13:27:43Z</time>
      </trkpt>
      <trkpt lat="38.15096" lon="15.06911">
        <ele>0.62</ele>
        <time>2018-04-20T13:28:11Z</time>
      </trkpt>
      <trkpt lat="38.15054" lon="15.07005">
        <ele>0.62</ele>
        <time>2018-04-20T13:28:42Z</time>
      </trkpt>
      <trkpt lat="38.1502" lon="15.07083">
        <ele>1.1</ele>
        <time>2018-04-20T13:29:07Z</time>
      </trkpt>
      <trkpt lat="38.14979" lon="15.07172">
        <ele>2.06</ele>
        <time>2018-04-20T13:29:36Z</time>
      </trkpt>
      <trkpt lat="38.14941" lon="15.07262">
        <ele>2.54</ele>
        <time>2018-04-20T13:30:04Z</time>
      </trkpt>
      <trkpt lat="38.14902" lon="15.0735">
        <ele>3.02</ele>
        <time>2018-04-20T13:30:32Z</time>
      </trkpt>
      <trkpt lat="38.14872" lon="15.07419">
        <ele>3.02</ele>
        <time>2018-04-20T13:30:54Z</time>
      </trkpt>
      <trkpt lat="38.14835" lon="15.07502">
        <ele>1.58</ele>
        <time>2018-04-20T13:31:20Z</time>
      </trkpt>
      <trkpt lat="38.14794" lon="15.07592">
        <ele>1.58</ele>
        <time>2018-04-20T13:31:49Z</time>
      </trkpt>
      <trkpt lat="38.14751" lon="15.07685">
        <ele>2.06</ele>
        <time>2018-04-20T13:32:19Z</time>
      </trkpt>
      <trkpt lat="38.14711" lon="15.07775">
        <ele>2.06</ele>
        <time>2018-04-20T13:32:48Z</time>
      </trkpt>
      <trkpt lat="38.14669" lon="15.07869">
        <ele>2.06</ele>
        <time>2018-04-20T13:33:18Z</time>
      </trkpt>
      <trkpt lat="38.14637" lon="15.07941">
        <ele>2.54</ele>
        <time>2018-04-20T13:33:41Z</time>
      </trkpt>
      <trkpt lat="38.14597" lon="15.08036">
        <ele>1.58</ele>
        <time>2018-04-20T13:34:11Z</time>
      </trkpt>
      <trkpt lat="38.14556" lon="15.08125">
        <ele>2.06</ele>
        <time>2018-04-20T13:34:40Z</time>
      </trkpt>
      <trkpt lat="38.14522" lon="15.0821">
        <ele>3.98</ele>
        <time>2018-04-20T13:35:07Z</time>
      </trkpt>
      <trkpt lat="38.14484" lon="15.08297">
        <ele>3.98</ele>
        <time>2018-04-20T13:35:35Z</time>
      </trkpt>
      <trkpt lat="38.14443" lon="15.08375">
        <ele>2.54</ele>
        <time>2018-04-20T13:36:01Z</time>
      </trkpt>
      <trkpt lat="38.14385" lon="15.08471">
        <ele>1.58</ele>
        <time>2018-04-20T13:36:34Z</time>
      </trkpt>
      <trkpt lat="38.14336" lon="15.08558">
        <ele>1.58</ele>
        <time>2018-04-20T13:37:03Z</time>
      </trkpt>
      <trkpt lat="38.14293" lon="15.08632">
        <ele>1.1</ele>
        <time>2018-04-20T13:37:28Z</time>
      </trkpt>
      <trkpt lat="38.14251" lon="15.08707">
        <ele>0.62</ele>
        <time>2018-04-20T13:37:53Z</time>
      </trkpt>
      <trkpt lat="38.14209" lon="15.08782">
        <ele>1.1</ele>
        <time>2018-04-20T13:38:18Z</time>
      </trkpt>
      <trkpt lat="38.1416" lon="15.08868">
        <ele>1.58</ele>
        <time>2018-04-20T13:38:47Z</time>
      </trkpt>
      <trkpt lat="38.14107" lon="15.08959">
        <ele>0.62</ele>
        <time>2018-04-20T13:39:18Z</time>
      </trkpt>
      <trkpt lat="38.14061" lon="15.09034">
        <ele>1.1</ele>
        <time>2018-04-20T13:39:44Z</time>
      </trkpt>
      <trkpt lat="38.14014" lon="15.09114">
        <ele>3.02</ele>
        <time>2018-04-20T13:40:11Z</time>
      </trkpt>
      <trkpt lat="38.13969" lon="15.09191">
        <ele>2.54</ele>
        <time>2018-04-20T13:40:37Z</time>
      </trkpt>
      <trkpt lat="38.13927" lon="15.09265">
        <ele>1.58</ele>
        <time>2018-04-20T13:41:02Z</time>
      </trkpt>
      <trkpt lat="38.13877" lon="15.09347">
        <ele>2.06</ele>
        <time>2018-04-20T13:41:30Z</time>
      </trkpt>
      <trkpt lat="38.13817" lon="15.09451">
        <ele>2.06</ele>
        <time>2018-04-20T13:42:05Z</time>
      </trkpt>
      <trkpt lat="38.13767" lon="15.09539">
        <ele>2.06</ele>
        <time>2018-04-20T13:42:35Z</time>
      </trkpt>
      <trkpt lat="38.1372" lon="15.09619">
        <ele>1.58</ele>
        <time>2018-04-20T13:43:02Z</time>
      </trkpt>
      <trkpt lat="38.13676" lon="15.09696">
        <ele>1.1</ele>
        <time>2018-04-20T13:43:28Z</time>
      </trkpt>
      <trkpt lat="38.13624" lon="15.09788">
        <ele>0.14</ele>
        <time>2018-04-20T13:43:59Z</time>
      </trkpt>
      <trkpt lat="38.13587" lon="15.09853">
        <ele>1.58</ele>
        <time>2018-04-20T13:44:21Z</time>
      </trkpt>
      <trkpt lat="38.13534" lon="15.09943">
        <ele>1.58</ele>
        <time>2018-04-20T13:44:52Z</time>
      </trkpt>
      <trkpt lat="38.13478" lon="15.10042">
        <ele>1.58</ele>
        <time>2018-04-20T13:45:25Z</time>
      </trkpt>
      <trkpt lat="38.13428" lon="15.10128">
        <ele>-0.34</ele>
        <time>2018-04-20T13:45:54Z</time>
      </trkpt>
      <trkpt lat="38.13384" lon="15.1021">
        <ele>1.1</ele>
        <time>2018-04-20T13:46:21Z</time>
      </trkpt>
      <trkpt lat="38.13331" lon="15.10304">
        <ele>1.58</ele>
        <time>2018-04-20T13:46:53Z</time>
      </trkpt>
      <trkpt lat="38.13284" lon="15.10387">
        <ele>1.1</ele>
        <time>2018-04-20T13:47:21Z</time>
      </trkpt>
      <trkpt lat="38.13233" lon="15.10477">
        <ele>1.1</ele>
        <time>2018-04-20T13:47:51Z</time>
      </trkpt>
      <trkpt lat="38.13185" lon="15.10562">
        <ele>1.1</ele>
        <time>2018-04-20T13:48:19Z</time>
      </trkpt>
      <trkpt lat="38.13141" lon="15.10646">
        <ele>1.1</ele>
        <time>2018-04-20T13:48:46Z</time>
      </trkpt>
      <trkpt lat="38.13104" lon="15.10717">
        <ele>1.1</ele>
        <time>2018-04-20T13:49:09Z</time>
      </trkpt>
      <trkpt lat="38.13078" lon="15.1077">
        <ele>2.06</ele>
        <time>2018-04-20T13:49:26Z</time>
      </trkpt>
      <trkpt lat="38.13048" lon="15.10838">
        <ele>3.5</ele>
        <time>2018-04-20T13:49:47Z</time>
      </trkpt>
      <trkpt lat="38.13019" lon="15.10902">
        <ele>3.02</ele>
        <time>2018-04-20T13:50:07Z</time>
      </trkpt>
      <trkpt lat="38.12986" lon="15.1098">
        <ele>1.58</ele>
        <time>2018-04-20T13:50:31Z</time>
      </trkpt>
      <trkpt lat="38.1295" lon="15.11037">
        <ele>2.06</ele>
        <time>2018-04-20T13:50:53Z</time>
      </trkpt>
      <trkpt lat="38.12904" lon="15.11091">
        <ele>3.02</ele>
        <time>2018-04-20T13:51:21Z</time>
      </trkpt>
      <trkpt lat="38.1286" lon="15.11133">
        <ele>2.06</ele>
        <time>2018-04-20T13:51:49Z</time>
      </trkpt>
      <trkpt lat="38.12819" lon="15.11148">
        <ele>1.58</ele>
        <time>2018-04-20T13:52:13Z</time>
      </trkpt>
      <trkpt lat="38.12791" lon="15.11134">
        <ele>2.06</ele>
        <time>2018-04-20T13:52:33Z</time>
      </trkpt>
      <trkpt lat="38.12766" lon="15.11109">
        <ele>2.06</ele>
        <time>2018-04-20T13:52:59Z</time>
      </trkpt>
      <trkpt lat="38.1274" lon="15.11084">
        <ele>1.58</ele>
        <time>2018-04-20T13:53:29Z</time>
      </trkpt>
      <trkpt lat="38.12711" lon="15.11081">
        <ele>1.58</ele>
        <time>2018-04-20T13:53:58Z</time>
      </trkpt>
      <trkpt lat="38.12698" lon="15.11092">
        <ele>1.58</ele>
        <time>2018-04-20T13:54:14Z</time>
      </trkpt>
      <trkpt lat="38.12687" lon="15.11103">
        <ele>2.06</ele>
        <time>2018-04-20T13:54:29Z</time>
      </trkpt>
      <trkpt lat="38.12681" lon="15.111">
        <ele>2.06</ele>
        <time>2018-04-20T13:54:35Z</time>
      </trkpt>
      <trkpt lat="38.12683" lon="15.11076">
        <ele>2.54</ele>
        <time>2018-04-20T13:54:58Z</time>
      </trkpt>
      <trkpt lat="38.12698" lon="15.11087">
        <ele>3.02</ele>
        <time>2018-04-20T13:55:20Z</time>
      </trkpt>
      <trkpt lat="38.12687" lon="15.11116">
        <ele>1.1</ele>
        <time>2018-04-20T13:55:48Z</time>
      </trkpt>
      <trkpt lat="38.12674" lon="15.11143">
        <ele>1.58</ele>
        <time>2018-04-20T13:56:22Z</time>
      </trkpt>
      <trkpt lat="38.12663" lon="15.11159">
        <ele>1.58</ele>
        <time>2018-04-20T13:56:55Z</time>
      </trkpt>
      <trkpt lat="38.12662" lon="15.1116">
        <ele>3.02</ele>
        <time>2018-04-20T13:57:18Z</time>
      </trkpt>
      <trkpt lat="38.12661" lon="15.11162">
        <ele>3.5</ele>
        <time>2018-04-20T13:57:45Z</time>
      </trkpt>
      <trkpt lat="38.12661" lon="15.11163">
        <ele>3.02</ele>
        <time>2018-04-20T13:58:12Z</time>
      </trkpt>
      <trkpt lat="38.12661" lon="15.11164">
        <ele>3.02</ele>
        <time>2018-04-20T13:58:43Z</time>
      </trkpt>
      <trkpt lat="38.1266" lon="15.11165">
        <ele>3.98</ele>
        <time>2018-04-20T13:59:11Z</time>
      </trkpt>
      <trkpt lat="38.1266" lon="15.11166">
        <ele>3.98</ele>
        <time>2018-04-20T13:59:40Z</time>
      </trkpt>
      <trkpt lat="38.1266" lon="15.11168">
        <ele>3.98</ele>
        <time>2018-04-20T14:00:09Z</time>
      </trkpt>
      <trkpt lat="38.12661" lon="15.11171">
        <ele>3.98</ele>
        <time>2018-04-20T14:00:49Z</time>
      </trkpt>
      <trkpt lat="38.12659" lon="15.11173">
        <ele>4.46</ele>
        <time>2018-04-20T14:01:16Z</time>
      </trkpt>
      <trkpt lat="38.12658" lon="15.11175">
        <ele>3.98</ele>
        <time>2018-04-20T14:01:40Z</time>
      </trkpt>
      <trkpt lat="38.12658" lon="15.11178">
        <ele>3.02</ele>
        <time>2018-04-20T14:02:05Z</time>
      </trkpt>
      <trkpt lat="38.12652" lon="15.11181">
        <ele>2.06</ele>
        <time>2018-04-20T14:02:46Z</time>
      </trkpt>
      <trkpt lat="38.12629" lon="15.11182">
        <ele>2.06</ele>
        <time>2018-04-20T14:03:25Z</time>
      </trkpt>
      <trkpt lat="38.12621" lon="15.11184">
        <ele>3.02</ele>
        <time>2018-04-20T14:03:53Z</time>
      </trkpt>
      <trkpt lat="38.12619" lon="15.11184">
        <ele>3.98</ele>
        <time>2018-04-20T14:04:18Z</time>
      </trkpt>
      <trkpt lat="38.12617" lon="15.11184">
        <ele>5.42</ele>
        <time>2018-04-20T14:04:45Z</time>
      </trkpt>
      <trkpt lat="38.12617" lon="15.11185">
        <ele>4.94</ele>
        <time>2018-04-20T14:05:14Z</time>
      </trkpt>
      <trkpt lat="38.12617" lon="15.11185">
        <ele>4.94</ele>
        <time>2018-04-20T14:05:42Z</time>
      </trkpt>
      <trkpt lat="38.12617" lon="15.11186">
        <ele>3.98</ele>
        <time>2018-04-20T14:06:20Z</time>
      </trkpt>
      <trkpt lat="38.12616" lon="15.11185">
        <ele>3.98</ele>
        <time>2018-04-20T14:06:56Z</time>
      </trkpt>
      <trkpt lat="38.12616" lon="15.11186">
        <ele>3.98</ele>
        <time>2018-04-20T14:07:35Z</time>
      </trkpt>
      <trkpt lat="38.12616" lon="15.11185">
        <ele>3.02</ele>
        <time>2018-04-20T14:08:03Z</time>
      </trkpt>
      <trkpt lat="38.12617" lon="15.11186">
        <ele>3.5</ele>
        <time>2018-04-20T14:08:30Z</time>
      </trkpt>
      <trkpt lat="38.12618" lon="15.11186">
        <ele>3.98</ele>
        <time>2018-04-20T14:08:52Z</time>
      </trkpt>
      <trkpt lat="38.12618" lon="15.11185">
        <ele>4.46</ele>
        <time>2018-04-20T14:09:18Z</time>
      </trkpt>
      <trkpt lat="38.12611" lon="15.11191">
        <ele>3.98</ele>
        <time>2018-04-20T14:09:37Z</time>
      </trkpt>
      <trkpt lat="38.12576" lon="15.11208">
        <ele>3.02</ele>
        <time>2018-04-20T14:10:06Z</time>
      </trkpt>
      <trkpt lat="38.12538" lon="15.11224">
        <ele>2.06</ele>
        <time>2018-04-20T14:10:39Z</time>
      </trkpt>
      <trkpt lat="38.12507" lon="15.11246">
        <ele>2.06</ele>
        <time>2018-04-20T14:11:10Z</time>
      </trkpt>
      <trkpt lat="38.12489" lon="15.11267">
        <ele>2.06</ele>
        <time>2018-04-20T14:11:33Z</time>
      </trkpt>
      <trkpt lat="38.12467" lon="15.11284">
        <ele>3.02</ele>
        <time>2018-04-20T14:11:58Z</time>
      </trkpt>
      <trkpt lat="38.1244" lon="15.11278">
        <ele>2.54</ele>
        <time>2018-04-20T14:12:23Z</time>
      </trkpt>
      <trkpt lat="38.12407" lon="15.11269">
        <ele>3.02</ele>
        <time>2018-04-20T14:12:55Z</time>
      </trkpt>
      <trkpt lat="38.12379" lon="15.1126">
        <ele>3.5</ele>
        <time>2018-04-20T14:13:22Z</time>
      </trkpt>
      <trkpt lat="38.12345" lon="15.11238">
        <ele>3.02</ele>
        <time>2018-04-20T14:13:58Z</time>
      </trkpt>
      <trkpt lat="38.12314" lon="15.11209">
        <ele>3.02</ele>
        <time>2018-04-20T14:14:33Z</time>
      </trkpt>
      <trkpt lat="38.12288" lon="15.11184">
        <ele>3.5</ele>
        <time>2018-04-20T14:15:02Z</time>
      </trkpt>
      <trkpt lat="38.12267" lon="15.11163">
        <ele>3.98</ele>
        <time>2018-04-20T14:15:27Z</time>
      </trkpt>
      <trkpt lat="38.12245" lon="15.11135">
        <ele>3.98</ele>
        <time>2018-04-20T14:15:56Z</time>
      </trkpt>
      <trkpt lat="38.12228" lon="15.111">
        <ele>4.46</ele>
        <time>2018-04-20T14:16:26Z</time>
      </trkpt>
      <trkpt lat="38.12216" lon="15.11067">
        <ele>3.02</ele>
        <time>2018-04-20T14:16:52Z</time>
      </trkpt>
      <trkpt lat="38.12212" lon="15.11034">
        <ele>3.02</ele>
        <time>2018-04-20T14:17:17Z</time>
      </trkpt>
      <trkpt lat="38.1222" lon="15.11008">
        <ele>3.98</ele>
        <time>2018-04-20T14:17:45Z</time>
      </trkpt>
      <trkpt lat="38.12225" lon="15.10995">
        <ele>3.5</ele>
        <time>2018-04-20T14:18:13Z</time>
      </trkpt>
      <trkpt lat="38.12224" lon="15.1099">
        <ele>3.5</ele>
        <time>2018-04-20T14:18:45Z</time>
      </trkpt>
      <trkpt lat="38.12221" lon="15.10985">
        <ele>2.54</ele>
        <time>2018-04-20T14:19:13Z</time>
      </trkpt>
      <trkpt lat="38.12219" lon="15.10981">
        <ele>2.54</ele>
        <time>2018-04-20T14:19:40Z</time>
      </trkpt>
      <trkpt lat="38.12217" lon="15.10978">
        <ele>3.5</ele>
        <time>2018-04-20T14:20:07Z</time>
      </trkpt>
      <trkpt lat="38.12216" lon="15.10977">
        <ele>3.98</ele>
        <time>2018-04-20T14:20:32Z</time>
      </trkpt>
      <trkpt lat="38.12215" lon="15.10978">
        <ele>3.5</ele>
        <time>2018-04-20T14:20:54Z</time>
      </trkpt>
      <trkpt lat="38.12214" lon="15.10977">
        <ele>3.02</ele>
        <time>2018-04-20T14:21:25Z</time>
      </trkpt>
      <trkpt lat="38.12213" lon="15.10977">
        <ele>3.5</ele>
        <time>2018-04-20T14:21:53Z</time>
      </trkpt>
      <trkpt lat="38.12212" lon="15.10978">
        <ele>3.5</ele>
        <time>2018-04-20T14:22:24Z</time>
      </trkpt>
      <trkpt lat="38.1221" lon="15.10978">
        <ele>4.46</ele>
        <time>2018-04-20T14:22:58Z</time>
      </trkpt>
      <trkpt lat="38.1221" lon="15.10977">
        <ele>3.98</ele>
        <time>2018-04-20T14:23:27Z</time>
      </trkpt>
      <trkpt lat="38.12209" lon="15.10976">
        <ele>3.98</ele>
        <time>2018-04-20T14:23:36Z</time>
      </trkpt>
    </trkseg>
  </trk>
  <trk>
    <name><![CDATA[Tracé actuel: 21 AVR 2018 14:52]]></name>
    <trkseg>
      <trkpt lat="38.10989" lon="13.36521">
        <ele>30.42</ele>
        <time>2018-04-21T12:52:28Z</time>
      </trkpt>
      <trkpt lat="38.10999" lon="13.36521">
        <ele>39.07</ele>
        <time>2018-04-21T12:52:34Z</time>
      </trkpt>
      <trkpt lat="38.11" lon="13.36518">
        <ele>40.99</ele>
        <time>2018-04-21T12:52:37Z</time>
      </trkpt>
      <trkpt lat="38.1101" lon="13.36512">
        <ele>53.49</ele>
        <time>2018-04-21T12:52:52Z</time>
      </trkpt>
      <trkpt lat="38.1101" lon="13.36512">
        <ele>54.93</ele>
        <time>2018-04-21T12:52:54Z</time>
      </trkpt>
      <trkpt lat="38.1102" lon="13.36505">
        <ele>53.49</ele>
        <time>2018-04-21T12:53:07Z</time>
      </trkpt>
      <trkpt lat="38.11039" lon="13.36491">
        <ele>56.37</ele>
        <time>2018-04-21T12:53:27Z</time>
      </trkpt>
      <trkpt lat="38.11055" lon="13.36479">
        <ele>58.78</ele>
        <time>2018-04-21T12:53:45Z</time>
      </trkpt>
      <trkpt lat="38.11061" lon="13.36474">
        <ele>58.78</ele>
        <time>2018-04-21T12:53:52Z</time>
      </trkpt>
      <trkpt lat="38.11068" lon="13.36466">
        <ele>59.26</ele>
        <time>2018-04-21T12:54:03Z</time>
      </trkpt>
      <trkpt lat="38.11084" lon="13.36459">
        <ele>58.78</ele>
        <time>2018-04-21T12:54:21Z</time>
      </trkpt>
      <trkpt lat="38.11092" lon="13.36444">
        <ele>57.34</ele>
        <time>2018-04-21T12:54:38Z</time>
      </trkpt>
      <trkpt lat="38.11105" lon="13.36432">
        <ele>56.86</ele>
        <time>2018-04-21T12:54:54Z</time>
      </trkpt>
      <trkpt lat="38.11122" lon="13.36422">
        <ele>58.78</ele>
        <time>2018-04-21T12:55:11Z</time>
      </trkpt>
      <trkpt lat="38.11143" lon="13.36416">
        <ele>61.66</ele>
        <time>2018-04-21T12:55:30Z</time>
      </trkpt>
      <trkpt lat="38.11157" lon="13.36408">
        <ele>62.62</ele>
        <time>2018-04-21T12:55:48Z</time>
      </trkpt>
      <trkpt lat="38.11174" lon="13.36398">
        <ele>63.58</ele>
        <time>2018-04-21T12:56:05Z</time>
      </trkpt>
      <trkpt lat="38.11189" lon="13.36389">
        <ele>63.1</ele>
        <time>2018-04-21T12:56:22Z</time>
      </trkpt>
      <trkpt lat="38.11203" lon="13.36379">
        <ele>63.58</ele>
        <time>2018-04-21T12:56:38Z</time>
      </trkpt>
      <trkpt lat="38.11209" lon="13.36376">
        <ele>64.07</ele>
        <time>2018-04-21T12:56:55Z</time>
      </trkpt>
      <trkpt lat="38.11226" lon="13.36362">
        <ele>65.03</ele>
        <time>2018-04-21T12:57:12Z</time>
      </trkpt>
      <trkpt lat="38.11244" lon="13.3635">
        <ele>65.51</ele>
        <time>2018-04-21T12:57:30Z</time>
      </trkpt>
      <trkpt lat="38.11256" lon="13.3634">
        <ele>65.51</ele>
        <time>2018-04-21T12:57:47Z</time>
      </trkpt>
      <trkpt lat="38.1127" lon="13.36325">
        <ele>65.99</ele>
        <time>2018-04-21T12:58:07Z</time>
      </trkpt>
      <trkpt lat="38.11285" lon="13.36318">
        <ele>65.99</ele>
        <time>2018-04-21T12:58:24Z</time>
      </trkpt>
      <trkpt lat="38.11309" lon="13.36322">
        <ele>64.55</ele>
        <time>2018-04-21T12:58:42Z</time>
      </trkpt>
      <trkpt lat="38.11315" lon="13.36315">
        <ele>65.51</ele>
        <time>2018-04-21T12:58:51Z</time>
      </trkpt>
      <trkpt lat="38.11331" lon="13.36301">
        <ele>67.43</ele>
        <time>2018-04-21T12:59:11Z</time>
      </trkpt>
      <trkpt lat="38.11334" lon="13.36302">
        <ele>68.87</ele>
        <time>2018-04-21T12:59:22Z</time>
      </trkpt>
      <trkpt lat="38.11332" lon="13.36294">
        <ele>68.87</ele>
        <time>2018-04-21T12:59:37Z</time>
      </trkpt>
      <trkpt lat="38.11327" lon="13.36276">
        <ele>67.43</ele>
        <time>2018-04-21T12:59:49Z</time>
      </trkpt>
      <trkpt lat="38.11328" lon="13.36263">
        <ele>67.91</ele>
        <time>2018-04-21T12:59:59Z</time>
      </trkpt>
      <trkpt lat="38.11334" lon="13.36252">
        <ele>61.18</ele>
        <time>2018-04-21T13:00:11Z</time>
      </trkpt>
      <trkpt lat="38.11338" lon="13.36243">
        <ele>62.62</ele>
        <time>2018-04-21T13:00:20Z</time>
      </trkpt>
      <trkpt lat="38.11346" lon="13.36235">
        <ele>69.83</ele>
        <time>2018-04-21T13:00:34Z</time>
      </trkpt>
      <trkpt lat="38.11349" lon="13.3623">
        <ele>70.79</ele>
        <time>2018-04-21T13:00:50Z</time>
      </trkpt>
      <trkpt lat="38.11352" lon="13.36226">
        <ele>71.27</ele>
        <time>2018-04-21T13:00:58Z</time>
      </trkpt>
      <trkpt lat="38.1136" lon="13.36222">
        <ele>71.76</ele>
        <time>2018-04-21T13:01:09Z</time>
      </trkpt>
      <trkpt lat="38.11363" lon="13.36217">
        <ele>71.27</ele>
        <time>2018-04-21T13:01:27Z</time>
      </trkpt>
      <trkpt lat="38.11365" lon="13.36218">
        <ele>70.31</ele>
        <time>2018-04-21T13:01:37Z</time>
      </trkpt>
      <trkpt lat="38.11379" lon="13.36208">
        <ele>75.12</ele>
        <time>2018-04-21T13:01:52Z</time>
      </trkpt>
      <trkpt lat="38.11381" lon="13.3621">
        <ele>75.6</ele>
        <time>2018-04-21T13:01:54Z</time>
      </trkpt>
      <trkpt lat="38.11384" lon="13.36212">
        <ele>74.64</ele>
        <time>2018-04-21T13:02:06Z</time>
      </trkpt>
      <trkpt lat="38.11385" lon="13.3621">
        <ele>73.2</ele>
        <time>2018-04-21T13:02:19Z</time>
      </trkpt>
      <trkpt lat="38.11389" lon="13.36211">
        <ele>72.24</ele>
        <time>2018-04-21T13:02:28Z</time>
      </trkpt>
      <trkpt lat="38.11391" lon="13.36217">
        <ele>71.27</ele>
        <time>2018-04-21T13:02:35Z</time>
      </trkpt>
      <trkpt lat="38.11393" lon="13.36218">
        <ele>71.27</ele>
        <time>2018-04-21T13:02:37Z</time>
      </trkpt>
      <trkpt lat="38.11397" lon="13.36225">
        <ele>67.91</ele>
        <time>2018-04-21T13:02:48Z</time>
      </trkpt>
      <trkpt lat="38.11406" lon="13.36237">
        <ele>74.16</ele>
        <time>2018-04-21T13:03:05Z</time>
      </trkpt>
      <trkpt lat="38.11409" lon="13.36244">
        <ele>72.72</ele>
        <time>2018-04-21T13:03:18Z</time>
      </trkpt>
      <trkpt lat="38.11412" lon="13.36245">
        <ele>70.31</ele>
        <time>2018-04-21T13:03:35Z</time>
      </trkpt>
      <trkpt lat="38.11421" lon="13.36239">
        <ele>70.79</ele>
        <time>2018-04-21T13:03:49Z</time>
      </trkpt>
      <trkpt lat="38.11433" lon="13.36235">
        <ele>72.24</ele>
        <time>2018-04-21T13:04:03Z</time>
      </trkpt>
      <trkpt lat="38.1144" lon="13.36231">
        <ele>74.16</ele>
        <time>2018-04-21T13:04:24Z</time>
      </trkpt>
      <trkpt lat="38.11445" lon="13.36233">
        <ele>75.6</ele>
        <time>2018-04-21T13:04:46Z</time>
      </trkpt>
      <trkpt lat="38.11443" lon="13.36225">
        <ele>75.6</ele>
        <time>2018-04-21T13:05:00Z</time>
      </trkpt>
      <trkpt lat="38.11447" lon="13.36223">
        <ele>75.12</ele>
        <time>2018-04-21T13:05:13Z</time>
      </trkpt>
      <trkpt lat="38.11454" lon="13.36222">
        <ele>72.72</ele>
        <time>2018-04-21T13:05:22Z</time>
      </trkpt>
      <trkpt lat="38.11456" lon="13.36222">
        <ele>72.72</ele>
        <time>2018-04-21T13:05:25Z</time>
      </trkpt>
      <trkpt lat="38.1146" lon="13.36222">
        <ele>71.76</ele>
        <time>2018-04-21T13:05:34Z</time>
      </trkpt>
      <trkpt lat="38.11466" lon="13.3622">
        <ele>71.76</ele>
        <time>2018-04-21T13:05:46Z</time>
      </trkpt>
      <trkpt lat="38.11468" lon="13.36219">
        <ele>71.27</ele>
        <time>2018-04-21T13:06:04Z</time>
      </trkpt>
      <trkpt lat="38.11475" lon="13.36214">
        <ele>69.83</ele>
        <time>2018-04-21T13:06:19Z</time>
      </trkpt>
      <trkpt lat="38.11476" lon="13.36212">
        <ele>69.35</ele>
        <time>2018-04-21T13:06:21Z</time>
      </trkpt>
      <trkpt lat="38.1148" lon="13.36223">
        <ele>67.91</ele>
        <time>2018-04-21T13:06:29Z</time>
      </trkpt>
      <trkpt lat="38.11482" lon="13.36233">
        <ele>66.47</ele>
        <time>2018-04-21T13:06:36Z</time>
      </trkpt>
      <trkpt lat="38.11481" lon="13.36241">
        <ele>62.62</ele>
        <time>2018-04-21T13:06:49Z</time>
      </trkpt>
      <trkpt lat="38.11484" lon="13.36248">
        <ele>62.14</ele>
        <time>2018-04-21T13:06:59Z</time>
      </trkpt>
      <trkpt lat="38.11489" lon="13.3626">
        <ele>60.7</ele>
        <time>2018-04-21T13:07:13Z</time>
      </trkpt>
      <trkpt lat="38.1149" lon="13.36261">
        <ele>57.34</ele>
        <time>2018-04-21T13:07:26Z</time>
      </trkpt>
      <trkpt lat="38.1149" lon="13.36263">
        <ele>56.86</ele>
        <time>2018-04-21T13:07:28Z</time>
      </trkpt>
      <trkpt lat="38.11483" lon="13.36267">
        <ele>53.49</ele>
        <time>2018-04-21T13:07:41Z</time>
      </trkpt>
      <trkpt lat="38.11485" lon="13.36266">
        <ele>46.76</ele>
        <time>2018-04-21T13:08:07Z</time>
      </trkpt>
      <trkpt lat="38.11486" lon="13.36266">
        <ele>44.84</ele>
        <time>2018-04-21T13:08:21Z</time>
      </trkpt>
      <trkpt lat="38.11486" lon="13.36265">
        <ele>41.95</ele>
        <time>2018-04-21T13:08:36Z</time>
      </trkpt>
      <trkpt lat="38.11488" lon="13.36264">
        <ele>38.11</ele>
        <time>2018-04-21T13:08:49Z</time>
      </trkpt>
      <trkpt lat="38.11488" lon="13.36266">
        <ele>38.11</ele>
        <time>2018-04-21T13:09:02Z</time>
      </trkpt>
      <trkpt lat="38.11488" lon="13.36266">
        <ele>36.19</ele>
        <time>2018-04-21T13:09:14Z</time>
      </trkpt>
      <trkpt lat="38.11485" lon="13.36262">
        <ele>36.67</ele>
        <time>2018-04-21T13:09:27Z</time>
      </trkpt>
      <trkpt lat="38.11487" lon="13.36258">
        <ele>32.34</ele>
        <time>2018-04-21T13:09:41Z</time>
      </trkpt>
      <trkpt lat="38.11486" lon="13.36246">
        <ele>29.94</ele>
        <time>2018-04-21T13:09:54Z</time>
      </trkpt>
      <trkpt lat="38.1148" lon="13.36241">
        <ele>26.09</ele>
        <time>2018-04-21T13:10:05Z</time>
      </trkpt>
      <trkpt lat="38.11476" lon="13.36239">
        <ele>25.61</ele>
        <time>2018-04-21T13:10:15Z</time>
      </trkpt>
      <trkpt lat="38.11473" lon="13.36236">
        <ele>24.17</ele>
        <time>2018-04-21T13:10:21Z</time>
      </trkpt>
      <trkpt lat="38.11464" lon="13.36224">
        <ele>23.69</ele>
        <time>2018-04-21T13:10:39Z</time>
      </trkpt>
      <trkpt lat="38.11464" lon="13.36223">
        <ele>23.21</ele>
        <time>2018-04-21T13:10:57Z</time>
      </trkpt>
      <trkpt lat="38.11466" lon="13.36225">
        <ele>23.21</ele>
        <time>2018-04-21T13:11:08Z</time>
      </trkpt>
      <trkpt lat="38.11467" lon="13.36223">
        <ele>24.17</ele>
        <time>2018-04-21T13:11:25Z</time>
      </trkpt>
      <trkpt lat="38.11466" lon="13.3622">
        <ele>29.94</ele>
        <time>2018-04-21T13:11:45Z</time>
      </trkpt>
      <trkpt lat="38.11471" lon="13.36224">
        <ele>39.55</ele>
        <time>2018-04-21T13:11:58Z</time>
      </trkpt>
      <trkpt lat="38.11474" lon="13.36222">
        <ele>44.84</ele>
        <time>2018-04-21T13:12:07Z</time>
      </trkpt>
      <trkpt lat="38.11482" lon="13.36235">
        <ele>48.68</ele>
        <time>2018-04-21T13:12:19Z</time>
      </trkpt>
      <trkpt lat="38.11484" lon="13.36243">
        <ele>41.47</ele>
        <time>2018-04-21T13:12:34Z</time>
      </trkpt>
      <trkpt lat="38.11484" lon="13.36244">
        <ele>38.11</ele>
        <time>2018-04-21T13:12:46Z</time>
      </trkpt>
      <trkpt lat="38.11485" lon="13.36248">
        <ele>35.71</ele>
        <time>2018-04-21T13:12:49Z</time>
      </trkpt>
      <trkpt lat="38.11481" lon="13.3626">
        <ele>35.23</ele>
        <time>2018-04-21T13:12:59Z</time>
      </trkpt>
      <trkpt lat="38.11475" lon="13.36266">
        <ele>32.82</ele>
        <time>2018-04-21T13:13:10Z</time>
      </trkpt>
      <trkpt lat="38.11474" lon="13.36266">
        <ele>31.86</ele>
        <time>2018-04-21T13:13:22Z</time>
      </trkpt>
      <trkpt lat="38.11471" lon="13.36267">
        <ele>30.9</ele>
        <time>2018-04-21T13:13:42Z</time>
      </trkpt>
      <trkpt lat="38.1147" lon="13.36264">
        <ele>30.42</ele>
        <time>2018-04-21T13:14:00Z</time>
      </trkpt>
      <trkpt lat="38.11471" lon="13.36263">
        <ele>30.9</ele>
        <time>2018-04-21T13:14:22Z</time>
      </trkpt>
      <trkpt lat="38.1147" lon="13.36265">
        <ele>30.9</ele>
        <time>2018-04-21T13:14:41Z</time>
      </trkpt>
      <trkpt lat="38.11469" lon="13.36266">
        <ele>30.9</ele>
        <time>2018-04-21T13:15:03Z</time>
      </trkpt>
      <trkpt lat="38.11469" lon="13.36266">
        <ele>30.42</ele>
        <time>2018-04-21T13:15:25Z</time>
      </trkpt>
      <trkpt lat="38.11469" lon="13.36266">
        <ele>31.38</ele>
        <time>2018-04-21T13:15:40Z</time>
      </trkpt>
      <trkpt lat="38.11468" lon="13.36265">
        <ele>32.34</ele>
        <time>2018-04-21T13:16:11Z</time>
      </trkpt>
      <trkpt lat="38.11468" lon="13.36265">
        <ele>32.34</ele>
        <time>2018-04-21T13:16:42Z</time>
      </trkpt>
      <trkpt lat="38.11467" lon="13.36265">
        <ele>32.34</ele>
        <time>2018-04-21T13:17:07Z</time>
      </trkpt>
      <trkpt lat="38.11468" lon="13.36265">
        <ele>32.34</ele>
        <time>2018-04-21T13:17:38Z</time>
      </trkpt>
      <trkpt lat="38.11467" lon="13.36265">
        <ele>32.82</ele>
        <time>2018-04-21T13:17:57Z</time>
      </trkpt>
      <trkpt lat="38.11467" lon="13.36265">
        <ele>32.34</ele>
        <time>2018-04-21T13:18:20Z</time>
      </trkpt>
      <trkpt lat="38.11468" lon="13.36264">
        <ele>32.82</ele>
        <time>2018-04-21T13:18:45Z</time>
      </trkpt>
      <trkpt lat="38.11468" lon="13.36264">
        <ele>32.82</ele>
        <time>2018-04-21T13:19:04Z</time>
      </trkpt>
      <trkpt lat="38.11469" lon="13.36262">
        <ele>33.3</ele>
        <time>2018-04-21T13:19:19Z</time>
      </trkpt>
      <trkpt lat="38.11469" lon="13.36259">
        <ele>32.82</ele>
        <time>2018-04-21T13:19:47Z</time>
      </trkpt>
      <trkpt lat="38.11468" lon="13.36259">
        <ele>33.3</ele>
        <time>2018-04-21T13:20:02Z</time>
      </trkpt>
      <trkpt lat="38.11468" lon="13.36261">
        <ele>33.78</ele>
        <time>2018-04-21T13:20:23Z</time>
      </trkpt>
      <trkpt lat="38.11469" lon="13.36261">
        <ele>33.78</ele>
        <time>2018-04-21T13:20:41Z</time>
      </trkpt>
      <trkpt lat="38.11469" lon="13.36261">
        <ele>33.78</ele>
        <time>2018-04-21T13:21:08Z</time>
      </trkpt>
      <trkpt lat="38.11471" lon="13.3626">
        <ele>33.78</ele>
        <time>2018-04-21T13:21:28Z</time>
      </trkpt>
      <trkpt lat="38.11472" lon="13.36261">
        <ele>34.26</ele>
        <time>2018-04-21T13:21:55Z</time>
      </trkpt>
      <trkpt lat="38.11472" lon="13.36261">
        <ele>34.74</ele>
        <time>2018-04-21T13:22:23Z</time>
      </trkpt>
      <trkpt lat="38.11473" lon="13.36261">
        <ele>34.74</ele>
        <time>2018-04-21T13:22:48Z</time>
      </trkpt>
      <trkpt lat="38.11475" lon="13.36264">
        <ele>34.74</ele>
        <time>2018-04-21T13:23:11Z</time>
      </trkpt>
      <trkpt lat="38.11485" lon="13.36256">
        <ele>34.26</ele>
        <time>2018-04-21T13:23:33Z</time>
      </trkpt>
      <trkpt lat="38.1148" lon="13.36258">
        <ele>34.74</ele>
        <time>2018-04-21T13:23:46Z</time>
      </trkpt>
      <trkpt lat="38.11482" lon="13.36259">
        <ele>34.26</ele>
        <time>2018-04-21T13:24:07Z</time>
      </trkpt>
      <trkpt lat="38.11483" lon="13.36258">
        <ele>28.02</ele>
        <time>2018-04-21T13:24:26Z</time>
      </trkpt>
      <trkpt lat="38.11483" lon="13.3626">
        <ele>26.57</ele>
        <time>2018-04-21T13:24:49Z</time>
      </trkpt>
      <trkpt lat="38.11483" lon="13.36261">
        <ele>25.13</ele>
        <time>2018-04-21T13:25:14Z</time>
      </trkpt>
      <trkpt lat="38.11483" lon="13.36262">
        <ele>24.17</ele>
        <time>2018-04-21T13:25:29Z</time>
      </trkpt>
      <trkpt lat="38.11484" lon="13.36263">
        <ele>24.17</ele>
        <time>2018-04-21T13:25:39Z</time>
      </trkpt>
      <trkpt lat="38.11484" lon="13.36261">
        <ele>25.13</ele>
        <time>2018-04-21T13:25:55Z</time>
      </trkpt>
      <trkpt lat="38.11484" lon="13.36262">
        <ele>24.17</ele>
        <time>2018-04-21T13:26:11Z</time>
      </trkpt>
      <trkpt lat="38.11485" lon="13.36262">
        <ele>24.17</ele>
        <time>2018-04-21T13:26:30Z</time>
      </trkpt>
      <trkpt lat="38.11483" lon="13.36263">
        <ele>24.65</ele>
        <time>2018-04-21T13:26:52Z</time>
      </trkpt>
      <trkpt lat="38.11483" lon="13.36264">
        <ele>26.57</ele>
        <time>2018-04-21T13:27:04Z</time>
      </trkpt>
      <trkpt lat="38.11483" lon="13.36265">
        <ele>27.05</ele>
        <time>2018-04-21T13:27:25Z</time>
      </trkpt>
      <trkpt lat="38.11481" lon="13.36267">
        <ele>28.02</ele>
        <time>2018-04-21T13:27:38Z</time>
      </trkpt>
      <trkpt lat="38.11489" lon="13.36265">
        <ele>26.09</ele>
        <time>2018-04-21T13:27:53Z</time>
      </trkpt>
      <trkpt lat="38.11494" lon="13.36268">
        <ele>26.09</ele>
        <time>2018-04-21T13:28:05Z</time>
      </trkpt>
      <trkpt lat="38.11494" lon="13.36276">
        <ele>28.5</ele>
        <time>2018-04-21T13:28:30Z</time>
      </trkpt>
      <trkpt lat="38.11495" lon="13.36278">
        <ele>29.94</ele>
        <time>2018-04-21T13:28:41Z</time>
      </trkpt>
      <trkpt lat="38.11496" lon="13.36275">
        <ele>31.38</ele>
        <time>2018-04-21T13:28:56Z</time>
      </trkpt>
      <trkpt lat="38.1149" lon="13.36271">
        <ele>29.46</ele>
        <time>2018-04-21T13:29:09Z</time>
      </trkpt>
      <trkpt lat="38.11487" lon="13.36269">
        <ele>30.42</ele>
        <time>2018-04-21T13:29:24Z</time>
      </trkpt>
      <trkpt lat="38.11484" lon="13.36271">
        <ele>29.46</ele>
        <time>2018-04-21T13:29:41Z</time>
      </trkpt>
      <trkpt lat="38.11475" lon="13.36265">
        <ele>28.02</ele>
        <time>2018-04-21T13:30:02Z</time>
      </trkpt>
      <trkpt lat="38.11473" lon="13.36264">
        <ele>28.98</ele>
        <time>2018-04-21T13:30:24Z</time>
      </trkpt>
      <trkpt lat="38.11473" lon="13.36263">
        <ele>30.42</ele>
        <time>2018-04-21T13:30:43Z</time>
      </trkpt>
      <trkpt lat="38.11474" lon="13.36254">
        <ele>35.71</ele>
        <time>2018-04-21T13:31:02Z</time>
      </trkpt>
      <trkpt lat="38.11474" lon="13.36255">
        <ele>40.03</ele>
        <time>2018-04-21T13:31:22Z</time>
      </trkpt>
      <trkpt lat="38.11473" lon="13.36258">
        <ele>40.99</ele>
        <time>2018-04-21T13:31:44Z</time>
      </trkpt>
      <trkpt lat="38.11474" lon="13.36258">
        <ele>42.44</ele>
        <time>2018-04-21T13:31:57Z</time>
      </trkpt>
      <trkpt lat="38.11474" lon="13.36258">
        <ele>41.95</ele>
        <time>2018-04-21T13:32:19Z</time>
      </trkpt>
      <trkpt lat="38.11473" lon="13.36259">
        <ele>41.47</ele>
        <time>2018-04-21T13:32:44Z</time>
      </trkpt>
      <trkpt lat="38.11473" lon="13.36259">
        <ele>41.47</ele>
        <time>2018-04-21T13:33:10Z</time>
      </trkpt>
      <trkpt lat="38.11474" lon="13.36254">
        <ele>40.99</ele>
        <time>2018-04-21T13:33:28Z</time>
      </trkpt>
      <trkpt lat="38.11476" lon="13.3626">
        <ele>40.03</ele>
        <time>2018-04-21T13:33:50Z</time>
      </trkpt>
      <trkpt lat="38.11474" lon="13.36257">
        <ele>39.55</ele>
        <time>2018-04-21T13:34:15Z</time>
      </trkpt>
      <trkpt lat="38.11471" lon="13.36258">
        <ele>39.55</ele>
        <time>2018-04-21T13:34:17Z</time>
      </trkpt>
      <trkpt lat="38.11463" lon="13.36285">
        <ele>39.55</ele>
        <time>2018-04-21T13:34:48Z</time>
      </trkpt>
      <trkpt lat="38.11462" lon="13.36283">
        <ele>39.55</ele>
        <time>2018-04-21T13:35:48Z</time>
      </trkpt>
      <trkpt lat="38.11511" lon="13.36251">
        <ele>40.03</ele>
        <time>2018-04-21T13:36:28Z</time>
      </trkpt>
      <trkpt lat="38.11517" lon="13.36255">
        <ele>40.03</ele>
        <time>2018-04-21T13:36:54Z</time>
      </trkpt>
      <trkpt lat="38.11482" lon="13.36292">
        <ele>40.03</ele>
        <time>2018-04-21T13:41:22Z</time>
      </trkpt>
      <trkpt lat="38.11477" lon="13.36298">
        <ele>37.63</ele>
        <time>2018-04-21T13:41:56Z</time>
      </trkpt>
      <trkpt lat="38.11472" lon="13.36293">
        <ele>30.9</ele>
        <time>2018-04-21T13:42:23Z</time>
      </trkpt>
      <trkpt lat="38.1147" lon="13.3629">
        <ele>28.02</ele>
        <time>2018-04-21T13:42:49Z</time>
      </trkpt>
      <trkpt lat="38.11472" lon="13.36293">
        <ele>30.9</ele>
        <time>2018-04-21T13:43:10Z</time>
      </trkpt>
      <trkpt lat="38.11474" lon="13.36295">
        <ele>28.98</ele>
        <time>2018-04-21T13:43:32Z</time>
      </trkpt>
      <trkpt lat="38.11475" lon="13.363">
        <ele>27.53</ele>
        <time>2018-04-21T13:43:57Z</time>
      </trkpt>
      <trkpt lat="38.11474" lon="13.363">
        <ele>25.61</ele>
        <time>2018-04-21T13:44:20Z</time>
      </trkpt>
      <trkpt lat="38.11477" lon="13.36302">
        <ele>23.21</ele>
        <time>2018-04-21T13:44:46Z</time>
      </trkpt>
      <trkpt lat="38.11488" lon="13.36299">
        <ele>22.73</ele>
        <time>2018-04-21T13:45:05Z</time>
      </trkpt>
      <trkpt lat="38.11486" lon="13.363">
        <ele>26.09</ele>
        <time>2018-04-21T13:45:23Z</time>
      </trkpt>
      <trkpt lat="38.1148" lon="13.36293">
        <ele>28.98</ele>
        <time>2018-04-21T13:45:36Z</time>
      </trkpt>
      <trkpt lat="38.1149" lon="13.36285">
        <ele>29.94</ele>
        <time>2018-04-21T13:45:46Z</time>
      </trkpt>
      <trkpt lat="38.11498" lon="13.36293">
        <ele>32.34</ele>
        <time>2018-04-21T13:46:08Z</time>
      </trkpt>
      <trkpt lat="38.1149" lon="13.36296">
        <ele>32.34</ele>
        <time>2018-04-21T13:46:28Z</time>
      </trkpt>
      <trkpt lat="38.11489" lon="13.36297">
        <ele>32.34</ele>
        <time>2018-04-21T13:46:38Z</time>
      </trkpt>
      <trkpt lat="38.11502" lon="13.36303">
        <ele>36.19</ele>
        <time>2018-04-21T13:46:57Z</time>
      </trkpt>
      <trkpt lat="38.11489" lon="13.36294">
        <ele>35.71</ele>
        <time>2018-04-21T13:47:20Z</time>
      </trkpt>
      <trkpt lat="38.11486" lon="13.36296">
        <ele>35.71</ele>
        <time>2018-04-21T13:47:45Z</time>
      </trkpt>
      <trkpt lat="38.11481" lon="13.36297">
        <ele>35.23</ele>
        <time>2018-04-21T13:48:14Z</time>
      </trkpt>
      <trkpt lat="38.11481" lon="13.36293">
        <ele>33.78</ele>
        <time>2018-04-21T13:48:40Z</time>
      </trkpt>
      <trkpt lat="38.11483" lon="13.36298">
        <ele>34.74</ele>
        <time>2018-04-21T13:49:04Z</time>
      </trkpt>
      <trkpt lat="38.11479" lon="13.36299">
        <ele>34.74</ele>
        <time>2018-04-21T13:49:25Z</time>
      </trkpt>
      <trkpt lat="38.1146" lon="13.36287">
        <ele>34.74</ele>
        <time>2018-04-21T13:50:00Z</time>
      </trkpt>
      <trkpt lat="38.11464" lon="13.36286">
        <ele>35.23</ele>
        <time>2018-04-21T13:50:21Z</time>
      </trkpt>
      <trkpt lat="38.11504" lon="13.36295">
        <ele>35.23</ele>
        <time>2018-04-21T13:50:47Z</time>
      </trkpt>
      <trkpt lat="38.11506" lon="13.36292">
        <ele>35.23</ele>
        <time>2018-04-21T13:51:03Z</time>
      </trkpt>
      <trkpt lat="38.11501" lon="13.36296">
        <ele>35.23</ele>
        <time>2018-04-21T13:51:22Z</time>
      </trkpt>
      <trkpt lat="38.11482" lon="13.36296">
        <ele>34.74</ele>
        <time>2018-04-21T13:51:56Z</time>
      </trkpt>
      <trkpt lat="38.11481" lon="13.36295">
        <ele>34.26</ele>
        <time>2018-04-21T13:52:33Z</time>
      </trkpt>
      <trkpt lat="38.11468" lon="13.36295">
        <ele>33.78</ele>
        <time>2018-04-21T13:53:03Z</time>
      </trkpt>
      <trkpt lat="38.11479" lon="13.363">
        <ele>33.78</ele>
        <time>2018-04-21T13:53:36Z</time>
      </trkpt>
      <trkpt lat="38.11471" lon="13.36299">
        <ele>34.26</ele>
        <time>2018-04-21T13:53:58Z</time>
      </trkpt>
      <trkpt lat="38.11477" lon="13.36303">
        <ele>34.26</ele>
        <time>2018-04-21T13:54:14Z</time>
      </trkpt>
      <trkpt lat="38.11493" lon="13.36299">
        <ele>28.5</ele>
        <time>2018-04-21T13:54:34Z</time>
      </trkpt>
      <trkpt lat="38.11493" lon="13.36301">
        <ele>28.02</ele>
        <time>2018-04-21T13:54:54Z</time>
      </trkpt>
      <trkpt lat="38.11495" lon="13.3626">
        <ele>36.19</ele>
        <time>2018-04-21T13:55:05Z</time>
      </trkpt>
      <trkpt lat="38.11494" lon="13.3625">
        <ele>47.24</ele>
        <time>2018-04-21T13:55:19Z</time>
      </trkpt>
      <trkpt lat="38.11493" lon="13.36257">
        <ele>43.88</ele>
        <time>2018-04-21T13:55:33Z</time>
      </trkpt>
      <trkpt lat="38.11491" lon="13.36259">
        <ele>42.92</ele>
        <time>2018-04-21T13:55:50Z</time>
      </trkpt>
      <trkpt lat="38.1149" lon="13.36262">
        <ele>40.51</ele>
        <time>2018-04-21T13:56:04Z</time>
      </trkpt>
      <trkpt lat="38.11487" lon="13.36264">
        <ele>37.63</ele>
        <time>2018-04-21T13:56:20Z</time>
      </trkpt>
      <trkpt lat="38.11486" lon="13.36265">
        <ele>37.15</ele>
        <time>2018-04-21T13:56:35Z</time>
      </trkpt>
      <trkpt lat="38.11485" lon="13.36265">
        <ele>36.19</ele>
        <time>2018-04-21T13:56:57Z</time>
      </trkpt>
      <trkpt lat="38.11485" lon="13.36265">
        <ele>36.19</ele>
        <time>2018-04-21T13:57:14Z</time>
      </trkpt>
      <trkpt lat="38.11481" lon="13.36266">
        <ele>34.74</ele>
        <time>2018-04-21T13:57:28Z</time>
      </trkpt>
      <trkpt lat="38.11481" lon="13.36262">
        <ele>34.74</ele>
        <time>2018-04-21T13:57:39Z</time>
      </trkpt>
      <trkpt lat="38.11486" lon="13.36263">
        <ele>35.23</ele>
        <time>2018-04-21T13:57:50Z</time>
      </trkpt>
      <trkpt lat="38.1149" lon="13.36266">
        <ele>30.9</ele>
        <time>2018-04-21T13:58:04Z</time>
      </trkpt>
      <trkpt lat="38.11492" lon="13.36268">
        <ele>29.46</ele>
        <time>2018-04-21T13:58:17Z</time>
      </trkpt>
      <trkpt lat="38.11502" lon="13.36269">
        <ele>27.05</ele>
        <time>2018-04-21T13:58:28Z</time>
      </trkpt>
      <trkpt lat="38.11509" lon="13.36273">
        <ele>23.69</ele>
        <time>2018-04-21T13:58:40Z</time>
      </trkpt>
      <trkpt lat="38.11512" lon="13.36283">
        <ele>21.29</ele>
        <time>2018-04-21T13:58:52Z</time>
      </trkpt>
      <trkpt lat="38.11514" lon="13.36279">
        <ele>22.25</ele>
        <time>2018-04-21T13:59:07Z</time>
      </trkpt>
      <trkpt lat="38.11516" lon="13.36276">
        <ele>23.69</ele>
        <time>2018-04-21T13:59:26Z</time>
      </trkpt>
      <trkpt lat="38.11516" lon="13.36276">
        <ele>24.17</ele>
        <time>2018-04-21T13:59:43Z</time>
      </trkpt>
      <trkpt lat="38.11515" lon="13.36276">
        <ele>25.61</ele>
        <time>2018-04-21T14:00:01Z</time>
      </trkpt>
      <trkpt lat="38.11515" lon="13.36277">
        <ele>27.05</ele>
        <time>2018-04-21T14:00:22Z</time>
      </trkpt>
      <trkpt lat="38.11514" lon="13.36277">
        <ele>27.53</ele>
        <time>2018-04-21T14:00:47Z</time>
      </trkpt>
      <trkpt lat="38.11515" lon="13.36276">
        <ele>28.02</ele>
        <time>2018-04-21T14:01:16Z</time>
      </trkpt>
      <trkpt lat="38.11515" lon="13.36276">
        <ele>28.98</ele>
        <time>2018-04-21T14:01:40Z</time>
      </trkpt>
      <trkpt lat="38.11516" lon="13.36277">
        <ele>30.9</ele>
        <time>2018-04-21T14:02:00Z</time>
      </trkpt>
      <trkpt lat="38.11516" lon="13.36277">
        <ele>31.86</ele>
        <time>2018-04-21T14:02:22Z</time>
      </trkpt>
      <trkpt lat="38.11515" lon="13.36276">
        <ele>33.78</ele>
        <time>2018-04-21T14:02:41Z</time>
      </trkpt>
      <trkpt lat="38.11514" lon="13.36278">
        <ele>38.11</ele>
        <time>2018-04-21T14:03:07Z</time>
      </trkpt>
      <trkpt lat="38.11514" lon="13.36278">
        <ele>39.55</ele>
        <time>2018-04-21T14:03:30Z</time>
      </trkpt>
      <trkpt lat="38.11514" lon="13.36279">
        <ele>39.55</ele>
        <time>2018-04-21T14:03:56Z</time>
      </trkpt>
      <trkpt lat="38.11514" lon="13.3628">
        <ele>40.03</ele>
        <time>2018-04-21T14:04:17Z</time>
      </trkpt>
      <trkpt lat="38.11514" lon="13.36281">
        <ele>40.51</ele>
        <time>2018-04-21T14:04:42Z</time>
      </trkpt>
      <trkpt lat="38.11514" lon="13.36281">
        <ele>41.47</ele>
        <time>2018-04-21T14:04:55Z</time>
      </trkpt>
      <trkpt lat="38.11512" lon="13.3628">
        <ele>42.44</ele>
        <time>2018-04-21T14:05:11Z</time>
      </trkpt>
      <trkpt lat="38.11521" lon="13.36271">
        <ele>28.98</ele>
        <time>2018-04-21T14:05:23Z</time>
      </trkpt>
      <trkpt lat="38.11533" lon="13.36254">
        <ele>18.88</ele>
        <time>2018-04-21T14:05:38Z</time>
      </trkpt>
      <trkpt lat="38.11534" lon="13.36254">
        <ele>18.4</ele>
        <time>2018-04-21T14:05:39Z</time>
      </trkpt>
      <trkpt lat="38.11537" lon="13.36254">
        <ele>17.44</ele>
        <time>2018-04-21T14:05:41Z</time>
      </trkpt>
      <trkpt lat="38.11542" lon="13.36253">
        <ele>17.44</ele>
        <time>2018-04-21T14:05:55Z</time>
      </trkpt>
      <trkpt lat="38.11543" lon="13.36249">
        <ele>18.88</ele>
        <time>2018-04-21T14:06:08Z</time>
      </trkpt>
      <trkpt lat="38.11542" lon="13.36248">
        <ele>20.32</ele>
        <time>2018-04-21T14:06:26Z</time>
      </trkpt>
      <trkpt lat="38.11541" lon="13.36247">
        <ele>20.81</ele>
        <time>2018-04-21T14:06:37Z</time>
      </trkpt>
      <trkpt lat="38.11541" lon="13.36246">
        <ele>21.29</ele>
        <time>2018-04-21T14:06:50Z</time>
      </trkpt>
      <trkpt lat="38.11541" lon="13.36245">
        <ele>22.25</ele>
        <time>2018-04-21T14:07:08Z</time>
      </trkpt>
      <trkpt lat="38.11542" lon="13.36246">
        <ele>23.21</ele>
        <time>2018-04-21T14:07:21Z</time>
      </trkpt>
      <trkpt lat="38.1154" lon="13.36245">
        <ele>21.77</ele>
        <time>2018-04-21T14:07:30Z</time>
      </trkpt>
      <trkpt lat="38.11536" lon="13.36239">
        <ele>24.17</ele>
        <time>2018-04-21T14:07:40Z</time>
      </trkpt>
      <trkpt lat="38.11536" lon="13.36229">
        <ele>28.5</ele>
        <time>2018-04-21T14:07:53Z</time>
      </trkpt>
      <trkpt lat="38.11533" lon="13.3622">
        <ele>27.53</ele>
        <time>2018-04-21T14:08:05Z</time>
      </trkpt>
      <trkpt lat="38.11531" lon="13.36217">
        <ele>25.13</ele>
        <time>2018-04-21T14:08:20Z</time>
      </trkpt>
      <trkpt lat="38.11528" lon="13.36208">
        <ele>28.02</ele>
        <time>2018-04-21T14:08:35Z</time>
      </trkpt>
      <trkpt lat="38.11526" lon="13.36203">
        <ele>32.34</ele>
        <time>2018-04-21T14:08:50Z</time>
      </trkpt>
      <trkpt lat="38.11525" lon="13.36203">
        <ele>34.74</ele>
        <time>2018-04-21T14:09:06Z</time>
      </trkpt>
      <trkpt lat="38.11525" lon="13.362">
        <ele>37.63</ele>
        <time>2018-04-21T14:09:21Z</time>
      </trkpt>
      <trkpt lat="38.11527" lon="13.36199">
        <ele>40.03</ele>
        <time>2018-04-21T14:09:31Z</time>
      </trkpt>
      <trkpt lat="38.11528" lon="13.36199">
        <ele>40.99</ele>
        <time>2018-04-21T14:09:43Z</time>
      </trkpt>
      <trkpt lat="38.11528" lon="13.36197">
        <ele>41.47</ele>
        <time>2018-04-21T14:09:56Z</time>
      </trkpt>
      <trkpt lat="38.11532" lon="13.36189">
        <ele>40.99</ele>
        <time>2018-04-21T14:10:06Z</time>
      </trkpt>
      <trkpt lat="38.11535" lon="13.36181">
        <ele>40.51</ele>
        <time>2018-04-21T14:10:15Z</time>
      </trkpt>
      <trkpt lat="38.1154" lon="13.36173">
        <ele>39.07</ele>
        <time>2018-04-21T14:10:22Z</time>
      </trkpt>
      <trkpt lat="38.11546" lon="13.36168">
        <ele>40.51</ele>
        <time>2018-04-21T14:10:38Z</time>
      </trkpt>
      <trkpt lat="38.11549" lon="13.36166">
        <ele>41.95</ele>
        <time>2018-04-21T14:10:55Z</time>
      </trkpt>
      <trkpt lat="38.11549" lon="13.36162">
        <ele>41.95</ele>
        <time>2018-04-21T14:11:06Z</time>
      </trkpt>
      <trkpt lat="38.11548" lon="13.36152">
        <ele>32.82</ele>
        <time>2018-04-21T14:11:19Z</time>
      </trkpt>
      <trkpt lat="38.11548" lon="13.36151">
        <ele>31.86</ele>
        <time>2018-04-21T14:11:33Z</time>
      </trkpt>
      <trkpt lat="38.11548" lon="13.36151">
        <ele>31.38</ele>
        <time>2018-04-21T14:11:36Z</time>
      </trkpt>
      <trkpt lat="38.11545" lon="13.36139">
        <ele>28.5</ele>
        <time>2018-04-21T14:11:49Z</time>
      </trkpt>
      <trkpt lat="38.11547" lon="13.36128">
        <ele>28.02</ele>
        <time>2018-04-21T14:12:00Z</time>
      </trkpt>
      <trkpt lat="38.11546" lon="13.36124">
        <ele>27.53</ele>
        <time>2018-04-21T14:12:14Z</time>
      </trkpt>
      <trkpt lat="38.11544" lon="13.36123">
        <ele>28.02</ele>
        <time>2018-04-21T14:12:26Z</time>
      </trkpt>
      <trkpt lat="38.1154" lon="13.36121">
        <ele>29.94</ele>
        <time>2018-04-21T14:12:40Z</time>
      </trkpt>
      <trkpt lat="38.11543" lon="13.36108">
        <ele>31.38</ele>
        <time>2018-04-21T14:12:53Z</time>
      </trkpt>
      <trkpt lat="38.11541" lon="13.36104">
        <ele>31.38</ele>
        <time>2018-04-21T14:13:13Z</time>
      </trkpt>
      <trkpt lat="38.1154" lon="13.36096">
        <ele>31.86</ele>
        <time>2018-04-21T14:13:30Z</time>
      </trkpt>
      <trkpt lat="38.11541" lon="13.36089">
        <ele>33.3</ele>
        <time>2018-04-21T14:13:44Z</time>
      </trkpt>
      <trkpt lat="38.11542" lon="13.36088">
        <ele>32.82</ele>
        <time>2018-04-21T14:13:46Z</time>
      </trkpt>
      <trkpt lat="38.11535" lon="13.36068">
        <ele>33.78</ele>
        <time>2018-04-21T14:13:58Z</time>
      </trkpt>
      <trkpt lat="38.11535" lon="13.3606">
        <ele>32.34</ele>
        <time>2018-04-21T14:14:24Z</time>
      </trkpt>
      <trkpt lat="38.11534" lon="13.36059">
        <ele>31.86</ele>
        <time>2018-04-21T14:14:48Z</time>
      </trkpt>
      <trkpt lat="38.11531" lon="13.36056">
        <ele>30.9</ele>
        <time>2018-04-21T14:15:14Z</time>
      </trkpt>
      <trkpt lat="38.11528" lon="13.36048">
        <ele>32.82</ele>
        <time>2018-04-21T14:15:29Z</time>
      </trkpt>
      <trkpt lat="38.11521" lon="13.36035">
        <ele>37.63</ele>
        <time>2018-04-21T14:15:42Z</time>
      </trkpt>
      <trkpt lat="38.11507" lon="13.3602">
        <ele>34.26</ele>
        <time>2018-04-21T14:15:57Z</time>
      </trkpt>
      <trkpt lat="38.11507" lon="13.36016">
        <ele>33.3</ele>
        <time>2018-04-21T14:16:09Z</time>
      </trkpt>
      <trkpt lat="38.11507" lon="13.36014">
        <ele>32.34</ele>
        <time>2018-04-21T14:16:22Z</time>
      </trkpt>
      <trkpt lat="38.11506" lon="13.36013">
        <ele>33.3</ele>
        <time>2018-04-21T14:16:37Z</time>
      </trkpt>
      <trkpt lat="38.11506" lon="13.36009">
        <ele>32.82</ele>
        <time>2018-04-21T14:16:49Z</time>
      </trkpt>
      <trkpt lat="38.11509" lon="13.36001">
        <ele>26.57</ele>
        <time>2018-04-21T14:17:01Z</time>
      </trkpt>
      <trkpt lat="38.1151" lon="13.35997">
        <ele>27.05</ele>
        <time>2018-04-21T14:17:13Z</time>
      </trkpt>
      <trkpt lat="38.1151" lon="13.35995">
        <ele>26.57</ele>
        <time>2018-04-21T14:17:26Z</time>
      </trkpt>
      <trkpt lat="38.11501" lon="13.35986">
        <ele>27.53</ele>
        <time>2018-04-21T14:17:39Z</time>
      </trkpt>
      <trkpt lat="38.11499" lon="13.35979">
        <ele>29.46</ele>
        <time>2018-04-21T14:17:50Z</time>
      </trkpt>
      <trkpt lat="38.11489" lon="13.35972">
        <ele>30.9</ele>
        <time>2018-04-21T14:18:06Z</time>
      </trkpt>
      <trkpt lat="38.11472" lon="13.35953">
        <ele>24.65</ele>
        <time>2018-04-21T14:18:21Z</time>
      </trkpt>
      <trkpt lat="38.1147" lon="13.35953">
        <ele>24.65</ele>
        <time>2018-04-21T14:18:23Z</time>
      </trkpt>
      <trkpt lat="38.11475" lon="13.35932">
        <ele>28.5</ele>
        <time>2018-04-21T14:18:37Z</time>
      </trkpt>
      <trkpt lat="38.1147" lon="13.35927">
        <ele>27.53</ele>
        <time>2018-04-21T14:18:50Z</time>
      </trkpt>
      <trkpt lat="38.11471" lon="13.35929">
        <ele>29.46</ele>
        <time>2018-04-21T14:19:10Z</time>
      </trkpt>
      <trkpt lat="38.11465" lon="13.35924">
        <ele>31.86</ele>
        <time>2018-04-21T14:19:30Z</time>
      </trkpt>
      <trkpt lat="38.11464" lon="13.35914">
        <ele>31.38</ele>
        <time>2018-04-21T14:19:45Z</time>
      </trkpt>
      <trkpt lat="38.11464" lon="13.35909">
        <ele>32.82</ele>
        <time>2018-04-21T14:19:57Z</time>
      </trkpt>
      <trkpt lat="38.11461" lon="13.35901">
        <ele>35.71</ele>
        <time>2018-04-21T14:20:09Z</time>
      </trkpt>
      <trkpt lat="38.11456" lon="13.35892">
        <ele>35.71</ele>
        <time>2018-04-21T14:20:23Z</time>
      </trkpt>
      <trkpt lat="38.11454" lon="13.35883">
        <ele>35.71</ele>
        <time>2018-04-21T14:20:40Z</time>
      </trkpt>
      <trkpt lat="38.11447" lon="13.35872">
        <ele>32.82</ele>
        <time>2018-04-21T14:20:55Z</time>
      </trkpt>
      <trkpt lat="38.11446" lon="13.35865">
        <ele>32.34</ele>
        <time>2018-04-21T14:21:10Z</time>
      </trkpt>
      <trkpt lat="38.11444" lon="13.35858">
        <ele>33.3</ele>
        <time>2018-04-21T14:21:23Z</time>
      </trkpt>
      <trkpt lat="38.11438" lon="13.35849">
        <ele>33.3</ele>
        <time>2018-04-21T14:21:37Z</time>
      </trkpt>
      <trkpt lat="38.11435" lon="13.35845">
        <ele>33.3</ele>
        <time>2018-04-21T14:21:53Z</time>
      </trkpt>
      <trkpt lat="38.11437" lon="13.35842">
        <ele>34.74</ele>
        <time>2018-04-21T14:22:06Z</time>
      </trkpt>
      <trkpt lat="38.11438" lon="13.35835">
        <ele>35.71</ele>
        <time>2018-04-21T14:22:20Z</time>
      </trkpt>
      <trkpt lat="38.11436" lon="13.35825">
        <ele>33.3</ele>
        <time>2018-04-21T14:22:36Z</time>
      </trkpt>
      <trkpt lat="38.11436" lon="13.35821">
        <ele>33.78</ele>
        <time>2018-04-21T14:22:49Z</time>
      </trkpt>
      <trkpt lat="38.11437" lon="13.35819">
        <ele>33.78</ele>
        <time>2018-04-21T14:23:07Z</time>
      </trkpt>
      <trkpt lat="38.11438" lon="13.35809">
        <ele>35.71</ele>
        <time>2018-04-21T14:23:28Z</time>
      </trkpt>
      <trkpt lat="38.11437" lon="13.35801">
        <ele>36.67</ele>
        <time>2018-04-21T14:23:42Z</time>
      </trkpt>
      <trkpt lat="38.11433" lon="13.35797">
        <ele>38.11</ele>
        <time>2018-04-21T14:23:53Z</time>
      </trkpt>
      <trkpt lat="38.11426" lon="13.35793">
        <ele>39.07</ele>
        <time>2018-04-21T14:24:17Z</time>
      </trkpt>
      <trkpt lat="38.11422" lon="13.35778">
        <ele>36.19</ele>
        <time>2018-04-21T14:24:43Z</time>
      </trkpt>
      <trkpt lat="38.11423" lon="13.35778">
        <ele>36.19</ele>
        <time>2018-04-21T14:24:44Z</time>
      </trkpt>
      <trkpt lat="38.11439" lon="13.3578">
        <ele>37.63</ele>
        <time>2018-04-21T14:24:59Z</time>
      </trkpt>
      <trkpt lat="38.11436" lon="13.35775">
        <ele>40.99</ele>
        <time>2018-04-21T14:25:18Z</time>
      </trkpt>
      <trkpt lat="38.11431" lon="13.35771">
        <ele>39.07</ele>
        <time>2018-04-21T14:25:44Z</time>
      </trkpt>
      <trkpt lat="38.1142" lon="13.35775">
        <ele>35.71</ele>
        <time>2018-04-21T14:26:10Z</time>
      </trkpt>
      <trkpt lat="38.11421" lon="13.35773">
        <ele>35.23</ele>
        <time>2018-04-21T14:26:32Z</time>
      </trkpt>
      <trkpt lat="38.1142" lon="13.3577">
        <ele>33.78</ele>
        <time>2018-04-21T14:26:47Z</time>
      </trkpt>
      <trkpt lat="38.11414" lon="13.35769">
        <ele>27.05</ele>
        <time>2018-04-21T14:27:06Z</time>
      </trkpt>
      <trkpt lat="38.11413" lon="13.35771">
        <ele>26.57</ele>
        <time>2018-04-21T14:27:27Z</time>
      </trkpt>
      <trkpt lat="38.11414" lon="13.35769">
        <ele>26.57</ele>
        <time>2018-04-21T14:27:50Z</time>
      </trkpt>
      <trkpt lat="38.11414" lon="13.35769">
        <ele>27.53</ele>
        <time>2018-04-21T14:28:07Z</time>
      </trkpt>
      <trkpt lat="38.11414" lon="13.35769">
        <ele>26.57</ele>
        <time>2018-04-21T14:28:27Z</time>
      </trkpt>
      <trkpt lat="38.11415" lon="13.35768">
        <ele>25.61</ele>
        <time>2018-04-21T14:28:52Z</time>
      </trkpt>
      <trkpt lat="38.11415" lon="13.35768">
        <ele>25.61</ele>
        <time>2018-04-21T14:29:13Z</time>
      </trkpt>
      <trkpt lat="38.11416" lon="13.35768">
        <ele>25.61</ele>
        <time>2018-04-21T14:29:34Z</time>
      </trkpt>
      <trkpt lat="38.11417" lon="13.35767">
        <ele>25.61</ele>
        <time>2018-04-21T14:29:51Z</time>
      </trkpt>
      <trkpt lat="38.1142" lon="13.35766">
        <ele>27.53</ele>
        <time>2018-04-21T14:30:13Z</time>
      </trkpt>
      <trkpt lat="38.11419" lon="13.35765">
        <ele>28.02</ele>
        <time>2018-04-21T14:30:32Z</time>
      </trkpt>
      <trkpt lat="38.11418" lon="13.35764">
        <ele>28.5</ele>
        <time>2018-04-21T14:30:44Z</time>
      </trkpt>
      <trkpt lat="38.11415" lon="13.35759">
        <ele>27.05</ele>
        <time>2018-04-21T14:30:57Z</time>
      </trkpt>
      <trkpt lat="38.11406" lon="13.3575">
        <ele>27.05</ele>
        <time>2018-04-21T14:31:08Z</time>
      </trkpt>
      <trkpt lat="38.114" lon="13.35745">
        <ele>28.98</ele>
        <time>2018-04-21T14:31:19Z</time>
      </trkpt>
      <trkpt lat="38.11401" lon="13.35742">
        <ele>28.5</ele>
        <time>2018-04-21T14:31:34Z</time>
      </trkpt>
      <trkpt lat="38.11401" lon="13.35737">
        <ele>26.57</ele>
        <time>2018-04-21T14:31:48Z</time>
      </trkpt>
      <trkpt lat="38.11402" lon="13.35737">
        <ele>26.09</ele>
        <time>2018-04-21T14:31:50Z</time>
      </trkpt>
      <trkpt lat="38.11401" lon="13.35733">
        <ele>25.61</ele>
        <time>2018-04-21T14:32:00Z</time>
      </trkpt>
      <trkpt lat="38.11402" lon="13.35732">
        <ele>25.13</ele>
        <time>2018-04-21T14:32:16Z</time>
      </trkpt>
      <trkpt lat="38.11405" lon="13.35728">
        <ele>27.53</ele>
        <time>2018-04-21T14:32:26Z</time>
      </trkpt>
      <trkpt lat="38.11409" lon="13.35726">
        <ele>29.46</ele>
        <time>2018-04-21T14:32:47Z</time>
      </trkpt>
      <trkpt lat="38.11408" lon="13.35727">
        <ele>29.94</ele>
        <time>2018-04-21T14:33:10Z</time>
      </trkpt>
      <trkpt lat="38.11397" lon="13.35737">
        <ele>30.42</ele>
        <time>2018-04-21T14:34:24Z</time>
      </trkpt>
      <trkpt lat="38.11359" lon="13.35745">
        <ele>48.68</ele>
        <time>2018-04-21T14:34:45Z</time>
      </trkpt>
      <trkpt lat="38.11356" lon="13.35742">
        <ele>50.13</ele>
        <time>2018-04-21T14:35:02Z</time>
      </trkpt>
      <trkpt lat="38.11369" lon="13.35733">
        <ele>50.61</ele>
        <time>2018-04-21T14:35:26Z</time>
      </trkpt>
      <trkpt lat="38.11377" lon="13.35746">
        <ele>49.16</ele>
        <time>2018-04-21T14:35:47Z</time>
      </trkpt>
      <trkpt lat="38.11424" lon="13.35721">
        <ele>22.25</ele>
        <time>2018-04-21T14:36:30Z</time>
      </trkpt>
      <trkpt lat="38.11398" lon="13.35728">
        <ele>24.65</ele>
        <time>2018-04-21T14:36:42Z</time>
      </trkpt>
      <trkpt lat="38.11394" lon="13.35725">
        <ele>23.21</ele>
        <time>2018-04-21T14:36:57Z</time>
      </trkpt>
      <trkpt lat="38.11392" lon="13.35727">
        <ele>19.84</ele>
        <time>2018-04-21T14:37:24Z</time>
      </trkpt>
      <trkpt lat="38.11391" lon="13.35712">
        <ele>21.77</ele>
        <time>2018-04-21T14:37:40Z</time>
      </trkpt>
      <trkpt lat="38.11396" lon="13.35704">
        <ele>25.13</ele>
        <time>2018-04-21T14:37:52Z</time>
      </trkpt>
      <trkpt lat="38.114" lon="13.35698">
        <ele>26.09</ele>
        <time>2018-04-21T14:38:01Z</time>
      </trkpt>
      <trkpt lat="38.11409" lon="13.35691">
        <ele>27.05</ele>
        <time>2018-04-21T14:38:14Z</time>
      </trkpt>
      <trkpt lat="38.11408" lon="13.3569">
        <ele>27.53</ele>
        <time>2018-04-21T14:38:22Z</time>
      </trkpt>
      <trkpt lat="38.11408" lon="13.35692">
        <ele>28.02</ele>
        <time>2018-04-21T14:38:40Z</time>
      </trkpt>
      <trkpt lat="38.11405" lon="13.35691">
        <ele>29.46</ele>
        <time>2018-04-21T14:39:05Z</time>
      </trkpt>
      <trkpt lat="38.11406" lon="13.35688">
        <ele>29.46</ele>
        <time>2018-04-21T14:39:16Z</time>
      </trkpt>
      <trkpt lat="38.11406" lon="13.35686">
        <ele>28.5</ele>
        <time>2018-04-21T14:39:30Z</time>
      </trkpt>
      <trkpt lat="38.11407" lon="13.35685">
        <ele>30.42</ele>
        <time>2018-04-21T14:39:43Z</time>
      </trkpt>
      <trkpt lat="38.11407" lon="13.35686">
        <ele>30.9</ele>
        <time>2018-04-21T14:39:55Z</time>
      </trkpt>
      <trkpt lat="38.11408" lon="13.35686">
        <ele>29.94</ele>
        <time>2018-04-21T14:40:08Z</time>
      </trkpt>
      <trkpt lat="38.11409" lon="13.35686">
        <ele>29.94</ele>
        <time>2018-04-21T14:40:22Z</time>
      </trkpt>
      <trkpt lat="38.11409" lon="13.35687">
        <ele>29.94</ele>
        <time>2018-04-21T14:40:34Z</time>
      </trkpt>
      <trkpt lat="38.1141" lon="13.35688">
        <ele>29.46</ele>
        <time>2018-04-21T14:40:45Z</time>
      </trkpt>
      <trkpt lat="38.1141" lon="13.35688">
        <ele>29.46</ele>
        <time>2018-04-21T14:40:52Z</time>
      </trkpt>
      <trkpt lat="38.1141" lon="13.35688">
        <ele>28.98</ele>
        <time>2018-04-21T14:41:03Z</time>
      </trkpt>
      <trkpt lat="38.11411" lon="13.35685">
        <ele>29.46</ele>
        <time>2018-04-21T14:41:27Z</time>
      </trkpt>
      <trkpt lat="38.1141" lon="13.35685">
        <ele>29.94</ele>
        <time>2018-04-21T14:41:39Z</time>
      </trkpt>
      <trkpt lat="38.1141" lon="13.35685">
        <ele>30.42</ele>
        <time>2018-04-21T14:41:58Z</time>
      </trkpt>
      <trkpt lat="38.1141" lon="13.35686">
        <ele>30.9</ele>
        <time>2018-04-21T14:42:21Z</time>
      </trkpt>
      <trkpt lat="38.11411" lon="13.35685">
        <ele>30.42</ele>
        <time>2018-04-21T14:42:35Z</time>
      </trkpt>
      <trkpt lat="38.11411" lon="13.35686">
        <ele>30.9</ele>
        <time>2018-04-21T14:42:50Z</time>
      </trkpt>
      <trkpt lat="38.11408" lon="13.35685">
        <ele>32.34</ele>
        <time>2018-04-21T14:43:20Z</time>
      </trkpt>
      <trkpt lat="38.11409" lon="13.35685">
        <ele>31.86</ele>
        <time>2018-04-21T14:43:37Z</time>
      </trkpt>
      <trkpt lat="38.11409" lon="13.35683">
        <ele>31.86</ele>
        <time>2018-04-21T14:43:56Z</time>
      </trkpt>
      <trkpt lat="38.11408" lon="13.35683">
        <ele>33.78</ele>
        <time>2018-04-21T14:44:12Z</time>
      </trkpt>
      <trkpt lat="38.11408" lon="13.35683">
        <ele>33.78</ele>
        <time>2018-04-21T14:44:30Z</time>
      </trkpt>
      <trkpt lat="38.11409" lon="13.35682">
        <ele>33.78</ele>
        <time>2018-04-21T14:44:44Z</time>
      </trkpt>
      <trkpt lat="38.11414" lon="13.3568">
        <ele>33.78</ele>
        <time>2018-04-21T14:44:54Z</time>
      </trkpt>
      <trkpt lat="38.11423" lon="13.35673">
        <ele>33.78</ele>
        <time>2018-04-21T14:45:07Z</time>
      </trkpt>
      <trkpt lat="38.11427" lon="13.3567">
        <ele>33.78</ele>
        <time>2018-04-21T14:45:22Z</time>
      </trkpt>
      <trkpt lat="38.11429" lon="13.3567">
        <ele>33.78</ele>
        <time>2018-04-21T14:45:34Z</time>
      </trkpt>
      <trkpt lat="38.11434" lon="13.35668">
        <ele>33.78</ele>
        <time>2018-04-21T14:45:46Z</time>
      </trkpt>
      <trkpt lat="38.11442" lon="13.35661">
        <ele>34.26</ele>
        <time>2018-04-21T14:45:59Z</time>
      </trkpt>
      <trkpt lat="38.11444" lon="13.35656">
        <ele>36.67</ele>
        <time>2018-04-21T14:46:14Z</time>
      </trkpt>
      <trkpt lat="38.11443" lon="13.35658">
        <ele>37.15</ele>
        <time>2018-04-21T14:46:27Z</time>
      </trkpt>
      <trkpt lat="38.11444" lon="13.35656">
        <ele>38.11</ele>
        <time>2018-04-21T14:46:43Z</time>
      </trkpt>
      <trkpt lat="38.11446" lon="13.35652">
        <ele>38.11</ele>
        <time>2018-04-21T14:46:57Z</time>
      </trkpt>
      <trkpt lat="38.11447" lon="13.3565">
        <ele>38.11</ele>
        <time>2018-04-21T14:47:02Z</time>
      </trkpt>
      <trkpt lat="38.11456" lon="13.35649">
        <ele>38.59</ele>
        <time>2018-04-21T14:47:11Z</time>
      </trkpt>
      <trkpt lat="38.11462" lon="13.35645">
        <ele>36.19</ele>
        <time>2018-04-21T14:47:22Z</time>
      </trkpt>
      <trkpt lat="38.11463" lon="13.35645">
        <ele>36.67</ele>
        <time>2018-04-21T14:47:23Z</time>
      </trkpt>
      <trkpt lat="38.11463" lon="13.35636">
        <ele>34.26</ele>
        <time>2018-04-21T14:47:34Z</time>
      </trkpt>
      <trkpt lat="38.11464" lon="13.35632">
        <ele>33.3</ele>
        <time>2018-04-21T14:47:43Z</time>
      </trkpt>
      <trkpt lat="38.1146" lon="13.35621">
        <ele>31.86</ele>
        <time>2018-04-21T14:47:53Z</time>
      </trkpt>
      <trkpt lat="38.11459" lon="13.35609">
        <ele>26.57</ele>
        <time>2018-04-21T14:48:06Z</time>
      </trkpt>
      <trkpt lat="38.11453" lon="13.35599">
        <ele>21.77</ele>
        <time>2018-04-21T14:48:25Z</time>
      </trkpt>
      <trkpt lat="38.11448" lon="13.35587">
        <ele>22.25</ele>
        <time>2018-04-21T14:48:44Z</time>
      </trkpt>
      <trkpt lat="38.11444" lon="13.35572">
        <ele>23.21</ele>
        <time>2018-04-21T14:48:58Z</time>
      </trkpt>
      <trkpt lat="38.11441" lon="13.35561">
        <ele>25.61</ele>
        <time>2018-04-21T14:49:12Z</time>
      </trkpt>
      <trkpt lat="38.11439" lon="13.35557">
        <ele>28.02</ele>
        <time>2018-04-21T14:49:21Z</time>
      </trkpt>
      <trkpt lat="38.11435" lon="13.35541">
        <ele>29.94</ele>
        <time>2018-04-21T14:49:36Z</time>
      </trkpt>
      <trkpt lat="38.11438" lon="13.35538">
        <ele>29.46</ele>
        <time>2018-04-21T14:49:49Z</time>
      </trkpt>
      <trkpt lat="38.11435" lon="13.3554">
        <ele>26.09</ele>
        <time>2018-04-21T14:50:00Z</time>
      </trkpt>
      <trkpt lat="38.11429" lon="13.3554">
        <ele>22.25</ele>
        <time>2018-04-21T14:50:12Z</time>
      </trkpt>
      <trkpt lat="38.11425" lon="13.35542">
        <ele>21.77</ele>
        <time>2018-04-21T14:50:28Z</time>
      </trkpt>
      <trkpt lat="38.11426" lon="13.35543">
        <ele>21.77</ele>
        <time>2018-04-21T14:50:29Z</time>
      </trkpt>
      <trkpt lat="38.11404" lon="13.35555">
        <ele>15.04</ele>
        <time>2018-04-21T14:50:42Z</time>
      </trkpt>
      <trkpt lat="38.11401" lon="13.35556">
        <ele>15.04</ele>
        <time>2018-04-21T14:50:44Z</time>
      </trkpt>
      <trkpt lat="38.11392" lon="13.35562">
        <ele>17.44</ele>
        <time>2018-04-21T14:50:54Z</time>
      </trkpt>
      <trkpt lat="38.11388" lon="13.35563">
        <ele>18.88</ele>
        <time>2018-04-21T14:50:56Z</time>
      </trkpt>
      <trkpt lat="38.11382" lon="13.35571">
        <ele>25.13</ele>
        <time>2018-04-21T14:51:08Z</time>
      </trkpt>
      <trkpt lat="38.11383" lon="13.35573">
        <ele>26.09</ele>
        <time>2018-04-21T14:51:12Z</time>
      </trkpt>
      <trkpt lat="38.11392" lon="13.35582">
        <ele>30.42</ele>
        <time>2018-04-21T14:51:26Z</time>
      </trkpt>
      <trkpt lat="38.11394" lon="13.35586">
        <ele>30.42</ele>
        <time>2018-04-21T14:51:39Z</time>
      </trkpt>
      <trkpt lat="38.11396" lon="13.35588">
        <ele>30.9</ele>
        <time>2018-04-21T14:51:52Z</time>
      </trkpt>
      <trkpt lat="38.11396" lon="13.35588">
        <ele>31.38</ele>
        <time>2018-04-21T14:52:05Z</time>
      </trkpt>
      <trkpt lat="38.11396" lon="13.35588">
        <ele>31.86</ele>
        <time>2018-04-21T14:52:17Z</time>
      </trkpt>
      <trkpt lat="38.11396" lon="13.35589">
        <ele>31.86</ele>
        <time>2018-04-21T14:52:34Z</time>
      </trkpt>
      <trkpt lat="38.11396" lon="13.35589">
        <ele>31.86</ele>
        <time>2018-04-21T14:52:41Z</time>
      </trkpt>
      <trkpt lat="38.11364" lon="13.35563">
        <ele>31.86</ele>
        <time>2018-04-21T14:53:03Z</time>
      </trkpt>
      <trkpt lat="38.11377" lon="13.35563">
        <ele>31.86</ele>
        <time>2018-04-21T14:53:22Z</time>
      </trkpt>
      <trkpt lat="38.11391" lon="13.3557">
        <ele>31.86</ele>
        <time>2018-04-21T14:53:46Z</time>
      </trkpt>
      <trkpt lat="38.11404" lon="13.35575">
        <ele>31.86</ele>
        <time>2018-04-21T14:54:05Z</time>
      </trkpt>
      <trkpt lat="38.11418" lon="13.35589">
        <ele>32.34</ele>
        <time>2018-04-21T14:54:26Z</time>
      </trkpt>
      <trkpt lat="38.1142" lon="13.35585">
        <ele>32.34</ele>
        <time>2018-04-21T14:54:46Z</time>
      </trkpt>
      <trkpt lat="38.11426" lon="13.35587">
        <ele>32.34</ele>
        <time>2018-04-21T14:54:57Z</time>
      </trkpt>
      <trkpt lat="38.11436" lon="13.35561">
        <ele>32.34</ele>
        <time>2018-04-21T14:55:14Z</time>
      </trkpt>
      <trkpt lat="38.11474" lon="13.356">
        <ele>32.34</ele>
        <time>2018-04-21T14:55:38Z</time>
      </trkpt>
      <trkpt lat="38.1146" lon="13.35614">
        <ele>31.86</ele>
        <time>2018-04-21T14:56:01Z</time>
      </trkpt>
      <trkpt lat="38.11392" lon="13.35566">
        <ele>52.05</ele>
        <time>2018-04-21T15:02:59Z</time>
      </trkpt>
      <trkpt lat="38.11397" lon="13.35559">
        <ele>41.95</ele>
        <time>2018-04-21T15:03:20Z</time>
      </trkpt>
      <trkpt lat="38.11405" lon="13.35557">
        <ele>44.36</ele>
        <time>2018-04-21T15:03:43Z</time>
      </trkpt>
      <trkpt lat="38.11405" lon="13.35556">
        <ele>52.05</ele>
        <time>2018-04-21T15:04:01Z</time>
      </trkpt>
      <trkpt lat="38.11407" lon="13.35554">
        <ele>52.53</ele>
        <time>2018-04-21T15:04:18Z</time>
      </trkpt>
      <trkpt lat="38.11408" lon="13.35552">
        <ele>54.45</ele>
        <time>2018-04-21T15:04:34Z</time>
      </trkpt>
      <trkpt lat="38.11411" lon="13.35551">
        <ele>52.05</ele>
        <time>2018-04-21T15:04:50Z</time>
      </trkpt>
      <trkpt lat="38.11412" lon="13.35553">
        <ele>53.97</ele>
        <time>2018-04-21T15:05:06Z</time>
      </trkpt>
      <trkpt lat="38.11414" lon="13.35553">
        <ele>54.45</ele>
        <time>2018-04-21T15:05:21Z</time>
      </trkpt>
      <trkpt lat="38.11415" lon="13.35554">
        <ele>54.93</ele>
        <time>2018-04-21T15:05:36Z</time>
      </trkpt>
      <trkpt lat="38.11417" lon="13.35557">
        <ele>53.49</ele>
        <time>2018-04-21T15:05:52Z</time>
      </trkpt>
      <trkpt lat="38.11419" lon="13.35561">
        <ele>54.45</ele>
        <time>2018-04-21T15:06:06Z</time>
      </trkpt>
      <trkpt lat="38.11421" lon="13.35564">
        <ele>55.89</ele>
        <time>2018-04-21T15:06:26Z</time>
      </trkpt>
      <trkpt lat="38.11421" lon="13.35564">
        <ele>57.34</ele>
        <time>2018-04-21T15:06:50Z</time>
      </trkpt>
      <trkpt lat="38.11421" lon="13.35565">
        <ele>57.34</ele>
        <time>2018-04-21T15:07:05Z</time>
      </trkpt>
      <trkpt lat="38.11421" lon="13.35565">
        <ele>57.34</ele>
        <time>2018-04-21T15:07:22Z</time>
      </trkpt>
      <trkpt lat="38.11421" lon="13.35567">
        <ele>57.34</ele>
        <time>2018-04-21T15:07:35Z</time>
      </trkpt>
      <trkpt lat="38.11422" lon="13.3557">
        <ele>56.86</ele>
        <time>2018-04-21T15:07:41Z</time>
      </trkpt>
      <trkpt lat="38.11427" lon="13.35576">
        <ele>56.86</ele>
        <time>2018-04-21T15:07:56Z</time>
      </trkpt>
      <trkpt lat="38.11429" lon="13.35582">
        <ele>56.37</ele>
        <time>2018-04-21T15:08:12Z</time>
      </trkpt>
      <trkpt lat="38.11434" lon="13.35591">
        <ele>54.45</ele>
        <time>2018-04-21T15:08:24Z</time>
      </trkpt>
      <trkpt lat="38.11438" lon="13.35597">
        <ele>53.49</ele>
        <time>2018-04-21T15:08:39Z</time>
      </trkpt>
      <trkpt lat="38.11439" lon="13.35598">
        <ele>53.97</ele>
        <time>2018-04-21T15:08:50Z</time>
      </trkpt>
      <trkpt lat="38.11442" lon="13.35599">
        <ele>53.97</ele>
        <time>2018-04-21T15:09:02Z</time>
      </trkpt>
      <trkpt lat="38.11444" lon="13.35599">
        <ele>54.45</ele>
        <time>2018-04-21T15:09:15Z</time>
      </trkpt>
      <trkpt lat="38.11446" lon="13.35601">
        <ele>53.97</ele>
        <time>2018-04-21T15:09:26Z</time>
      </trkpt>
      <trkpt lat="38.11446" lon="13.35601">
        <ele>53.97</ele>
        <time>2018-04-21T15:09:39Z</time>
      </trkpt>
      <trkpt lat="38.11448" lon="13.35601">
        <ele>54.93</ele>
        <time>2018-04-21T15:09:56Z</time>
      </trkpt>
      <trkpt lat="38.11448" lon="13.35602">
        <ele>55.89</ele>
        <time>2018-04-21T15:10:23Z</time>
      </trkpt>
      <trkpt lat="38.11449" lon="13.356">
        <ele>56.86</ele>
        <time>2018-04-21T15:10:36Z</time>
      </trkpt>
      <trkpt lat="38.11449" lon="13.356">
        <ele>56.86</ele>
        <time>2018-04-21T15:10:49Z</time>
      </trkpt>
      <trkpt lat="38.11447" lon="13.35601">
        <ele>55.41</ele>
        <time>2018-04-21T15:11:11Z</time>
      </trkpt>
      <trkpt lat="38.11441" lon="13.35609">
        <ele>55.89</ele>
        <time>2018-04-21T15:11:32Z</time>
      </trkpt>
      <trkpt lat="38.11437" lon="13.35607">
        <ele>55.89</ele>
        <time>2018-04-21T15:11:52Z</time>
      </trkpt>
      <trkpt lat="38.11438" lon="13.35608">
        <ele>55.41</ele>
        <time>2018-04-21T15:12:13Z</time>
      </trkpt>
      <trkpt lat="38.11437" lon="13.35608">
        <ele>54.45</ele>
        <time>2018-04-21T15:12:32Z</time>
      </trkpt>
      <trkpt lat="38.11437" lon="13.35608">
        <ele>54.45</ele>
        <time>2018-04-21T15:12:50Z</time>
      </trkpt>
      <trkpt lat="38.11437" lon="13.35609">
        <ele>53.97</ele>
        <time>2018-04-21T15:13:07Z</time>
      </trkpt>
      <trkpt lat="38.11437" lon="13.3561">
        <ele>53.97</ele>
        <time>2018-04-21T15:13:23Z</time>
      </trkpt>
      <trkpt lat="38.11437" lon="13.3561">
        <ele>54.93</ele>
        <time>2018-04-21T15:13:44Z</time>
      </trkpt>
      <trkpt lat="38.11438" lon="13.3561">
        <ele>54.45</ele>
        <time>2018-04-21T15:14:01Z</time>
      </trkpt>
      <trkpt lat="38.11438" lon="13.35611">
        <ele>53.01</ele>
        <time>2018-04-21T15:14:21Z</time>
      </trkpt>
      <trkpt lat="38.11438" lon="13.35611">
        <ele>53.49</ele>
        <time>2018-04-21T15:14:36Z</time>
      </trkpt>
      <trkpt lat="38.11438" lon="13.35612">
        <ele>53.97</ele>
        <time>2018-04-21T15:15:03Z</time>
      </trkpt>
      <trkpt lat="38.11439" lon="13.35613">
        <ele>53.49</ele>
        <time>2018-04-21T15:15:32Z</time>
      </trkpt>
      <trkpt lat="38.11438" lon="13.35614">
        <ele>54.45</ele>
        <time>2018-04-21T15:15:56Z</time>
      </trkpt>
      <trkpt lat="38.11437" lon="13.35613">
        <ele>54.93</ele>
        <time>2018-04-21T15:16:08Z</time>
      </trkpt>
      <trkpt lat="38.11437" lon="13.35613">
        <ele>54.93</ele>
        <time>2018-04-21T15:16:12Z</time>
      </trkpt>
      <trkpt lat="38.11442" lon="13.35608">
        <ele>52.53</ele>
        <time>2018-04-21T15:16:24Z</time>
      </trkpt>
      <trkpt lat="38.11439" lon="13.35599">
        <ele>50.13</ele>
        <time>2018-04-21T15:16:37Z</time>
      </trkpt>
      <trkpt lat="38.11438" lon="13.35598">
        <ele>51.09</ele>
        <time>2018-04-21T15:16:46Z</time>
      </trkpt>
      <trkpt lat="38.11432" lon="13.35586">
        <ele>48.68</ele>
        <time>2018-04-21T15:17:00Z</time>
      </trkpt>
      <trkpt lat="38.11426" lon="13.35576">
        <ele>48.2</ele>
        <time>2018-04-21T15:17:13Z</time>
      </trkpt>
      <trkpt lat="38.11424" lon="13.35569">
        <ele>51.57</ele>
        <time>2018-04-21T15:17:27Z</time>
      </trkpt>
      <trkpt lat="38.11423" lon="13.35568">
        <ele>52.53</ele>
        <time>2018-04-21T15:17:40Z</time>
      </trkpt>
      <trkpt lat="38.1142" lon="13.35564">
        <ele>52.05</ele>
        <time>2018-04-21T15:17:53Z</time>
      </trkpt>
      <trkpt lat="38.11414" lon="13.35553">
        <ele>51.57</ele>
        <time>2018-04-21T15:18:09Z</time>
      </trkpt>
      <trkpt lat="38.11413" lon="13.35552">
        <ele>53.97</ele>
        <time>2018-04-21T15:18:28Z</time>
      </trkpt>
      <trkpt lat="38.11414" lon="13.35553">
        <ele>55.41</ele>
        <time>2018-04-21T15:18:52Z</time>
      </trkpt>
      <trkpt lat="38.11409" lon="13.35557">
        <ele>54.93</ele>
        <time>2018-04-21T15:19:04Z</time>
      </trkpt>
      <trkpt lat="38.11408" lon="13.35557">
        <ele>54.45</ele>
        <time>2018-04-21T15:19:19Z</time>
      </trkpt>
      <trkpt lat="38.11408" lon="13.35559">
        <ele>55.41</ele>
        <time>2018-04-21T15:19:35Z</time>
      </trkpt>
      <trkpt lat="38.11407" lon="13.35558">
        <ele>55.41</ele>
        <time>2018-04-21T15:19:53Z</time>
      </trkpt>
      <trkpt lat="38.11405" lon="13.35562">
        <ele>53.49</ele>
        <time>2018-04-21T15:20:05Z</time>
      </trkpt>
      <trkpt lat="38.11404" lon="13.35561">
        <ele>53.01</ele>
        <time>2018-04-21T15:20:33Z</time>
      </trkpt>
      <trkpt lat="38.11401" lon="13.35564">
        <ele>51.09</ele>
        <time>2018-04-21T15:20:48Z</time>
      </trkpt>
      <trkpt lat="38.11401" lon="13.35566">
        <ele>49.16</ele>
        <time>2018-04-21T15:21:00Z</time>
      </trkpt>
      <trkpt lat="38.11395" lon="13.35559">
        <ele>46.28</ele>
        <time>2018-04-21T15:21:17Z</time>
      </trkpt>
      <trkpt lat="38.1141" lon="13.35598">
        <ele>44.36</ele>
        <time>2018-04-21T15:22:55Z</time>
      </trkpt>
      <trkpt lat="38.114" lon="13.35602">
        <ele>34.26</ele>
        <time>2018-04-21T15:23:08Z</time>
      </trkpt>
      <trkpt lat="38.11399" lon="13.35602">
        <ele>32.82</ele>
        <time>2018-04-21T15:23:19Z</time>
      </trkpt>
      <trkpt lat="38.11392" lon="13.35602">
        <ele>31.38</ele>
        <time>2018-04-21T15:23:32Z</time>
      </trkpt>
      <trkpt lat="38.11382" lon="13.35602">
        <ele>32.34</ele>
        <time>2018-04-21T15:23:45Z</time>
      </trkpt>
      <trkpt lat="38.11374" lon="13.35602">
        <ele>32.34</ele>
        <time>2018-04-21T15:23:56Z</time>
      </trkpt>
      <trkpt lat="38.11372" lon="13.35606">
        <ele>32.34</ele>
        <time>2018-04-21T15:24:08Z</time>
      </trkpt>
      <trkpt lat="38.11371" lon="13.35608">
        <ele>33.78</ele>
        <time>2018-04-21T15:24:16Z</time>
      </trkpt>
      <trkpt lat="38.11364" lon="13.35621">
        <ele>31.38</ele>
        <time>2018-04-21T15:24:29Z</time>
      </trkpt>
      <trkpt lat="38.1136" lon="13.35618">
        <ele>28.5</ele>
        <time>2018-04-21T15:24:39Z</time>
      </trkpt>
      <trkpt lat="38.11356" lon="13.35616">
        <ele>28.5</ele>
        <time>2018-04-21T15:24:45Z</time>
      </trkpt>
      <trkpt lat="38.1135" lon="13.35605">
        <ele>29.46</ele>
        <time>2018-04-21T15:24:58Z</time>
      </trkpt>
      <trkpt lat="38.11348" lon="13.35601">
        <ele>30.42</ele>
        <time>2018-04-21T15:25:09Z</time>
      </trkpt>
      <trkpt lat="38.11346" lon="13.35598">
        <ele>30.9</ele>
        <time>2018-04-21T15:25:22Z</time>
      </trkpt>
      <trkpt lat="38.11345" lon="13.35595">
        <ele>29.94</ele>
        <time>2018-04-21T15:25:38Z</time>
      </trkpt>
      <trkpt lat="38.11342" lon="13.3558">
        <ele>25.13</ele>
        <time>2018-04-21T15:25:51Z</time>
      </trkpt>
      <trkpt lat="38.11334" lon="13.35569">
        <ele>22.25</ele>
        <time>2018-04-21T15:26:02Z</time>
      </trkpt>
      <trkpt lat="38.11325" lon="13.3556">
        <ele>25.13</ele>
        <time>2018-04-21T15:26:16Z</time>
      </trkpt>
      <trkpt lat="38.11322" lon="13.35557">
        <ele>27.53</ele>
        <time>2018-04-21T15:26:31Z</time>
      </trkpt>
      <trkpt lat="38.11311" lon="13.35549">
        <ele>29.94</ele>
        <time>2018-04-21T15:26:49Z</time>
      </trkpt>
      <trkpt lat="38.11304" lon="13.35546">
        <ele>31.38</ele>
        <time>2018-04-21T15:26:58Z</time>
      </trkpt>
      <trkpt lat="38.11299" lon="13.35542">
        <ele>31.86</ele>
        <time>2018-04-21T15:27:11Z</time>
      </trkpt>
      <trkpt lat="38.11294" lon="13.35537">
        <ele>31.86</ele>
        <time>2018-04-21T15:27:24Z</time>
      </trkpt>
      <trkpt lat="38.11283" lon="13.35528">
        <ele>28.5</ele>
        <time>2018-04-21T15:27:40Z</time>
      </trkpt>
      <trkpt lat="38.11272" lon="13.3552">
        <ele>29.46</ele>
        <time>2018-04-21T15:27:56Z</time>
      </trkpt>
      <trkpt lat="38.11263" lon="13.35516">
        <ele>31.38</ele>
        <time>2018-04-21T15:28:12Z</time>
      </trkpt>
      <trkpt lat="38.11255" lon="13.35512">
        <ele>33.78</ele>
        <time>2018-04-21T15:28:28Z</time>
      </trkpt>
      <trkpt lat="38.11247" lon="13.35508">
        <ele>33.3</ele>
        <time>2018-04-21T15:28:42Z</time>
      </trkpt>
      <trkpt lat="38.11241" lon="13.35504">
        <ele>31.86</ele>
        <time>2018-04-21T15:28:56Z</time>
      </trkpt>
      <trkpt lat="38.11237" lon="13.35503">
        <ele>32.82</ele>
        <time>2018-04-21T15:29:11Z</time>
      </trkpt>
      <trkpt lat="38.1123" lon="13.35506">
        <ele>34.26</ele>
        <time>2018-04-21T15:29:22Z</time>
      </trkpt>
      <trkpt lat="38.11221" lon="13.35505">
        <ele>35.23</ele>
        <time>2018-04-21T15:29:37Z</time>
      </trkpt>
      <trkpt lat="38.11214" lon="13.35504">
        <ele>34.74</ele>
        <time>2018-04-21T15:29:50Z</time>
      </trkpt>
      <trkpt lat="38.11204" lon="13.35501">
        <ele>35.23</ele>
        <time>2018-04-21T15:30:02Z</time>
      </trkpt>
      <trkpt lat="38.11196" lon="13.35498">
        <ele>35.23</ele>
        <time>2018-04-21T15:30:16Z</time>
      </trkpt>
      <trkpt lat="38.1119" lon="13.35495">
        <ele>35.71</ele>
        <time>2018-04-21T15:30:28Z</time>
      </trkpt>
      <trkpt lat="38.11184" lon="13.35495">
        <ele>37.63</ele>
        <time>2018-04-21T15:30:41Z</time>
      </trkpt>
      <trkpt lat="38.11177" lon="13.35497">
        <ele>35.71</ele>
        <time>2018-04-21T15:30:54Z</time>
      </trkpt>
      <trkpt lat="38.11175" lon="13.35499">
        <ele>36.67</ele>
        <time>2018-04-21T15:31:08Z</time>
      </trkpt>
      <trkpt lat="38.11174" lon="13.35498">
        <ele>35.71</ele>
        <time>2018-04-21T15:31:22Z</time>
      </trkpt>
      <trkpt lat="38.11173" lon="13.35497">
        <ele>35.71</ele>
        <time>2018-04-21T15:31:35Z</time>
      </trkpt>
      <trkpt lat="38.11173" lon="13.35498">
        <ele>36.19</ele>
        <time>2018-04-21T15:31:52Z</time>
      </trkpt>
      <trkpt lat="38.11173" lon="13.35498">
        <ele>36.19</ele>
        <time>2018-04-21T15:32:06Z</time>
      </trkpt>
      <trkpt lat="38.11172" lon="13.35497">
        <ele>36.19</ele>
        <time>2018-04-21T15:32:19Z</time>
      </trkpt>
      <trkpt lat="38.11173" lon="13.35496">
        <ele>36.19</ele>
        <time>2018-04-21T15:32:35Z</time>
      </trkpt>
      <trkpt lat="38.11173" lon="13.35496">
        <ele>37.15</ele>
        <time>2018-04-21T15:32:49Z</time>
      </trkpt>
      <trkpt lat="38.11173" lon="13.35496">
        <ele>37.15</ele>
        <time>2018-04-21T15:33:09Z</time>
      </trkpt>
      <trkpt lat="38.11173" lon="13.35495">
        <ele>36.67</ele>
        <time>2018-04-21T15:33:26Z</time>
      </trkpt>
      <trkpt lat="38.11174" lon="13.35494">
        <ele>36.67</ele>
        <time>2018-04-21T15:33:49Z</time>
      </trkpt>
      <trkpt lat="38.11174" lon="13.35494">
        <ele>36.67</ele>
        <time>2018-04-21T15:34:09Z</time>
      </trkpt>
      <trkpt lat="38.11174" lon="13.35495">
        <ele>36.19</ele>
        <time>2018-04-21T15:34:21Z</time>
      </trkpt>
      <trkpt lat="38.11175" lon="13.35496">
        <ele>33.78</ele>
        <time>2018-04-21T15:34:44Z</time>
      </trkpt>
      <trkpt lat="38.11175" lon="13.35495">
        <ele>34.74</ele>
        <time>2018-04-21T15:35:03Z</time>
      </trkpt>
      <trkpt lat="38.11175" lon="13.35495">
        <ele>34.74</ele>
        <time>2018-04-21T15:35:26Z</time>
      </trkpt>
      <trkpt lat="38.11175" lon="13.35495">
        <ele>34.74</ele>
        <time>2018-04-21T15:35:47Z</time>
      </trkpt>
      <trkpt lat="38.11174" lon="13.35495">
        <ele>34.74</ele>
        <time>2018-04-21T15:36:07Z</time>
      </trkpt>
      <trkpt lat="38.11175" lon="13.35496">
        <ele>34.74</ele>
        <time>2018-04-21T15:36:20Z</time>
      </trkpt>
      <trkpt lat="38.11175" lon="13.35496">
        <ele>34.26</ele>
        <time>2018-04-21T15:36:37Z</time>
      </trkpt>
      <trkpt lat="38.11175" lon="13.35496">
        <ele>33.78</ele>
        <time>2018-04-21T15:36:50Z</time>
      </trkpt>
      <trkpt lat="38.11176" lon="13.35496">
        <ele>33.78</ele>
        <time>2018-04-21T15:37:09Z</time>
      </trkpt>
      <trkpt lat="38.11176" lon="13.35496">
        <ele>33.3</ele>
        <time>2018-04-21T15:37:26Z</time>
      </trkpt>
      <trkpt lat="38.11176" lon="13.35496">
        <ele>33.3</ele>
        <time>2018-04-21T15:37:39Z</time>
      </trkpt>
      <trkpt lat="38.11173" lon="13.35494">
        <ele>35.23</ele>
        <time>2018-04-21T15:37:53Z</time>
      </trkpt>
      <trkpt lat="38.11172" lon="13.3549">
        <ele>34.74</ele>
        <time>2018-04-21T15:37:58Z</time>
      </trkpt>
      <trkpt lat="38.11166" lon="13.35483">
        <ele>35.23</ele>
        <time>2018-04-21T15:38:06Z</time>
      </trkpt>
      <trkpt lat="38.11169" lon="13.3547">
        <ele>36.67</ele>
        <time>2018-04-21T15:38:19Z</time>
      </trkpt>
      <trkpt lat="38.11172" lon="13.35468">
        <ele>37.15</ele>
        <time>2018-04-21T15:38:25Z</time>
      </trkpt>
      <trkpt lat="38.11179" lon="13.35462">
        <ele>39.07</ele>
        <time>2018-04-21T15:38:38Z</time>
      </trkpt>
      <trkpt lat="38.11183" lon="13.35451">
        <ele>39.55</ele>
        <time>2018-04-21T15:38:53Z</time>
      </trkpt>
      <trkpt lat="38.11182" lon="13.35443">
        <ele>40.51</ele>
        <time>2018-04-21T15:39:06Z</time>
      </trkpt>
      <trkpt lat="38.11178" lon="13.35435">
        <ele>40.03</ele>
        <time>2018-04-21T15:39:22Z</time>
      </trkpt>
      <trkpt lat="38.11177" lon="13.35429">
        <ele>39.55</ele>
        <time>2018-04-21T15:39:33Z</time>
      </trkpt>
      <trkpt lat="38.11175" lon="13.35422">
        <ele>41.47</ele>
        <time>2018-04-21T15:39:45Z</time>
      </trkpt>
      <trkpt lat="38.11171" lon="13.35412">
        <ele>43.4</ele>
        <time>2018-04-21T15:39:58Z</time>
      </trkpt>
      <trkpt lat="38.11171" lon="13.35398">
        <ele>42.44</ele>
        <time>2018-04-21T15:40:15Z</time>
      </trkpt>
      <trkpt lat="38.11178" lon="13.35389">
        <ele>41.95</ele>
        <time>2018-04-21T15:40:26Z</time>
      </trkpt>
      <trkpt lat="38.11183" lon="13.3538">
        <ele>40.99</ele>
        <time>2018-04-21T15:40:38Z</time>
      </trkpt>
      <trkpt lat="38.11186" lon="13.35373">
        <ele>40.51</ele>
        <time>2018-04-21T15:40:50Z</time>
      </trkpt>
      <trkpt lat="38.1119" lon="13.3537">
        <ele>41.95</ele>
        <time>2018-04-21T15:41:03Z</time>
      </trkpt>
      <trkpt lat="38.11199" lon="13.35367">
        <ele>40.99</ele>
        <time>2018-04-21T15:41:17Z</time>
      </trkpt>
      <trkpt lat="38.11199" lon="13.35366">
        <ele>40.99</ele>
        <time>2018-04-21T15:41:18Z</time>
      </trkpt>
      <trkpt lat="38.11204" lon="13.35365">
        <ele>40.51</ele>
        <time>2018-04-21T15:41:22Z</time>
      </trkpt>
      <trkpt lat="38.11209" lon="13.35363">
        <ele>41.47</ele>
        <time>2018-04-21T15:41:31Z</time>
      </trkpt>
      <trkpt lat="38.11215" lon="13.35357">
        <ele>43.4</ele>
        <time>2018-04-21T15:41:45Z</time>
      </trkpt>
      <trkpt lat="38.11216" lon="13.35358">
        <ele>42.44</ele>
        <time>2018-04-21T15:42:00Z</time>
      </trkpt>
      <trkpt lat="38.11216" lon="13.35353">
        <ele>41.95</ele>
        <time>2018-04-21T15:42:15Z</time>
      </trkpt>
      <trkpt lat="38.11215" lon="13.35345">
        <ele>43.4</ele>
        <time>2018-04-21T15:42:27Z</time>
      </trkpt>
      <trkpt lat="38.11214" lon="13.35343">
        <ele>43.4</ele>
        <time>2018-04-21T15:42:48Z</time>
      </trkpt>
      <trkpt lat="38.11214" lon="13.35342">
        <ele>43.4</ele>
        <time>2018-04-21T15:43:02Z</time>
      </trkpt>
      <trkpt lat="38.11215" lon="13.35337">
        <ele>40.99</ele>
        <time>2018-04-21T15:43:15Z</time>
      </trkpt>
      <trkpt lat="38.11216" lon="13.35334">
        <ele>40.51</ele>
        <time>2018-04-21T15:43:26Z</time>
      </trkpt>
      <trkpt lat="38.11211" lon="13.35338">
        <ele>39.55</ele>
        <time>2018-04-21T15:43:37Z</time>
      </trkpt>
      <trkpt lat="38.11202" lon="13.35338">
        <ele>39.55</ele>
        <time>2018-04-21T15:43:50Z</time>
      </trkpt>
      <trkpt lat="38.11196" lon="13.35336">
        <ele>38.59</ele>
        <time>2018-04-21T15:44:03Z</time>
      </trkpt>
      <trkpt lat="38.11193" lon="13.35335">
        <ele>39.55</ele>
        <time>2018-04-21T15:44:15Z</time>
      </trkpt>
      <trkpt lat="38.11192" lon="13.35336">
        <ele>39.55</ele>
        <time>2018-04-21T15:44:34Z</time>
      </trkpt>
      <trkpt lat="38.11191" lon="13.35336">
        <ele>39.55</ele>
        <time>2018-04-21T15:44:53Z</time>
      </trkpt>
      <trkpt lat="38.11191" lon="13.35336">
        <ele>39.55</ele>
        <time>2018-04-21T15:44:54Z</time>
      </trkpt>
      <trkpt lat="38.11189" lon="13.35335">
        <ele>40.03</ele>
        <time>2018-04-21T15:45:05Z</time>
      </trkpt>
      <trkpt lat="38.11188" lon="13.35334">
        <ele>40.03</ele>
        <time>2018-04-21T15:45:15Z</time>
      </trkpt>
      <trkpt lat="38.11187" lon="13.35334">
        <ele>41.47</ele>
        <time>2018-04-21T15:45:27Z</time>
      </trkpt>
      <trkpt lat="38.11187" lon="13.35334">
        <ele>41.47</ele>
        <time>2018-04-21T15:45:43Z</time>
      </trkpt>
      <trkpt lat="38.11188" lon="13.35332">
        <ele>41.95</ele>
        <time>2018-04-21T15:45:49Z</time>
      </trkpt>
      <trkpt lat="38.11195" lon="13.35323">
        <ele>42.44</ele>
        <time>2018-04-21T15:46:03Z</time>
      </trkpt>
      <trkpt lat="38.112" lon="13.35316">
        <ele>45.32</ele>
        <time>2018-04-21T15:46:15Z</time>
      </trkpt>
      <trkpt lat="38.11207" lon="13.35308">
        <ele>47.72</ele>
        <time>2018-04-21T15:46:27Z</time>
      </trkpt>
      <trkpt lat="38.11214" lon="13.35314">
        <ele>49.16</ele>
        <time>2018-04-21T15:46:39Z</time>
      </trkpt>
      <trkpt lat="38.11218" lon="13.35315">
        <ele>47.72</ele>
        <time>2018-04-21T15:46:56Z</time>
      </trkpt>
      <trkpt lat="38.11219" lon="13.35315">
        <ele>47.24</ele>
        <time>2018-04-21T15:47:07Z</time>
      </trkpt>
      <trkpt lat="38.11222" lon="13.35307">
        <ele>46.28</ele>
        <time>2018-04-21T15:47:21Z</time>
      </trkpt>
      <trkpt lat="38.11219" lon="13.35295">
        <ele>44.36</ele>
        <time>2018-04-21T15:47:32Z</time>
      </trkpt>
      <trkpt lat="38.11217" lon="13.35287">
        <ele>44.36</ele>
        <time>2018-04-21T15:47:43Z</time>
      </trkpt>
      <trkpt lat="38.11224" lon="13.35265">
        <ele>42.92</ele>
        <time>2018-04-21T15:48:02Z</time>
      </trkpt>
      <trkpt lat="38.11214" lon="13.35262">
        <ele>43.4</ele>
        <time>2018-04-21T15:48:14Z</time>
      </trkpt>
      <trkpt lat="38.11205" lon="13.35256">
        <ele>40.51</ele>
        <time>2018-04-21T15:48:26Z</time>
      </trkpt>
      <trkpt lat="38.11201" lon="13.35252">
        <ele>38.59</ele>
        <time>2018-04-21T15:48:43Z</time>
      </trkpt>
      <trkpt lat="38.11197" lon="13.35243">
        <ele>39.55</ele>
        <time>2018-04-21T15:48:55Z</time>
      </trkpt>
      <trkpt lat="38.11197" lon="13.35238">
        <ele>39.55</ele>
        <time>2018-04-21T15:49:07Z</time>
      </trkpt>
      <trkpt lat="38.11202" lon="13.35228">
        <ele>40.03</ele>
        <time>2018-04-21T15:49:20Z</time>
      </trkpt>
      <trkpt lat="38.11205" lon="13.35227">
        <ele>40.03</ele>
        <time>2018-04-21T15:49:31Z</time>
      </trkpt>
      <trkpt lat="38.11205" lon="13.35227">
        <ele>40.51</ele>
        <time>2018-04-21T15:49:50Z</time>
      </trkpt>
      <trkpt lat="38.11205" lon="13.35227">
        <ele>40.51</ele>
        <time>2018-04-21T15:50:08Z</time>
      </trkpt>
      <trkpt lat="38.11204" lon="13.35226">
        <ele>40.99</ele>
        <time>2018-04-21T15:50:37Z</time>
      </trkpt>
      <trkpt lat="38.11204" lon="13.35226">
        <ele>40.99</ele>
        <time>2018-04-21T15:50:51Z</time>
      </trkpt>
      <trkpt lat="38.11203" lon="13.35226">
        <ele>41.47</ele>
        <time>2018-04-21T15:51:05Z</time>
      </trkpt>
      <trkpt lat="38.11204" lon="13.35225">
        <ele>41.47</ele>
        <time>2018-04-21T15:51:29Z</time>
      </trkpt>
      <trkpt lat="38.11204" lon="13.35226">
        <ele>42.44</ele>
        <time>2018-04-21T15:51:56Z</time>
      </trkpt>
      <trkpt lat="38.11203" lon="13.35225">
        <ele>41.95</ele>
        <time>2018-04-21T15:52:19Z</time>
      </trkpt>
      <trkpt lat="38.11204" lon="13.35224">
        <ele>41.95</ele>
        <time>2018-04-21T15:52:41Z</time>
      </trkpt>
      <trkpt lat="38.11201" lon="13.35226">
        <ele>41.95</ele>
        <time>2018-04-21T15:53:01Z</time>
      </trkpt>
      <trkpt lat="38.11199" lon="13.35229">
        <ele>41.47</ele>
        <time>2018-04-21T15:53:11Z</time>
      </trkpt>
      <trkpt lat="38.11204" lon="13.35224">
        <ele>41.47</ele>
        <time>2018-04-21T15:53:24Z</time>
      </trkpt>
      <trkpt lat="38.11205" lon="13.35224">
        <ele>41.95</ele>
        <time>2018-04-21T15:53:40Z</time>
      </trkpt>
      <trkpt lat="38.11204" lon="13.35225">
        <ele>41.47</ele>
        <time>2018-04-21T15:53:54Z</time>
      </trkpt>
      <trkpt lat="38.11205" lon="13.35228">
        <ele>41.47</ele>
        <time>2018-04-21T15:54:07Z</time>
      </trkpt>
      <trkpt lat="38.11205" lon="13.35228">
        <ele>40.99</ele>
        <time>2018-04-21T15:54:36Z</time>
      </trkpt>
      <trkpt lat="38.11203" lon="13.3523">
        <ele>40.99</ele>
        <time>2018-04-21T15:54:57Z</time>
      </trkpt>
      <trkpt lat="38.11202" lon="13.3523">
        <ele>40.99</ele>
        <time>2018-04-21T15:55:16Z</time>
      </trkpt>
      <trkpt lat="38.112" lon="13.35237">
        <ele>40.99</ele>
        <time>2018-04-21T15:55:36Z</time>
      </trkpt>
      <trkpt lat="38.11197" lon="13.35235">
        <ele>40.99</ele>
        <time>2018-04-21T15:56:06Z</time>
      </trkpt>
      <trkpt lat="38.11196" lon="13.35239">
        <ele>40.99</ele>
        <time>2018-04-21T15:56:11Z</time>
      </trkpt>
      <trkpt lat="38.11199" lon="13.35247">
        <ele>41.47</ele>
        <time>2018-04-21T15:56:15Z</time>
      </trkpt>
      <trkpt lat="38.11203" lon="13.35251">
        <ele>42.44</ele>
        <time>2018-04-21T15:56:35Z</time>
      </trkpt>
      <trkpt lat="38.11201" lon="13.3524">
        <ele>43.88</ele>
        <time>2018-04-21T15:56:58Z</time>
      </trkpt>
      <trkpt lat="38.11196" lon="13.35244">
        <ele>45.8</ele>
        <time>2018-04-21T15:57:25Z</time>
      </trkpt>
      <trkpt lat="38.11196" lon="13.35245">
        <ele>46.76</ele>
        <time>2018-04-21T15:57:48Z</time>
      </trkpt>
      <trkpt lat="38.11202" lon="13.35236">
        <ele>46.76</ele>
        <time>2018-04-21T15:58:08Z</time>
      </trkpt>
      <trkpt lat="38.11198" lon="13.35234">
        <ele>46.76</ele>
        <time>2018-04-21T15:58:30Z</time>
      </trkpt>
      <trkpt lat="38.11197" lon="13.35236">
        <ele>46.76</ele>
        <time>2018-04-21T15:58:51Z</time>
      </trkpt>
      <trkpt lat="38.11194" lon="13.35245">
        <ele>53.49</ele>
        <time>2018-04-21T15:59:12Z</time>
      </trkpt>
      <trkpt lat="38.11194" lon="13.35244">
        <ele>54.93</ele>
        <time>2018-04-21T15:59:33Z</time>
      </trkpt>
      <trkpt lat="38.11192" lon="13.35244">
        <ele>56.37</ele>
        <time>2018-04-21T15:59:53Z</time>
      </trkpt>
      <trkpt lat="38.11192" lon="13.35243">
        <ele>56.37</ele>
        <time>2018-04-21T16:00:11Z</time>
      </trkpt>
      <trkpt lat="38.11191" lon="13.35244">
        <ele>58.3</ele>
        <time>2018-04-21T16:00:33Z</time>
      </trkpt>
      <trkpt lat="38.11187" lon="13.35243">
        <ele>59.74</ele>
        <time>2018-04-21T16:00:51Z</time>
      </trkpt>
      <trkpt lat="38.1119" lon="13.35243">
        <ele>59.26</ele>
        <time>2018-04-21T16:01:11Z</time>
      </trkpt>
      <trkpt lat="38.11193" lon="13.35238">
        <ele>58.78</ele>
        <time>2018-04-21T16:01:22Z</time>
      </trkpt>
      <trkpt lat="38.11192" lon="13.35234">
        <ele>59.74</ele>
        <time>2018-04-21T16:01:42Z</time>
      </trkpt>
      <trkpt lat="38.11185" lon="13.35234">
        <ele>60.22</ele>
        <time>2018-04-21T16:02:10Z</time>
      </trkpt>
      <trkpt lat="38.11189" lon="13.35241">
        <ele>61.18</ele>
        <time>2018-04-21T16:02:34Z</time>
      </trkpt>
      <trkpt lat="38.11189" lon="13.35243">
        <ele>61.66</ele>
        <time>2018-04-21T16:02:50Z</time>
      </trkpt>
      <trkpt lat="38.11185" lon="13.35194">
        <ele>61.66</ele>
        <time>2018-04-21T16:03:28Z</time>
      </trkpt>
      <trkpt lat="38.11178" lon="13.35232">
        <ele>62.62</ele>
        <time>2018-04-21T16:03:49Z</time>
      </trkpt>
      <trkpt lat="38.11177" lon="13.35242">
        <ele>64.07</ele>
        <time>2018-04-21T16:04:09Z</time>
      </trkpt>
      <trkpt lat="38.11178" lon="13.35245">
        <ele>66.47</ele>
        <time>2018-04-21T16:04:34Z</time>
      </trkpt>
      <trkpt lat="38.11179" lon="13.3525">
        <ele>67.43</ele>
        <time>2018-04-21T16:04:58Z</time>
      </trkpt>
      <trkpt lat="38.11183" lon="13.35254">
        <ele>69.35</ele>
        <time>2018-04-21T16:05:16Z</time>
      </trkpt>
      <trkpt lat="38.11183" lon="13.35247">
        <ele>69.83</ele>
        <time>2018-04-21T16:05:32Z</time>
      </trkpt>
      <trkpt lat="38.11183" lon="13.35247">
        <ele>70.31</ele>
        <time>2018-04-21T16:05:47Z</time>
      </trkpt>
      <trkpt lat="38.11184" lon="13.35251">
        <ele>71.27</ele>
        <time>2018-04-21T16:06:04Z</time>
      </trkpt>
      <trkpt lat="38.11181" lon="13.35246">
        <ele>71.76</ele>
        <time>2018-04-21T16:06:15Z</time>
      </trkpt>
      <trkpt lat="38.11176" lon="13.35241">
        <ele>71.76</ele>
        <time>2018-04-21T16:06:32Z</time>
      </trkpt>
      <trkpt lat="38.11176" lon="13.35243">
        <ele>72.24</ele>
        <time>2018-04-21T16:06:56Z</time>
      </trkpt>
      <trkpt lat="38.11175" lon="13.35239">
        <ele>73.2</ele>
        <time>2018-04-21T16:07:15Z</time>
      </trkpt>
      <trkpt lat="38.11175" lon="13.35247">
        <ele>73.68</ele>
        <time>2018-04-21T16:07:38Z</time>
      </trkpt>
      <trkpt lat="38.11172" lon="13.35251">
        <ele>73.68</ele>
        <time>2018-04-21T16:08:00Z</time>
      </trkpt>
      <trkpt lat="38.11173" lon="13.35249">
        <ele>73.2</ele>
        <time>2018-04-21T16:08:17Z</time>
      </trkpt>
      <trkpt lat="38.11177" lon="13.35241">
        <ele>73.2</ele>
        <time>2018-04-21T16:08:34Z</time>
      </trkpt>
      <trkpt lat="38.11176" lon="13.3524">
        <ele>73.2</ele>
        <time>2018-04-21T16:08:45Z</time>
      </trkpt>
      <trkpt lat="38.11178" lon="13.3524">
        <ele>73.68</ele>
        <time>2018-04-21T16:09:03Z</time>
      </trkpt>
      <trkpt lat="38.11185" lon="13.35239">
        <ele>73.68</ele>
        <time>2018-04-21T16:09:18Z</time>
      </trkpt>
      <trkpt lat="38.11194" lon="13.35233">
        <ele>69.35</ele>
        <time>2018-04-21T16:09:28Z</time>
      </trkpt>
      <trkpt lat="38.11193" lon="13.35235">
        <ele>68.39</ele>
        <time>2018-04-21T16:09:50Z</time>
      </trkpt>
      <trkpt lat="38.11193" lon="13.35236">
        <ele>67.43</ele>
        <time>2018-04-21T16:10:11Z</time>
      </trkpt>
      <trkpt lat="38.11193" lon="13.35236">
        <ele>65.03</ele>
        <time>2018-04-21T16:10:41Z</time>
      </trkpt>
      <trkpt lat="38.11194" lon="13.35237">
        <ele>65.03</ele>
        <time>2018-04-21T16:11:03Z</time>
      </trkpt>
      <trkpt lat="38.11193" lon="13.35237">
        <ele>65.03</ele>
        <time>2018-04-21T16:11:25Z</time>
      </trkpt>
      <trkpt lat="38.11192" lon="13.35231">
        <ele>65.03</ele>
        <time>2018-04-21T16:11:49Z</time>
      </trkpt>
      <trkpt lat="38.11191" lon="13.3524">
        <ele>66.47</ele>
        <time>2018-04-21T16:12:09Z</time>
      </trkpt>
      <trkpt lat="38.11189" lon="13.35242">
        <ele>66.47</ele>
        <time>2018-04-21T16:12:11Z</time>
      </trkpt>
      <trkpt lat="38.11182" lon="13.35243">
        <ele>67.43</ele>
        <time>2018-04-21T16:12:29Z</time>
      </trkpt>
      <trkpt lat="38.11178" lon="13.35231">
        <ele>67.91</ele>
        <time>2018-04-21T16:12:51Z</time>
      </trkpt>
      <trkpt lat="38.11187" lon="13.35237">
        <ele>69.35</ele>
        <time>2018-04-21T16:13:11Z</time>
      </trkpt>
      <trkpt lat="38.1119" lon="13.35238">
        <ele>69.35</ele>
        <time>2018-04-21T16:13:14Z</time>
      </trkpt>
      <trkpt lat="38.11191" lon="13.3524">
        <ele>69.83</ele>
        <time>2018-04-21T16:13:39Z</time>
      </trkpt>
      <trkpt lat="38.11179" lon="13.35236">
        <ele>70.79</ele>
        <time>2018-04-21T16:14:02Z</time>
      </trkpt>
      <trkpt lat="38.11171" lon="13.35233">
        <ele>70.79</ele>
        <time>2018-04-21T16:14:22Z</time>
      </trkpt>
      <trkpt lat="38.11163" lon="13.35224">
        <ele>71.27</ele>
        <time>2018-04-21T16:14:46Z</time>
      </trkpt>
      <trkpt lat="38.1118" lon="13.35238">
        <ele>71.27</ele>
        <time>2018-04-21T16:15:08Z</time>
      </trkpt>
      <trkpt lat="38.11182" lon="13.35237">
        <ele>72.24</ele>
        <time>2018-04-21T16:15:27Z</time>
      </trkpt>
      <trkpt lat="38.11169" lon="13.35227">
        <ele>72.72</ele>
        <time>2018-04-21T16:15:47Z</time>
      </trkpt>
      <trkpt lat="38.11178" lon="13.35239">
        <ele>72.72</ele>
        <time>2018-04-21T16:16:00Z</time>
      </trkpt>
      <trkpt lat="38.1118" lon="13.35241">
        <ele>74.16</ele>
        <time>2018-04-21T16:16:16Z</time>
      </trkpt>
      <trkpt lat="38.11178" lon="13.35241">
        <ele>75.6</ele>
        <time>2018-04-21T16:16:27Z</time>
      </trkpt>
      <trkpt lat="38.11174" lon="13.35242">
        <ele>76.08</ele>
        <time>2018-04-21T16:16:40Z</time>
      </trkpt>
      <trkpt lat="38.11172" lon="13.35238">
        <ele>76.08</ele>
        <time>2018-04-21T16:17:01Z</time>
      </trkpt>
      <trkpt lat="38.11171" lon="13.35238">
        <ele>76.56</ele>
        <time>2018-04-21T16:17:24Z</time>
      </trkpt>
      <trkpt lat="38.11172" lon="13.35238">
        <ele>76.56</ele>
        <time>2018-04-21T16:17:26Z</time>
      </trkpt>
      <trkpt lat="38.11177" lon="13.35236">
        <ele>76.56</ele>
        <time>2018-04-21T16:17:42Z</time>
      </trkpt>
      <trkpt lat="38.11177" lon="13.35235">
        <ele>77.04</ele>
        <time>2018-04-21T16:17:58Z</time>
      </trkpt>
      <trkpt lat="38.11179" lon="13.35234">
        <ele>75.6</ele>
        <time>2018-04-21T16:18:21Z</time>
      </trkpt>
      <trkpt lat="38.11183" lon="13.35232">
        <ele>75.12</ele>
        <time>2018-04-21T16:18:33Z</time>
      </trkpt>
      <trkpt lat="38.11192" lon="13.35228">
        <ele>70.79</ele>
        <time>2018-04-21T16:18:43Z</time>
      </trkpt>
      <trkpt lat="38.11197" lon="13.35224">
        <ele>65.99</ele>
        <time>2018-04-21T16:18:57Z</time>
      </trkpt>
      <trkpt lat="38.11199" lon="13.35221">
        <ele>63.1</ele>
        <time>2018-04-21T16:19:16Z</time>
      </trkpt>
      <trkpt lat="38.112" lon="13.3522">
        <ele>61.66</ele>
        <time>2018-04-21T16:19:32Z</time>
      </trkpt>
      <trkpt lat="38.112" lon="13.3522">
        <ele>61.18</ele>
        <time>2018-04-21T16:19:35Z</time>
      </trkpt>
      <trkpt lat="38.11199" lon="13.35208">
        <ele>60.7</ele>
        <time>2018-04-21T16:19:48Z</time>
      </trkpt>
      <trkpt lat="38.11196" lon="13.35193">
        <ele>59.74</ele>
        <time>2018-04-21T16:20:01Z</time>
      </trkpt>
      <trkpt lat="38.11196" lon="13.35193">
        <ele>59.26</ele>
        <time>2018-04-21T16:20:02Z</time>
      </trkpt>
      <trkpt lat="38.112" lon="13.3518">
        <ele>57.34</ele>
        <time>2018-04-21T16:20:12Z</time>
      </trkpt>
      <trkpt lat="38.11201" lon="13.35171">
        <ele>54.93</ele>
        <time>2018-04-21T16:20:20Z</time>
      </trkpt>
      <trkpt lat="38.11201" lon="13.35168">
        <ele>53.97</ele>
        <time>2018-04-21T16:20:22Z</time>
      </trkpt>
      <trkpt lat="38.11198" lon="13.35157">
        <ele>49.16</ele>
        <time>2018-04-21T16:20:31Z</time>
      </trkpt>
      <trkpt lat="38.11197" lon="13.35151">
        <ele>47.72</ele>
        <time>2018-04-21T16:20:36Z</time>
      </trkpt>
      <trkpt lat="38.11191" lon="13.35139">
        <ele>47.24</ele>
        <time>2018-04-21T16:20:48Z</time>
      </trkpt>
      <trkpt lat="38.11192" lon="13.35132">
        <ele>48.2</ele>
        <time>2018-04-21T16:20:54Z</time>
      </trkpt>
      <trkpt lat="38.11195" lon="13.35111">
        <ele>50.61</ele>
        <time>2018-04-21T16:21:08Z</time>
      </trkpt>
      <trkpt lat="38.11196" lon="13.35085">
        <ele>51.09</ele>
        <time>2018-04-21T16:21:24Z</time>
      </trkpt>
      <trkpt lat="38.11199" lon="13.35068">
        <ele>47.72</ele>
        <time>2018-04-21T16:21:39Z</time>
      </trkpt>
      <trkpt lat="38.11206" lon="13.35061">
        <ele>41.47</ele>
        <time>2018-04-21T16:21:53Z</time>
      </trkpt>
      <trkpt lat="38.11215" lon="13.35056">
        <ele>40.99</ele>
        <time>2018-04-21T16:22:04Z</time>
      </trkpt>
      <trkpt lat="38.11217" lon="13.35054">
        <ele>42.44</ele>
        <time>2018-04-21T16:22:08Z</time>
      </trkpt>
      <trkpt lat="38.11222" lon="13.35052">
        <ele>43.88</ele>
        <time>2018-04-21T16:22:21Z</time>
      </trkpt>
      <trkpt lat="38.11233" lon="13.35049">
        <ele>45.8</ele>
        <time>2018-04-21T16:22:34Z</time>
      </trkpt>
      <trkpt lat="38.1125" lon="13.35048">
        <ele>46.76</ele>
        <time>2018-04-21T16:22:47Z</time>
      </trkpt>
      <trkpt lat="38.11251" lon="13.35048">
        <ele>47.24</ele>
        <time>2018-04-21T16:22:48Z</time>
      </trkpt>
      <trkpt lat="38.11268" lon="13.3504">
        <ele>45.8</ele>
        <time>2018-04-21T16:22:58Z</time>
      </trkpt>
      <trkpt lat="38.11281" lon="13.35034">
        <ele>44.84</ele>
        <time>2018-04-21T16:23:12Z</time>
      </trkpt>
      <trkpt lat="38.11297" lon="13.35034">
        <ele>40.99</ele>
        <time>2018-04-21T16:23:26Z</time>
      </trkpt>
      <trkpt lat="38.11313" lon="13.35032">
        <ele>40.03</ele>
        <time>2018-04-21T16:23:40Z</time>
      </trkpt>
      <trkpt lat="38.11329" lon="13.35028">
        <ele>41.47</ele>
        <time>2018-04-21T16:23:55Z</time>
      </trkpt>
      <trkpt lat="38.11332" lon="13.35028">
        <ele>40.99</ele>
        <time>2018-04-21T16:23:58Z</time>
      </trkpt>
      <trkpt lat="38.11346" lon="13.35026">
        <ele>42.44</ele>
        <time>2018-04-21T16:24:11Z</time>
      </trkpt>
      <trkpt lat="38.11361" lon="13.35026">
        <ele>43.4</ele>
        <time>2018-04-21T16:24:25Z</time>
      </trkpt>
      <trkpt lat="38.11364" lon="13.35026">
        <ele>43.88</ele>
        <time>2018-04-21T16:24:29Z</time>
      </trkpt>
      <trkpt lat="38.11368" lon="13.35023">
        <ele>44.84</ele>
        <time>2018-04-21T16:24:33Z</time>
      </trkpt>
      <trkpt lat="38.11373" lon="13.35016">
        <ele>46.76</ele>
        <time>2018-04-21T16:24:40Z</time>
      </trkpt>
      <trkpt lat="38.11388" lon="13.35016">
        <ele>54.45</ele>
        <time>2018-04-21T16:24:56Z</time>
      </trkpt>
      <trkpt lat="38.11395" lon="13.35015">
        <ele>53.97</ele>
        <time>2018-04-21T16:25:04Z</time>
      </trkpt>
      <trkpt lat="38.11411" lon="13.35">
        <ele>52.53</ele>
        <time>2018-04-21T16:25:21Z</time>
      </trkpt>
      <trkpt lat="38.11419" lon="13.34991">
        <ele>52.53</ele>
        <time>2018-04-21T16:25:30Z</time>
      </trkpt>
      <trkpt lat="38.11435" lon="13.3498">
        <ele>51.09</ele>
        <time>2018-04-21T16:25:46Z</time>
      </trkpt>
      <trkpt lat="38.11451" lon="13.34972">
        <ele>50.13</ele>
        <time>2018-04-21T16:26:02Z</time>
      </trkpt>
      <trkpt lat="38.11465" lon="13.34968">
        <ele>50.13</ele>
        <time>2018-04-21T16:26:16Z</time>
      </trkpt>
      <trkpt lat="38.11471" lon="13.34964">
        <ele>50.13</ele>
        <time>2018-04-21T16:26:21Z</time>
      </trkpt>
      <trkpt lat="38.11482" lon="13.34963">
        <ele>50.13</ele>
        <time>2018-04-21T16:26:29Z</time>
      </trkpt>
      <trkpt lat="38.11491" lon="13.34957">
        <ele>50.13</ele>
        <time>2018-04-21T16:26:40Z</time>
      </trkpt>
      <trkpt lat="38.11495" lon="13.34958">
        <ele>50.61</ele>
        <time>2018-04-21T16:26:44Z</time>
      </trkpt>
      <trkpt lat="38.11508" lon="13.34953">
        <ele>50.61</ele>
        <time>2018-04-21T16:26:53Z</time>
      </trkpt>
      <trkpt lat="38.11525" lon="13.34974">
        <ele>56.86</ele>
        <time>2018-04-21T16:27:03Z</time>
      </trkpt>
      <trkpt lat="38.11531" lon="13.3496">
        <ele>65.99</ele>
        <time>2018-04-21T16:27:14Z</time>
      </trkpt>
      <trkpt lat="38.11539" lon="13.34957">
        <ele>61.66</ele>
        <time>2018-04-21T16:27:20Z</time>
      </trkpt>
      <trkpt lat="38.11548" lon="13.34962">
        <ele>66.47</ele>
        <time>2018-04-21T16:27:33Z</time>
      </trkpt>
      <trkpt lat="38.1155" lon="13.34964">
        <ele>64.55</ele>
        <time>2018-04-21T16:27:50Z</time>
      </trkpt>
      <trkpt lat="38.11555" lon="13.34966">
        <ele>59.26</ele>
        <time>2018-04-21T16:28:14Z</time>
      </trkpt>
      <trkpt lat="38.1156" lon="13.34955">
        <ele>58.78</ele>
        <time>2018-04-21T16:28:38Z</time>
      </trkpt>
      <trkpt lat="38.11557" lon="13.34958">
        <ele>56.86</ele>
        <time>2018-04-21T16:28:58Z</time>
      </trkpt>
      <trkpt lat="38.11559" lon="13.34954">
        <ele>56.37</ele>
        <time>2018-04-21T16:29:06Z</time>
      </trkpt>
      <trkpt lat="38.11554" lon="13.34962">
        <ele>42.44</ele>
        <time>2018-04-21T16:31:05Z</time>
      </trkpt>
      <trkpt lat="38.11556" lon="13.34958">
        <ele>27.53</ele>
        <time>2018-04-21T16:31:33Z</time>
      </trkpt>
      <trkpt lat="38.11557" lon="13.34955">
        <ele>16</ele>
        <time>2018-04-21T16:31:59Z</time>
      </trkpt>
      <trkpt lat="38.11557" lon="13.3495">
        <ele>25.61</ele>
        <time>2018-04-21T16:32:23Z</time>
      </trkpt>
      <trkpt lat="38.11559" lon="13.3495">
        <ele>31.38</ele>
        <time>2018-04-21T16:32:49Z</time>
      </trkpt>
      <trkpt lat="38.11559" lon="13.34942">
        <ele>29.94</ele>
        <time>2018-04-21T16:33:14Z</time>
      </trkpt>
      <trkpt lat="38.11561" lon="13.34943">
        <ele>32.34</ele>
        <time>2018-04-21T16:33:36Z</time>
      </trkpt>
      <trkpt lat="38.11563" lon="13.34941">
        <ele>35.23</ele>
        <time>2018-04-21T16:34:00Z</time>
      </trkpt>
      <trkpt lat="38.11559" lon="13.34945">
        <ele>36.67</ele>
        <time>2018-04-21T16:34:20Z</time>
      </trkpt>
      <trkpt lat="38.11554" lon="13.34961">
        <ele>38.59</ele>
        <time>2018-04-21T16:34:48Z</time>
      </trkpt>
      <trkpt lat="38.11556" lon="13.34942">
        <ele>44.36</ele>
        <time>2018-04-21T16:35:15Z</time>
      </trkpt>
      <trkpt lat="38.11561" lon="13.34937">
        <ele>45.8</ele>
        <time>2018-04-21T16:35:27Z</time>
      </trkpt>
      <trkpt lat="38.11569" lon="13.34936">
        <ele>48.2</ele>
        <time>2018-04-21T16:35:40Z</time>
      </trkpt>
      <trkpt lat="38.11573" lon="13.34933">
        <ele>48.2</ele>
        <time>2018-04-21T16:35:56Z</time>
      </trkpt>
      <trkpt lat="38.1158" lon="13.34928">
        <ele>47.24</ele>
        <time>2018-04-21T16:36:14Z</time>
      </trkpt>
      <trkpt lat="38.11588" lon="13.3492">
        <ele>44.84</ele>
        <time>2018-04-21T16:36:26Z</time>
      </trkpt>
      <trkpt lat="38.11606" lon="13.34919">
        <ele>45.32</ele>
        <time>2018-04-21T16:36:39Z</time>
      </trkpt>
      <trkpt lat="38.11613" lon="13.34927">
        <ele>45.8</ele>
        <time>2018-04-21T16:36:45Z</time>
      </trkpt>
      <trkpt lat="38.11625" lon="13.34931">
        <ele>46.28</ele>
        <time>2018-04-21T16:36:58Z</time>
      </trkpt>
      <trkpt lat="38.11632" lon="13.34928">
        <ele>45.8</ele>
        <time>2018-04-21T16:37:14Z</time>
      </trkpt>
      <trkpt lat="38.11638" lon="13.34907">
        <ele>45.8</ele>
        <time>2018-04-21T16:37:25Z</time>
      </trkpt>
      <trkpt lat="38.11644" lon="13.34906">
        <ele>49.16</ele>
        <time>2018-04-21T16:37:40Z</time>
      </trkpt>
      <trkpt lat="38.11649" lon="13.34914">
        <ele>50.13</ele>
        <time>2018-04-21T16:37:57Z</time>
      </trkpt>
      <trkpt lat="38.11649" lon="13.34914">
        <ele>51.09</ele>
        <time>2018-04-21T16:38:13Z</time>
      </trkpt>
      <trkpt lat="38.11652" lon="13.34911">
        <ele>52.05</ele>
        <time>2018-04-21T16:38:25Z</time>
      </trkpt>
      <trkpt lat="38.1167" lon="13.34908">
        <ele>53.01</ele>
        <time>2018-04-21T16:38:40Z</time>
      </trkpt>
      <trkpt lat="38.11689" lon="13.34903">
        <ele>54.93</ele>
        <time>2018-04-21T16:38:56Z</time>
      </trkpt>
      <trkpt lat="38.11701" lon="13.34889">
        <ele>58.3</ele>
        <time>2018-04-21T16:39:09Z</time>
      </trkpt>
      <trkpt lat="38.11699" lon="13.34876">
        <ele>54.45</ele>
        <time>2018-04-21T16:39:20Z</time>
      </trkpt>
      <trkpt lat="38.11715" lon="13.34886">
        <ele>53.97</ele>
        <time>2018-04-21T16:39:32Z</time>
      </trkpt>
      <trkpt lat="38.11719" lon="13.34887">
        <ele>53.97</ele>
        <time>2018-04-21T16:39:36Z</time>
      </trkpt>
      <trkpt lat="38.11726" lon="13.34886">
        <ele>53.97</ele>
        <time>2018-04-21T16:39:40Z</time>
      </trkpt>
      <trkpt lat="38.11743" lon="13.34878">
        <ele>54.45</ele>
        <time>2018-04-21T16:39:54Z</time>
      </trkpt>
      <trkpt lat="38.11741" lon="13.34864">
        <ele>53.49</ele>
        <time>2018-04-21T16:40:08Z</time>
      </trkpt>
      <trkpt lat="38.11759" lon="13.34866">
        <ele>56.37</ele>
        <time>2018-04-21T16:40:23Z</time>
      </trkpt>
      <trkpt lat="38.11781" lon="13.34862">
        <ele>59.74</ele>
        <time>2018-04-21T16:40:36Z</time>
      </trkpt>
      <trkpt lat="38.11791" lon="13.34855">
        <ele>59.74</ele>
        <time>2018-04-21T16:40:47Z</time>
      </trkpt>
      <trkpt lat="38.11799" lon="13.3485">
        <ele>60.22</ele>
        <time>2018-04-21T16:40:59Z</time>
      </trkpt>
      <trkpt lat="38.11802" lon="13.34847">
        <ele>59.74</ele>
        <time>2018-04-21T16:41:07Z</time>
      </trkpt>
      <trkpt lat="38.11803" lon="13.34841">
        <ele>58.78</ele>
        <time>2018-04-21T16:41:13Z</time>
      </trkpt>
      <trkpt lat="38.11802" lon="13.34838">
        <ele>58.3</ele>
        <time>2018-04-21T16:41:15Z</time>
      </trkpt>
      <trkpt lat="38.11803" lon="13.34832">
        <ele>56.37</ele>
        <time>2018-04-21T16:41:28Z</time>
      </trkpt>
      <trkpt lat="38.11814" lon="13.34846">
        <ele>56.86</ele>
        <time>2018-04-21T16:41:39Z</time>
      </trkpt>
      <trkpt lat="38.11824" lon="13.34844">
        <ele>53.97</ele>
        <time>2018-04-21T16:41:55Z</time>
      </trkpt>
      <trkpt lat="38.11851" lon="13.34844">
        <ele>53.49</ele>
        <time>2018-04-21T16:42:09Z</time>
      </trkpt>
      <trkpt lat="38.1186" lon="13.3483">
        <ele>57.34</ele>
        <time>2018-04-21T16:42:21Z</time>
      </trkpt>
      <trkpt lat="38.11868" lon="13.34824">
        <ele>58.3</ele>
        <time>2018-04-21T16:42:35Z</time>
      </trkpt>
      <trkpt lat="38.11868" lon="13.34818">
        <ele>58.78</ele>
        <time>2018-04-21T16:42:45Z</time>
      </trkpt>
      <trkpt lat="38.11872" lon="13.34809">
        <ele>58.78</ele>
        <time>2018-04-21T16:42:58Z</time>
      </trkpt>
      <trkpt lat="38.11877" lon="13.34804">
        <ele>59.26</ele>
        <time>2018-04-21T16:43:16Z</time>
      </trkpt>
      <trkpt lat="38.11881" lon="13.34803">
        <ele>59.26</ele>
        <time>2018-04-21T16:43:48Z</time>
      </trkpt>
      <trkpt lat="38.11881" lon="13.34803">
        <ele>59.26</ele>
        <time>2018-04-21T16:44:08Z</time>
      </trkpt>
      <trkpt lat="38.11879" lon="13.34802">
        <ele>59.26</ele>
        <time>2018-04-21T16:44:28Z</time>
      </trkpt>
      <trkpt lat="38.11879" lon="13.34802">
        <ele>59.26</ele>
        <time>2018-04-21T16:44:46Z</time>
      </trkpt>
      <trkpt lat="38.11879" lon="13.34803">
        <ele>59.26</ele>
        <time>2018-04-21T16:45:03Z</time>
      </trkpt>
      <trkpt lat="38.11882" lon="13.34802">
        <ele>59.26</ele>
        <time>2018-04-21T16:45:19Z</time>
      </trkpt>
      <trkpt lat="38.11882" lon="13.34803">
        <ele>58.78</ele>
        <time>2018-04-21T16:45:38Z</time>
      </trkpt>
      <trkpt lat="38.11882" lon="13.34803">
        <ele>59.74</ele>
        <time>2018-04-21T16:46:00Z</time>
      </trkpt>
      <trkpt lat="38.11882" lon="13.34803">
        <ele>60.22</ele>
        <time>2018-04-21T16:46:26Z</time>
      </trkpt>
      <trkpt lat="38.11882" lon="13.34804">
        <ele>61.66</ele>
        <time>2018-04-21T16:46:45Z</time>
      </trkpt>
      <trkpt lat="38.11882" lon="13.34803">
        <ele>61.18</ele>
        <time>2018-04-21T16:47:00Z</time>
      </trkpt>
      <trkpt lat="38.11882" lon="13.34804">
        <ele>61.18</ele>
        <time>2018-04-21T16:47:15Z</time>
      </trkpt>
      <trkpt lat="38.11882" lon="13.34804">
        <ele>61.66</ele>
        <time>2018-04-21T16:47:36Z</time>
      </trkpt>
      <trkpt lat="38.11882" lon="13.34804">
        <ele>61.66</ele>
        <time>2018-04-21T16:47:57Z</time>
      </trkpt>
      <trkpt lat="38.11882" lon="13.34804">
        <ele>62.62</ele>
        <time>2018-04-21T16:48:18Z</time>
      </trkpt>
      <trkpt lat="38.11882" lon="13.34804">
        <ele>63.1</ele>
        <time>2018-04-21T16:48:39Z</time>
      </trkpt>
      <trkpt lat="38.11882" lon="13.34804">
        <ele>63.58</ele>
        <time>2018-04-21T16:48:53Z</time>
      </trkpt>
      <trkpt lat="38.11882" lon="13.34804">
        <ele>64.55</ele>
        <time>2018-04-21T16:49:16Z</time>
      </trkpt>
      <trkpt lat="38.11882" lon="13.34804">
        <ele>65.51</ele>
        <time>2018-04-21T16:49:38Z</time>
      </trkpt>
      <trkpt lat="38.11883" lon="13.34805">
        <ele>65.99</ele>
        <time>2018-04-21T16:49:54Z</time>
      </trkpt>
      <trkpt lat="38.11882" lon="13.34804">
        <ele>65.03</ele>
        <time>2018-04-21T16:50:07Z</time>
      </trkpt>
      <trkpt lat="38.11883" lon="13.34802">
        <ele>64.55</ele>
        <time>2018-04-21T16:50:27Z</time>
      </trkpt>
      <trkpt lat="38.11883" lon="13.34803">
        <ele>64.55</ele>
        <time>2018-04-21T16:50:48Z</time>
      </trkpt>
      <trkpt lat="38.11883" lon="13.34803">
        <ele>65.03</ele>
        <time>2018-04-21T16:51:11Z</time>
      </trkpt>
      <trkpt lat="38.11882" lon="13.34805">
        <ele>65.03</ele>
        <time>2018-04-21T16:51:35Z</time>
      </trkpt>
      <trkpt lat="38.11881" lon="13.34804">
        <ele>65.51</ele>
        <time>2018-04-21T16:51:57Z</time>
      </trkpt>
      <trkpt lat="38.1188" lon="13.34802">
        <ele>65.51</ele>
        <time>2018-04-21T16:52:23Z</time>
      </trkpt>
      <trkpt lat="38.1188" lon="13.34802">
        <ele>64.55</ele>
        <time>2018-04-21T16:52:47Z</time>
      </trkpt>
      <trkpt lat="38.11878" lon="13.34802">
        <ele>64.55</ele>
        <time>2018-04-21T16:53:06Z</time>
      </trkpt>
      <trkpt lat="38.11879" lon="13.34802">
        <ele>64.55</ele>
        <time>2018-04-21T16:53:21Z</time>
      </trkpt>
      <trkpt lat="38.11878" lon="13.348">
        <ele>64.55</ele>
        <time>2018-04-21T16:53:33Z</time>
      </trkpt>
      <trkpt lat="38.11878" lon="13.34798">
        <ele>66.47</ele>
        <time>2018-04-21T16:53:46Z</time>
      </trkpt>
      <trkpt lat="38.11879" lon="13.34802">
        <ele>65.99</ele>
        <time>2018-04-21T16:53:58Z</time>
      </trkpt>
      <trkpt lat="38.1188" lon="13.34805">
        <ele>65.99</ele>
        <time>2018-04-21T16:54:14Z</time>
      </trkpt>
      <trkpt lat="38.11881" lon="13.34806">
        <ele>65.51</ele>
        <time>2018-04-21T16:54:30Z</time>
      </trkpt>
      <trkpt lat="38.11879" lon="13.348">
        <ele>65.99</ele>
        <time>2018-04-21T16:54:43Z</time>
      </trkpt>
      <trkpt lat="38.11881" lon="13.34804">
        <ele>65.51</ele>
        <time>2018-04-21T16:54:59Z</time>
      </trkpt>
      <trkpt lat="38.11881" lon="13.34806">
        <ele>65.99</ele>
        <time>2018-04-21T16:55:16Z</time>
      </trkpt>
      <trkpt lat="38.11881" lon="13.34807">
        <ele>65.03</ele>
        <time>2018-04-21T16:55:29Z</time>
      </trkpt>
      <trkpt lat="38.1188" lon="13.34807">
        <ele>65.51</ele>
        <time>2018-04-21T16:55:57Z</time>
      </trkpt>
      <trkpt lat="38.11879" lon="13.34808">
        <ele>65.51</ele>
        <time>2018-04-21T16:56:21Z</time>
      </trkpt>
      <trkpt lat="38.11879" lon="13.34809">
        <ele>65.51</ele>
        <time>2018-04-21T16:56:38Z</time>
      </trkpt>
      <trkpt lat="38.11879" lon="13.34809">
        <ele>65.99</ele>
        <time>2018-04-21T16:56:56Z</time>
      </trkpt>
      <trkpt lat="38.1188" lon="13.34808">
        <ele>66.47</ele>
        <time>2018-04-21T16:57:22Z</time>
      </trkpt>
      <trkpt lat="38.1188" lon="13.34808">
        <ele>65.99</ele>
        <time>2018-04-21T16:57:27Z</time>
      </trkpt>
      <trkpt lat="38.11882" lon="13.34819">
        <ele>64.07</ele>
        <time>2018-04-21T16:57:42Z</time>
      </trkpt>
      <trkpt lat="38.1188" lon="13.34825">
        <ele>61.66</ele>
        <time>2018-04-21T16:57:55Z</time>
      </trkpt>
      <trkpt lat="38.11881" lon="13.34831">
        <ele>59.74</ele>
        <time>2018-04-21T16:58:09Z</time>
      </trkpt>
      <trkpt lat="38.11882" lon="13.3484">
        <ele>59.26</ele>
        <time>2018-04-21T16:58:19Z</time>
      </trkpt>
      <trkpt lat="38.11887" lon="13.34849">
        <ele>59.74</ele>
        <time>2018-04-21T16:58:35Z</time>
      </trkpt>
      <trkpt lat="38.11889" lon="13.34854">
        <ele>60.22</ele>
        <time>2018-04-21T16:58:52Z</time>
      </trkpt>
      <trkpt lat="38.11889" lon="13.34857">
        <ele>60.7</ele>
        <time>2018-04-21T16:59:08Z</time>
      </trkpt>
      <trkpt lat="38.11889" lon="13.34856">
        <ele>60.7</ele>
        <time>2018-04-21T16:59:25Z</time>
      </trkpt>
      <trkpt lat="38.11891" lon="13.34855">
        <ele>59.74</ele>
        <time>2018-04-21T16:59:44Z</time>
      </trkpt>
      <trkpt lat="38.11892" lon="13.34857">
        <ele>60.22</ele>
        <time>2018-04-21T16:59:57Z</time>
      </trkpt>
      <trkpt lat="38.11891" lon="13.34858">
        <ele>60.22</ele>
        <time>2018-04-21T17:00:19Z</time>
      </trkpt>
      <trkpt lat="38.11891" lon="13.34863">
        <ele>60.7</ele>
        <time>2018-04-21T17:00:31Z</time>
      </trkpt>
      <trkpt lat="38.11891" lon="13.34874">
        <ele>59.74</ele>
        <time>2018-04-21T17:00:44Z</time>
      </trkpt>
      <trkpt lat="38.11891" lon="13.34878">
        <ele>59.26</ele>
        <time>2018-04-21T17:00:56Z</time>
      </trkpt>
      <trkpt lat="38.11892" lon="13.34884">
        <ele>60.7</ele>
        <time>2018-04-21T17:01:08Z</time>
      </trkpt>
      <trkpt lat="38.11893" lon="13.34895">
        <ele>58.78</ele>
        <time>2018-04-21T17:01:21Z</time>
      </trkpt>
      <trkpt lat="38.11894" lon="13.34906">
        <ele>55.89</ele>
        <time>2018-04-21T17:01:39Z</time>
      </trkpt>
      <trkpt lat="38.11895" lon="13.34912">
        <ele>56.86</ele>
        <time>2018-04-21T17:01:54Z</time>
      </trkpt>
      <trkpt lat="38.11895" lon="13.34914">
        <ele>56.86</ele>
        <time>2018-04-21T17:02:08Z</time>
      </trkpt>
      <trkpt lat="38.11893" lon="13.34923">
        <ele>58.78</ele>
        <time>2018-04-21T17:02:24Z</time>
      </trkpt>
      <trkpt lat="38.11892" lon="13.34928">
        <ele>61.66</ele>
        <time>2018-04-21T17:02:38Z</time>
      </trkpt>
      <trkpt lat="38.11891" lon="13.3494">
        <ele>66.47</ele>
        <time>2018-04-21T17:02:51Z</time>
      </trkpt>
      <trkpt lat="38.11892" lon="13.34943">
        <ele>68.87</ele>
        <time>2018-04-21T17:03:03Z</time>
      </trkpt>
      <trkpt lat="38.11893" lon="13.34957">
        <ele>70.31</ele>
        <time>2018-04-21T17:03:19Z</time>
      </trkpt>
      <trkpt lat="38.11894" lon="13.34971">
        <ele>73.68</ele>
        <time>2018-04-21T17:03:30Z</time>
      </trkpt>
      <trkpt lat="38.11896" lon="13.34988">
        <ele>75.12</ele>
        <time>2018-04-21T17:03:40Z</time>
      </trkpt>
      <trkpt lat="38.11898" lon="13.35003">
        <ele>78</ele>
        <time>2018-04-21T17:03:52Z</time>
      </trkpt>
      <trkpt lat="38.11898" lon="13.35014">
        <ele>78.97</ele>
        <time>2018-04-21T17:04:04Z</time>
      </trkpt>
      <trkpt lat="38.11904" lon="13.35048">
        <ele>74.16</ele>
        <time>2018-04-21T17:04:19Z</time>
      </trkpt>
      <trkpt lat="38.11905" lon="13.35064">
        <ele>70.31</ele>
        <time>2018-04-21T17:04:35Z</time>
      </trkpt>
      <trkpt lat="38.11905" lon="13.3507">
        <ele>69.35</ele>
        <time>2018-04-21T17:04:55Z</time>
      </trkpt>
      <trkpt lat="38.11905" lon="13.35085">
        <ele>67.43</ele>
        <time>2018-04-21T17:05:10Z</time>
      </trkpt>
      <trkpt lat="38.11907" lon="13.35085">
        <ele>68.39</ele>
        <time>2018-04-21T17:05:22Z</time>
      </trkpt>
      <trkpt lat="38.11898" lon="13.35078">
        <ele>67.43</ele>
        <time>2018-04-21T17:05:26Z</time>
      </trkpt>
      <trkpt lat="38.11909" lon="13.35083">
        <ele>67.91</ele>
        <time>2018-04-21T17:05:39Z</time>
      </trkpt>
      <trkpt lat="38.11913" lon="13.35088">
        <ele>68.39</ele>
        <time>2018-04-21T17:05:45Z</time>
      </trkpt>
      <trkpt lat="38.11926" lon="13.35099">
        <ele>66.47</ele>
        <time>2018-04-21T17:06:02Z</time>
      </trkpt>
      <trkpt lat="38.11933" lon="13.351">
        <ele>61.18</ele>
        <time>2018-04-21T17:06:13Z</time>
      </trkpt>
      <trkpt lat="38.11939" lon="13.35117">
        <ele>57.82</ele>
        <time>2018-04-21T17:06:26Z</time>
      </trkpt>
      <trkpt lat="38.11943" lon="13.35138">
        <ele>55.89</ele>
        <time>2018-04-21T17:06:40Z</time>
      </trkpt>
      <trkpt lat="38.11952" lon="13.35155">
        <ele>47.72</ele>
        <time>2018-04-21T17:06:54Z</time>
      </trkpt>
      <trkpt lat="38.11954" lon="13.35158">
        <ele>45.8</ele>
        <time>2018-04-21T17:06:57Z</time>
      </trkpt>
      <trkpt lat="38.11958" lon="13.35177">
        <ele>38.11</ele>
        <time>2018-04-21T17:07:11Z</time>
      </trkpt>
      <trkpt lat="38.11962" lon="13.35195">
        <ele>30.42</ele>
        <time>2018-04-21T17:07:26Z</time>
      </trkpt>
      <trkpt lat="38.11966" lon="13.35211">
        <ele>27.53</ele>
        <time>2018-04-21T17:07:41Z</time>
      </trkpt>
      <trkpt lat="38.11965" lon="13.35218">
        <ele>27.53</ele>
        <time>2018-04-21T17:07:53Z</time>
      </trkpt>
      <trkpt lat="38.11961" lon="13.35223">
        <ele>30.9</ele>
        <time>2018-04-21T17:07:59Z</time>
      </trkpt>
      <trkpt lat="38.11958" lon="13.3524">
        <ele>34.74</ele>
        <time>2018-04-21T17:08:13Z</time>
      </trkpt>
      <trkpt lat="38.11958" lon="13.35244">
        <ele>35.23</ele>
        <time>2018-04-21T17:08:31Z</time>
      </trkpt>
      <trkpt lat="38.11957" lon="13.35248">
        <ele>35.23</ele>
        <time>2018-04-21T17:08:34Z</time>
      </trkpt>
      <trkpt lat="38.11956" lon="13.35251">
        <ele>35.23</ele>
        <time>2018-04-21T17:08:36Z</time>
      </trkpt>
      <trkpt lat="38.11953" lon="13.35281">
        <ele>34.74</ele>
        <time>2018-04-21T17:08:50Z</time>
      </trkpt>
      <trkpt lat="38.11957" lon="13.35291">
        <ele>36.19</ele>
        <time>2018-04-21T17:09:02Z</time>
      </trkpt>
      <trkpt lat="38.11956" lon="13.35294">
        <ele>37.15</ele>
        <time>2018-04-21T17:09:04Z</time>
      </trkpt>
      <trkpt lat="38.11954" lon="13.35308">
        <ele>43.4</ele>
        <time>2018-04-21T17:09:15Z</time>
      </trkpt>
      <trkpt lat="38.11954" lon="13.35317">
        <ele>43.88</ele>
        <time>2018-04-21T17:09:28Z</time>
      </trkpt>
      <trkpt lat="38.11952" lon="13.35327">
        <ele>42.44</ele>
        <time>2018-04-21T17:09:39Z</time>
      </trkpt>
      <trkpt lat="38.11954" lon="13.35328">
        <ele>42.44</ele>
        <time>2018-04-21T17:09:51Z</time>
      </trkpt>
      <trkpt lat="38.11954" lon="13.35329">
        <ele>43.4</ele>
        <time>2018-04-21T17:10:05Z</time>
      </trkpt>
      <trkpt lat="38.11955" lon="13.3533">
        <ele>43.88</ele>
        <time>2018-04-21T17:10:18Z</time>
      </trkpt>
      <trkpt lat="38.11957" lon="13.35352">
        <ele>45.32</ele>
        <time>2018-04-21T17:10:36Z</time>
      </trkpt>
      <trkpt lat="38.11958" lon="13.35372">
        <ele>46.76</ele>
        <time>2018-04-21T17:10:51Z</time>
      </trkpt>
      <trkpt lat="38.11962" lon="13.35379">
        <ele>46.76</ele>
        <time>2018-04-21T17:11:07Z</time>
      </trkpt>
      <trkpt lat="38.11963" lon="13.35386">
        <ele>47.72</ele>
        <time>2018-04-21T17:11:26Z</time>
      </trkpt>
      <trkpt lat="38.11967" lon="13.35391">
        <ele>48.2</ele>
        <time>2018-04-21T17:11:38Z</time>
      </trkpt>
      <trkpt lat="38.11969" lon="13.35398">
        <ele>48.2</ele>
        <time>2018-04-21T17:11:57Z</time>
      </trkpt>
      <trkpt lat="38.11973" lon="13.35422">
        <ele>44.84</ele>
        <time>2018-04-21T17:12:12Z</time>
      </trkpt>
      <trkpt lat="38.11974" lon="13.35425">
        <ele>44.36</ele>
        <time>2018-04-21T17:12:31Z</time>
      </trkpt>
      <trkpt lat="38.11975" lon="13.35428">
        <ele>44.84</ele>
        <time>2018-04-21T17:12:46Z</time>
      </trkpt>
      <trkpt lat="38.11976" lon="13.35432">
        <ele>45.32</ele>
        <time>2018-04-21T17:13:05Z</time>
      </trkpt>
      <trkpt lat="38.11977" lon="13.35434">
        <ele>46.28</ele>
        <time>2018-04-21T17:13:24Z</time>
      </trkpt>
      <trkpt lat="38.11978" lon="13.35439">
        <ele>48.2</ele>
        <time>2018-04-21T17:13:44Z</time>
      </trkpt>
      <trkpt lat="38.11974" lon="13.35471">
        <ele>48.2</ele>
        <time>2018-04-21T17:14:00Z</time>
      </trkpt>
      <trkpt lat="38.11973" lon="13.35498">
        <ele>47.72</ele>
        <time>2018-04-21T17:14:12Z</time>
      </trkpt>
      <trkpt lat="38.11976" lon="13.35512">
        <ele>48.2</ele>
        <time>2018-04-21T17:14:28Z</time>
      </trkpt>
      <trkpt lat="38.1199" lon="13.35521">
        <ele>49.16</ele>
        <time>2018-04-21T17:14:40Z</time>
      </trkpt>
      <trkpt lat="38.12002" lon="13.35542">
        <ele>50.13</ele>
        <time>2018-04-21T17:14:52Z</time>
      </trkpt>
      <trkpt lat="38.12013" lon="13.3557">
        <ele>52.53</ele>
        <time>2018-04-21T17:15:07Z</time>
      </trkpt>
      <trkpt lat="38.12032" lon="13.3565">
        <ele>49.16</ele>
        <time>2018-04-21T17:15:18Z</time>
      </trkpt>
      <trkpt lat="38.1205" lon="13.35665">
        <ele>45.8</ele>
        <time>2018-04-21T17:15:31Z</time>
      </trkpt>
      <trkpt lat="38.12056" lon="13.35682">
        <ele>41.47</ele>
        <time>2018-04-21T17:15:43Z</time>
      </trkpt>
      <trkpt lat="38.12061" lon="13.357">
        <ele>38.59</ele>
        <time>2018-04-21T17:15:55Z</time>
      </trkpt>
      <trkpt lat="38.12066" lon="13.3571">
        <ele>36.67</ele>
        <time>2018-04-21T17:16:01Z</time>
      </trkpt>
      <trkpt lat="38.12073" lon="13.35726">
        <ele>37.15</ele>
        <time>2018-04-21T17:16:13Z</time>
      </trkpt>
      <trkpt lat="38.12082" lon="13.35745">
        <ele>37.15</ele>
        <time>2018-04-21T17:16:25Z</time>
      </trkpt>
      <trkpt lat="38.12082" lon="13.35746">
        <ele>36.67</ele>
        <time>2018-04-21T17:16:26Z</time>
      </trkpt>
      <trkpt lat="38.12086" lon="13.35755">
        <ele>38.11</ele>
        <time>2018-04-21T17:16:31Z</time>
      </trkpt>
      <trkpt lat="38.12089" lon="13.35768">
        <ele>39.55</ele>
        <time>2018-04-21T17:16:42Z</time>
      </trkpt>
      <trkpt lat="38.12091" lon="13.35774">
        <ele>41.47</ele>
        <time>2018-04-21T17:16:47Z</time>
      </trkpt>
      <trkpt lat="38.12089" lon="13.3578">
        <ele>42.44</ele>
        <time>2018-04-21T17:16:59Z</time>
      </trkpt>
      <trkpt lat="38.12083" lon="13.35787">
        <ele>46.76</ele>
        <time>2018-04-21T17:17:12Z</time>
      </trkpt>
      <trkpt lat="38.12087" lon="13.35802">
        <ele>50.61</ele>
        <time>2018-04-21T17:17:25Z</time>
      </trkpt>
      <trkpt lat="38.1208" lon="13.35814">
        <ele>51.57</ele>
        <time>2018-04-21T17:17:36Z</time>
      </trkpt>
      <trkpt lat="38.12076" lon="13.35816">
        <ele>52.05</ele>
        <time>2018-04-21T17:17:50Z</time>
      </trkpt>
      <trkpt lat="38.12072" lon="13.35819">
        <ele>51.57</ele>
        <time>2018-04-21T17:18:03Z</time>
      </trkpt>
      <trkpt lat="38.12066" lon="13.35821">
        <ele>49.65</ele>
        <time>2018-04-21T17:18:14Z</time>
      </trkpt>
      <trkpt lat="38.12059" lon="13.35816">
        <ele>44.84</ele>
        <time>2018-04-21T17:18:26Z</time>
      </trkpt>
      <trkpt lat="38.12053" lon="13.35814">
        <ele>42.44</ele>
        <time>2018-04-21T17:18:41Z</time>
      </trkpt>
      <trkpt lat="38.12053" lon="13.35814">
        <ele>41.95</ele>
        <time>2018-04-21T17:18:53Z</time>
      </trkpt>
      <trkpt lat="38.12054" lon="13.35821">
        <ele>41.47</ele>
        <time>2018-04-21T17:19:06Z</time>
      </trkpt>
      <trkpt lat="38.12056" lon="13.35836">
        <ele>35.71</ele>
        <time>2018-04-21T17:19:22Z</time>
      </trkpt>
      <trkpt lat="38.12057" lon="13.35839">
        <ele>34.74</ele>
        <time>2018-04-21T17:19:39Z</time>
      </trkpt>
      <trkpt lat="38.12059" lon="13.35847">
        <ele>32.82</ele>
        <time>2018-04-21T17:19:53Z</time>
      </trkpt>
      <trkpt lat="38.12059" lon="13.35849">
        <ele>30.9</ele>
        <time>2018-04-21T17:20:15Z</time>
      </trkpt>
      <trkpt lat="38.12058" lon="13.35848">
        <ele>28.98</ele>
        <time>2018-04-21T17:20:28Z</time>
      </trkpt>
      <trkpt lat="38.12059" lon="13.35849">
        <ele>28.02</ele>
        <time>2018-04-21T17:20:40Z</time>
      </trkpt>
      <trkpt lat="38.12059" lon="13.35849">
        <ele>27.53</ele>
        <time>2018-04-21T17:20:48Z</time>
      </trkpt>
      <trkpt lat="38.12062" lon="13.35856">
        <ele>28.02</ele>
        <time>2018-04-21T17:20:54Z</time>
      </trkpt>
      <trkpt lat="38.12067" lon="13.3587">
        <ele>27.53</ele>
        <time>2018-04-21T17:21:07Z</time>
      </trkpt>
      <trkpt lat="38.12073" lon="13.35884">
        <ele>28.5</ele>
        <time>2018-04-21T17:21:19Z</time>
      </trkpt>
      <trkpt lat="38.12073" lon="13.35884">
        <ele>28.5</ele>
        <time>2018-04-21T17:21:21Z</time>
      </trkpt>
      <trkpt lat="38.12072" lon="13.35903">
        <ele>28.02</ele>
        <time>2018-04-21T17:21:35Z</time>
      </trkpt>
      <trkpt lat="38.12072" lon="13.35907">
        <ele>28.5</ele>
        <time>2018-04-21T17:21:38Z</time>
      </trkpt>
      <trkpt lat="38.1208" lon="13.35912">
        <ele>30.9</ele>
        <time>2018-04-21T17:21:54Z</time>
      </trkpt>
      <trkpt lat="38.1208" lon="13.35913">
        <ele>30.9</ele>
        <time>2018-04-21T17:22:14Z</time>
      </trkpt>
      <trkpt lat="38.12082" lon="13.35913">
        <ele>32.82</ele>
        <time>2018-04-21T17:22:27Z</time>
      </trkpt>
      <trkpt lat="38.12072" lon="13.35911">
        <ele>25.13</ele>
        <time>2018-04-21T17:23:40Z</time>
      </trkpt>
      <trkpt lat="38.12078" lon="13.35921">
        <ele>31.38</ele>
        <time>2018-04-21T17:23:52Z</time>
      </trkpt>
      <trkpt lat="38.12084" lon="13.3593">
        <ele>33.78</ele>
        <time>2018-04-21T17:24:06Z</time>
      </trkpt>
      <trkpt lat="38.12081" lon="13.35932">
        <ele>37.63</ele>
        <time>2018-04-21T17:24:20Z</time>
      </trkpt>
      <trkpt lat="38.12083" lon="13.35947">
        <ele>37.15</ele>
        <time>2018-04-21T17:24:37Z</time>
      </trkpt>
      <trkpt lat="38.12089" lon="13.35959">
        <ele>34.74</ele>
        <time>2018-04-21T17:24:47Z</time>
      </trkpt>
      <trkpt lat="38.12097" lon="13.35972">
        <ele>31.38</ele>
        <time>2018-04-21T17:25:00Z</time>
      </trkpt>
      <trkpt lat="38.12091" lon="13.3598">
        <ele>32.82</ele>
        <time>2018-04-21T17:25:14Z</time>
      </trkpt>
      <trkpt lat="38.12094" lon="13.35991">
        <ele>35.71</ele>
        <time>2018-04-21T17:25:27Z</time>
      </trkpt>
      <trkpt lat="38.12103" lon="13.36002">
        <ele>36.19</ele>
        <time>2018-04-21T17:25:41Z</time>
      </trkpt>
      <trkpt lat="38.12103" lon="13.36006">
        <ele>34.74</ele>
        <time>2018-04-21T17:25:54Z</time>
      </trkpt>
      <trkpt lat="38.12103" lon="13.36009">
        <ele>34.26</ele>
        <time>2018-04-21T17:26:16Z</time>
      </trkpt>
      <trkpt lat="38.12101" lon="13.36011">
        <ele>33.78</ele>
        <time>2018-04-21T17:26:31Z</time>
      </trkpt>
      <trkpt lat="38.12099" lon="13.3601">
        <ele>32.82</ele>
        <time>2018-04-21T17:26:46Z</time>
      </trkpt>
      <trkpt lat="38.12097" lon="13.36011">
        <ele>31.38</ele>
        <time>2018-04-21T17:27:02Z</time>
      </trkpt>
      <trkpt lat="38.12096" lon="13.36011">
        <ele>32.34</ele>
        <time>2018-04-21T17:27:18Z</time>
      </trkpt>
      <trkpt lat="38.12096" lon="13.3601">
        <ele>31.86</ele>
        <time>2018-04-21T17:27:48Z</time>
      </trkpt>
      <trkpt lat="38.12094" lon="13.36009">
        <ele>32.34</ele>
        <time>2018-04-21T17:28:14Z</time>
      </trkpt>
      <trkpt lat="38.12095" lon="13.36007">
        <ele>32.82</ele>
        <time>2018-04-21T17:28:51Z</time>
      </trkpt>
      <trkpt lat="38.12094" lon="13.36008">
        <ele>32.82</ele>
        <time>2018-04-21T17:29:21Z</time>
      </trkpt>
      <trkpt lat="38.12094" lon="13.36008">
        <ele>32.82</ele>
        <time>2018-04-21T17:29:38Z</time>
      </trkpt>
      <trkpt lat="38.1209" lon="13.36008">
        <ele>30.9</ele>
        <time>2018-04-21T17:30:13Z</time>
      </trkpt>
      <trkpt lat="38.12089" lon="13.36008">
        <ele>30.9</ele>
        <time>2018-04-21T17:30:40Z</time>
      </trkpt>
      <trkpt lat="38.12088" lon="13.36008">
        <ele>29.94</ele>
        <time>2018-04-21T17:31:03Z</time>
      </trkpt>
      <trkpt lat="38.12086" lon="13.36006">
        <ele>29.46</ele>
        <time>2018-04-21T17:31:28Z</time>
      </trkpt>
      <trkpt lat="38.12085" lon="13.36006">
        <ele>28.02</ele>
        <time>2018-04-21T17:31:57Z</time>
      </trkpt>
      <trkpt lat="38.12084" lon="13.36006">
        <ele>26.57</ele>
        <time>2018-04-21T17:32:34Z</time>
      </trkpt>
      <trkpt lat="38.12084" lon="13.36006">
        <ele>26.57</ele>
        <time>2018-04-21T17:33:09Z</time>
      </trkpt>
      <trkpt lat="38.12084" lon="13.36005">
        <ele>26.09</ele>
        <time>2018-04-21T17:33:38Z</time>
      </trkpt>
      <trkpt lat="38.12083" lon="13.36004">
        <ele>25.61</ele>
        <time>2018-04-21T17:34:02Z</time>
      </trkpt>
      <trkpt lat="38.12082" lon="13.36004">
        <ele>24.65</ele>
        <time>2018-04-21T17:34:33Z</time>
      </trkpt>
      <trkpt lat="38.12083" lon="13.36002">
        <ele>22.25</ele>
        <time>2018-04-21T17:35:05Z</time>
      </trkpt>
      <trkpt lat="38.12083" lon="13.36002">
        <ele>21.77</ele>
        <time>2018-04-21T17:35:36Z</time>
      </trkpt>
      <trkpt lat="38.12083" lon="13.36002">
        <ele>21.77</ele>
        <time>2018-04-21T17:36:09Z</time>
      </trkpt>
      <trkpt lat="38.12083" lon="13.36002">
        <ele>24.17</ele>
        <time>2018-04-21T17:36:47Z</time>
      </trkpt>
      <trkpt lat="38.12082" lon="13.36001">
        <ele>23.21</ele>
        <time>2018-04-21T17:37:17Z</time>
      </trkpt>
      <trkpt lat="38.12084" lon="13.36">
        <ele>23.21</ele>
        <time>2018-04-21T17:37:55Z</time>
      </trkpt>
      <trkpt lat="38.12085" lon="13.35999">
        <ele>22.25</ele>
        <time>2018-04-21T17:38:26Z</time>
      </trkpt>
      <trkpt lat="38.12084" lon="13.35997">
        <ele>21.29</ele>
        <time>2018-04-21T17:38:56Z</time>
      </trkpt>
      <trkpt lat="38.12084" lon="13.35998">
        <ele>19.84</ele>
        <time>2018-04-21T17:39:21Z</time>
      </trkpt>
      <trkpt lat="38.12085" lon="13.35998">
        <ele>19.84</ele>
        <time>2018-04-21T17:39:58Z</time>
      </trkpt>
      <trkpt lat="38.12085" lon="13.35998">
        <ele>20.32</ele>
        <time>2018-04-21T17:40:38Z</time>
      </trkpt>
      <trkpt lat="38.12083" lon="13.35997">
        <ele>20.81</ele>
        <time>2018-04-21T17:41:05Z</time>
      </trkpt>
      <trkpt lat="38.12083" lon="13.35997">
        <ele>22.73</ele>
        <time>2018-04-21T17:41:35Z</time>
      </trkpt>
      <trkpt lat="38.12084" lon="13.35999">
        <ele>21.29</ele>
        <time>2018-04-21T17:42:13Z</time>
      </trkpt>
      <trkpt lat="38.12083" lon="13.35999">
        <ele>21.77</ele>
        <time>2018-04-21T17:42:47Z</time>
      </trkpt>
      <trkpt lat="38.12082" lon="13.35999">
        <ele>21.77</ele>
        <time>2018-04-21T17:43:22Z</time>
      </trkpt>
      <trkpt lat="38.12082" lon="13.35999">
        <ele>22.25</ele>
        <time>2018-04-21T17:44:03Z</time>
      </trkpt>
      <trkpt lat="38.12082" lon="13.35999">
        <ele>22.25</ele>
        <time>2018-04-21T17:44:32Z</time>
      </trkpt>
      <trkpt lat="38.12084" lon="13.36">
        <ele>22.73</ele>
        <time>2018-04-21T17:45:08Z</time>
      </trkpt>
      <trkpt lat="38.12082" lon="13.35998">
        <ele>22.73</ele>
        <time>2018-04-21T17:45:41Z</time>
      </trkpt>
      <trkpt lat="38.12081" lon="13.35998">
        <ele>23.21</ele>
        <time>2018-04-21T17:46:16Z</time>
      </trkpt>
      <trkpt lat="38.12081" lon="13.35998">
        <ele>24.17</ele>
        <time>2018-04-21T17:46:52Z</time>
      </trkpt>
      <trkpt lat="38.12081" lon="13.35999">
        <ele>24.17</ele>
        <time>2018-04-21T17:47:25Z</time>
      </trkpt>
      <trkpt lat="38.12081" lon="13.35998">
        <ele>25.13</ele>
        <time>2018-04-21T17:48:03Z</time>
      </trkpt>
      <trkpt lat="38.12081" lon="13.35998">
        <ele>26.57</ele>
        <time>2018-04-21T17:48:33Z</time>
      </trkpt>
      <trkpt lat="38.1208" lon="13.35998">
        <ele>28.5</ele>
        <time>2018-04-21T17:49:15Z</time>
      </trkpt>
      <trkpt lat="38.12081" lon="13.35997">
        <ele>28.02</ele>
        <time>2018-04-21T17:49:47Z</time>
      </trkpt>
      <trkpt lat="38.1208" lon="13.35997">
        <ele>27.53</ele>
        <time>2018-04-21T17:50:26Z</time>
      </trkpt>
      <trkpt lat="38.1208" lon="13.35996">
        <ele>24.65</ele>
        <time>2018-04-21T17:51:07Z</time>
      </trkpt>
      <trkpt lat="38.12081" lon="13.35997">
        <ele>23.69</ele>
        <time>2018-04-21T17:51:37Z</time>
      </trkpt>
      <trkpt lat="38.12081" lon="13.35996">
        <ele>22.73</ele>
        <time>2018-04-21T17:52:10Z</time>
      </trkpt>
      <trkpt lat="38.12082" lon="13.35995">
        <ele>23.21</ele>
        <time>2018-04-21T17:52:50Z</time>
      </trkpt>
      <trkpt lat="38.12081" lon="13.35994">
        <ele>23.21</ele>
        <time>2018-04-21T17:53:15Z</time>
      </trkpt>
      <trkpt lat="38.12082" lon="13.35994">
        <ele>22.73</ele>
        <time>2018-04-21T17:53:49Z</time>
      </trkpt>
      <trkpt lat="38.12082" lon="13.35994">
        <ele>22.25</ele>
        <time>2018-04-21T17:54:10Z</time>
      </trkpt>
      <trkpt lat="38.12082" lon="13.35993">
        <ele>22.25</ele>
        <time>2018-04-21T17:54:44Z</time>
      </trkpt>
      <trkpt lat="38.12082" lon="13.35992">
        <ele>23.69</ele>
        <time>2018-04-21T17:55:15Z</time>
      </trkpt>
      <trkpt lat="38.12082" lon="13.35991">
        <ele>23.69</ele>
        <time>2018-04-21T17:55:40Z</time>
      </trkpt>
      <trkpt lat="38.12083" lon="13.35991">
        <ele>23.69</ele>
        <time>2018-04-21T17:56:12Z</time>
      </trkpt>
      <trkpt lat="38.12083" lon="13.35992">
        <ele>24.65</ele>
        <time>2018-04-21T17:56:51Z</time>
      </trkpt>
      <trkpt lat="38.12083" lon="13.35993">
        <ele>26.57</ele>
        <time>2018-04-21T17:57:27Z</time>
      </trkpt>
      <trkpt lat="38.12082" lon="13.35994">
        <ele>27.05</ele>
        <time>2018-04-21T17:57:48Z</time>
      </trkpt>
      <trkpt lat="38.12083" lon="13.35996">
        <ele>27.05</ele>
        <time>2018-04-21T17:58:14Z</time>
      </trkpt>
      <trkpt lat="38.12083" lon="13.35997">
        <ele>28.5</ele>
        <time>2018-04-21T17:58:48Z</time>
      </trkpt>
      <trkpt lat="38.12083" lon="13.35997">
        <ele>28.98</ele>
        <time>2018-04-21T17:59:21Z</time>
      </trkpt>
      <trkpt lat="38.12083" lon="13.35997">
        <ele>28.5</ele>
        <time>2018-04-21T17:59:49Z</time>
      </trkpt>
      <trkpt lat="38.12083" lon="13.35998">
        <ele>27.53</ele>
        <time>2018-04-21T18:00:25Z</time>
      </trkpt>
      <trkpt lat="38.12084" lon="13.35998">
        <ele>27.05</ele>
        <time>2018-04-21T18:00:54Z</time>
      </trkpt>
      <trkpt lat="38.12082" lon="13.35998">
        <ele>26.09</ele>
        <time>2018-04-21T18:01:26Z</time>
      </trkpt>
      <trkpt lat="38.12082" lon="13.35999">
        <ele>26.09</ele>
        <time>2018-04-21T18:02:03Z</time>
      </trkpt>
      <trkpt lat="38.12081" lon="13.35999">
        <ele>25.61</ele>
        <time>2018-04-21T18:02:34Z</time>
      </trkpt>
      <trkpt lat="38.12081" lon="13.35997">
        <ele>25.13</ele>
        <time>2018-04-21T18:03:03Z</time>
      </trkpt>
      <trkpt lat="38.12082" lon="13.36">
        <ele>25.61</ele>
        <time>2018-04-21T18:03:19Z</time>
      </trkpt>
      <trkpt lat="38.12083" lon="13.36">
        <ele>26.09</ele>
        <time>2018-04-21T18:03:45Z</time>
      </trkpt>
      <trkpt lat="38.12085" lon="13.35999">
        <ele>27.53</ele>
        <time>2018-04-21T18:04:14Z</time>
      </trkpt>
      <trkpt lat="38.12086" lon="13.35999">
        <ele>28.02</ele>
        <time>2018-04-21T18:04:45Z</time>
      </trkpt>
      <trkpt lat="38.12084" lon="13.35999">
        <ele>28.98</ele>
        <time>2018-04-21T18:05:13Z</time>
      </trkpt>
      <trkpt lat="38.12084" lon="13.35999">
        <ele>28.98</ele>
        <time>2018-04-21T18:05:41Z</time>
      </trkpt>
      <trkpt lat="38.12084" lon="13.35999">
        <ele>30.9</ele>
        <time>2018-04-21T18:06:11Z</time>
      </trkpt>
      <trkpt lat="38.12084" lon="13.35998">
        <ele>32.34</ele>
        <time>2018-04-21T18:06:43Z</time>
      </trkpt>
      <trkpt lat="38.12084" lon="13.35998">
        <ele>32.34</ele>
        <time>2018-04-21T18:06:58Z</time>
      </trkpt>
      <trkpt lat="38.12084" lon="13.35999">
        <ele>32.34</ele>
        <time>2018-04-21T18:07:14Z</time>
      </trkpt>
      <trkpt lat="38.12084" lon="13.36">
        <ele>32.34</ele>
        <time>2018-04-21T18:07:20Z</time>
      </trkpt>
      <trkpt lat="38.12082" lon="13.36002">
        <ele>31.86</ele>
        <time>2018-04-21T18:07:23Z</time>
      </trkpt>
      <trkpt lat="38.12079" lon="13.36004">
        <ele>31.86</ele>
        <time>2018-04-21T18:07:29Z</time>
      </trkpt>
      <trkpt lat="38.12073" lon="13.3601">
        <ele>29.46</ele>
        <time>2018-04-21T18:07:41Z</time>
      </trkpt>
      <trkpt lat="38.12065" lon="13.36015">
        <ele>29.46</ele>
        <time>2018-04-21T18:07:56Z</time>
      </trkpt>
      <trkpt lat="38.12055" lon="13.3602">
        <ele>29.46</ele>
        <time>2018-04-21T18:08:11Z</time>
      </trkpt>
      <trkpt lat="38.12045" lon="13.36018">
        <ele>30.42</ele>
        <time>2018-04-21T18:08:26Z</time>
      </trkpt>
      <trkpt lat="38.12035" lon="13.36023">
        <ele>32.34</ele>
        <time>2018-04-21T18:08:41Z</time>
      </trkpt>
      <trkpt lat="38.12029" lon="13.36033">
        <ele>34.26</ele>
        <time>2018-04-21T18:08:55Z</time>
      </trkpt>
      <trkpt lat="38.12019" lon="13.36029">
        <ele>34.74</ele>
        <time>2018-04-21T18:09:09Z</time>
      </trkpt>
      <trkpt lat="38.1201" lon="13.36025">
        <ele>39.55</ele>
        <time>2018-04-21T18:09:23Z</time>
      </trkpt>
      <trkpt lat="38.12006" lon="13.36019">
        <ele>46.28</ele>
        <time>2018-04-21T18:09:35Z</time>
      </trkpt>
      <trkpt lat="38.11994" lon="13.36024">
        <ele>52.05</ele>
        <time>2018-04-21T18:09:50Z</time>
      </trkpt>
      <trkpt lat="38.11981" lon="13.36032">
        <ele>54.93</ele>
        <time>2018-04-21T18:10:05Z</time>
      </trkpt>
      <trkpt lat="38.11969" lon="13.36032">
        <ele>58.78</ele>
        <time>2018-04-21T18:10:18Z</time>
      </trkpt>
      <trkpt lat="38.1196" lon="13.3604">
        <ele>51.09</ele>
        <time>2018-04-21T18:10:30Z</time>
      </trkpt>
      <trkpt lat="38.11959" lon="13.36035">
        <ele>52.05</ele>
        <time>2018-04-21T18:10:37Z</time>
      </trkpt>
      <trkpt lat="38.11964" lon="13.36042">
        <ele>64.55</ele>
        <time>2018-04-21T18:10:47Z</time>
      </trkpt>
      <trkpt lat="38.1197" lon="13.3605">
        <ele>74.64</ele>
        <time>2018-04-21T18:11:00Z</time>
      </trkpt>
      <trkpt lat="38.11973" lon="13.36054">
        <ele>82.33</ele>
        <time>2018-04-21T18:11:10Z</time>
      </trkpt>
      <trkpt lat="38.11973" lon="13.36069">
        <ele>92.42</ele>
        <time>2018-04-21T18:11:26Z</time>
      </trkpt>
      <trkpt lat="38.11975" lon="13.36073">
        <ele>94.35</ele>
        <time>2018-04-21T18:11:42Z</time>
      </trkpt>
      <trkpt lat="38.11983" lon="13.3609">
        <ele>101.56</ele>
        <time>2018-04-21T18:11:57Z</time>
      </trkpt>
      <trkpt lat="38.11988" lon="13.36093">
        <ele>95.31</ele>
        <time>2018-04-21T18:12:13Z</time>
      </trkpt>
      <trkpt lat="38.11987" lon="13.36091">
        <ele>87.62</ele>
        <time>2018-04-21T18:12:27Z</time>
      </trkpt>
      <trkpt lat="38.11988" lon="13.36095">
        <ele>89.06</ele>
        <time>2018-04-21T18:12:44Z</time>
      </trkpt>
      <trkpt lat="38.11984" lon="13.36101">
        <ele>89.54</ele>
        <time>2018-04-21T18:12:59Z</time>
      </trkpt>
      <trkpt lat="38.1198" lon="13.36115">
        <ele>84.25</ele>
        <time>2018-04-21T18:13:11Z</time>
      </trkpt>
      <trkpt lat="38.11978" lon="13.36113">
        <ele>84.25</ele>
        <time>2018-04-21T18:13:17Z</time>
      </trkpt>
      <trkpt lat="38.11976" lon="13.36112">
        <ele>84.73</ele>
        <time>2018-04-21T18:13:19Z</time>
      </trkpt>
      <trkpt lat="38.11946" lon="13.36097">
        <ele>86.18</ele>
        <time>2018-04-21T18:13:35Z</time>
      </trkpt>
      <trkpt lat="38.1194" lon="13.36101">
        <ele>83.29</ele>
        <time>2018-04-21T18:13:39Z</time>
      </trkpt>
      <trkpt lat="38.1194" lon="13.36146">
        <ele>74.16</ele>
        <time>2018-04-21T18:13:53Z</time>
      </trkpt>
      <trkpt lat="38.11936" lon="13.36159">
        <ele>67.91</ele>
        <time>2018-04-21T18:14:01Z</time>
      </trkpt>
      <trkpt lat="38.11933" lon="13.3619">
        <ele>64.55</ele>
        <time>2018-04-21T18:14:16Z</time>
      </trkpt>
      <trkpt lat="38.11933" lon="13.36199">
        <ele>61.18</ele>
        <time>2018-04-21T18:14:20Z</time>
      </trkpt>
      <trkpt lat="38.11929" lon="13.36212">
        <ele>56.86</ele>
        <time>2018-04-21T18:14:32Z</time>
      </trkpt>
      <trkpt lat="38.11924" lon="13.36224">
        <ele>56.37</ele>
        <time>2018-04-21T18:14:45Z</time>
      </trkpt>
      <trkpt lat="38.11914" lon="13.36234">
        <ele>48.68</ele>
        <time>2018-04-21T18:15:02Z</time>
      </trkpt>
      <trkpt lat="38.11911" lon="13.36236">
        <ele>47.72</ele>
        <time>2018-04-21T18:15:13Z</time>
      </trkpt>
      <trkpt lat="38.11909" lon="13.36239">
        <ele>46.76</ele>
        <time>2018-04-21T18:15:18Z</time>
      </trkpt>
      <trkpt lat="38.11906" lon="13.36245">
        <ele>48.68</ele>
        <time>2018-04-21T18:15:23Z</time>
      </trkpt>
      <trkpt lat="38.11903" lon="13.36256">
        <ele>59.74</ele>
        <time>2018-04-21T18:15:35Z</time>
      </trkpt>
      <trkpt lat="38.11903" lon="13.3626">
        <ele>65.51</ele>
        <time>2018-04-21T18:15:39Z</time>
      </trkpt>
      <trkpt lat="38.11896" lon="13.36273">
        <ele>87.14</ele>
        <time>2018-04-21T18:15:53Z</time>
      </trkpt>
      <trkpt lat="38.11894" lon="13.36277">
        <ele>106.84</ele>
        <time>2018-04-21T18:16:10Z</time>
      </trkpt>
      <trkpt lat="38.11895" lon="13.36272">
        <ele>104.44</ele>
        <time>2018-04-21T18:16:24Z</time>
      </trkpt>
      <trkpt lat="38.11895" lon="13.36274">
        <ele>104.44</ele>
        <time>2018-04-21T18:16:35Z</time>
      </trkpt>
      <trkpt lat="38.11893" lon="13.36285">
        <ele>108.29</ele>
        <time>2018-04-21T18:16:47Z</time>
      </trkpt>
      <trkpt lat="38.119" lon="13.36307">
        <ele>113.09</ele>
        <time>2018-04-21T18:16:59Z</time>
      </trkpt>
      <trkpt lat="38.11904" lon="13.36321">
        <ele>113.09</ele>
        <time>2018-04-21T18:17:07Z</time>
      </trkpt>
      <trkpt lat="38.11907" lon="13.36337">
        <ele>113.09</ele>
        <time>2018-04-21T18:17:20Z</time>
      </trkpt>
      <trkpt lat="38.11903" lon="13.36347">
        <ele>114.53</ele>
        <time>2018-04-21T18:17:38Z</time>
      </trkpt>
      <trkpt lat="38.11907" lon="13.36358">
        <ele>115.98</ele>
        <time>2018-04-21T18:17:50Z</time>
      </trkpt>
      <trkpt lat="38.11901" lon="13.36398">
        <ele>111.65</ele>
        <time>2018-04-21T18:18:05Z</time>
      </trkpt>
      <trkpt lat="38.11921" lon="13.36432">
        <ele>109.25</ele>
        <time>2018-04-21T18:18:20Z</time>
      </trkpt>
      <trkpt lat="38.11923" lon="13.36441">
        <ele>106.84</ele>
        <time>2018-04-21T18:18:33Z</time>
      </trkpt>
      <trkpt lat="38.1192" lon="13.36444">
        <ele>104.92</ele>
        <time>2018-04-21T18:18:46Z</time>
      </trkpt>
      <trkpt lat="38.11925" lon="13.36463">
        <ele>103</ele>
        <time>2018-04-21T18:18:59Z</time>
      </trkpt>
      <trkpt lat="38.11925" lon="13.3647">
        <ele>102.04</ele>
        <time>2018-04-21T18:19:06Z</time>
      </trkpt>
      <trkpt lat="38.11925" lon="13.36492">
        <ele>100.6</ele>
        <time>2018-04-21T18:19:17Z</time>
      </trkpt>
      <trkpt lat="38.11931" lon="13.36512">
        <ele>99.63</ele>
        <time>2018-04-21T18:19:30Z</time>
      </trkpt>
      <trkpt lat="38.1193" lon="13.36516">
        <ele>99.63</ele>
        <time>2018-04-21T18:19:33Z</time>
      </trkpt>
      <trkpt lat="38.11955" lon="13.36527">
        <ele>42.92</ele>
        <time>2018-04-21T18:19:48Z</time>
      </trkpt>
      <trkpt lat="38.11954" lon="13.36543">
        <ele>40.51</ele>
        <time>2018-04-21T18:20:02Z</time>
      </trkpt>
      <trkpt lat="38.11959" lon="13.3656">
        <ele>40.99</ele>
        <time>2018-04-21T18:20:17Z</time>
      </trkpt>
      <trkpt lat="38.1196" lon="13.36573">
        <ele>43.88</ele>
        <time>2018-04-21T18:20:28Z</time>
      </trkpt>
      <trkpt lat="38.11957" lon="13.36585">
        <ele>48.68</ele>
        <time>2018-04-21T18:20:40Z</time>
      </trkpt>
      <trkpt lat="38.11962" lon="13.36582">
        <ele>47.72</ele>
        <time>2018-04-21T18:20:52Z</time>
      </trkpt>
      <trkpt lat="38.11968" lon="13.36583">
        <ele>50.61</ele>
        <time>2018-04-21T18:21:04Z</time>
      </trkpt>
      <trkpt lat="38.11976" lon="13.36595">
        <ele>52.05</ele>
        <time>2018-04-21T18:21:18Z</time>
      </trkpt>
      <trkpt lat="38.11979" lon="13.366">
        <ele>52.05</ele>
        <time>2018-04-21T18:21:33Z</time>
      </trkpt>
      <trkpt lat="38.11993" lon="13.36615">
        <ele>51.57</ele>
        <time>2018-04-21T18:21:47Z</time>
      </trkpt>
      <trkpt lat="38.12011" lon="13.36632">
        <ele>49.65</ele>
        <time>2018-04-21T18:22:01Z</time>
      </trkpt>
      <trkpt lat="38.12015" lon="13.36639">
        <ele>48.68</ele>
        <time>2018-04-21T18:22:13Z</time>
      </trkpt>
      <trkpt lat="38.12011" lon="13.36648">
        <ele>32.82</ele>
        <time>2018-04-21T18:22:28Z</time>
      </trkpt>
      <trkpt lat="38.12006" lon="13.36644">
        <ele>26.57</ele>
        <time>2018-04-21T18:22:42Z</time>
      </trkpt>
      <trkpt lat="38.12005" lon="13.36645">
        <ele>26.09</ele>
        <time>2018-04-21T18:22:43Z</time>
      </trkpt>
      <trkpt lat="38.11993" lon="13.36652">
        <ele>21.29</ele>
        <time>2018-04-21T18:22:58Z</time>
      </trkpt>
      <trkpt lat="38.11979" lon="13.36655">
        <ele>20.32</ele>
        <time>2018-04-21T18:23:13Z</time>
      </trkpt>
      <trkpt lat="38.1197" lon="13.36657">
        <ele>20.32</ele>
        <time>2018-04-21T18:23:23Z</time>
      </trkpt>
      <trkpt lat="38.11965" lon="13.36658">
        <ele>19.84</ele>
        <time>2018-04-21T18:23:35Z</time>
      </trkpt>
      <trkpt lat="38.11958" lon="13.36659">
        <ele>19.84</ele>
        <time>2018-04-21T18:23:44Z</time>
      </trkpt>
      <trkpt lat="38.11947" lon="13.36663">
        <ele>19.36</ele>
        <time>2018-04-21T18:23:56Z</time>
      </trkpt>
      <trkpt lat="38.11941" lon="13.36664">
        <ele>19.36</ele>
        <time>2018-04-21T18:24:07Z</time>
      </trkpt>
      <trkpt lat="38.11927" lon="13.36669">
        <ele>18.4</ele>
        <time>2018-04-21T18:24:19Z</time>
      </trkpt>
      <trkpt lat="38.11925" lon="13.36674">
        <ele>15.52</ele>
        <time>2018-04-21T18:24:33Z</time>
      </trkpt>
      <trkpt lat="38.11926" lon="13.36675">
        <ele>16</ele>
        <time>2018-04-21T18:24:44Z</time>
      </trkpt>
      <trkpt lat="38.11927" lon="13.36678">
        <ele>17.92</ele>
        <time>2018-04-21T18:24:47Z</time>
      </trkpt>
      <trkpt lat="38.11928" lon="13.36682">
        <ele>19.84</ele>
        <time>2018-04-21T18:24:50Z</time>
      </trkpt>
      <trkpt lat="38.11925" lon="13.36704">
        <ele>14.56</ele>
        <time>2018-04-21T18:25:02Z</time>
      </trkpt>
      <trkpt lat="38.11921" lon="13.36712">
        <ele>11.67</ele>
        <time>2018-04-21T18:25:13Z</time>
      </trkpt>
      <trkpt lat="38.11915" lon="13.36722">
        <ele>10.23</ele>
        <time>2018-04-21T18:25:27Z</time>
      </trkpt>
      <trkpt lat="38.11912" lon="13.36731">
        <ele>11.67</ele>
        <time>2018-04-21T18:25:42Z</time>
      </trkpt>
      <trkpt lat="38.11908" lon="13.3674">
        <ele>11.19</ele>
        <time>2018-04-21T18:25:57Z</time>
      </trkpt>
      <trkpt lat="38.11907" lon="13.36739">
        <ele>12.15</ele>
        <time>2018-04-21T18:26:14Z</time>
      </trkpt>
      <trkpt lat="38.11908" lon="13.3674">
        <ele>12.15</ele>
        <time>2018-04-21T18:26:28Z</time>
      </trkpt>
      <trkpt lat="38.11908" lon="13.36739">
        <ele>11.67</ele>
        <time>2018-04-21T18:26:45Z</time>
      </trkpt>
      <trkpt lat="38.11907" lon="13.36739">
        <ele>12.15</ele>
        <time>2018-04-21T18:27:09Z</time>
      </trkpt>
      <trkpt lat="38.11907" lon="13.36739">
        <ele>11.67</ele>
        <time>2018-04-21T18:27:32Z</time>
      </trkpt>
      <trkpt lat="38.11906" lon="13.36738">
        <ele>11.67</ele>
        <time>2018-04-21T18:27:50Z</time>
      </trkpt>
      <trkpt lat="38.11904" lon="13.3674">
        <ele>11.19</ele>
        <time>2018-04-21T18:28:11Z</time>
      </trkpt>
      <trkpt lat="38.11901" lon="13.36745">
        <ele>11.67</ele>
        <time>2018-04-21T18:28:25Z</time>
      </trkpt>
      <trkpt lat="38.11901" lon="13.3675">
        <ele>12.15</ele>
        <time>2018-04-21T18:28:38Z</time>
      </trkpt>
      <trkpt lat="38.119" lon="13.36764">
        <ele>13.12</ele>
        <time>2018-04-21T18:28:52Z</time>
      </trkpt>
      <trkpt lat="38.11898" lon="13.36778">
        <ele>13.12</ele>
        <time>2018-04-21T18:29:08Z</time>
      </trkpt>
      <trkpt lat="38.11898" lon="13.36781">
        <ele>12.63</ele>
        <time>2018-04-21T18:29:23Z</time>
      </trkpt>
      <trkpt lat="38.11898" lon="13.36795">
        <ele>12.63</ele>
        <time>2018-04-21T18:29:37Z</time>
      </trkpt>
      <trkpt lat="38.11899" lon="13.36805">
        <ele>12.63</ele>
        <time>2018-04-21T18:29:49Z</time>
      </trkpt>
      <trkpt lat="38.11902" lon="13.36814">
        <ele>13.6</ele>
        <time>2018-04-21T18:30:04Z</time>
      </trkpt>
      <trkpt lat="38.11906" lon="13.36826">
        <ele>13.6</ele>
        <time>2018-04-21T18:30:17Z</time>
      </trkpt>
      <trkpt lat="38.11907" lon="13.36836">
        <ele>13.6</ele>
        <time>2018-04-21T18:30:30Z</time>
      </trkpt>
      <trkpt lat="38.11913" lon="13.36847">
        <ele>14.56</ele>
        <time>2018-04-21T18:30:45Z</time>
      </trkpt>
      <trkpt lat="38.1192" lon="13.36856">
        <ele>14.56</ele>
        <time>2018-04-21T18:31:00Z</time>
      </trkpt>
      <trkpt lat="38.11922" lon="13.36858">
        <ele>12.15</ele>
        <time>2018-04-21T18:31:17Z</time>
      </trkpt>
      <trkpt lat="38.11924" lon="13.36859">
        <ele>10.71</ele>
        <time>2018-04-21T18:31:33Z</time>
      </trkpt>
      <trkpt lat="38.11926" lon="13.3686">
        <ele>9.75</ele>
        <time>2018-04-21T18:31:47Z</time>
      </trkpt>
      <trkpt lat="38.11929" lon="13.36859">
        <ele>7.83</ele>
        <time>2018-04-21T18:32:03Z</time>
      </trkpt>
      <trkpt lat="38.11933" lon="13.36864">
        <ele>6.39</ele>
        <time>2018-04-21T18:32:14Z</time>
      </trkpt>
      <trkpt lat="38.11937" lon="13.36866">
        <ele>5.42</ele>
        <time>2018-04-21T18:32:29Z</time>
      </trkpt>
      <trkpt lat="38.11939" lon="13.36868">
        <ele>4.46</ele>
        <time>2018-04-21T18:32:41Z</time>
      </trkpt>
      <trkpt lat="38.11943" lon="13.36875">
        <ele>6.87</ele>
        <time>2018-04-21T18:33:04Z</time>
      </trkpt>
      <trkpt lat="38.11947" lon="13.36879">
        <ele>7.35</ele>
        <time>2018-04-21T18:33:23Z</time>
      </trkpt>
      <trkpt lat="38.11952" lon="13.36885">
        <ele>7.83</ele>
        <time>2018-04-21T18:33:39Z</time>
      </trkpt>
      <trkpt lat="38.11955" lon="13.3689">
        <ele>9.75</ele>
        <time>2018-04-21T18:34:11Z</time>
      </trkpt>
      <trkpt lat="38.11959" lon="13.36895">
        <ele>7.83</ele>
        <time>2018-04-21T18:34:42Z</time>
      </trkpt>
      <trkpt lat="38.1196" lon="13.36897">
        <ele>6.87</ele>
        <time>2018-04-21T18:35:05Z</time>
      </trkpt>
      <trkpt lat="38.11961" lon="13.36898">
        <ele>6.87</ele>
        <time>2018-04-21T18:35:19Z</time>
      </trkpt>
      <trkpt lat="38.11963" lon="13.36902">
        <ele>6.39</ele>
        <time>2018-04-21T18:35:35Z</time>
      </trkpt>
      <trkpt lat="38.11963" lon="13.36903">
        <ele>4.94</ele>
        <time>2018-04-21T18:36:01Z</time>
      </trkpt>
      <trkpt lat="38.11964" lon="13.36904">
        <ele>4.94</ele>
        <time>2018-04-21T18:36:20Z</time>
      </trkpt>
      <trkpt lat="38.11964" lon="13.36904">
        <ele>4.46</ele>
        <time>2018-04-21T18:36:32Z</time>
      </trkpt>
      <trkpt lat="38.11964" lon="13.36905">
        <ele>4.46</ele>
        <time>2018-04-21T18:37:05Z</time>
      </trkpt>
      <trkpt lat="38.11964" lon="13.36905">
        <ele>4.46</ele>
        <time>2018-04-21T18:37:25Z</time>
      </trkpt>
      <trkpt lat="38.11959" lon="13.36902">
        <ele>4.94</ele>
        <time>2018-04-21T18:37:37Z</time>
      </trkpt>
      <trkpt lat="38.11956" lon="13.36903">
        <ele>6.87</ele>
        <time>2018-04-21T18:37:57Z</time>
      </trkpt>
      <trkpt lat="38.11958" lon="13.36904">
        <ele>7.35</ele>
        <time>2018-04-21T18:38:12Z</time>
      </trkpt>
      <trkpt lat="38.11959" lon="13.36918">
        <ele>8.31</ele>
        <time>2018-04-21T18:38:26Z</time>
      </trkpt>
      <trkpt lat="38.11959" lon="13.36921">
        <ele>8.31</ele>
        <time>2018-04-21T18:38:43Z</time>
      </trkpt>
      <trkpt lat="38.11958" lon="13.3692">
        <ele>8.31</ele>
        <time>2018-04-21T18:39:02Z</time>
      </trkpt>
      <trkpt lat="38.11951" lon="13.36915">
        <ele>7.35</ele>
        <time>2018-04-21T18:39:21Z</time>
      </trkpt>
      <trkpt lat="38.11943" lon="13.36907">
        <ele>8.79</ele>
        <time>2018-04-21T18:39:33Z</time>
      </trkpt>
      <trkpt lat="38.11937" lon="13.369">
        <ele>10.23</ele>
        <time>2018-04-21T18:39:45Z</time>
      </trkpt>
      <trkpt lat="38.11937" lon="13.369">
        <ele>9.27</ele>
        <time>2018-04-21T18:40:05Z</time>
      </trkpt>
      <trkpt lat="38.11937" lon="13.36898">
        <ele>10.71</ele>
        <time>2018-04-21T18:40:31Z</time>
      </trkpt>
      <trkpt lat="38.11937" lon="13.36898">
        <ele>11.19</ele>
        <time>2018-04-21T18:40:34Z</time>
      </trkpt>
      <trkpt lat="38.11926" lon="13.36905">
        <ele>14.56</ele>
        <time>2018-04-21T18:40:50Z</time>
      </trkpt>
      <trkpt lat="38.11919" lon="13.36914">
        <ele>14.08</ele>
        <time>2018-04-21T18:41:05Z</time>
      </trkpt>
      <trkpt lat="38.11907" lon="13.36921">
        <ele>14.56</ele>
        <time>2018-04-21T18:41:19Z</time>
      </trkpt>
      <trkpt lat="38.11906" lon="13.36922">
        <ele>14.56</ele>
        <time>2018-04-21T18:41:20Z</time>
      </trkpt>
      <trkpt lat="38.11896" lon="13.36927">
        <ele>14.56</ele>
        <time>2018-04-21T18:41:36Z</time>
      </trkpt>
      <trkpt lat="38.11887" lon="13.36935">
        <ele>11.19</ele>
        <time>2018-04-21T18:41:51Z</time>
      </trkpt>
      <trkpt lat="38.11883" lon="13.36938">
        <ele>12.15</ele>
        <time>2018-04-21T18:42:04Z</time>
      </trkpt>
      <trkpt lat="38.11868" lon="13.36941">
        <ele>12.63</ele>
        <time>2018-04-21T18:42:22Z</time>
      </trkpt>
      <trkpt lat="38.11852" lon="13.36939">
        <ele>14.08</ele>
        <time>2018-04-21T18:42:37Z</time>
      </trkpt>
      <trkpt lat="38.11838" lon="13.36942">
        <ele>18.4</ele>
        <time>2018-04-21T18:42:51Z</time>
      </trkpt>
      <trkpt lat="38.11829" lon="13.36944">
        <ele>20.32</ele>
        <time>2018-04-21T18:43:03Z</time>
      </trkpt>
      <trkpt lat="38.11819" lon="13.36953">
        <ele>22.73</ele>
        <time>2018-04-21T18:43:17Z</time>
      </trkpt>
      <trkpt lat="38.11807" lon="13.36965">
        <ele>24.17</ele>
        <time>2018-04-21T18:43:30Z</time>
      </trkpt>
      <trkpt lat="38.11799" lon="13.3697">
        <ele>25.61</ele>
        <time>2018-04-21T18:43:41Z</time>
      </trkpt>
      <trkpt lat="38.11793" lon="13.36976">
        <ele>28.02</ele>
        <time>2018-04-21T18:43:54Z</time>
      </trkpt>
      <trkpt lat="38.11781" lon="13.36977">
        <ele>22.25</ele>
        <time>2018-04-21T18:44:10Z</time>
      </trkpt>
      <trkpt lat="38.11761" lon="13.36977">
        <ele>21.29</ele>
        <time>2018-04-21T18:44:18Z</time>
      </trkpt>
      <trkpt lat="38.11739" lon="13.36982">
        <ele>23.69</ele>
        <time>2018-04-21T18:44:35Z</time>
      </trkpt>
      <trkpt lat="38.11728" lon="13.36993">
        <ele>25.13</ele>
        <time>2018-04-21T18:44:51Z</time>
      </trkpt>
      <trkpt lat="38.11715" lon="13.36994">
        <ele>25.13</ele>
        <time>2018-04-21T18:45:05Z</time>
      </trkpt>
      <trkpt lat="38.11703" lon="13.37003">
        <ele>25.61</ele>
        <time>2018-04-21T18:45:19Z</time>
      </trkpt>
      <trkpt lat="38.1169" lon="13.37008">
        <ele>29.46</ele>
        <time>2018-04-21T18:45:34Z</time>
      </trkpt>
      <trkpt lat="38.11689" lon="13.37008">
        <ele>29.94</ele>
        <time>2018-04-21T18:45:36Z</time>
      </trkpt>
      <trkpt lat="38.11685" lon="13.37012">
        <ele>31.38</ele>
        <time>2018-04-21T18:45:40Z</time>
      </trkpt>
      <trkpt lat="38.11675" lon="13.37017">
        <ele>35.23</ele>
        <time>2018-04-21T18:45:56Z</time>
      </trkpt>
      <trkpt lat="38.11668" lon="13.37022">
        <ele>37.63</ele>
        <time>2018-04-21T18:46:05Z</time>
      </trkpt>
      <trkpt lat="38.1165" lon="13.37033">
        <ele>28.02</ele>
        <time>2018-04-21T18:46:20Z</time>
      </trkpt>
      <trkpt lat="38.11641" lon="13.37014">
        <ele>24.65</ele>
        <time>2018-04-21T18:46:35Z</time>
      </trkpt>
      <trkpt lat="38.11635" lon="13.36992">
        <ele>24.17</ele>
        <time>2018-04-21T18:46:52Z</time>
      </trkpt>
      <trkpt lat="38.1163" lon="13.36982">
        <ele>26.09</ele>
        <time>2018-04-21T18:47:05Z</time>
      </trkpt>
      <trkpt lat="38.1163" lon="13.36979">
        <ele>25.13</ele>
        <time>2018-04-21T18:47:19Z</time>
      </trkpt>
      <trkpt lat="38.11629" lon="13.36977">
        <ele>24.65</ele>
        <time>2018-04-21T18:47:26Z</time>
      </trkpt>
      <trkpt lat="38.11621" lon="13.36969">
        <ele>26.57</ele>
        <time>2018-04-21T18:47:39Z</time>
      </trkpt>
      <trkpt lat="38.11615" lon="13.36945">
        <ele>33.78</ele>
        <time>2018-04-21T18:47:57Z</time>
      </trkpt>
      <trkpt lat="38.11605" lon="13.36933">
        <ele>39.07</ele>
        <time>2018-04-21T18:48:09Z</time>
      </trkpt>
      <trkpt lat="38.11604" lon="13.36922">
        <ele>40.03</ele>
        <time>2018-04-21T18:48:22Z</time>
      </trkpt>
      <trkpt lat="38.116" lon="13.36915">
        <ele>40.51</ele>
        <time>2018-04-21T18:48:29Z</time>
      </trkpt>
      <trkpt lat="38.11591" lon="13.36902">
        <ele>45.32</ele>
        <time>2018-04-21T18:48:47Z</time>
      </trkpt>
      <trkpt lat="38.11581" lon="13.36883">
        <ele>47.72</ele>
        <time>2018-04-21T18:49:07Z</time>
      </trkpt>
      <trkpt lat="38.11574" lon="13.36861">
        <ele>54.45</ele>
        <time>2018-04-21T18:49:24Z</time>
      </trkpt>
      <trkpt lat="38.11564" lon="13.36845">
        <ele>53.49</ele>
        <time>2018-04-21T18:49:41Z</time>
      </trkpt>
      <trkpt lat="38.11559" lon="13.36836">
        <ele>52.05</ele>
        <time>2018-04-21T18:50:01Z</time>
      </trkpt>
      <trkpt lat="38.11556" lon="13.36833">
        <ele>48.68</ele>
        <time>2018-04-21T18:50:05Z</time>
      </trkpt>
      <trkpt lat="38.11545" lon="13.36812">
        <ele>40.03</ele>
        <time>2018-04-21T18:50:22Z</time>
      </trkpt>
      <trkpt lat="38.11539" lon="13.36794">
        <ele>36.19</ele>
        <time>2018-04-21T18:50:43Z</time>
      </trkpt>
      <trkpt lat="38.11531" lon="13.36766">
        <ele>34.74</ele>
        <time>2018-04-21T18:50:59Z</time>
      </trkpt>
      <trkpt lat="38.11521" lon="13.36749">
        <ele>29.46</ele>
        <time>2018-04-21T18:51:13Z</time>
      </trkpt>
      <trkpt lat="38.11517" lon="13.36742">
        <ele>28.98</ele>
        <time>2018-04-21T18:51:23Z</time>
      </trkpt>
      <trkpt lat="38.11513" lon="13.36725">
        <ele>31.86</ele>
        <time>2018-04-21T18:51:40Z</time>
      </trkpt>
      <trkpt lat="38.11509" lon="13.36706">
        <ele>35.23</ele>
        <time>2018-04-21T18:51:55Z</time>
      </trkpt>
      <trkpt lat="38.11505" lon="13.36688">
        <ele>38.59</ele>
        <time>2018-04-21T18:52:10Z</time>
      </trkpt>
      <trkpt lat="38.11506" lon="13.36681">
        <ele>40.99</ele>
        <time>2018-04-21T18:52:24Z</time>
      </trkpt>
      <trkpt lat="38.11503" lon="13.36673">
        <ele>35.23</ele>
        <time>2018-04-21T18:52:50Z</time>
      </trkpt>
      <trkpt lat="38.11496" lon="13.36668">
        <ele>34.26</ele>
        <time>2018-04-21T18:53:04Z</time>
      </trkpt>
      <trkpt lat="38.11471" lon="13.36665">
        <ele>32.34</ele>
        <time>2018-04-21T18:53:22Z</time>
      </trkpt>
      <trkpt lat="38.11466" lon="13.36664">
        <ele>31.86</ele>
        <time>2018-04-21T18:53:27Z</time>
      </trkpt>
      <trkpt lat="38.11457" lon="13.36669">
        <ele>32.34</ele>
        <time>2018-04-21T18:53:39Z</time>
      </trkpt>
      <trkpt lat="38.11446" lon="13.36662">
        <ele>31.86</ele>
        <time>2018-04-21T18:53:51Z</time>
      </trkpt>
      <trkpt lat="38.11436" lon="13.3666">
        <ele>31.38</ele>
        <time>2018-04-21T18:54:01Z</time>
      </trkpt>
      <trkpt lat="38.11422" lon="13.36668">
        <ele>28.02</ele>
        <time>2018-04-21T18:54:13Z</time>
      </trkpt>
      <trkpt lat="38.11417" lon="13.36667">
        <ele>25.61</ele>
        <time>2018-04-21T18:54:24Z</time>
      </trkpt>
      <trkpt lat="38.11417" lon="13.36666">
        <ele>23.69</ele>
        <time>2018-04-21T18:54:37Z</time>
      </trkpt>
      <trkpt lat="38.11415" lon="13.36668">
        <ele>22.25</ele>
        <time>2018-04-21T18:54:45Z</time>
      </trkpt>
      <trkpt lat="38.11418" lon="13.36663">
        <ele>19.36</ele>
        <time>2018-04-21T18:54:53Z</time>
      </trkpt>
      <trkpt lat="38.11405" lon="13.36687">
        <ele>16.96</ele>
        <time>2018-04-21T19:07:15Z</time>
      </trkpt>
      <trkpt lat="38.11411" lon="13.36669">
        <ele>29.46</ele>
        <time>2018-04-21T19:07:24Z</time>
      </trkpt>
      <trkpt lat="38.11409" lon="13.36664">
        <ele>32.82</ele>
        <time>2018-04-21T19:07:34Z</time>
      </trkpt>
      <trkpt lat="38.11405" lon="13.3667">
        <ele>29.46</ele>
        <time>2018-04-21T19:07:47Z</time>
      </trkpt>
      <trkpt lat="38.11404" lon="13.3667">
        <ele>29.94</ele>
        <time>2018-04-21T19:07:48Z</time>
      </trkpt>
      <trkpt lat="38.11395" lon="13.36673">
        <ele>30.9</ele>
        <time>2018-04-21T19:07:59Z</time>
      </trkpt>
      <trkpt lat="38.11388" lon="13.36673">
        <ele>31.86</ele>
        <time>2018-04-21T19:08:06Z</time>
      </trkpt>
      <trkpt lat="38.11376" lon="13.36674">
        <ele>38.11</ele>
        <time>2018-04-21T19:08:18Z</time>
      </trkpt>
      <trkpt lat="38.11362" lon="13.36673">
        <ele>31.86</ele>
        <time>2018-04-21T19:08:33Z</time>
      </trkpt>
      <trkpt lat="38.11359" lon="13.36679">
        <ele>29.94</ele>
        <time>2018-04-21T19:08:39Z</time>
      </trkpt>
      <trkpt lat="38.11346" lon="13.36678">
        <ele>29.94</ele>
        <time>2018-04-21T19:08:51Z</time>
      </trkpt>
      <trkpt lat="38.11334" lon="13.36685">
        <ele>26.09</ele>
        <time>2018-04-21T19:09:03Z</time>
      </trkpt>
      <trkpt lat="38.1133" lon="13.36689">
        <ele>25.13</ele>
        <time>2018-04-21T19:09:06Z</time>
      </trkpt>
      <trkpt lat="38.11314" lon="13.36695">
        <ele>23.21</ele>
        <time>2018-04-21T19:09:21Z</time>
      </trkpt>
      <trkpt lat="38.11312" lon="13.36699">
        <ele>24.17</ele>
        <time>2018-04-21T19:09:24Z</time>
      </trkpt>
      <trkpt lat="38.11295" lon="13.36708">
        <ele>24.17</ele>
        <time>2018-04-21T19:09:39Z</time>
      </trkpt>
      <trkpt lat="38.11287" lon="13.36712">
        <ele>23.21</ele>
        <time>2018-04-21T19:09:49Z</time>
      </trkpt>
      <trkpt lat="38.11279" lon="13.36719">
        <ele>21.29</ele>
        <time>2018-04-21T19:10:04Z</time>
      </trkpt>
      <trkpt lat="38.11279" lon="13.36725">
        <ele>20.81</ele>
        <time>2018-04-21T19:10:07Z</time>
      </trkpt>
      <trkpt lat="38.11264" lon="13.36728">
        <ele>24.65</ele>
        <time>2018-04-21T19:10:21Z</time>
      </trkpt>
      <trkpt lat="38.11242" lon="13.36742">
        <ele>30.42</ele>
        <time>2018-04-21T19:10:36Z</time>
      </trkpt>
      <trkpt lat="38.11228" lon="13.36749">
        <ele>30.9</ele>
        <time>2018-04-21T19:10:51Z</time>
      </trkpt>
      <trkpt lat="38.11215" lon="13.36753">
        <ele>34.26</ele>
        <time>2018-04-21T19:11:05Z</time>
      </trkpt>
      <trkpt lat="38.11205" lon="13.36762">
        <ele>31.38</ele>
        <time>2018-04-21T19:11:16Z</time>
      </trkpt>
      <trkpt lat="38.11194" lon="13.3677">
        <ele>28.98</ele>
        <time>2018-04-21T19:11:30Z</time>
      </trkpt>
      <trkpt lat="38.11186" lon="13.36773">
        <ele>30.9</ele>
        <time>2018-04-21T19:11:43Z</time>
      </trkpt>
      <trkpt lat="38.1117" lon="13.36797">
        <ele>41.47</ele>
        <time>2018-04-21T19:11:58Z</time>
      </trkpt>
      <trkpt lat="38.11162" lon="13.36805">
        <ele>39.55</ele>
        <time>2018-04-21T19:12:13Z</time>
      </trkpt>
      <trkpt lat="38.1116" lon="13.36805">
        <ele>37.63</ele>
        <time>2018-04-21T19:12:32Z</time>
      </trkpt>
      <trkpt lat="38.11154" lon="13.36807">
        <ele>36.67</ele>
        <time>2018-04-21T19:12:48Z</time>
      </trkpt>
      <trkpt lat="38.11151" lon="13.3681">
        <ele>35.71</ele>
        <time>2018-04-21T19:12:59Z</time>
      </trkpt>
      <trkpt lat="38.11145" lon="13.36806">
        <ele>36.19</ele>
        <time>2018-04-21T19:13:09Z</time>
      </trkpt>
      <trkpt lat="38.1113" lon="13.36795">
        <ele>34.74</ele>
        <time>2018-04-21T19:13:22Z</time>
      </trkpt>
      <trkpt lat="38.11125" lon="13.36788">
        <ele>33.3</ele>
        <time>2018-04-21T19:13:30Z</time>
      </trkpt>
      <trkpt lat="38.11123" lon="13.36775">
        <ele>32.34</ele>
        <time>2018-04-21T19:13:42Z</time>
      </trkpt>
      <trkpt lat="38.11119" lon="13.36764">
        <ele>30.9</ele>
        <time>2018-04-21T19:13:52Z</time>
      </trkpt>
      <trkpt lat="38.11116" lon="13.36751">
        <ele>30.42</ele>
        <time>2018-04-21T19:14:02Z</time>
      </trkpt>
      <trkpt lat="38.11114" lon="13.36745">
        <ele>30.42</ele>
        <time>2018-04-21T19:14:09Z</time>
      </trkpt>
      <trkpt lat="38.11107" lon="13.36735">
        <ele>31.38</ele>
        <time>2018-04-21T19:14:16Z</time>
      </trkpt>
      <trkpt lat="38.11097" lon="13.36725">
        <ele>33.3</ele>
        <time>2018-04-21T19:14:29Z</time>
      </trkpt>
      <trkpt lat="38.11096" lon="13.36722">
        <ele>33.78</ele>
        <time>2018-04-21T19:14:31Z</time>
      </trkpt>
      <trkpt lat="38.11097" lon="13.36716">
        <ele>34.26</ele>
        <time>2018-04-21T19:14:35Z</time>
      </trkpt>
      <trkpt lat="38.11094" lon="13.36704">
        <ele>33.78</ele>
        <time>2018-04-21T19:14:44Z</time>
      </trkpt>
      <trkpt lat="38.11085" lon="13.36699">
        <ele>34.26</ele>
        <time>2018-04-21T19:14:51Z</time>
      </trkpt>
      <trkpt lat="38.11087" lon="13.36687">
        <ele>32.82</ele>
        <time>2018-04-21T19:14:57Z</time>
      </trkpt>
      <trkpt lat="38.11067" lon="13.36683">
        <ele>27.05</ele>
        <time>2018-04-21T19:15:10Z</time>
      </trkpt>
      <trkpt lat="38.1105" lon="13.36676">
        <ele>24.17</ele>
        <time>2018-04-21T19:15:25Z</time>
      </trkpt>
      <trkpt lat="38.11039" lon="13.36672">
        <ele>22.73</ele>
        <time>2018-04-21T19:15:37Z</time>
      </trkpt>
      <trkpt lat="38.11035" lon="13.36673">
        <ele>22.73</ele>
        <time>2018-04-21T19:15:49Z</time>
      </trkpt>
      <trkpt lat="38.11028" lon="13.36678">
        <ele>25.61</ele>
        <time>2018-04-21T19:16:04Z</time>
      </trkpt>
      <trkpt lat="38.11026" lon="13.36675">
        <ele>26.09</ele>
        <time>2018-04-21T19:16:08Z</time>
      </trkpt>
      <trkpt lat="38.11016" lon="13.36659">
        <ele>29.46</ele>
        <time>2018-04-21T19:16:24Z</time>
      </trkpt>
      <trkpt lat="38.11012" lon="13.36652">
        <ele>29.46</ele>
        <time>2018-04-21T19:16:30Z</time>
      </trkpt>
      <trkpt lat="38.10993" lon="13.36646">
        <ele>28.5</ele>
        <time>2018-04-21T19:16:39Z</time>
      </trkpt>
      <trkpt lat="38.10991" lon="13.3664">
        <ele>28.98</ele>
        <time>2018-04-21T19:16:43Z</time>
      </trkpt>
      <trkpt lat="38.10985" lon="13.36631">
        <ele>36.19</ele>
        <time>2018-04-21T19:16:58Z</time>
      </trkpt>
      <trkpt lat="38.10984" lon="13.3663">
        <ele>38.59</ele>
        <time>2018-04-21T19:17:04Z</time>
      </trkpt>
      <trkpt lat="38.10987" lon="13.36614">
        <ele>40.03</ele>
        <time>2018-04-21T19:17:11Z</time>
      </trkpt>
      <trkpt lat="38.10977" lon="13.36605">
        <ele>39.55</ele>
        <time>2018-04-21T19:17:19Z</time>
      </trkpt>
      <trkpt lat="38.10974" lon="13.36605">
        <ele>39.55</ele>
        <time>2018-04-21T19:17:21Z</time>
      </trkpt>
      <trkpt lat="38.10968" lon="13.36603">
        <ele>37.15</ele>
        <time>2018-04-21T19:17:26Z</time>
      </trkpt>
      <trkpt lat="38.1096" lon="13.36604">
        <ele>39.55</ele>
        <time>2018-04-21T19:17:34Z</time>
      </trkpt>
      <trkpt lat="38.1095" lon="13.36617">
        <ele>44.84</ele>
        <time>2018-04-21T19:17:49Z</time>
      </trkpt>
      <trkpt lat="38.10942" lon="13.36626">
        <ele>45.8</ele>
        <time>2018-04-21T19:18:02Z</time>
      </trkpt>
      <trkpt lat="38.10928" lon="13.36637">
        <ele>47.24</ele>
        <time>2018-04-21T19:18:16Z</time>
      </trkpt>
      <trkpt lat="38.10921" lon="13.36644">
        <ele>46.76</ele>
        <time>2018-04-21T19:18:27Z</time>
      </trkpt>
      <trkpt lat="38.10905" lon="13.3665">
        <ele>47.72</ele>
        <time>2018-04-21T19:18:39Z</time>
      </trkpt>
      <trkpt lat="38.10899" lon="13.3665">
        <ele>47.72</ele>
        <time>2018-04-21T19:18:44Z</time>
      </trkpt>
      <trkpt lat="38.10887" lon="13.36651">
        <ele>46.28</ele>
        <time>2018-04-21T19:18:53Z</time>
      </trkpt>
      <trkpt lat="38.10881" lon="13.36652">
        <ele>46.28</ele>
        <time>2018-04-21T19:18:58Z</time>
      </trkpt>
      <trkpt lat="38.10863" lon="13.36654">
        <ele>46.76</ele>
        <time>2018-04-21T19:19:10Z</time>
      </trkpt>
      <trkpt lat="38.10855" lon="13.36652">
        <ele>47.24</ele>
        <time>2018-04-21T19:19:17Z</time>
      </trkpt>
      <trkpt lat="38.10851" lon="13.36643">
        <ele>47.24</ele>
        <time>2018-04-21T19:19:22Z</time>
      </trkpt>
      <trkpt lat="38.10843" lon="13.36631">
        <ele>44.84</ele>
        <time>2018-04-21T19:19:35Z</time>
      </trkpt>
      <trkpt lat="38.10851" lon="13.36614">
        <ele>46.76</ele>
        <time>2018-04-21T19:19:49Z</time>
      </trkpt>
      <trkpt lat="38.10853" lon="13.36609">
        <ele>47.72</ele>
        <time>2018-04-21T19:20:08Z</time>
      </trkpt>
      <trkpt lat="38.10854" lon="13.36606">
        <ele>47.72</ele>
        <time>2018-04-21T19:20:24Z</time>
      </trkpt>
      <trkpt lat="38.10854" lon="13.36605">
        <ele>47.24</ele>
        <time>2018-04-21T19:20:45Z</time>
      </trkpt>
      <trkpt lat="38.1084" lon="13.36627">
        <ele>48.68</ele>
        <time>2018-04-21T19:22:35Z</time>
      </trkpt>
      <trkpt lat="38.10836" lon="13.3663">
        <ele>50.13</ele>
        <time>2018-04-21T19:23:03Z</time>
      </trkpt>
      <trkpt lat="38.10836" lon="13.36621">
        <ele>48.68</ele>
        <time>2018-04-21T19:23:32Z</time>
      </trkpt>
      <trkpt lat="38.10842" lon="13.36615">
        <ele>48.2</ele>
        <time>2018-04-21T19:23:53Z</time>
      </trkpt>
    </trkseg>
  </trk>
  <trk>
    <name><![CDATA[Tracé actuel: 22 AVR 2018 09:16]]></name>
    <trkseg>
      <trkpt lat="38.18482" lon="13.1048">
        <ele>-91.67</ele>
        <time>2018-04-22T07:16:49Z</time>
      </trkpt>
      <trkpt lat="38.18497" lon="13.10496">
        <ele>-53.22</ele>
        <time>2018-04-22T07:17:17Z</time>
      </trkpt>
      <trkpt lat="38.18499" lon="13.10495">
        <ele>-14.28</ele>
        <time>2018-04-22T07:17:40Z</time>
      </trkpt>
      <trkpt lat="38.18488" lon="13.10509">
        <ele>-2.27</ele>
        <time>2018-04-22T07:17:59Z</time>
      </trkpt>
      <trkpt lat="38.18485" lon="13.10513">
        <ele>-1.3</ele>
        <time>2018-04-22T07:18:03Z</time>
      </trkpt>
      <trkpt lat="38.18459" lon="13.10537">
        <ele>3.02</ele>
        <time>2018-04-22T07:18:26Z</time>
      </trkpt>
      <trkpt lat="38.18426" lon="13.10534">
        <ele>4.46</ele>
        <time>2018-04-22T07:18:48Z</time>
      </trkpt>
      <trkpt lat="38.18399" lon="13.10516">
        <ele>8.79</ele>
        <time>2018-04-22T07:19:17Z</time>
      </trkpt>
      <trkpt lat="38.18382" lon="13.10509">
        <ele>8.31</ele>
        <time>2018-04-22T07:19:37Z</time>
      </trkpt>
      <trkpt lat="38.18393" lon="13.10513">
        <ele>7.83</ele>
        <time>2018-04-22T07:19:59Z</time>
      </trkpt>
      <trkpt lat="38.18386" lon="13.1051">
        <ele>6.39</ele>
        <time>2018-04-22T07:20:22Z</time>
      </trkpt>
      <trkpt lat="38.18387" lon="13.10509">
        <ele>6.87</ele>
        <time>2018-04-22T07:20:58Z</time>
      </trkpt>
      <trkpt lat="38.18389" lon="13.10509">
        <ele>3.98</ele>
        <time>2018-04-22T07:21:29Z</time>
      </trkpt>
      <trkpt lat="38.1839" lon="13.1051">
        <ele>3.5</ele>
        <time>2018-04-22T07:22:01Z</time>
      </trkpt>
      <trkpt lat="38.18392" lon="13.10511">
        <ele>3.5</ele>
        <time>2018-04-22T07:22:24Z</time>
      </trkpt>
      <trkpt lat="38.184" lon="13.10516">
        <ele>3.98</ele>
        <time>2018-04-22T07:22:29Z</time>
      </trkpt>
      <trkpt lat="38.18445" lon="13.1056">
        <ele>4.46</ele>
        <time>2018-04-22T07:22:44Z</time>
      </trkpt>
      <trkpt lat="38.18484" lon="13.1068">
        <ele>4.94</ele>
        <time>2018-04-22T07:23:02Z</time>
      </trkpt>
      <trkpt lat="38.18504" lon="13.10754">
        <ele>4.94</ele>
        <time>2018-04-22T07:23:12Z</time>
      </trkpt>
      <trkpt lat="38.18476" lon="13.10862">
        <ele>5.42</ele>
        <time>2018-04-22T07:23:29Z</time>
      </trkpt>
      <trkpt lat="38.18463" lon="13.1091">
        <ele>5.42</ele>
        <time>2018-04-22T07:23:36Z</time>
      </trkpt>
      <trkpt lat="38.18414" lon="13.10942">
        <ele>6.39</ele>
        <time>2018-04-22T07:23:47Z</time>
      </trkpt>
      <trkpt lat="38.18393" lon="13.10917">
        <ele>6.87</ele>
        <time>2018-04-22T07:23:53Z</time>
      </trkpt>
      <trkpt lat="38.18362" lon="13.10832">
        <ele>7.35</ele>
        <time>2018-04-22T07:24:10Z</time>
      </trkpt>
      <trkpt lat="38.18324" lon="13.10707">
        <ele>6.39</ele>
        <time>2018-04-22T07:24:27Z</time>
      </trkpt>
      <trkpt lat="38.18247" lon="13.10473">
        <ele>6.87</ele>
        <time>2018-04-22T07:24:52Z</time>
      </trkpt>
      <trkpt lat="38.18155" lon="13.10199">
        <ele>5.91</ele>
        <time>2018-04-22T07:25:18Z</time>
      </trkpt>
      <trkpt lat="38.18058" lon="13.09912">
        <ele>4.94</ele>
        <time>2018-04-22T07:25:42Z</time>
      </trkpt>
      <trkpt lat="38.17973" lon="13.09661">
        <ele>3.98</ele>
        <time>2018-04-22T07:26:02Z</time>
      </trkpt>
      <trkpt lat="38.17873" lon="13.09363">
        <ele>2.54</ele>
        <time>2018-04-22T07:26:24Z</time>
      </trkpt>
      <trkpt lat="38.17796" lon="13.09114">
        <ele>3.02</ele>
        <time>2018-04-22T07:26:44Z</time>
      </trkpt>
      <trkpt lat="38.17729" lon="13.08934">
        <ele>3.5</ele>
        <time>2018-04-22T07:27:02Z</time>
      </trkpt>
      <trkpt lat="38.17481" lon="13.08746">
        <ele>3.98</ele>
        <time>2018-04-22T07:27:43Z</time>
      </trkpt>
      <trkpt lat="38.17458" lon="13.08773">
        <ele>3.98</ele>
        <time>2018-04-22T07:27:49Z</time>
      </trkpt>
      <trkpt lat="38.17438" lon="13.08861">
        <ele>2.54</ele>
        <time>2018-04-22T07:28:03Z</time>
      </trkpt>
      <trkpt lat="38.1743" lon="13.0891">
        <ele>2.54</ele>
        <time>2018-04-22T07:28:08Z</time>
      </trkpt>
      <trkpt lat="38.17548" lon="13.09062">
        <ele>-3.23</ele>
        <time>2018-04-22T07:28:12Z</time>
      </trkpt>
      <trkpt lat="38.17663" lon="13.09338">
        <ele>25.13</ele>
        <time>2018-04-22T07:28:17Z</time>
      </trkpt>
      <trkpt lat="38.17799" lon="13.09725">
        <ele>28.02</ele>
        <time>2018-04-22T07:28:25Z</time>
      </trkpt>
      <trkpt lat="38.179" lon="13.10023">
        <ele>24.17</ele>
        <time>2018-04-22T07:28:29Z</time>
      </trkpt>
      <trkpt lat="38.18047" lon="13.10495">
        <ele>24.17</ele>
        <time>2018-04-22T07:28:35Z</time>
      </trkpt>
      <trkpt lat="38.18223" lon="13.11079">
        <ele>24.65</ele>
        <time>2018-04-22T07:28:42Z</time>
      </trkpt>
      <trkpt lat="40.8584" lon="11.57565">
        <ele>11789.75</ele>
        <time>2018-04-22T07:55:58Z</time>
      </trkpt>
      <trkpt lat="40.90572" lon="11.53603">
        <ele>11788.79</ele>
        <time>2018-04-22T07:56:25Z</time>
      </trkpt>
      <trkpt lat="40.94246" lon="11.5052">
        <ele>11789.75</ele>
        <time>2018-04-22T07:56:46Z</time>
      </trkpt>
      <trkpt lat="40.97923" lon="11.47425">
        <ele>11792.15</ele>
        <time>2018-04-22T07:57:07Z</time>
      </trkpt>
      <trkpt lat="41.01256" lon="11.44617">
        <ele>11794.55</ele>
        <time>2018-04-22T07:57:26Z</time>
      </trkpt>
      <trkpt lat="41.04417" lon="11.41949">
        <ele>11796.48</ele>
        <time>2018-04-22T07:57:44Z</time>
      </trkpt>
      <trkpt lat="41.07232" lon="11.39573">
        <ele>11797.44</ele>
        <time>2018-04-22T07:58:00Z</time>
      </trkpt>
      <trkpt lat="41.10929" lon="11.36453">
        <ele>11800.8</ele>
        <time>2018-04-22T07:58:21Z</time>
      </trkpt>
      <trkpt lat="41.13924" lon="11.33919">
        <ele>11803.69</ele>
        <time>2018-04-22T07:58:38Z</time>
      </trkpt>
      <trkpt lat="41.16922" lon="11.31375">
        <ele>11806.09</ele>
        <time>2018-04-22T07:58:55Z</time>
      </trkpt>
      <trkpt lat="41.20277" lon="11.28527">
        <ele>11808.01</ele>
        <time>2018-04-22T07:59:14Z</time>
      </trkpt>
      <trkpt lat="41.23816" lon="11.25526">
        <ele>11809.93</ele>
        <time>2018-04-22T07:59:34Z</time>
      </trkpt>
      <trkpt lat="41.27002" lon="11.22818">
        <ele>11811.38</ele>
        <time>2018-04-22T07:59:52Z</time>
      </trkpt>
      <trkpt lat="41.30544" lon="11.19802">
        <ele>11812.34</ele>
        <time>2018-04-22T08:00:12Z</time>
      </trkpt>
      <trkpt lat="41.34437" lon="11.16484">
        <ele>11816.18</ele>
        <time>2018-04-22T08:00:34Z</time>
      </trkpt>
      <trkpt lat="41.37807" lon="11.13601">
        <ele>11817.62</ele>
        <time>2018-04-22T08:00:53Z</time>
      </trkpt>
      <trkpt lat="41.41179" lon="11.1073">
        <ele>11816.18</ele>
        <time>2018-04-22T08:01:12Z</time>
      </trkpt>
      <trkpt lat="41.44205" lon="11.08153">
        <ele>11814.74</ele>
        <time>2018-04-22T08:01:29Z</time>
      </trkpt>
      <trkpt lat="41.47043" lon="11.05729">
        <ele>11814.74</ele>
        <time>2018-04-22T08:01:45Z</time>
      </trkpt>
      <trkpt lat="41.49528" lon="11.03608">
        <ele>11814.26</ele>
        <time>2018-04-22T08:01:59Z</time>
      </trkpt>
      <trkpt lat="41.52552" lon="11.0102">
        <ele>11812.82</ele>
        <time>2018-04-22T08:02:16Z</time>
      </trkpt>
      <trkpt lat="41.55743" lon="10.98278">
        <ele>11811.86</ele>
        <time>2018-04-22T08:02:34Z</time>
      </trkpt>
      <trkpt lat="41.58757" lon="10.9568">
        <ele>11810.41</ele>
        <time>2018-04-22T08:02:51Z</time>
      </trkpt>
      <trkpt lat="41.61948" lon="10.92932">
        <ele>11810.89</ele>
        <time>2018-04-22T08:03:09Z</time>
      </trkpt>
      <trkpt lat="41.65847" lon="10.89565">
        <ele>11813.3</ele>
        <time>2018-04-22T08:03:31Z</time>
      </trkpt>
      <trkpt lat="41.68683" lon="10.87115">
        <ele>11815.22</ele>
        <time>2018-04-22T08:03:47Z</time>
      </trkpt>
      <trkpt lat="41.71867" lon="10.84356">
        <ele>11816.66</ele>
        <time>2018-04-22T08:04:05Z</time>
      </trkpt>
      <trkpt lat="41.74871" lon="10.8175">
        <ele>11817.62</ele>
        <time>2018-04-22T08:04:22Z</time>
      </trkpt>
      <trkpt lat="41.78407" lon="10.78682">
        <ele>11819.07</ele>
        <time>2018-04-22T08:04:42Z</time>
      </trkpt>
      <trkpt lat="41.79632" lon="10.77582">
        <ele>11819.55</ele>
        <time>2018-04-22T08:04:49Z</time>
      </trkpt>
      <trkpt lat="41.80648" lon="10.76564">
        <ele>11821.47</ele>
        <time>2018-04-22T08:04:55Z</time>
      </trkpt>
      <trkpt lat="41.81621" lon="10.75475">
        <ele>11824.83</ele>
        <time>2018-04-22T08:05:01Z</time>
      </trkpt>
      <trkpt lat="41.82549" lon="10.74336">
        <ele>11828.2</ele>
        <time>2018-04-22T08:05:07Z</time>
      </trkpt>
      <trkpt lat="41.83451" lon="10.73136">
        <ele>11832.04</ele>
        <time>2018-04-22T08:05:13Z</time>
      </trkpt>
      <trkpt lat="41.84315" lon="10.71887">
        <ele>11834.93</ele>
        <time>2018-04-22T08:05:19Z</time>
      </trkpt>
      <trkpt lat="41.85146" lon="10.70599">
        <ele>11837.81</ele>
        <time>2018-04-22T08:05:25Z</time>
      </trkpt>
      <trkpt lat="41.86077" lon="10.69052">
        <ele>11841.66</ele>
        <time>2018-04-22T08:05:32Z</time>
      </trkpt>
      <trkpt lat="41.87097" lon="10.67237">
        <ele>11846.46</ele>
        <time>2018-04-22T08:05:40Z</time>
      </trkpt>
      <trkpt lat="41.89265" lon="10.63379">
        <ele>11857.04</ele>
        <time>2018-04-22T08:05:57Z</time>
      </trkpt>
      <trkpt lat="41.92322" lon="10.57936">
        <ele>11864.25</ele>
        <time>2018-04-22T08:06:21Z</time>
      </trkpt>
      <trkpt lat="41.96013" lon="10.51366">
        <ele>11868.57</ele>
        <time>2018-04-22T08:06:50Z</time>
      </trkpt>
      <trkpt lat="41.98284" lon="10.47279">
        <ele>11870.98</ele>
        <time>2018-04-22T08:07:08Z</time>
      </trkpt>
      <trkpt lat="42.0068" lon="10.42966">
        <ele>11873.38</ele>
        <time>2018-04-22T08:07:27Z</time>
      </trkpt>
      <trkpt lat="42.03581" lon="10.3774">
        <ele>11876.75</ele>
        <time>2018-04-22T08:07:50Z</time>
      </trkpt>
      <trkpt lat="42.07224" lon="10.31142">
        <ele>11882.99</ele>
        <time>2018-04-22T08:08:19Z</time>
      </trkpt>
      <trkpt lat="42.09587" lon="10.26813">
        <ele>11883.47</ele>
        <time>2018-04-22T08:08:38Z</time>
      </trkpt>
      <trkpt lat="42.11716" lon="10.22944">
        <ele>11885.4</ele>
        <time>2018-04-22T08:08:55Z</time>
      </trkpt>
      <trkpt lat="42.1347" lon="10.19761">
        <ele>11888.28</ele>
        <time>2018-04-22T08:09:09Z</time>
      </trkpt>
      <trkpt lat="42.15217" lon="10.16573">
        <ele>11890.2</ele>
        <time>2018-04-22T08:09:23Z</time>
      </trkpt>
      <trkpt lat="42.17721" lon="10.12029">
        <ele>11890.68</ele>
        <time>2018-04-22T08:09:43Z</time>
      </trkpt>
      <trkpt lat="42.1972" lon="10.08394">
        <ele>11890.68</ele>
        <time>2018-04-22T08:09:59Z</time>
      </trkpt>
      <trkpt lat="42.21463" lon="10.05202">
        <ele>11887.32</ele>
        <time>2018-04-22T08:10:13Z</time>
      </trkpt>
      <trkpt lat="42.22956" lon="10.02473">
        <ele>11884.44</ele>
        <time>2018-04-22T08:10:25Z</time>
      </trkpt>
      <trkpt lat="42.24831" lon="9.99064">
        <ele>11882.51</ele>
        <time>2018-04-22T08:10:40Z</time>
      </trkpt>
      <trkpt lat="42.26578" lon="9.95888">
        <ele>11883.96</ele>
        <time>2018-04-22T08:10:54Z</time>
      </trkpt>
      <trkpt lat="42.30296" lon="9.89068">
        <ele>11890.68</ele>
        <time>2018-04-22T08:11:24Z</time>
      </trkpt>
      <trkpt lat="42.32156" lon="9.85655">
        <ele>11886.84</ele>
        <time>2018-04-22T08:11:39Z</time>
      </trkpt>
      <trkpt lat="42.34139" lon="9.8202">
        <ele>11884.44</ele>
        <time>2018-04-22T08:11:55Z</time>
      </trkpt>
      <trkpt lat="42.36114" lon="9.78382">
        <ele>11882.99</ele>
        <time>2018-04-22T08:12:11Z</time>
      </trkpt>
      <trkpt lat="42.3832" lon="9.74315">
        <ele>11885.88</ele>
        <time>2018-04-22T08:12:29Z</time>
      </trkpt>
      <trkpt lat="42.40288" lon="9.7068">
        <ele>11888.28</ele>
        <time>2018-04-22T08:12:45Z</time>
      </trkpt>
      <trkpt lat="42.42514" lon="9.66566">
        <ele>11879.15</ele>
        <time>2018-04-22T08:13:03Z</time>
      </trkpt>
      <trkpt lat="42.44106" lon="9.63606">
        <ele>11874.82</ele>
        <time>2018-04-22T08:13:16Z</time>
      </trkpt>
      <trkpt lat="42.4582" lon="9.60417">
        <ele>11870.98</ele>
        <time>2018-04-22T08:13:30Z</time>
      </trkpt>
      <trkpt lat="42.48517" lon="9.554">
        <ele>11866.65</ele>
        <time>2018-04-22T08:13:52Z</time>
      </trkpt>
      <trkpt lat="42.50973" lon="9.50859">
        <ele>11863.29</ele>
        <time>2018-04-22T08:14:12Z</time>
      </trkpt>
      <trkpt lat="42.52947" lon="9.4722">
        <ele>11861.36</ele>
        <time>2018-04-22T08:14:28Z</time>
      </trkpt>
      <trkpt lat="42.54657" lon="9.44029">
        <ele>11861.84</ele>
        <time>2018-04-22T08:14:42Z</time>
      </trkpt>
      <trkpt lat="42.5662" lon="9.40383">
        <ele>11865.21</ele>
        <time>2018-04-22T08:14:58Z</time>
      </trkpt>
      <trkpt lat="42.59077" lon="9.35817">
        <ele>11870.02</ele>
        <time>2018-04-22T08:15:18Z</time>
      </trkpt>
      <trkpt lat="42.61165" lon="9.31922">
        <ele>11871.46</ele>
        <time>2018-04-22T08:15:35Z</time>
      </trkpt>
      <trkpt lat="42.63501" lon="9.27565">
        <ele>11874.82</ele>
        <time>2018-04-22T08:15:54Z</time>
      </trkpt>
      <trkpt lat="42.65958" lon="9.22965">
        <ele>11882.03</ele>
        <time>2018-04-22T08:16:14Z</time>
      </trkpt>
      <trkpt lat="42.67802" lon="9.19512">
        <ele>11886.36</ele>
        <time>2018-04-22T08:16:29Z</time>
      </trkpt>
      <trkpt lat="42.69522" lon="9.16275">
        <ele>11889.24</ele>
        <time>2018-04-22T08:16:43Z</time>
      </trkpt>
      <trkpt lat="42.71126" lon="9.13269">
        <ele>11892.13</ele>
        <time>2018-04-22T08:16:56Z</time>
      </trkpt>
      <trkpt lat="42.72969" lon="9.09799">
        <ele>11891.17</ele>
        <time>2018-04-22T08:17:11Z</time>
      </trkpt>
      <trkpt lat="42.7482" lon="9.06322">
        <ele>11893.57</ele>
        <time>2018-04-22T08:17:26Z</time>
      </trkpt>
      <trkpt lat="42.76923" lon="9.02375">
        <ele>11894.53</ele>
        <time>2018-04-22T08:17:43Z</time>
      </trkpt>
      <trkpt lat="42.78889" lon="8.9865">
        <ele>11896.93</ele>
        <time>2018-04-22T08:17:59Z</time>
      </trkpt>
      <trkpt lat="42.80735" lon="8.95156">
        <ele>11892.61</ele>
        <time>2018-04-22T08:18:14Z</time>
      </trkpt>
      <trkpt lat="42.82956" lon="8.9096">
        <ele>11894.05</ele>
        <time>2018-04-22T08:18:32Z</time>
      </trkpt>
      <trkpt lat="42.84682" lon="8.87692">
        <ele>11896.45</ele>
        <time>2018-04-22T08:18:46Z</time>
      </trkpt>
      <trkpt lat="42.86402" lon="8.84423">
        <ele>11907.03</ele>
        <time>2018-04-22T08:19:00Z</time>
      </trkpt>
      <trkpt lat="42.88371" lon="8.80691">
        <ele>11914.72</ele>
        <time>2018-04-22T08:19:16Z</time>
      </trkpt>
      <trkpt lat="42.90098" lon="8.77439">
        <ele>11920</ele>
        <time>2018-04-22T08:19:30Z</time>
      </trkpt>
      <trkpt lat="42.92312" lon="8.73237">
        <ele>11922.41</ele>
        <time>2018-04-22T08:19:48Z</time>
      </trkpt>
      <trkpt lat="42.94651" lon="8.68772">
        <ele>11920</ele>
        <time>2018-04-22T08:20:07Z</time>
      </trkpt>
      <trkpt lat="42.96495" lon="8.6525">
        <ele>11921.93</ele>
        <time>2018-04-22T08:20:22Z</time>
      </trkpt>
      <trkpt lat="42.98579" lon="8.61252">
        <ele>11927.7</ele>
        <time>2018-04-22T08:20:39Z</time>
      </trkpt>
      <trkpt lat="43.01032" lon="8.56549">
        <ele>11936.35</ele>
        <time>2018-04-22T08:20:59Z</time>
      </trkpt>
      <trkpt lat="43.03602" lon="8.51614">
        <ele>11951.73</ele>
        <time>2018-04-22T08:21:20Z</time>
      </trkpt>
      <trkpt lat="43.0581" lon="8.47365">
        <ele>11950.29</ele>
        <time>2018-04-22T08:21:38Z</time>
      </trkpt>
      <trkpt lat="43.07899" lon="8.43366">
        <ele>11939.71</ele>
        <time>2018-04-22T08:21:55Z</time>
      </trkpt>
      <trkpt lat="43.10217" lon="8.3891">
        <ele>11935.87</ele>
        <time>2018-04-22T08:22:14Z</time>
      </trkpt>
      <trkpt lat="43.12162" lon="8.35154">
        <ele>11933.46</ele>
        <time>2018-04-22T08:22:30Z</time>
      </trkpt>
      <trkpt lat="43.1399" lon="8.31641">
        <ele>11925.77</ele>
        <time>2018-04-22T08:22:45Z</time>
      </trkpt>
      <trkpt lat="43.15806" lon="8.28133">
        <ele>11930.1</ele>
        <time>2018-04-22T08:23:00Z</time>
      </trkpt>
      <trkpt lat="43.17863" lon="8.2416">
        <ele>11928.18</ele>
        <time>2018-04-22T08:23:17Z</time>
      </trkpt>
      <trkpt lat="43.20037" lon="8.19954">
        <ele>11925.29</ele>
        <time>2018-04-22T08:23:35Z</time>
      </trkpt>
      <trkpt lat="43.21964" lon="8.16215">
        <ele>11912.31</ele>
        <time>2018-04-22T08:23:51Z</time>
      </trkpt>
      <trkpt lat="43.24009" lon="8.12251">
        <ele>11908.47</ele>
        <time>2018-04-22T08:24:08Z</time>
      </trkpt>
      <trkpt lat="43.25232" lon="8.09941">
        <ele>11912.79</ele>
        <time>2018-04-22T08:24:18Z</time>
      </trkpt>
      <trkpt lat="43.26009" lon="8.08597">
        <ele>11916.64</ele>
        <time>2018-04-22T08:24:24Z</time>
      </trkpt>
      <trkpt lat="43.26923" lon="8.074">
        <ele>11917.12</ele>
        <time>2018-04-22T08:24:30Z</time>
      </trkpt>
      <trkpt lat="43.27554" lon="8.06619">
        <ele>11916.64</ele>
        <time>2018-04-22T08:24:34Z</time>
      </trkpt>
      <trkpt lat="43.28501" lon="8.05477">
        <ele>11917.12</ele>
        <time>2018-04-22T08:24:40Z</time>
      </trkpt>
      <trkpt lat="43.29463" lon="8.04401">
        <ele>11917.6</ele>
        <time>2018-04-22T08:24:46Z</time>
      </trkpt>
      <trkpt lat="43.3046" lon="8.03397">
        <ele>11919.04</ele>
        <time>2018-04-22T08:24:52Z</time>
      </trkpt>
      <trkpt lat="43.31695" lon="8.02288">
        <ele>11920.97</ele>
        <time>2018-04-22T08:24:59Z</time>
      </trkpt>
      <trkpt lat="43.33805" lon="8.00396">
        <ele>11921.93</ele>
        <time>2018-04-22T08:25:11Z</time>
      </trkpt>
      <trkpt lat="43.36576" lon="7.97845">
        <ele>11924.81</ele>
        <time>2018-04-22T08:25:27Z</time>
      </trkpt>
      <trkpt lat="43.38635" lon="7.95932">
        <ele>11930.1</ele>
        <time>2018-04-22T08:25:39Z</time>
      </trkpt>
      <trkpt lat="43.41095" lon="7.93675">
        <ele>11926.25</ele>
        <time>2018-04-22T08:25:53Z</time>
      </trkpt>
      <trkpt lat="43.43361" lon="7.91581">
        <ele>11928.66</ele>
        <time>2018-04-22T08:26:06Z</time>
      </trkpt>
      <trkpt lat="43.45798" lon="7.89347">
        <ele>11936.83</ele>
        <time>2018-04-22T08:26:20Z</time>
      </trkpt>
      <trkpt lat="43.47744" lon="7.87594">
        <ele>11943.08</ele>
        <time>2018-04-22T08:26:31Z</time>
      </trkpt>
      <trkpt lat="43.49316" lon="7.86146">
        <ele>11947.4</ele>
        <time>2018-04-22T08:26:40Z</time>
      </trkpt>
      <trkpt lat="43.51586" lon="7.8406">
        <ele>11955.57</ele>
        <time>2018-04-22T08:26:53Z</time>
      </trkpt>
      <trkpt lat="43.53849" lon="7.81974">
        <ele>11961.82</ele>
        <time>2018-04-22T08:27:06Z</time>
      </trkpt>
      <trkpt lat="43.56103" lon="7.79888">
        <ele>11968.55</ele>
        <time>2018-04-22T08:27:19Z</time>
      </trkpt>
      <trkpt lat="43.58007" lon="7.78114">
        <ele>11962.3</ele>
        <time>2018-04-22T08:27:30Z</time>
      </trkpt>
      <trkpt lat="43.60458" lon="7.75863">
        <ele>11954.13</ele>
        <time>2018-04-22T08:27:44Z</time>
      </trkpt>
      <trkpt lat="43.63255" lon="7.73275">
        <ele>11954.13</ele>
        <time>2018-04-22T08:28:00Z</time>
      </trkpt>
      <trkpt lat="43.66047" lon="7.7071">
        <ele>11962.78</ele>
        <time>2018-04-22T08:28:16Z</time>
      </trkpt>
      <trkpt lat="43.68143" lon="7.68777">
        <ele>11967.59</ele>
        <time>2018-04-22T08:28:28Z</time>
      </trkpt>
      <trkpt lat="43.70593" lon="7.6651">
        <ele>11968.55</ele>
        <time>2018-04-22T08:28:42Z</time>
      </trkpt>
      <trkpt lat="43.73042" lon="7.64248">
        <ele>11973.84</ele>
        <time>2018-04-22T08:28:56Z</time>
      </trkpt>
      <trkpt lat="43.7568" lon="7.61814">
        <ele>11981.05</ele>
        <time>2018-04-22T08:29:11Z</time>
      </trkpt>
      <trkpt lat="43.77965" lon="7.59702">
        <ele>11984.89</ele>
        <time>2018-04-22T08:29:24Z</time>
      </trkpt>
      <trkpt lat="43.80403" lon="7.57417">
        <ele>11988.74</ele>
        <time>2018-04-22T08:29:38Z</time>
      </trkpt>
      <trkpt lat="43.82854" lon="7.55134">
        <ele>11994.51</ele>
        <time>2018-04-22T08:29:52Z</time>
      </trkpt>
      <trkpt lat="43.85647" lon="7.52537">
        <ele>12004.12</ele>
        <time>2018-04-22T08:30:08Z</time>
      </trkpt>
      <trkpt lat="43.88256" lon="7.50093">
        <ele>12014.21</ele>
        <time>2018-04-22T08:30:23Z</time>
      </trkpt>
      <trkpt lat="43.90878" lon="7.47628">
        <ele>12021.42</ele>
        <time>2018-04-22T08:30:38Z</time>
      </trkpt>
      <trkpt lat="43.93841" lon="7.44821">
        <ele>12029.59</ele>
        <time>2018-04-22T08:30:55Z</time>
      </trkpt>
      <trkpt lat="43.96448" lon="7.42352">
        <ele>12031.52</ele>
        <time>2018-04-22T08:31:10Z</time>
      </trkpt>
      <trkpt lat="43.99227" lon="7.39738">
        <ele>12037.77</ele>
        <time>2018-04-22T08:31:26Z</time>
      </trkpt>
      <trkpt lat="44.01517" lon="7.37608">
        <ele>12042.57</ele>
        <time>2018-04-22T08:31:39Z</time>
      </trkpt>
      <trkpt lat="44.04678" lon="7.34661">
        <ele>12053.63</ele>
        <time>2018-04-22T08:31:57Z</time>
      </trkpt>
      <trkpt lat="44.0754" lon="7.31967">
        <ele>12052.19</ele>
        <time>2018-04-22T08:32:13Z</time>
      </trkpt>
      <trkpt lat="44.10008" lon="7.29655">
        <ele>12057.47</ele>
        <time>2018-04-22T08:32:27Z</time>
      </trkpt>
      <trkpt lat="44.12114" lon="7.27678">
        <ele>12062.28</ele>
        <time>2018-04-22T08:32:39Z</time>
      </trkpt>
      <trkpt lat="44.14384" lon="7.2551">
        <ele>12056.51</ele>
        <time>2018-04-22T08:32:52Z</time>
      </trkpt>
      <trkpt lat="44.1738" lon="7.22634">
        <ele>12033.92</ele>
        <time>2018-04-22T08:33:09Z</time>
      </trkpt>
      <trkpt lat="44.20707" lon="7.19463">
        <ele>12019.98</ele>
        <time>2018-04-22T08:33:28Z</time>
      </trkpt>
      <trkpt lat="44.24025" lon="7.16317">
        <ele>12008.45</ele>
        <time>2018-04-22T08:33:47Z</time>
      </trkpt>
      <trkpt lat="44.27001" lon="7.135">
        <ele>12003.16</ele>
        <time>2018-04-22T08:34:04Z</time>
      </trkpt>
      <trkpt lat="44.31744" lon="7.08976">
        <ele>11981.05</ele>
        <time>2018-04-22T08:34:31Z</time>
      </trkpt>
      <trkpt lat="44.35959" lon="7.04952">
        <ele>11962.3</ele>
        <time>2018-04-22T08:34:55Z</time>
      </trkpt>
      <trkpt lat="44.40159" lon="7.00927">
        <ele>11957.01</ele>
        <time>2018-04-22T08:35:19Z</time>
      </trkpt>
      <trkpt lat="44.44182" lon="6.97077">
        <ele>11961.82</ele>
        <time>2018-04-22T08:35:42Z</time>
      </trkpt>
      <trkpt lat="44.47493" lon="6.93893">
        <ele>11966.15</ele>
        <time>2018-04-22T08:36:01Z</time>
      </trkpt>
      <trkpt lat="44.50471" lon="6.91064">
        <ele>11968.55</ele>
        <time>2018-04-22T08:36:18Z</time>
      </trkpt>
      <trkpt lat="44.53277" lon="6.88402">
        <ele>11977.2</ele>
        <time>2018-04-22T08:36:34Z</time>
      </trkpt>
      <trkpt lat="44.55725" lon="6.86078">
        <ele>11988.26</ele>
        <time>2018-04-22T08:36:48Z</time>
      </trkpt>
      <trkpt lat="44.58528" lon="6.83272">
        <ele>11945</ele>
        <time>2018-04-22T08:37:04Z</time>
      </trkpt>
      <trkpt lat="44.62207" lon="6.79669">
        <ele>11925.29</ele>
        <time>2018-04-22T08:37:25Z</time>
      </trkpt>
      <trkpt lat="44.66057" lon="6.75929">
        <ele>11917.12</ele>
        <time>2018-04-22T08:37:47Z</time>
      </trkpt>
      <trkpt lat="44.69562" lon="6.72532">
        <ele>11913.76</ele>
        <time>2018-04-22T08:38:07Z</time>
      </trkpt>
      <trkpt lat="44.74118" lon="6.68122">
        <ele>11909.43</ele>
        <time>2018-04-22T08:38:33Z</time>
      </trkpt>
      <trkpt lat="44.77987" lon="6.64353">
        <ele>11901.74</ele>
        <time>2018-04-22T08:38:55Z</time>
      </trkpt>
      <trkpt lat="44.80967" lon="6.61448">
        <ele>11900.78</ele>
        <time>2018-04-22T08:39:12Z</time>
      </trkpt>
      <trkpt lat="44.85175" lon="6.57351">
        <ele>11899.82</ele>
        <time>2018-04-22T08:39:36Z</time>
      </trkpt>
      <trkpt lat="44.89929" lon="6.52707">
        <ele>11894.53</ele>
        <time>2018-04-22T08:40:03Z</time>
      </trkpt>
      <trkpt lat="44.9311" lon="6.49588">
        <ele>11884.44</ele>
        <time>2018-04-22T08:40:21Z</time>
      </trkpt>
      <trkpt lat="44.97162" lon="6.45595">
        <ele>11870.02</ele>
        <time>2018-04-22T08:40:44Z</time>
      </trkpt>
      <trkpt lat="45.00676" lon="6.42131">
        <ele>11867.13</ele>
        <time>2018-04-22T08:41:04Z</time>
      </trkpt>
      <trkpt lat="45.03147" lon="6.39696">
        <ele>11870.02</ele>
        <time>2018-04-22T08:41:18Z</time>
      </trkpt>
      <trkpt lat="45.05776" lon="6.37111">
        <ele>11874.82</ele>
        <time>2018-04-22T08:41:33Z</time>
      </trkpt>
      <trkpt lat="45.08577" lon="6.34357">
        <ele>11883.96</ele>
        <time>2018-04-22T08:41:49Z</time>
      </trkpt>
      <trkpt lat="45.15817" lon="6.27212">
        <ele>11890.2</ele>
        <time>2018-04-22T08:42:30Z</time>
      </trkpt>
      <trkpt lat="45.18986" lon="6.24066">
        <ele>11891.65</ele>
        <time>2018-04-22T08:42:48Z</time>
      </trkpt>
      <trkpt lat="45.21446" lon="6.21622">
        <ele>11892.13</ele>
        <time>2018-04-22T08:43:02Z</time>
      </trkpt>
      <trkpt lat="45.25317" lon="6.17756">
        <ele>11904.62</ele>
        <time>2018-04-22T08:43:24Z</time>
      </trkpt>
      <trkpt lat="45.30948" lon="6.12138">
        <ele>11924.81</ele>
        <time>2018-04-22T08:43:56Z</time>
      </trkpt>
      <trkpt lat="45.36054" lon="6.07104">
        <ele>11906.55</ele>
        <time>2018-04-22T08:44:25Z</time>
      </trkpt>
      <trkpt lat="45.41017" lon="6.02154">
        <ele>11854.15</ele>
        <time>2018-04-22T08:44:53Z</time>
      </trkpt>
      <trkpt lat="45.45763" lon="5.97378">
        <ele>11845.5</ele>
        <time>2018-04-22T08:45:20Z</time>
      </trkpt>
      <trkpt lat="45.51566" lon="5.91539">
        <ele>11848.87</ele>
        <time>2018-04-22T08:45:53Z</time>
      </trkpt>
      <trkpt lat="45.55613" lon="5.87457">
        <ele>11850.31</ele>
        <time>2018-04-22T08:46:16Z</time>
      </trkpt>
      <trkpt lat="45.59486" lon="5.83545">
        <ele>11863.29</ele>
        <time>2018-04-22T08:46:38Z</time>
      </trkpt>
      <trkpt lat="45.63544" lon="5.79453">
        <ele>11870.02</ele>
        <time>2018-04-22T08:47:01Z</time>
      </trkpt>
      <trkpt lat="45.67411" lon="5.75533">
        <ele>11881.07</ele>
        <time>2018-04-22T08:47:23Z</time>
      </trkpt>
      <trkpt lat="45.70559" lon="5.72334">
        <ele>11886.84</ele>
        <time>2018-04-22T08:47:41Z</time>
      </trkpt>
      <trkpt lat="45.73526" lon="5.69325">
        <ele>11888.76</ele>
        <time>2018-04-22T08:47:58Z</time>
      </trkpt>
      <trkpt lat="45.76665" lon="5.66147">
        <ele>11891.65</ele>
        <time>2018-04-22T08:48:16Z</time>
      </trkpt>
      <trkpt lat="45.80856" lon="5.6189">
        <ele>11892.13</ele>
        <time>2018-04-22T08:48:40Z</time>
      </trkpt>
      <trkpt lat="45.84003" lon="5.58679">
        <ele>11895.97</ele>
        <time>2018-04-22T08:48:58Z</time>
      </trkpt>
      <trkpt lat="45.87495" lon="5.55116">
        <ele>11899.34</ele>
        <time>2018-04-22T08:49:18Z</time>
      </trkpt>
      <trkpt lat="45.9099" lon="5.51538">
        <ele>11902.7</ele>
        <time>2018-04-22T08:49:38Z</time>
      </trkpt>
      <trkpt lat="45.94839" lon="5.47596">
        <ele>11914.24</ele>
        <time>2018-04-22T08:50:00Z</time>
      </trkpt>
      <trkpt lat="45.98145" lon="5.44198">
        <ele>11926.25</ele>
        <time>2018-04-22T08:50:19Z</time>
      </trkpt>
      <trkpt lat="46.01095" lon="5.41171">
        <ele>11930.1</ele>
        <time>2018-04-22T08:50:36Z</time>
      </trkpt>
      <trkpt lat="46.04057" lon="5.38116">
        <ele>11930.58</ele>
        <time>2018-04-22T08:50:53Z</time>
      </trkpt>
      <trkpt lat="46.06676" lon="5.35418">
        <ele>11932.02</ele>
        <time>2018-04-22T08:51:08Z</time>
      </trkpt>
      <trkpt lat="46.09455" lon="5.32545">
        <ele>11930.1</ele>
        <time>2018-04-22T08:51:24Z</time>
      </trkpt>
      <trkpt lat="46.1206" lon="5.29837">
        <ele>11928.66</ele>
        <time>2018-04-22T08:51:39Z</time>
      </trkpt>
      <trkpt lat="46.15865" lon="5.25898">
        <ele>11940.19</ele>
        <time>2018-04-22T08:52:01Z</time>
      </trkpt>
      <trkpt lat="46.2035" lon="5.21274">
        <ele>11959.42</ele>
        <time>2018-04-22T08:52:27Z</time>
      </trkpt>
      <trkpt lat="46.2413" lon="5.1736">
        <ele>11953.17</ele>
        <time>2018-04-22T08:52:49Z</time>
      </trkpt>
      <trkpt lat="46.27579" lon="5.13792">
        <ele>11947.4</ele>
        <time>2018-04-22T08:53:09Z</time>
      </trkpt>
      <trkpt lat="46.31539" lon="5.09677">
        <ele>11927.7</ele>
        <time>2018-04-22T08:53:32Z</time>
      </trkpt>
      <trkpt lat="46.3429" lon="5.06813">
        <ele>11917.12</ele>
        <time>2018-04-22T08:53:48Z</time>
      </trkpt>
      <trkpt lat="46.3721" lon="5.03762">
        <ele>11904.14</ele>
        <time>2018-04-22T08:54:05Z</time>
      </trkpt>
      <trkpt lat="46.39948" lon="5.00897">
        <ele>11893.09</ele>
        <time>2018-04-22T08:54:21Z</time>
      </trkpt>
      <trkpt lat="46.43716" lon="4.96964">
        <ele>11889.24</ele>
        <time>2018-04-22T08:54:43Z</time>
      </trkpt>
      <trkpt lat="46.47649" lon="4.92824">
        <ele>11885.88</ele>
        <time>2018-04-22T08:55:06Z</time>
      </trkpt>
      <trkpt lat="46.51405" lon="4.88893">
        <ele>11897.41</ele>
        <time>2018-04-22T08:55:28Z</time>
      </trkpt>
      <trkpt lat="46.54297" lon="4.85838">
        <ele>11899.82</ele>
        <time>2018-04-22T08:55:45Z</time>
      </trkpt>
      <trkpt lat="46.57189" lon="4.82765">
        <ele>11896.93</ele>
        <time>2018-04-22T08:56:02Z</time>
      </trkpt>
      <trkpt lat="46.60937" lon="4.78812">
        <ele>11886.84</ele>
        <time>2018-04-22T08:56:24Z</time>
      </trkpt>
      <trkpt lat="46.64344" lon="4.75235">
        <ele>11888.28</ele>
        <time>2018-04-22T08:56:44Z</time>
      </trkpt>
      <trkpt lat="46.67745" lon="4.71673">
        <ele>11898.38</ele>
        <time>2018-04-22T08:57:04Z</time>
      </trkpt>
      <trkpt lat="46.70297" lon="4.69012">
        <ele>11906.07</ele>
        <time>2018-04-22T08:57:19Z</time>
      </trkpt>
      <trkpt lat="46.72321" lon="4.66817">
        <ele>11906.07</ele>
        <time>2018-04-22T08:57:31Z</time>
      </trkpt>
      <trkpt lat="46.73358" lon="4.65749">
        <ele>11905.1</ele>
        <time>2018-04-22T08:57:37Z</time>
      </trkpt>
      <trkpt lat="46.74425" lon="4.64761">
        <ele>11905.1</ele>
        <time>2018-04-22T08:57:43Z</time>
      </trkpt>
      <trkpt lat="46.75518" lon="4.6383">
        <ele>11905.1</ele>
        <time>2018-04-22T08:57:49Z</time>
      </trkpt>
      <trkpt lat="46.76821" lon="4.62824">
        <ele>11900.3</ele>
        <time>2018-04-22T08:57:56Z</time>
      </trkpt>
      <trkpt lat="46.78155" lon="4.61887">
        <ele>11883.96</ele>
        <time>2018-04-22T08:58:03Z</time>
      </trkpt>
      <trkpt lat="46.79534" lon="4.60989">
        <ele>11869.05</ele>
        <time>2018-04-22T08:58:10Z</time>
      </trkpt>
      <trkpt lat="46.83065" lon="4.58685">
        <ele>11842.14</ele>
        <time>2018-04-22T08:58:28Z</time>
      </trkpt>
      <trkpt lat="46.88911" lon="4.54861">
        <ele>11836.85</ele>
        <time>2018-04-22T08:58:58Z</time>
      </trkpt>
      <trkpt lat="46.93781" lon="4.51672">
        <ele>11829.16</ele>
        <time>2018-04-22T08:59:23Z</time>
      </trkpt>
      <trkpt lat="46.94923" lon="4.50845">
        <ele>11825.79</ele>
        <time>2018-04-22T08:59:29Z</time>
      </trkpt>
      <trkpt lat="46.96024" lon="4.49969">
        <ele>11824.83</ele>
        <time>2018-04-22T08:59:35Z</time>
      </trkpt>
      <trkpt lat="46.97101" lon="4.49044">
        <ele>11825.31</ele>
        <time>2018-04-22T08:59:41Z</time>
      </trkpt>
      <trkpt lat="46.98141" lon="4.48036">
        <ele>11823.87</ele>
        <time>2018-04-22T08:59:47Z</time>
      </trkpt>
      <trkpt lat="46.99518" lon="4.46609">
        <ele>11825.79</ele>
        <time>2018-04-22T08:59:55Z</time>
      </trkpt>
      <trkpt lat="47.01921" lon="4.441">
        <ele>11826.28</ele>
        <time>2018-04-22T09:00:09Z</time>
      </trkpt>
      <trkpt lat="47.04654" lon="4.4128">
        <ele>11820.03</ele>
        <time>2018-04-22T09:00:25Z</time>
      </trkpt>
      <trkpt lat="47.06862" lon="4.39029">
        <ele>11807.05</ele>
        <time>2018-04-22T09:00:38Z</time>
      </trkpt>
      <trkpt lat="47.10438" lon="4.35382">
        <ele>11749.37</ele>
        <time>2018-04-22T09:00:59Z</time>
      </trkpt>
      <trkpt lat="47.14017" lon="4.31744">
        <ele>11659.49</ele>
        <time>2018-04-22T09:01:20Z</time>
      </trkpt>
      <trkpt lat="47.16907" lon="4.28828">
        <ele>11577.78</ele>
        <time>2018-04-22T09:01:37Z</time>
      </trkpt>
      <trkpt lat="47.18749" lon="4.2695">
        <ele>11519.13</ele>
        <time>2018-04-22T09:01:48Z</time>
      </trkpt>
      <trkpt lat="47.20591" lon="4.25068">
        <ele>11464.34</ele>
        <time>2018-04-22T09:01:59Z</time>
      </trkpt>
      <trkpt lat="47.21904" lon="4.23727">
        <ele>11421.56</ele>
        <time>2018-04-22T09:02:07Z</time>
      </trkpt>
      <trkpt lat="47.23702" lon="4.2189">
        <ele>11356.19</ele>
        <time>2018-04-22T09:02:18Z</time>
      </trkpt>
      <trkpt lat="47.25687" lon="4.19839">
        <ele>11272.08</ele>
        <time>2018-04-22T09:02:30Z</time>
      </trkpt>
      <trkpt lat="47.27724" lon="4.17709">
        <ele>11190.84</ele>
        <time>2018-04-22T09:02:42Z</time>
      </trkpt>
      <trkpt lat="47.30309" lon="4.15019">
        <ele>11104.81</ele>
        <time>2018-04-22T09:02:57Z</time>
      </trkpt>
      <trkpt lat="47.31824" lon="4.13447">
        <ele>11054.82</ele>
        <time>2018-04-22T09:03:06Z</time>
      </trkpt>
      <trkpt lat="47.33646" lon="4.11555">
        <ele>10976.95</ele>
        <time>2018-04-22T09:03:17Z</time>
      </trkpt>
      <trkpt lat="47.35186" lon="4.0993">
        <ele>10941.38</ele>
        <time>2018-04-22T09:03:26Z</time>
      </trkpt>
      <trkpt lat="47.37073" lon="4.07958">
        <ele>10889.95</ele>
        <time>2018-04-22T09:03:37Z</time>
      </trkpt>
      <trkpt lat="47.38746" lon="4.06206">
        <ele>10849.58</ele>
        <time>2018-04-22T09:03:47Z</time>
      </trkpt>
      <trkpt lat="47.40719" lon="4.04178">
        <ele>10797.67</ele>
        <time>2018-04-22T09:03:59Z</time>
      </trkpt>
      <trkpt lat="47.42982" lon="4.01866">
        <ele>10741.43</ele>
        <time>2018-04-22T09:04:13Z</time>
      </trkpt>
      <trkpt lat="47.44122" lon="4.00689">
        <ele>10711.15</ele>
        <time>2018-04-22T09:04:20Z</time>
      </trkpt>
      <trkpt lat="47.46243" lon="3.98487">
        <ele>10638.09</ele>
        <time>2018-04-22T09:04:33Z</time>
      </trkpt>
      <trkpt lat="47.485" lon="3.96108">
        <ele>10587.62</ele>
        <time>2018-04-22T09:04:47Z</time>
      </trkpt>
      <trkpt lat="47.50265" lon="3.94184">
        <ele>10593.39</ele>
        <time>2018-04-22T09:04:58Z</time>
      </trkpt>
      <trkpt lat="47.51375" lon="3.92988">
        <ele>10593.87</ele>
        <time>2018-04-22T09:05:05Z</time>
      </trkpt>
    </trkseg>
  </trk>
</gpx>